<?xml version='1.0' encoding='UTF-8'?><gpx version="1.1" creator="JPX - https://github.com/jenetics/jpx" xmlns="http://www.topografix.com/GPX/1/1"><trk><trkseg><trkpt lat="44.950202" lon="8.02673"><ele>242.2</ele><time>2026-03-29T13:45:21.999Z</time></trkpt><trkpt lat="44.9502434" lon="8.0266427"><ele>240.39999999999998</ele><time>2026-03-29T13:46:00.999Z</time></trkpt><trkpt lat="44.950268" lon="8.026542"><ele>238.6</ele><time>2026-03-29T13:46:01.999Z</time></trkpt><trkpt lat="44.9503142" lon="8.0264109"><ele>236.8</ele><time>2026-03-29T13:46:02.999Z</time></trkpt><trkpt lat="44.950357" lon="8.0262807"><ele>235.0</ele><time>2026-03-29T13:46:03.999Z</time></trkpt><trkpt lat="44.9503893" lon="8.026141"><ele>235.0</ele><time>2026-03-29T13:46:04.999Z</time></trkpt><trkpt lat="44.9504153" lon="8.025994"><ele>235.0</ele><time>2026-03-29T13:46:05.999Z</time></trkpt><trkpt lat="44.9504263" lon="8.0258439"><ele>235.0</ele><time>2026-03-29T13:46:06.999Z</time></trkpt><trkpt lat="44.9504194" lon="8.0256809"><ele>235.0</ele><time>2026-03-29T13:46:07.999Z</time></trkpt><trkpt lat="44.950404" lon="8.0255077"><ele>234.0</ele><time>2026-03-29T13:46:08.999Z</time></trkpt><trkpt lat="44.9503953" lon="8.0253422"><ele>233.0</ele><time>2026-03-29T13:46:09.999Z</time></trkpt><trkpt lat="44.9503859" lon="8.0251795"><ele>232.0</ele><time>2026-03-29T13:46:10.999Z</time></trkpt><trkpt lat="44.9503762" lon="8.0250231"><ele>231.0</ele><time>2026-03-29T13:46:11.999Z</time></trkpt><trkpt lat="44.9503641" lon="8.0248804"><ele>230.0</ele><time>2026-03-29T13:46:12.999Z</time></trkpt><trkpt lat="44.9503614" lon="8.0247189"><ele>229.0</ele><time>2026-03-29T13:46:13.999Z</time></trkpt><trkpt lat="44.9503492" lon="8.0245505"><ele>228.0</ele><time>2026-03-29T13:46:14.999Z</time></trkpt><trkpt lat="44.9503429" lon="8.0243916"><ele>227.0</ele><time>2026-03-29T13:46:15.999Z</time></trkpt><trkpt lat="44.9503329" lon="8.0242535"><ele>226.0</ele><time>2026-03-29T13:46:16.999Z</time></trkpt><trkpt lat="44.9503333" lon="8.0241227"><ele>225.0</ele><time>2026-03-29T13:46:17.999Z</time></trkpt><trkpt lat="44.9503288" lon="8.0239739"><ele>225.0</ele><time>2026-03-29T13:46:19.999Z</time></trkpt><trkpt lat="44.9502682" lon="8.0239279"><ele>225.0</ele><time>2026-03-29T13:46:21.999Z</time></trkpt><trkpt lat="44.9501813" lon="8.0240438"><ele>225.0</ele><time>2026-03-29T13:46:23.999Z</time></trkpt><trkpt lat="44.9501408" lon="8.0241447"><ele>225.0</ele><time>2026-03-29T13:46:24.999Z</time></trkpt><trkpt lat="44.9500982" lon="8.0242477"><ele>225.0</ele><time>2026-03-29T13:46:26Z</time></trkpt><trkpt lat="44.9500396" lon="8.0243352"><ele>225.0</ele><time>2026-03-29T13:46:26.999Z</time></trkpt><trkpt lat="44.949957" lon="8.0243751"><ele>221.6</ele><time>2026-03-29T13:46:27.999Z</time></trkpt><trkpt lat="44.9498696" lon="8.0243627"><ele>218.2</ele><time>2026-03-29T13:46:28.999Z</time></trkpt><trkpt lat="44.9498006" lon="8.0242801"><ele>214.8</ele><time>2026-03-29T13:46:29.999Z</time></trkpt><trkpt lat="44.9497708" lon="8.0241609"><ele>211.4</ele><time>2026-03-29T13:46:30.999Z</time></trkpt><trkpt lat="44.9497848" lon="8.0240285"><ele>208.0</ele><time>2026-03-29T13:46:31.999Z</time></trkpt><trkpt lat="44.9498475" lon="8.0238984"><ele>206.25</ele><time>2026-03-29T13:46:32.999Z</time></trkpt><trkpt lat="44.9499195" lon="8.0237565"><ele>204.5</ele><time>2026-03-29T13:46:33.999Z</time></trkpt><trkpt lat="44.9499795" lon="8.0235782"><ele>202.75</ele><time>2026-03-29T13:46:34.999Z</time></trkpt><trkpt lat="44.9500133" lon="8.0233697"><ele>201.0</ele><time>2026-03-29T13:46:35.999Z</time></trkpt><trkpt lat="44.9500311" lon="8.0231573"><ele>204.33333333333331</ele><time>2026-03-29T13:46:36.999Z</time></trkpt><trkpt lat="44.9500452" lon="8.0229381"><ele>207.66666666666666</ele><time>2026-03-29T13:46:37.999Z</time></trkpt><trkpt lat="44.9500596" lon="8.0227172"><ele>211.0</ele><time>2026-03-29T13:46:38.999Z</time></trkpt><trkpt lat="44.9500678" lon="8.0224847"><ele>208.33333333333331</ele><time>2026-03-29T13:46:39.999Z</time></trkpt><trkpt lat="44.9500636" lon="8.0222404"><ele>205.66666666666669</ele><time>2026-03-29T13:46:40.999Z</time></trkpt><trkpt lat="44.9500527" lon="8.0219909"><ele>203.0</ele><time>2026-03-29T13:46:41.999Z</time></trkpt><trkpt lat="44.950041" lon="8.0217618"><ele>196.0</ele><time>2026-03-29T13:46:42.999Z</time></trkpt><trkpt lat="44.950026" lon="8.021543"><ele>189.0</ele><time>2026-03-29T13:46:43.999Z</time></trkpt><trkpt lat="44.9500174" lon="8.0213217"><ele>182.0</ele><time>2026-03-29T13:46:44.999Z</time></trkpt><trkpt lat="44.9500141" lon="8.0211131"><ele>182.0</ele><time>2026-03-29T13:46:45.999Z</time></trkpt><trkpt lat="44.9500097" lon="8.0209129"><ele>182.0</ele><time>2026-03-29T13:46:46.999Z</time></trkpt><trkpt lat="44.9500034" lon="8.0207299"><ele>182.0</ele><time>2026-03-29T13:46:47.999Z</time></trkpt><trkpt lat="44.9499932" lon="8.0205676"><ele>182.0</ele><time>2026-03-29T13:46:48.999Z</time></trkpt><trkpt lat="44.9499966" lon="8.020431"><ele>181.66666666666666</ele><time>2026-03-29T13:46:49.999Z</time></trkpt><trkpt lat="44.9499968" lon="8.0203183"><ele>181.33333333333331</ele><time>2026-03-29T13:46:50.999Z</time></trkpt><trkpt lat="44.9499948" lon="8.0202099"><ele>181.0</ele><time>2026-03-29T13:46:51.999Z</time></trkpt><trkpt lat="44.9500153" lon="8.0200535"><ele>180.66666666666666</ele><time>2026-03-29T13:46:53.999Z</time></trkpt><trkpt lat="44.9500752" lon="8.0199921"><ele>180.33333333333334</ele><time>2026-03-29T13:46:56.999Z</time></trkpt><trkpt lat="44.9501489" lon="8.0199712"><ele>180.0</ele><time>2026-03-29T13:46:58.999Z</time></trkpt><trkpt lat="44.950216" lon="8.0199645"><ele>179.0</ele><time>2026-03-29T13:46:59.999Z</time></trkpt><trkpt lat="44.9502978" lon="8.0199646"><ele>178.0</ele><time>2026-03-29T13:47:00.999Z</time></trkpt><trkpt lat="44.9503867" lon="8.0199696"><ele>177.0</ele><time>2026-03-29T13:47:01.999Z</time></trkpt><trkpt lat="44.9504863" lon="8.0199715"><ele>176.0</ele><time>2026-03-29T13:47:02.999Z</time></trkpt><trkpt lat="44.9505857" lon="8.0199781"><ele>175.0</ele><time>2026-03-29T13:47:03.999Z</time></trkpt><trkpt lat="44.9506847" lon="8.0199786"><ele>175.0</ele><time>2026-03-29T13:47:04.999Z</time></trkpt><trkpt lat="44.950787" lon="8.0199729"><ele>175.0</ele><time>2026-03-29T13:47:05.999Z</time></trkpt><trkpt lat="44.9508959" lon="8.0199614"><ele>175.0</ele><time>2026-03-29T13:47:06.999Z</time></trkpt><trkpt lat="44.9510106" lon="8.0199493"><ele>175.0</ele><time>2026-03-29T13:47:07.999Z</time></trkpt><trkpt lat="44.9511284" lon="8.0199216"><ele>175.0</ele><time>2026-03-29T13:47:08.999Z</time></trkpt><trkpt lat="44.9512426" lon="8.0198909"><ele>176.0</ele><time>2026-03-29T13:47:09.999Z</time></trkpt><trkpt lat="44.9513591" lon="8.0198543"><ele>177.0</ele><time>2026-03-29T13:47:10.999Z</time></trkpt><trkpt lat="44.9514885" lon="8.0198062"><ele>178.0</ele><time>2026-03-29T13:47:11.999Z</time></trkpt><trkpt lat="44.9516171" lon="8.0197401"><ele>179.0</ele><time>2026-03-29T13:47:12.999Z</time></trkpt><trkpt lat="44.9517472" lon="8.0196581"><ele>179.25</ele><time>2026-03-29T13:47:13.999Z</time></trkpt><trkpt lat="44.9518781" lon="8.0195719"><ele>179.5</ele><time>2026-03-29T13:47:14.999Z</time></trkpt><trkpt lat="44.9520111" lon="8.0194931"><ele>179.75</ele><time>2026-03-29T13:47:15.999Z</time></trkpt><trkpt lat="44.9521339" lon="8.0194184"><ele>180.0</ele><time>2026-03-29T13:47:16.999Z</time></trkpt><trkpt lat="44.9522561" lon="8.0193434"><ele>180.0</ele><time>2026-03-29T13:47:17.999Z</time></trkpt><trkpt lat="44.9523693" lon="8.0192651"><ele>180.0</ele><time>2026-03-29T13:47:18.999Z</time></trkpt><trkpt lat="44.9524945" lon="8.0191834"><ele>180.0</ele><time>2026-03-29T13:47:19.999Z</time></trkpt><trkpt lat="44.9526287" lon="8.0190988"><ele>180.0</ele><time>2026-03-29T13:47:20.999Z</time></trkpt><trkpt lat="44.9527644" lon="8.0190134"><ele>178.33333333333334</ele><time>2026-03-29T13:47:21.999Z</time></trkpt><trkpt lat="44.9529048" lon="8.0189231"><ele>176.66666666666669</ele><time>2026-03-29T13:47:22.999Z</time></trkpt><trkpt lat="44.9530588" lon="8.0188255"><ele>175.0</ele><time>2026-03-29T13:47:23.999Z</time></trkpt><trkpt lat="44.9532145" lon="8.018727"><ele>176.66666666666669</ele><time>2026-03-29T13:47:24.999Z</time></trkpt><trkpt lat="44.9533805" lon="8.0186236"><ele>178.33333333333334</ele><time>2026-03-29T13:47:25.999Z</time></trkpt><trkpt lat="44.9535512" lon="8.0185131"><ele>180.0</ele><time>2026-03-29T13:47:26.999Z</time></trkpt><trkpt lat="44.9537249" lon="8.0184097"><ele>179.0</ele><time>2026-03-29T13:47:27.999Z</time></trkpt><trkpt lat="44.9538998" lon="8.0182958"><ele>178.0</ele><time>2026-03-29T13:47:28.999Z</time></trkpt><trkpt lat="44.9540815" lon="8.0181756"><ele>177.0</ele><time>2026-03-29T13:47:29.999Z</time></trkpt><trkpt lat="44.954262" lon="8.0180505"><ele>177.0</ele><time>2026-03-29T13:47:30.999Z</time></trkpt><trkpt lat="44.954444" lon="8.0179415"><ele>177.0</ele><time>2026-03-29T13:47:31.999Z</time></trkpt><trkpt lat="44.9546267" lon="8.0178356"><ele>177.0</ele><time>2026-03-29T13:47:32.999Z</time></trkpt><trkpt lat="44.9548111" lon="8.0177228"><ele>177.0</ele><time>2026-03-29T13:47:33.999Z</time></trkpt><trkpt lat="44.9549977" lon="8.0176059"><ele>177.0</ele><time>2026-03-29T13:47:34.999Z</time></trkpt><trkpt lat="44.9551875" lon="8.0174893"><ele>177.0</ele><time>2026-03-29T13:47:35.999Z</time></trkpt><trkpt lat="44.9553896" lon="8.0173939"><ele>177.0</ele><time>2026-03-29T13:47:36.999Z</time></trkpt><trkpt lat="44.9556118" lon="8.0173258"><ele>177.0</ele><time>2026-03-29T13:47:37.999Z</time></trkpt><trkpt lat="44.9558348" lon="8.0173151"><ele>177.0</ele><time>2026-03-29T13:47:38.999Z</time></trkpt><trkpt lat="44.9560558" lon="8.0173545"><ele>177.0</ele><time>2026-03-29T13:47:39.999Z</time></trkpt><trkpt lat="44.9562775" lon="8.0174184"><ele>177.0</ele><time>2026-03-29T13:47:40.999Z</time></trkpt><trkpt lat="44.9565007" lon="8.0175094"><ele>177.5</ele><time>2026-03-29T13:47:41.999Z</time></trkpt><trkpt lat="44.9567213" lon="8.0175972"><ele>178.0</ele><time>2026-03-29T13:47:42.999Z</time></trkpt><trkpt lat="44.9569439" lon="8.0176823"><ele>178.0</ele><time>2026-03-29T13:47:43.999Z</time></trkpt><trkpt lat="44.95716" lon="8.0177618"><ele>178.0</ele><time>2026-03-29T13:47:44.999Z</time></trkpt><trkpt lat="44.9573704" lon="8.0178433"><ele>178.0</ele><time>2026-03-29T13:47:45.999Z</time></trkpt><trkpt lat="44.9575732" lon="8.0179241"><ele>178.33333333333334</ele><time>2026-03-29T13:47:46.999Z</time></trkpt><trkpt lat="44.9577681" lon="8.01801"><ele>178.66666666666666</ele><time>2026-03-29T13:47:47.999Z</time></trkpt><trkpt lat="44.9579563" lon="8.0180721"><ele>179.0</ele><time>2026-03-29T13:47:48.999Z</time></trkpt><trkpt lat="44.9581424" lon="8.018103"><ele>179.0</ele><time>2026-03-29T13:47:49.999Z</time></trkpt><trkpt lat="44.9583319" lon="8.0180859"><ele>179.0</ele><time>2026-03-29T13:47:50.999Z</time></trkpt><trkpt lat="44.9585164" lon="8.0180334"><ele>179.0</ele><time>2026-03-29T13:47:51.999Z</time></trkpt><trkpt lat="44.9586941" lon="8.0179121"><ele>179.33333333333331</ele><time>2026-03-29T13:47:52.999Z</time></trkpt><trkpt lat="44.9588758" lon="8.0177942"><ele>179.66666666666666</ele><time>2026-03-29T13:47:53.999Z</time></trkpt><trkpt lat="44.959058" lon="8.0176667"><ele>180.0</ele><time>2026-03-29T13:47:54.999Z</time></trkpt><trkpt lat="44.9592435" lon="8.017539"><ele>180.66666666666666</ele><time>2026-03-29T13:47:55.999Z</time></trkpt><trkpt lat="44.9594365" lon="8.0174046"><ele>181.33333333333331</ele><time>2026-03-29T13:47:56.999Z</time></trkpt><trkpt lat="44.959632" lon="8.0172747"><ele>182.0</ele><time>2026-03-29T13:47:57.999Z</time></trkpt><trkpt lat="44.9598303" lon="8.0171406"><ele>182.0</ele><time>2026-03-29T13:47:58.999Z</time></trkpt><trkpt lat="44.9600182" lon="8.0170196"><ele>182.0</ele><time>2026-03-29T13:47:59.999Z</time></trkpt><trkpt lat="44.960202" lon="8.0168997"><ele>182.0</ele><time>2026-03-29T13:48:00.999Z</time></trkpt><trkpt lat="44.9603894" lon="8.0167794"><ele>181.66666666666666</ele><time>2026-03-29T13:48:01.999Z</time></trkpt><trkpt lat="44.9605796" lon="8.0166708"><ele>181.33333333333334</ele><time>2026-03-29T13:48:02.999Z</time></trkpt><trkpt lat="44.9607727" lon="8.0165686"><ele>181.0</ele><time>2026-03-29T13:48:03.999Z</time></trkpt><trkpt lat="44.9609649" lon="8.0164681"><ele>180.0</ele><time>2026-03-29T13:48:04.999Z</time></trkpt><trkpt lat="44.9611623" lon="8.0163647"><ele>179.0</ele><time>2026-03-29T13:48:05.999Z</time></trkpt><trkpt lat="44.9613551" lon="8.0162624"><ele>178.0</ele><time>2026-03-29T13:48:06.999Z</time></trkpt><trkpt lat="44.9615561" lon="8.0161485"><ele>179.0</ele><time>2026-03-29T13:48:07.999Z</time></trkpt><trkpt lat="44.9617583" lon="8.0160375"><ele>180.0</ele><time>2026-03-29T13:48:08.999Z</time></trkpt><trkpt lat="44.961968" lon="8.0159388"><ele>181.0</ele><time>2026-03-29T13:48:09.999Z</time></trkpt><trkpt lat="44.9621786" lon="8.0158303"><ele>181.33333333333334</ele><time>2026-03-29T13:48:10.999Z</time></trkpt><trkpt lat="44.962391" lon="8.0157294"><ele>181.66666666666666</ele><time>2026-03-29T13:48:11.999Z</time></trkpt><trkpt lat="44.9626013" lon="8.0156183"><ele>182.0</ele><time>2026-03-29T13:48:12.999Z</time></trkpt><trkpt lat="44.9628166" lon="8.0155106"><ele>182.33333333333331</ele><time>2026-03-29T13:48:13.999Z</time></trkpt><trkpt lat="44.9630249" lon="8.015397"><ele>182.66666666666666</ele><time>2026-03-29T13:48:14.999Z</time></trkpt><trkpt lat="44.9632336" lon="8.0152863"><ele>183.0</ele><time>2026-03-29T13:48:15.999Z</time></trkpt><trkpt lat="44.9634432" lon="8.0151735"><ele>183.0</ele><time>2026-03-29T13:48:16.999Z</time></trkpt><trkpt lat="44.9636432" lon="8.0150541"><ele>183.0</ele><time>2026-03-29T13:48:17.999Z</time></trkpt><trkpt lat="44.963842" lon="8.014916"><ele>183.0</ele><time>2026-03-29T13:48:18.999Z</time></trkpt><trkpt lat="44.9640349" lon="8.0147618"><ele>183.33333333333334</ele><time>2026-03-29T13:48:19.999Z</time></trkpt><trkpt lat="44.9642275" lon="8.0145985"><ele>183.66666666666669</ele><time>2026-03-29T13:48:20.999Z</time></trkpt><trkpt lat="44.9644179" lon="8.0144311"><ele>184.0</ele><time>2026-03-29T13:48:21.999Z</time></trkpt><trkpt lat="44.9646032" lon="8.014264"><ele>183.33333333333334</ele><time>2026-03-29T13:48:22.999Z</time></trkpt><trkpt lat="44.964781" lon="8.0141036"><ele>182.66666666666666</ele><time>2026-03-29T13:48:23.999Z</time></trkpt><trkpt lat="44.9649647" lon="8.0139529"><ele>182.0</ele><time>2026-03-29T13:48:24.999Z</time></trkpt><trkpt lat="44.9651449" lon="8.0137934"><ele>182.0</ele><time>2026-03-29T13:48:25.999Z</time></trkpt><trkpt lat="44.9653271" lon="8.0136289"><ele>182.0</ele><time>2026-03-29T13:48:26.999Z</time></trkpt><trkpt lat="44.9655104" lon="8.0134609"><ele>182.0</ele><time>2026-03-29T13:48:27.999Z</time></trkpt><trkpt lat="44.9656985" lon="8.0132955"><ele>184.33333333333331</ele><time>2026-03-29T13:48:28.999Z</time></trkpt><trkpt lat="44.9658846" lon="8.0131286"><ele>186.66666666666666</ele><time>2026-03-29T13:48:29.999Z</time></trkpt><trkpt lat="44.9660704" lon="8.0129597"><ele>189.0</ele><time>2026-03-29T13:48:31Z</time></trkpt><trkpt lat="44.9662571" lon="8.0127968"><ele>189.0</ele><time>2026-03-29T13:48:31.999Z</time></trkpt><trkpt lat="44.9664502" lon="8.012642"><ele>189.0</ele><time>2026-03-29T13:48:32.999Z</time></trkpt><trkpt lat="44.9666547" lon="8.0125083"><ele>189.0</ele><time>2026-03-29T13:48:33.999Z</time></trkpt><trkpt lat="44.9668669" lon="8.0123958"><ele>185.5</ele><time>2026-03-29T13:48:34.999Z</time></trkpt><trkpt lat="44.9670775" lon="8.0122887"><ele>182.0</ele><time>2026-03-29T13:48:35.999Z</time></trkpt><trkpt lat="44.9672911" lon="8.0121841"><ele>182.0</ele><time>2026-03-29T13:48:36.999Z</time></trkpt><trkpt lat="44.9675061" lon="8.0121146"><ele>182.0</ele><time>2026-03-29T13:48:37.999Z</time></trkpt><trkpt lat="44.9677195" lon="8.012059"><ele>182.0</ele><time>2026-03-29T13:48:38.999Z</time></trkpt><trkpt lat="44.9679367" lon="8.0120449"><ele>182.0</ele><time>2026-03-29T13:48:39.999Z</time></trkpt><trkpt lat="44.9681443" lon="8.0120652"><ele>182.0</ele><time>2026-03-29T13:48:40.999Z</time></trkpt><trkpt lat="44.968353" lon="8.0121208"><ele>182.0</ele><time>2026-03-29T13:48:41.999Z</time></trkpt><trkpt lat="44.9685611" lon="8.0121965"><ele>181.33333333333331</ele><time>2026-03-29T13:48:42.999Z</time></trkpt><trkpt lat="44.96876" lon="8.0122887"><ele>180.66666666666666</ele><time>2026-03-29T13:48:43.999Z</time></trkpt><trkpt lat="44.9689601" lon="8.0123884"><ele>180.0</ele><time>2026-03-29T13:48:44.999Z</time></trkpt><trkpt lat="44.9691634" lon="8.0125092"><ele>180.66666666666666</ele><time>2026-03-29T13:48:45.999Z</time></trkpt><trkpt lat="44.9693693" lon="8.0126375"><ele>181.33333333333331</ele><time>2026-03-29T13:48:46.999Z</time></trkpt><trkpt lat="44.9695756" lon="8.0127538"><ele>182.0</ele><time>2026-03-29T13:48:47.999Z</time></trkpt><trkpt lat="44.9697845" lon="8.0128762"><ele>182.0</ele><time>2026-03-29T13:48:48.999Z</time></trkpt><trkpt lat="44.9699945" lon="8.0129842"><ele>182.0</ele><time>2026-03-29T13:48:49.999Z</time></trkpt><trkpt lat="44.9702027" lon="8.0130847"><ele>182.0</ele><time>2026-03-29T13:48:50.999Z</time></trkpt><trkpt lat="44.9704214" lon="8.0131592"><ele>181.5</ele><time>2026-03-29T13:48:51.999Z</time></trkpt><trkpt lat="44.970647" lon="8.0131864"><ele>181.0</ele><time>2026-03-29T13:48:52.999Z</time></trkpt><trkpt lat="44.9708757" lon="8.0131947"><ele>181.0</ele><time>2026-03-29T13:48:53.999Z</time></trkpt><trkpt lat="44.9711063" lon="8.0131963"><ele>181.0</ele><time>2026-03-29T13:48:54.999Z</time></trkpt><trkpt lat="44.9713412" lon="8.0131979"><ele>181.0</ele><time>2026-03-29T13:48:55.999Z</time></trkpt><trkpt lat="44.9715847" lon="8.0132005"><ele>181.0</ele><time>2026-03-29T13:48:56.999Z</time></trkpt><trkpt lat="44.9718243" lon="8.0131995"><ele>181.5</ele><time>2026-03-29T13:48:57.999Z</time></trkpt><trkpt lat="44.9720672" lon="8.0131968"><ele>182.0</ele><time>2026-03-29T13:48:58.999Z</time></trkpt><trkpt lat="44.9723103" lon="8.0131911"><ele>182.0</ele><time>2026-03-29T13:48:59.999Z</time></trkpt><trkpt lat="44.9725555" lon="8.013185"><ele>182.0</ele><time>2026-03-29T13:49:00.999Z</time></trkpt><trkpt lat="44.9727989" lon="8.0131804"><ele>182.0</ele><time>2026-03-29T13:49:01.999Z</time></trkpt><trkpt lat="44.9730411" lon="8.0131793"><ele>182.0</ele><time>2026-03-29T13:49:02.999Z</time></trkpt><trkpt lat="44.9732813" lon="8.0131828"><ele>182.0</ele><time>2026-03-29T13:49:03.999Z</time></trkpt><trkpt lat="44.973527" lon="8.0131891"><ele>182.0</ele><time>2026-03-29T13:49:04.999Z</time></trkpt><trkpt lat="44.9737749" lon="8.0131898"><ele>182.0</ele><time>2026-03-29T13:49:05.999Z</time></trkpt><trkpt lat="44.97402" lon="8.0131892"><ele>182.0</ele><time>2026-03-29T13:49:06.999Z</time></trkpt><trkpt lat="44.9742723" lon="8.0131867"><ele>183.0</ele><time>2026-03-29T13:49:07.999Z</time></trkpt><trkpt lat="44.9745278" lon="8.0131826"><ele>184.0</ele><time>2026-03-29T13:49:08.999Z</time></trkpt><trkpt lat="44.97478" lon="8.0131804"><ele>183.5</ele><time>2026-03-29T13:49:09.999Z</time></trkpt><trkpt lat="44.9750365" lon="8.0131816"><ele>183.0</ele><time>2026-03-29T13:49:10.999Z</time></trkpt><trkpt lat="44.9752886" lon="8.0131829"><ele>183.0</ele><time>2026-03-29T13:49:11.999Z</time></trkpt><trkpt lat="44.9755451" lon="8.0131869"><ele>183.0</ele><time>2026-03-29T13:49:12.999Z</time></trkpt><trkpt lat="44.9757929" lon="8.013182"><ele>183.0</ele><time>2026-03-29T13:49:13.999Z</time></trkpt><trkpt lat="44.9760462" lon="8.0131719"><ele>183.0</ele><time>2026-03-29T13:49:14.999Z</time></trkpt><trkpt lat="44.9762924" lon="8.0131706"><ele>183.0</ele><time>2026-03-29T13:49:15.999Z</time></trkpt><trkpt lat="44.9765371" lon="8.0131675"><ele>183.0</ele><time>2026-03-29T13:49:16.999Z</time></trkpt><trkpt lat="44.9767828" lon="8.0131513"><ele>185.0</ele><time>2026-03-29T13:49:17.999Z</time></trkpt><trkpt lat="44.9770254" lon="8.0131268"><ele>187.0</ele><time>2026-03-29T13:49:18.999Z</time></trkpt><trkpt lat="44.9772701" lon="8.0130911"><ele>187.0</ele><time>2026-03-29T13:49:19.999Z</time></trkpt><trkpt lat="44.9775137" lon="8.0130513"><ele>187.0</ele><time>2026-03-29T13:49:20.999Z</time></trkpt><trkpt lat="44.9777548" lon="8.0130184"><ele>185.0</ele><time>2026-03-29T13:49:21.999Z</time></trkpt><trkpt lat="44.9779986" lon="8.0130069"><ele>183.0</ele><time>2026-03-29T13:49:22.999Z</time></trkpt><trkpt lat="44.978246" lon="8.0130098"><ele>182.0</ele><time>2026-03-29T13:49:23.999Z</time></trkpt><trkpt lat="44.9784941" lon="8.0130284"><ele>181.0</ele><time>2026-03-29T13:49:25Z</time></trkpt><trkpt lat="44.9787413" lon="8.0130493"><ele>181.0</ele><time>2026-03-29T13:49:25.999Z</time></trkpt><trkpt lat="44.9789911" lon="8.0130646"><ele>181.0</ele><time>2026-03-29T13:49:26.999Z</time></trkpt><trkpt lat="44.97924" lon="8.0130825"><ele>181.5</ele><time>2026-03-29T13:49:27.999Z</time></trkpt><trkpt lat="44.9794882" lon="8.0131031"><ele>182.0</ele><time>2026-03-29T13:49:28.999Z</time></trkpt><trkpt lat="44.9797378" lon="8.0131229"><ele>182.0</ele><time>2026-03-29T13:49:29.999Z</time></trkpt><trkpt lat="44.9799949" lon="8.0131361"><ele>182.0</ele><time>2026-03-29T13:49:30.999Z</time></trkpt><trkpt lat="44.9802481" lon="8.0131506"><ele>182.5</ele><time>2026-03-29T13:49:31.999Z</time></trkpt><trkpt lat="44.9805057" lon="8.0131677"><ele>183.0</ele><time>2026-03-29T13:49:32.999Z</time></trkpt><trkpt lat="44.9807631" lon="8.0131791"><ele>183.5</ele><time>2026-03-29T13:49:33.999Z</time></trkpt><trkpt lat="44.9810179" lon="8.0131969"><ele>184.0</ele><time>2026-03-29T13:49:34.999Z</time></trkpt><trkpt lat="44.9812749" lon="8.0132246"><ele>184.0</ele><time>2026-03-29T13:49:35.999Z</time></trkpt><trkpt lat="44.9815235" lon="8.0132716"><ele>184.0</ele><time>2026-03-29T13:49:36.999Z</time></trkpt><trkpt lat="44.9817555" lon="8.0133573"><ele>184.0</ele><time>2026-03-29T13:49:37.999Z</time></trkpt><trkpt lat="44.9819798" lon="8.0134502"><ele>184.0</ele><time>2026-03-29T13:49:38.999Z</time></trkpt><trkpt lat="44.9821883" lon="8.0136312"><ele>184.0</ele><time>2026-03-29T13:49:39.999Z</time></trkpt><trkpt lat="44.9823833" lon="8.01379"><ele>184.0</ele><time>2026-03-29T13:49:40.999Z</time></trkpt><trkpt lat="44.9825873" lon="8.0139638"><ele>183.5</ele><time>2026-03-29T13:49:41.999Z</time></trkpt><trkpt lat="44.9827947" lon="8.0141423"><ele>183.0</ele><time>2026-03-29T13:49:42.999Z</time></trkpt><trkpt lat="44.9829988" lon="8.0143189"><ele>183.0</ele><time>2026-03-29T13:49:43.999Z</time></trkpt><trkpt lat="44.9832046" lon="8.0144931"><ele>183.0</ele><time>2026-03-29T13:49:44.999Z</time></trkpt><trkpt lat="44.9834113" lon="8.0146787"><ele>183.0</ele><time>2026-03-29T13:49:45.999Z</time></trkpt><trkpt lat="44.9836193" lon="8.0148575"><ele>183.0</ele><time>2026-03-29T13:49:46.999Z</time></trkpt><trkpt lat="44.9838257" lon="8.0150313"><ele>184.5</ele><time>2026-03-29T13:49:47.999Z</time></trkpt><trkpt lat="44.9840311" lon="8.0152113"><ele>186.0</ele><time>2026-03-29T13:49:48.999Z</time></trkpt><trkpt lat="44.9842331" lon="8.0153966"><ele>186.0</ele><time>2026-03-29T13:49:49.999Z</time></trkpt><trkpt lat="44.9844459" lon="8.0155748"><ele>186.0</ele><time>2026-03-29T13:49:50.999Z</time></trkpt><trkpt lat="44.9846615" lon="8.0157406"><ele>185.5</ele><time>2026-03-29T13:49:51.999Z</time></trkpt><trkpt lat="44.9848766" lon="8.0159015"><ele>185.0</ele><time>2026-03-29T13:49:52.999Z</time></trkpt><trkpt lat="44.9850963" lon="8.0160493"><ele>185.0</ele><time>2026-03-29T13:49:53.999Z</time></trkpt><trkpt lat="44.9853202" lon="8.0161805"><ele>185.0</ele><time>2026-03-29T13:49:54.999Z</time></trkpt><trkpt lat="44.9855475" lon="8.0162948"><ele>185.0</ele><time>2026-03-29T13:49:55.999Z</time></trkpt><trkpt lat="44.9857721" lon="8.0164162"><ele>185.0</ele><time>2026-03-29T13:49:56.999Z</time></trkpt><trkpt lat="44.9860009" lon="8.016538"><ele>184.5</ele><time>2026-03-29T13:49:57.999Z</time></trkpt><trkpt lat="44.9862301" lon="8.016654"><ele>184.0</ele><time>2026-03-29T13:49:58.999Z</time></trkpt><trkpt lat="44.9864587" lon="8.016767"><ele>185.0</ele><time>2026-03-29T13:49:59.999Z</time></trkpt><trkpt lat="44.9866893" lon="8.0168821"><ele>186.0</ele><time>2026-03-29T13:50:00.999Z</time></trkpt><trkpt lat="44.986919" lon="8.0170051"><ele>186.0</ele><time>2026-03-29T13:50:01.999Z</time></trkpt><trkpt lat="44.9871537" lon="8.0171284"><ele>186.0</ele><time>2026-03-29T13:50:02.999Z</time></trkpt><trkpt lat="44.9873895" lon="8.0172523"><ele>186.5</ele><time>2026-03-29T13:50:03.999Z</time></trkpt><trkpt lat="44.987627" lon="8.0173726"><ele>187.0</ele><time>2026-03-29T13:50:04.999Z</time></trkpt><trkpt lat="44.9878663" lon="8.0174936"><ele>187.5</ele><time>2026-03-29T13:50:05.999Z</time></trkpt><trkpt lat="44.988102" lon="8.0176206"><ele>188.0</ele><time>2026-03-29T13:50:06.999Z</time></trkpt><trkpt lat="44.988332" lon="8.0177452"><ele>189.0</ele><time>2026-03-29T13:50:07.999Z</time></trkpt><trkpt lat="44.9885583" lon="8.0178645"><ele>190.0</ele><time>2026-03-29T13:50:08.999Z</time></trkpt><trkpt lat="44.9887895" lon="8.0179818"><ele>190.0</ele><time>2026-03-29T13:50:09.999Z</time></trkpt><trkpt lat="44.9890203" lon="8.0181001"><ele>190.0</ele><time>2026-03-29T13:50:10.999Z</time></trkpt><trkpt lat="44.9892532" lon="8.0182236"><ele>188.0</ele><time>2026-03-29T13:50:11.999Z</time></trkpt><trkpt lat="44.989484" lon="8.0183442"><ele>186.0</ele><time>2026-03-29T13:50:12.999Z</time></trkpt><trkpt lat="44.9897216" lon="8.0184676"><ele>186.0</ele><time>2026-03-29T13:50:13.999Z</time></trkpt><trkpt lat="44.9899635" lon="8.0185942"><ele>186.0</ele><time>2026-03-29T13:50:14.999Z</time></trkpt><trkpt lat="44.990207" lon="8.0187204"><ele>185.0</ele><time>2026-03-29T13:50:15.999Z</time></trkpt><trkpt lat="44.9904485" lon="8.0188465"><ele>184.0</ele><time>2026-03-29T13:50:16.999Z</time></trkpt><trkpt lat="44.9906864" lon="8.0189682"><ele>184.0</ele><time>2026-03-29T13:50:17.999Z</time></trkpt><trkpt lat="44.9909074" lon="8.0190867"><ele>184.0</ele><time>2026-03-29T13:50:18.999Z</time></trkpt><trkpt lat="44.9911261" lon="8.0191972"><ele>184.0</ele><time>2026-03-29T13:50:19.999Z</time></trkpt><trkpt lat="44.9913317" lon="8.0192955"><ele>184.0</ele><time>2026-03-29T13:50:20.999Z</time></trkpt><trkpt lat="44.9915234" lon="8.0193952"><ele>184.0</ele><time>2026-03-29T13:50:21.999Z</time></trkpt><trkpt lat="44.9917018" lon="8.0194862"><ele>184.33333333333334</ele><time>2026-03-29T13:50:22.999Z</time></trkpt><trkpt lat="44.9918685" lon="8.0195782"><ele>184.66666666666666</ele><time>2026-03-29T13:50:23.999Z</time></trkpt><trkpt lat="44.9920284" lon="8.0196639"><ele>185.0</ele><time>2026-03-29T13:50:24.999Z</time></trkpt><trkpt lat="44.9921809" lon="8.019747"><ele>185.0</ele><time>2026-03-29T13:50:25.999Z</time></trkpt><trkpt lat="44.9923235" lon="8.019826"><ele>185.0</ele><time>2026-03-29T13:50:26.999Z</time></trkpt><trkpt lat="44.9924535" lon="8.0198928"><ele>185.0</ele><time>2026-03-29T13:50:27.999Z</time></trkpt><trkpt lat="44.992574" lon="8.0199542"><ele>185.0</ele><time>2026-03-29T13:50:28.999Z</time></trkpt><trkpt lat="44.9926814" lon="8.0200109"><ele>185.0</ele><time>2026-03-29T13:50:29.999Z</time></trkpt><trkpt lat="44.9927816" lon="8.0200632"><ele>185.0</ele><time>2026-03-29T13:50:30.999Z</time></trkpt><trkpt lat="44.9928787" lon="8.0201125"><ele>185.0</ele><time>2026-03-29T13:50:31.999Z</time></trkpt><trkpt lat="44.9929661" lon="8.020156"><ele>185.0</ele><time>2026-03-29T13:50:32.999Z</time></trkpt><trkpt lat="44.9930568" lon="8.0201696"><ele>185.0</ele><time>2026-03-29T13:50:33.999Z</time></trkpt><trkpt lat="44.9931433" lon="8.0201604"><ele>185.0</ele><time>2026-03-29T13:50:34.999Z</time></trkpt><trkpt lat="44.9932332" lon="8.0200657"><ele>185.0</ele><time>2026-03-29T13:50:35.999Z</time></trkpt><trkpt lat="44.993314" lon="8.0199443"><ele>185.0</ele><time>2026-03-29T13:50:36.999Z</time></trkpt><trkpt lat="44.9933869" lon="8.0197923"><ele>185.0</ele><time>2026-03-29T13:50:37.999Z</time></trkpt><trkpt lat="44.9934664" lon="8.0196026"><ele>185.0</ele><time>2026-03-29T13:50:38.999Z</time></trkpt><trkpt lat="44.9935652" lon="8.019396"><ele>185.0</ele><time>2026-03-29T13:50:39.999Z</time></trkpt><trkpt lat="44.9936816" lon="8.0191786"><ele>185.0</ele><time>2026-03-29T13:50:40.999Z</time></trkpt><trkpt lat="44.9938032" lon="8.0189557"><ele>185.0</ele><time>2026-03-29T13:50:41.999Z</time></trkpt><trkpt lat="44.9939262" lon="8.0187249"><ele>185.0</ele><time>2026-03-29T13:50:42.999Z</time></trkpt><trkpt lat="44.99405" lon="8.0184735"><ele>185.0</ele><time>2026-03-29T13:50:43.999Z</time></trkpt><trkpt lat="44.9941587" lon="8.0182139"><ele>185.0</ele><time>2026-03-29T13:50:44.999Z</time></trkpt><trkpt lat="44.994234" lon="8.0179278"><ele>185.0</ele><time>2026-03-29T13:50:45.999Z</time></trkpt><trkpt lat="44.9942863" lon="8.0176218"><ele>185.0</ele><time>2026-03-29T13:50:46.999Z</time></trkpt><trkpt lat="44.9943331" lon="8.0173013"><ele>185.0</ele><time>2026-03-29T13:50:47.999Z</time></trkpt><trkpt lat="44.9943808" lon="8.0169671"><ele>185.0</ele><time>2026-03-29T13:50:48.999Z</time></trkpt><trkpt lat="44.9944323" lon="8.0166326"><ele>186.0</ele><time>2026-03-29T13:50:49.999Z</time></trkpt><trkpt lat="44.9944815" lon="8.0162907"><ele>187.0</ele><time>2026-03-29T13:50:50.999Z</time></trkpt><trkpt lat="44.994528" lon="8.0159431"><ele>187.5</ele><time>2026-03-29T13:50:51.999Z</time></trkpt><trkpt lat="44.9945784" lon="8.0156047"><ele>188.0</ele><time>2026-03-29T13:50:52.999Z</time></trkpt><trkpt lat="44.9946338" lon="8.0152719"><ele>188.0</ele><time>2026-03-29T13:50:53.999Z</time></trkpt><trkpt lat="44.9946859" lon="8.014952"><ele>188.0</ele><time>2026-03-29T13:50:54.999Z</time></trkpt><trkpt lat="44.9947366" lon="8.0146409"><ele>188.0</ele><time>2026-03-29T13:50:55.999Z</time></trkpt><trkpt lat="44.9947842" lon="8.0143419"><ele>188.0</ele><time>2026-03-29T13:50:56.999Z</time></trkpt><trkpt lat="44.9948412" lon="8.0140616"><ele>188.0</ele><time>2026-03-29T13:50:57.999Z</time></trkpt><trkpt lat="44.9949107" lon="8.0137813"><ele>189.33333333333331</ele><time>2026-03-29T13:50:58.999Z</time></trkpt><trkpt lat="44.9950168" lon="8.0135244"><ele>190.66666666666666</ele><time>2026-03-29T13:50:59.999Z</time></trkpt><trkpt lat="44.995131" lon="8.0132764"><ele>192.0</ele><time>2026-03-29T13:51:00.999Z</time></trkpt><trkpt lat="44.9952707" lon="8.0130602"><ele>192.0</ele><time>2026-03-29T13:51:01.999Z</time></trkpt><trkpt lat="44.9954352" lon="8.0128611"><ele>192.0</ele><time>2026-03-29T13:51:02.999Z</time></trkpt><trkpt lat="44.9956085" lon="8.0126711"><ele>192.0</ele><time>2026-03-29T13:51:03.999Z</time></trkpt><trkpt lat="44.995786" lon="8.0124849"><ele>190.5</ele><time>2026-03-29T13:51:04.999Z</time></trkpt><trkpt lat="44.9959671" lon="8.012295"><ele>189.0</ele><time>2026-03-29T13:51:05.999Z</time></trkpt><trkpt lat="44.996153" lon="8.0120961"><ele>189.0</ele><time>2026-03-29T13:51:06.999Z</time></trkpt><trkpt lat="44.9963432" lon="8.0118968"><ele>189.0</ele><time>2026-03-29T13:51:07.999Z</time></trkpt><trkpt lat="44.9965364" lon="8.0116876"><ele>189.0</ele><time>2026-03-29T13:51:08.999Z</time></trkpt><trkpt lat="44.9967321" lon="8.0114834"><ele>189.0</ele><time>2026-03-29T13:51:09.999Z</time></trkpt><trkpt lat="44.9969203" lon="8.0112762"><ele>189.0</ele><time>2026-03-29T13:51:10.999Z</time></trkpt><trkpt lat="44.9971141" lon="8.0110728"><ele>189.0</ele><time>2026-03-29T13:51:11.999Z</time></trkpt><trkpt lat="44.9973045" lon="8.0108667"><ele>189.5</ele><time>2026-03-29T13:51:12.999Z</time></trkpt><trkpt lat="44.9974981" lon="8.0106585"><ele>190.0</ele><time>2026-03-29T13:51:13.999Z</time></trkpt><trkpt lat="44.9976959" lon="8.0104515"><ele>190.0</ele><time>2026-03-29T13:51:14.999Z</time></trkpt><trkpt lat="44.9978935" lon="8.0102433"><ele>190.0</ele><time>2026-03-29T13:51:15.999Z</time></trkpt><trkpt lat="44.9980888" lon="8.0100285"><ele>190.5</ele><time>2026-03-29T13:51:16.999Z</time></trkpt><trkpt lat="44.9982872" lon="8.0098185"><ele>191.0</ele><time>2026-03-29T13:51:17.999Z</time></trkpt><trkpt lat="44.9984818" lon="8.0096164"><ele>191.0</ele><time>2026-03-29T13:51:18.999Z</time></trkpt><trkpt lat="44.9986757" lon="8.0094119"><ele>191.0</ele><time>2026-03-29T13:51:19.999Z</time></trkpt><trkpt lat="44.9988694" lon="8.0092025"><ele>191.5</ele><time>2026-03-29T13:51:20.999Z</time></trkpt><trkpt lat="44.9990615" lon="8.0089998"><ele>192.0</ele><time>2026-03-29T13:51:21.999Z</time></trkpt><trkpt lat="44.9992422" lon="8.0088028"><ele>192.66666666666669</ele><time>2026-03-29T13:51:22.999Z</time></trkpt><trkpt lat="44.9994173" lon="8.0086085"><ele>193.33333333333334</ele><time>2026-03-29T13:51:23.999Z</time></trkpt><trkpt lat="44.9995953" lon="8.0084321"><ele>194.0</ele><time>2026-03-29T13:51:24.999Z</time></trkpt><trkpt lat="44.9997878" lon="8.0082962"><ele>194.0</ele><time>2026-03-29T13:51:25.999Z</time></trkpt><trkpt lat="44.9999789" lon="8.008217"><ele>194.0</ele><time>2026-03-29T13:51:26.999Z</time></trkpt><trkpt lat="45.0001775" lon="8.0081855"><ele>194.0</ele><time>2026-03-29T13:51:27.999Z</time></trkpt><trkpt lat="45.0003796" lon="8.0081922"><ele>194.0</ele><time>2026-03-29T13:51:28.999Z</time></trkpt><trkpt lat="45.0005695" lon="8.0081985"><ele>194.0</ele><time>2026-03-29T13:51:30Z</time></trkpt><trkpt lat="45.0007631" lon="8.0081509"><ele>194.0</ele><time>2026-03-29T13:51:30.999Z</time></trkpt><trkpt lat="45.0009405" lon="8.0080787"><ele>195.66666666666669</ele><time>2026-03-29T13:51:31.999Z</time></trkpt><trkpt lat="45.0011174" lon="8.0079215"><ele>197.33333333333331</ele><time>2026-03-29T13:51:32.999Z</time></trkpt><trkpt lat="45.001287" lon="8.0077563"><ele>199.0</ele><time>2026-03-29T13:51:33.999Z</time></trkpt><trkpt lat="45.0014591" lon="8.0075891"><ele>197.0</ele><time>2026-03-29T13:51:34.999Z</time></trkpt><trkpt lat="45.0016404" lon="8.0074183"><ele>195.0</ele><time>2026-03-29T13:51:35.999Z</time></trkpt><trkpt lat="45.0018302" lon="8.0072552"><ele>193.0</ele><time>2026-03-29T13:51:36.999Z</time></trkpt><trkpt lat="45.0020274" lon="8.0071008"><ele>193.0</ele><time>2026-03-29T13:51:37.999Z</time></trkpt><trkpt lat="45.0022261" lon="8.0069492"><ele>193.0</ele><time>2026-03-29T13:51:38.999Z</time></trkpt><trkpt lat="45.0024103" lon="8.0068096"><ele>193.0</ele><time>2026-03-29T13:51:39.999Z</time></trkpt><trkpt lat="45.0025852" lon="8.0066809"><ele>193.0</ele><time>2026-03-29T13:51:40.999Z</time></trkpt><trkpt lat="45.002742" lon="8.0065646"><ele>193.0</ele><time>2026-03-29T13:51:41.999Z</time></trkpt><trkpt lat="45.0028787" lon="8.0064684"><ele>193.0</ele><time>2026-03-29T13:51:42.999Z</time></trkpt><trkpt lat="45.0029927" lon="8.0063829"><ele>193.0</ele><time>2026-03-29T13:51:43.999Z</time></trkpt><trkpt lat="45.0030727" lon="8.0062797"><ele>193.0</ele><time>2026-03-29T13:51:44.999Z</time></trkpt><trkpt lat="45.0031222" lon="8.0061356"><ele>193.0</ele><time>2026-03-29T13:51:45.999Z</time></trkpt><trkpt lat="45.0031567" lon="8.0059995"><ele>193.0</ele><time>2026-03-29T13:51:46.999Z</time></trkpt><trkpt lat="45.0031647" lon="8.0058218"><ele>193.33333333333331</ele><time>2026-03-29T13:51:47.999Z</time></trkpt><trkpt lat="45.0030802" lon="8.005573"><ele>193.66666666666669</ele><time>2026-03-29T13:51:48.999Z</time></trkpt><trkpt lat="45.0030199" lon="8.0053473"><ele>194.0</ele><time>2026-03-29T13:51:49.999Z</time></trkpt><trkpt lat="45.0029517" lon="8.0051009"><ele>196.0</ele><time>2026-03-29T13:51:50.999Z</time></trkpt><trkpt lat="45.0028857" lon="8.0048516"><ele>198.0</ele><time>2026-03-29T13:51:51.999Z</time></trkpt><trkpt lat="45.0028159" lon="8.0045897"><ele>200.0</ele><time>2026-03-29T13:51:52.999Z</time></trkpt><trkpt lat="45.0027356" lon="8.0042877"><ele>203.0</ele><time>2026-03-29T13:51:53.999Z</time></trkpt><trkpt lat="45.0026587" lon="8.0039888"><ele>206.0</ele><time>2026-03-29T13:51:54.999Z</time></trkpt><trkpt lat="45.0025759" lon="8.003659"><ele>210.0</ele><time>2026-03-29T13:51:55.999Z</time></trkpt><trkpt lat="45.0024932" lon="8.0033343"><ele>214.0</ele><time>2026-03-29T13:51:56.999Z</time></trkpt><trkpt lat="45.0024051" lon="8.0029911"><ele>214.0</ele><time>2026-03-29T13:51:57.999Z</time></trkpt><trkpt lat="45.0023204" lon="8.0026548"><ele>214.0</ele><time>2026-03-29T13:51:58.999Z</time></trkpt><trkpt lat="45.0022382" lon="8.0023288"><ele>214.0</ele><time>2026-03-29T13:51:59.999Z</time></trkpt><trkpt lat="45.0021671" lon="8.0020313"><ele>214.0</ele><time>2026-03-29T13:52:00.999Z</time></trkpt><trkpt lat="45.0021019" lon="8.0017533"><ele>214.0</ele><time>2026-03-29T13:52:01.999Z</time></trkpt><trkpt lat="45.0020579" lon="8.0015097"><ele>214.0</ele><time>2026-03-29T13:52:02.999Z</time></trkpt><trkpt lat="45.00203" lon="8.0013028"><ele>214.0</ele><time>2026-03-29T13:52:03.999Z</time></trkpt><trkpt lat="45.0020705" lon="8.0011191"><ele>214.0</ele><time>2026-03-29T13:52:04.999Z</time></trkpt><trkpt lat="45.0021241" lon="8.0009455"><ele>214.0</ele><time>2026-03-29T13:52:05.999Z</time></trkpt><trkpt lat="45.0022273" lon="8.0007667"><ele>218.33333333333331</ele><time>2026-03-29T13:52:06.999Z</time></trkpt><trkpt lat="45.0023223" lon="8.0005863"><ele>222.66666666666669</ele><time>2026-03-29T13:52:07.999Z</time></trkpt><trkpt lat="45.0024103" lon="8.0004082"><ele>227.0</ele><time>2026-03-29T13:52:08.999Z</time></trkpt><trkpt lat="45.0024963" lon="8.0002443"><ele>225.25</ele><time>2026-03-29T13:52:09.999Z</time></trkpt><trkpt lat="45.0025984" lon="8.0001049"><ele>223.5</ele><time>2026-03-29T13:52:10.999Z</time></trkpt><trkpt lat="45.0027049" lon="7.9999917"><ele>221.75</ele><time>2026-03-29T13:52:11.999Z</time></trkpt><trkpt lat="45.0028348" lon="7.9999182"><ele>220.0</ele><time>2026-03-29T13:52:12.999Z</time></trkpt><trkpt lat="45.0029675" lon="7.9999402"><ele>220.0</ele><time>2026-03-29T13:52:13.999Z</time></trkpt><trkpt lat="45.0030665" lon="8.0000519"><ele>220.0</ele><time>2026-03-29T13:52:14.999Z</time></trkpt><trkpt lat="45.003159" lon="8.0001446"><ele>220.0</ele><time>2026-03-29T13:52:15.999Z</time></trkpt><trkpt lat="45.0031719" lon="8.000345"><ele>220.0</ele><time>2026-03-29T13:52:16.999Z</time></trkpt><trkpt lat="45.0031737" lon="8.0004996"><ele>220.0</ele><time>2026-03-29T13:52:17.999Z</time></trkpt><trkpt lat="45.0031499" lon="8.0006395"><ele>220.0</ele><time>2026-03-29T13:52:18.999Z</time></trkpt><trkpt lat="45.0030812" lon="8.000743"><ele>220.0</ele><time>2026-03-29T13:52:19.999Z</time></trkpt><trkpt lat="45.0030506" lon="8.0008739"><ele>220.0</ele><time>2026-03-29T13:52:20.999Z</time></trkpt><trkpt lat="45.00306" lon="8.0009881"><ele>220.0</ele><time>2026-03-29T13:52:21.999Z</time></trkpt><trkpt lat="45.0031222" lon="8.0010575"><ele>220.6</ele><time>2026-03-29T13:52:22.999Z</time></trkpt><trkpt lat="45.0031851" lon="8.0010807"><ele>221.2</ele><time>2026-03-29T13:52:23.999Z</time></trkpt><trkpt lat="45.0032489" lon="8.0010946"><ele>221.8</ele><time>2026-03-29T13:52:24.999Z</time></trkpt><trkpt lat="45.0033387" lon="8.0010489"><ele>222.4</ele><time>2026-03-29T13:52:25.999Z</time></trkpt><trkpt lat="45.0034378" lon="8.0008995"><ele>223.0</ele><time>2026-03-29T13:52:26.999Z</time></trkpt><trkpt lat="45.0035448" lon="8.0007162"><ele>228.66666666666666</ele><time>2026-03-29T13:52:27.999Z</time></trkpt><trkpt lat="45.0036384" lon="8.0005579"><ele>234.33333333333331</ele><time>2026-03-29T13:52:28.999Z</time></trkpt><trkpt lat="45.0037293" lon="8.0003794"><ele>240.0</ele><time>2026-03-29T13:52:29.999Z</time></trkpt><trkpt lat="45.0038037" lon="8.0001749"><ele>240.0</ele><time>2026-03-29T13:52:30.999Z</time></trkpt><trkpt lat="45.003845" lon="7.9999431"><ele>240.0</ele><time>2026-03-29T13:52:31.999Z</time></trkpt><trkpt lat="45.0038923" lon="7.9997127"><ele>240.0</ele><time>2026-03-29T13:52:32.999Z</time></trkpt><trkpt lat="45.0039428" lon="7.9995036"><ele>240.0</ele><time>2026-03-29T13:52:33.999Z</time></trkpt><trkpt lat="45.0039937" lon="7.9992967"><ele>240.0</ele><time>2026-03-29T13:52:34.999Z</time></trkpt><trkpt lat="45.0040447" lon="7.99909"><ele>240.0</ele><time>2026-03-29T13:52:35.999Z</time></trkpt><trkpt lat="45.0040883" lon="7.9989017"><ele>239.75</ele><time>2026-03-29T13:52:36.999Z</time></trkpt><trkpt lat="45.0041314" lon="7.9987162"><ele>239.5</ele><time>2026-03-29T13:52:37.999Z</time></trkpt><trkpt lat="45.0041712" lon="7.9985427"><ele>239.25</ele><time>2026-03-29T13:52:38.999Z</time></trkpt><trkpt lat="45.004198" lon="7.9983677"><ele>239.0</ele><time>2026-03-29T13:52:39.999Z</time></trkpt><trkpt lat="45.0042101" lon="7.998194"><ele>239.0</ele><time>2026-03-29T13:52:40.999Z</time></trkpt><trkpt lat="45.0042011" lon="7.9980219"><ele>239.0</ele><time>2026-03-29T13:52:41.999Z</time></trkpt><trkpt lat="45.0041524" lon="7.9978412"><ele>239.0</ele><time>2026-03-29T13:52:42.999Z</time></trkpt><trkpt lat="45.0040915" lon="7.9976849"><ele>239.0</ele><time>2026-03-29T13:52:43.999Z</time></trkpt><trkpt lat="45.0039633" lon="7.9975155"><ele>242.66666666666669</ele><time>2026-03-29T13:52:44.999Z</time></trkpt><trkpt lat="45.003857" lon="7.9973514"><ele>246.33333333333331</ele><time>2026-03-29T13:52:45.999Z</time></trkpt><trkpt lat="45.0037537" lon="7.9971879"><ele>250.0</ele><time>2026-03-29T13:52:46.999Z</time></trkpt><trkpt lat="45.0036514" lon="7.9970476"><ele>250.0</ele><time>2026-03-29T13:52:47.999Z</time></trkpt><trkpt lat="45.0035428" lon="7.9969441"><ele>250.0</ele><time>2026-03-29T13:52:48.999Z</time></trkpt><trkpt lat="45.0034353" lon="7.9968662"><ele>250.0</ele><time>2026-03-29T13:52:49.999Z</time></trkpt><trkpt lat="45.0033308" lon="7.9968005"><ele>250.0</ele><time>2026-03-29T13:52:50.999Z</time></trkpt><trkpt lat="45.0032724" lon="7.9967317"><ele>250.0</ele><time>2026-03-29T13:52:51.999Z</time></trkpt><trkpt lat="45.0032318" lon="7.9966407"><ele>251.6</ele><time>2026-03-29T13:52:52.999Z</time></trkpt><trkpt lat="45.0032344" lon="7.9965325"><ele>253.2</ele><time>2026-03-29T13:52:53.999Z</time></trkpt><trkpt lat="45.0032699" lon="7.9964092"><ele>254.8</ele><time>2026-03-29T13:52:54.999Z</time></trkpt><trkpt lat="45.0033347" lon="7.9962708"><ele>256.4</ele><time>2026-03-29T13:52:55.999Z</time></trkpt><trkpt lat="45.0034146" lon="7.9961185"><ele>258.0</ele><time>2026-03-29T13:52:56.999Z</time></trkpt><trkpt lat="45.003496" lon="7.9959516"><ele>255.75</ele><time>2026-03-29T13:52:57.999Z</time></trkpt><trkpt lat="45.0035803" lon="7.9957967"><ele>253.5</ele><time>2026-03-29T13:52:58.999Z</time></trkpt><trkpt lat="45.0036788" lon="7.9956671"><ele>251.25</ele><time>2026-03-29T13:52:59.999Z</time></trkpt><trkpt lat="45.0037901" lon="7.9955747"><ele>249.0</ele><time>2026-03-29T13:53:00.999Z</time></trkpt><trkpt lat="45.0039181" lon="7.9955122"><ele>249.0</ele><time>2026-03-29T13:53:01.999Z</time></trkpt><trkpt lat="45.0040535" lon="7.9954864"><ele>249.0</ele><time>2026-03-29T13:53:02.999Z</time></trkpt><trkpt lat="45.0041786" lon="7.9954759"><ele>249.0</ele><time>2026-03-29T13:53:03.999Z</time></trkpt><trkpt lat="45.0042993" lon="7.9954605"><ele>249.0</ele><time>2026-03-29T13:53:04.999Z</time></trkpt><trkpt lat="45.0043925" lon="7.9954138"><ele>248.6</ele><time>2026-03-29T13:53:05.999Z</time></trkpt><trkpt lat="45.0044727" lon="7.9953331"><ele>248.2</ele><time>2026-03-29T13:53:06.999Z</time></trkpt><trkpt lat="45.0045257" lon="7.9952167"><ele>247.79999999999998</ele><time>2026-03-29T13:53:07.999Z</time></trkpt><trkpt lat="45.0045484" lon="7.9950613"><ele>247.39999999999998</ele><time>2026-03-29T13:53:08.999Z</time></trkpt><trkpt lat="45.004559" lon="7.9948822"><ele>247.0</ele><time>2026-03-29T13:53:09.999Z</time></trkpt><trkpt lat="45.0045548" lon="7.994681"><ele>247.0</ele><time>2026-03-29T13:53:10.999Z</time></trkpt><trkpt lat="45.0045541" lon="7.9944627"><ele>247.0</ele><time>2026-03-29T13:53:11.999Z</time></trkpt><trkpt lat="45.0045533" lon="7.9942474"><ele>247.0</ele><time>2026-03-29T13:53:12.999Z</time></trkpt><trkpt lat="45.0045692" lon="7.9940451"><ele>245.25</ele><time>2026-03-29T13:53:13.999Z</time></trkpt><trkpt lat="45.0045855" lon="7.9938594"><ele>243.5</ele><time>2026-03-29T13:53:14.999Z</time></trkpt><trkpt lat="45.0045858" lon="7.9936757"><ele>241.75</ele><time>2026-03-29T13:53:15.999Z</time></trkpt><trkpt lat="45.0045564" lon="7.9934925"><ele>240.0</ele><time>2026-03-29T13:53:16.999Z</time></trkpt><trkpt lat="45.0044929" lon="7.9933246"><ele>238.75</ele><time>2026-03-29T13:53:17.999Z</time></trkpt><trkpt lat="45.0044069" lon="7.9931837"><ele>237.5</ele><time>2026-03-29T13:53:18.999Z</time></trkpt><trkpt lat="45.0043241" lon="7.9930527"><ele>236.25</ele><time>2026-03-29T13:53:19.999Z</time></trkpt><trkpt lat="45.0042635" lon="7.9929131"><ele>235.0</ele><time>2026-03-29T13:53:20.999Z</time></trkpt><trkpt lat="45.0042441" lon="7.9927549"><ele>235.0</ele><time>2026-03-29T13:53:21.999Z</time></trkpt><trkpt lat="45.0042542" lon="7.9925996"><ele>235.0</ele><time>2026-03-29T13:53:22.999Z</time></trkpt><trkpt lat="45.0042723" lon="7.9924667"><ele>235.0</ele><time>2026-03-29T13:53:23.999Z</time></trkpt><trkpt lat="45.004239" lon="7.9923311"><ele>235.0</ele><time>2026-03-29T13:53:24.999Z</time></trkpt><trkpt lat="45.0041833" lon="7.9922182"><ele>235.0</ele><time>2026-03-29T13:53:25.999Z</time></trkpt><trkpt lat="45.0040993" lon="7.9921088"><ele>232.0</ele><time>2026-03-29T13:53:26.999Z</time></trkpt><trkpt lat="45.0039918" lon="7.9920648"><ele>229.0</ele><time>2026-03-29T13:53:27.999Z</time></trkpt><trkpt lat="45.00389" lon="7.9920038"><ele>226.0</ele><time>2026-03-29T13:53:28.999Z</time></trkpt><trkpt lat="45.0038065" lon="7.9919033"><ele>223.0</ele><time>2026-03-29T13:53:29.999Z</time></trkpt><trkpt lat="45.0037372" lon="7.9917631"><ele>223.0</ele><time>2026-03-29T13:53:30.999Z</time></trkpt><trkpt lat="45.0037107" lon="7.9915866"><ele>223.0</ele><time>2026-03-29T13:53:31.999Z</time></trkpt><trkpt lat="45.0037098" lon="7.9913914"><ele>223.0</ele><time>2026-03-29T13:53:32.999Z</time></trkpt><trkpt lat="45.003711" lon="7.9911759"><ele>223.0</ele><time>2026-03-29T13:53:33.999Z</time></trkpt><trkpt lat="45.0037044" lon="7.9909585"><ele>222.33333333333331</ele><time>2026-03-29T13:53:34.999Z</time></trkpt><trkpt lat="45.0036991" lon="7.990738"><ele>221.66666666666669</ele><time>2026-03-29T13:53:35.999Z</time></trkpt><trkpt lat="45.0037135" lon="7.9905163"><ele>221.0</ele><time>2026-03-29T13:53:36.999Z</time></trkpt><trkpt lat="45.0037423" lon="7.9902989"><ele>221.0</ele><time>2026-03-29T13:53:37.999Z</time></trkpt><trkpt lat="45.0037952" lon="7.9900769"><ele>221.0</ele><time>2026-03-29T13:53:38.999Z</time></trkpt><trkpt lat="45.0038672" lon="7.9898635"><ele>221.0</ele><time>2026-03-29T13:53:39.999Z</time></trkpt><trkpt lat="45.0039557" lon="7.989645"><ele>219.0</ele><time>2026-03-29T13:53:40.999Z</time></trkpt><trkpt lat="45.0040562" lon="7.9894198"><ele>217.0</ele><time>2026-03-29T13:53:41.999Z</time></trkpt><trkpt lat="45.0041579" lon="7.9891866"><ele>215.0</ele><time>2026-03-29T13:53:42.999Z</time></trkpt><trkpt lat="45.0042649" lon="7.9889376"><ele>215.0</ele><time>2026-03-29T13:53:43.999Z</time></trkpt><trkpt lat="45.0043753" lon="7.9886866"><ele>215.0</ele><time>2026-03-29T13:53:44.999Z</time></trkpt><trkpt lat="45.0044858" lon="7.9884408"><ele>215.0</ele><time>2026-03-29T13:53:45.999Z</time></trkpt><trkpt lat="45.0045894" lon="7.9882137"><ele>213.0</ele><time>2026-03-29T13:53:46.999Z</time></trkpt><trkpt lat="45.0046831" lon="7.9879981"><ele>211.0</ele><time>2026-03-29T13:53:47.999Z</time></trkpt><trkpt lat="45.0047784" lon="7.9878004"><ele>209.0</ele><time>2026-03-29T13:53:48.999Z</time></trkpt><trkpt lat="45.0048814" lon="7.9876323"><ele>212.0</ele><time>2026-03-29T13:53:49.999Z</time></trkpt><trkpt lat="45.0050106" lon="7.9874853"><ele>215.0</ele><time>2026-03-29T13:53:50.999Z</time></trkpt><trkpt lat="45.0051585" lon="7.9873513"><ele>218.0</ele><time>2026-03-29T13:53:51.999Z</time></trkpt><trkpt lat="45.005316" lon="7.9872221"><ele>218.0</ele><time>2026-03-29T13:53:52.999Z</time></trkpt><trkpt lat="45.0054785" lon="7.9870863"><ele>218.0</ele><time>2026-03-29T13:53:53.999Z</time></trkpt><trkpt lat="45.0056446" lon="7.9869395"><ele>218.0</ele><time>2026-03-29T13:53:54.999Z</time></trkpt><trkpt lat="45.00581" lon="7.9867922"><ele>218.66666666666669</ele><time>2026-03-29T13:53:55.999Z</time></trkpt><trkpt lat="45.0059786" lon="7.9866555"><ele>219.33333333333331</ele><time>2026-03-29T13:53:56.999Z</time></trkpt><trkpt lat="45.0061568" lon="7.9865475"><ele>220.0</ele><time>2026-03-29T13:53:57.999Z</time></trkpt><trkpt lat="45.0063511" lon="7.9864804"><ele>220.0</ele><time>2026-03-29T13:53:58.999Z</time></trkpt><trkpt lat="45.006544" lon="7.9864179"><ele>220.0</ele><time>2026-03-29T13:53:59.999Z</time></trkpt><trkpt lat="45.0067446" lon="7.9863676"><ele>220.0</ele><time>2026-03-29T13:54:00.999Z</time></trkpt><trkpt lat="45.0069479" lon="7.986336"><ele>221.0</ele><time>2026-03-29T13:54:01.999Z</time></trkpt><trkpt lat="45.0071566" lon="7.9863056"><ele>222.0</ele><time>2026-03-29T13:54:02.999Z</time></trkpt><trkpt lat="45.007371" lon="7.9862755"><ele>223.0</ele><time>2026-03-29T13:54:03.999Z</time></trkpt><trkpt lat="45.0075878" lon="7.9862484"><ele>223.33333333333331</ele><time>2026-03-29T13:54:04.999Z</time></trkpt><trkpt lat="45.0078063" lon="7.9862051"><ele>223.66666666666669</ele><time>2026-03-29T13:54:05.999Z</time></trkpt><trkpt lat="45.0080264" lon="7.9861496"><ele>224.0</ele><time>2026-03-29T13:54:06.999Z</time></trkpt><trkpt lat="45.0082464" lon="7.9860949"><ele>225.0</ele><time>2026-03-29T13:54:07.999Z</time></trkpt><trkpt lat="45.0084631" lon="7.9860481"><ele>226.0</ele><time>2026-03-29T13:54:08.999Z</time></trkpt><trkpt lat="45.0086716" lon="7.9860066"><ele>227.0</ele><time>2026-03-29T13:54:09.999Z</time></trkpt><trkpt lat="45.008876" lon="7.9859721"><ele>227.0</ele><time>2026-03-29T13:54:10.999Z</time></trkpt><trkpt lat="45.0090796" lon="7.9859548"><ele>227.0</ele><time>2026-03-29T13:54:11.999Z</time></trkpt><trkpt lat="45.0092776" lon="7.9859723"><ele>227.0</ele><time>2026-03-29T13:54:12.999Z</time></trkpt><trkpt lat="45.0094598" lon="7.9860224"><ele>226.33333333333334</ele><time>2026-03-29T13:54:13.999Z</time></trkpt><trkpt lat="45.009626" lon="7.9860872"><ele>225.66666666666669</ele><time>2026-03-29T13:54:14.999Z</time></trkpt><trkpt lat="45.009778" lon="7.9861541"><ele>225.0</ele><time>2026-03-29T13:54:15.999Z</time></trkpt><trkpt lat="45.0099106" lon="7.9862151"><ele>223.0</ele><time>2026-03-29T13:54:16.999Z</time></trkpt><trkpt lat="45.0100322" lon="7.9862625"><ele>221.0</ele><time>2026-03-29T13:54:17.999Z</time></trkpt><trkpt lat="45.010137" lon="7.9862991"><ele>219.0</ele><time>2026-03-29T13:54:18.999Z</time></trkpt><trkpt lat="45.0102253" lon="7.9863229"><ele>217.0</ele><time>2026-03-29T13:54:19.999Z</time></trkpt><trkpt lat="45.0102964" lon="7.986342"><ele>215.0</ele><time>2026-03-29T13:54:20.999Z</time></trkpt><trkpt lat="45.0103632" lon="7.9863673"><ele>215.0</ele><time>2026-03-29T13:54:21.999Z</time></trkpt><trkpt lat="45.0104591" lon="7.9864704"><ele>215.0</ele><time>2026-03-29T13:54:23.999Z</time></trkpt><trkpt lat="45.0105023" lon="7.9865476"><ele>215.0</ele><time>2026-03-29T13:54:24.999Z</time></trkpt><trkpt lat="45.0105377" lon="7.9866396"><ele>215.0</ele><time>2026-03-29T13:54:25.999Z</time></trkpt><trkpt lat="45.0105598" lon="7.9867654"><ele>215.0</ele><time>2026-03-29T13:54:26.999Z</time></trkpt><trkpt lat="45.0105669" lon="7.9869193"><ele>215.75</ele><time>2026-03-29T13:54:27.999Z</time></trkpt><trkpt lat="45.0105514" lon="7.9871021"><ele>216.5</ele><time>2026-03-29T13:54:28.999Z</time></trkpt><trkpt lat="45.0105259" lon="7.9872993"><ele>217.25</ele><time>2026-03-29T13:54:29.999Z</time></trkpt><trkpt lat="45.0105011" lon="7.9875036"><ele>218.0</ele><time>2026-03-29T13:54:30.999Z</time></trkpt><trkpt lat="45.0104776" lon="7.9877157"><ele>219.66666666666669</ele><time>2026-03-29T13:54:31.999Z</time></trkpt><trkpt lat="45.0104495" lon="7.987942"><ele>221.33333333333331</ele><time>2026-03-29T13:54:32.999Z</time></trkpt><trkpt lat="45.0104224" lon="7.9881686"><ele>223.0</ele><time>2026-03-29T13:54:33.999Z</time></trkpt><trkpt lat="45.0103957" lon="7.9883968"><ele>224.75</ele><time>2026-03-29T13:54:34.999Z</time></trkpt><trkpt lat="45.0103698" lon="7.9886126"><ele>226.5</ele><time>2026-03-29T13:54:35.999Z</time></trkpt><trkpt lat="45.0103472" lon="7.9888163"><ele>228.25</ele><time>2026-03-29T13:54:36.999Z</time></trkpt><trkpt lat="45.0103251" lon="7.9889989"><ele>230.0</ele><time>2026-03-29T13:54:37.999Z</time></trkpt><trkpt lat="45.010279" lon="7.9891616"><ele>233.0</ele><time>2026-03-29T13:54:38.999Z</time></trkpt><trkpt lat="45.0101847" lon="7.9892491"><ele>236.0</ele><time>2026-03-29T13:54:39.999Z</time></trkpt><trkpt lat="45.0100896" lon="7.989319"><ele>239.0</ele><time>2026-03-29T13:54:40.999Z</time></trkpt><trkpt lat="45.0099963" lon="7.989374"><ele>242.0</ele><time>2026-03-29T13:54:41.999Z</time></trkpt><trkpt lat="45.0099098" lon="7.9894275"><ele>245.0</ele><time>2026-03-29T13:54:42.999Z</time></trkpt><trkpt lat="45.0098472" lon="7.989493"><ele>245.00000000000003</ele><time>2026-03-29T13:54:43.999Z</time></trkpt><trkpt lat="45.0098103" lon="7.9895788"><ele>245.0</ele><time>2026-03-29T13:54:44.999Z</time></trkpt><trkpt lat="45.0098116" lon="7.9896874"><ele>245.0</ele><time>2026-03-29T13:54:45.999Z</time></trkpt><trkpt lat="45.0098212" lon="7.9897887"><ele>245.0</ele><time>2026-03-29T13:54:46.999Z</time></trkpt><trkpt lat="45.0099359" lon="7.9898205"><ele>245.00000000000003</ele><time>2026-03-29T13:54:47.999Z</time></trkpt><trkpt lat="45.0100256" lon="7.9898715"><ele>245.0</ele><time>2026-03-29T13:54:48.999Z</time></trkpt><trkpt lat="45.0101424" lon="7.9898958"><ele>245.0</ele><time>2026-03-29T13:54:49.999Z</time></trkpt><trkpt lat="45.01027" lon="7.9899169"><ele>245.0</ele><time>2026-03-29T13:54:50.999Z</time></trkpt><trkpt lat="45.0103948" lon="7.9899354"><ele>245.0</ele><time>2026-03-29T13:54:51.999Z</time></trkpt><trkpt lat="45.0105413" lon="7.9899512"><ele>245.0</ele><time>2026-03-29T13:54:52.999Z</time></trkpt><trkpt lat="45.0106804" lon="7.9899796"><ele>245.0</ele><time>2026-03-29T13:54:53.999Z</time></trkpt><trkpt lat="45.0108197" lon="7.9900002"><ele>245.0</ele><time>2026-03-29T13:54:54.999Z</time></trkpt><trkpt lat="45.0109644" lon="7.9900101"><ele>245.0</ele><time>2026-03-29T13:54:55.999Z</time></trkpt><trkpt lat="45.011107" lon="7.9900126"><ele>245.0</ele><time>2026-03-29T13:54:56.999Z</time></trkpt><trkpt lat="45.0112225" lon="7.9900162"><ele>246.16666666666669</ele><time>2026-03-29T13:54:57.999Z</time></trkpt><trkpt lat="45.0113236" lon="7.9900174"><ele>247.33333333333334</ele><time>2026-03-29T13:54:58.999Z</time></trkpt><trkpt lat="45.0114026" lon="7.9900228"><ele>248.5</ele><time>2026-03-29T13:54:59.999Z</time></trkpt><trkpt lat="45.011466" lon="7.9900374"><ele>249.66666666666669</ele><time>2026-03-29T13:55:00.999Z</time></trkpt><trkpt lat="45.0115837" lon="7.9900571"><ele>250.83333333333334</ele><time>2026-03-29T13:55:02.999Z</time></trkpt><trkpt lat="45.0116512" lon="7.9900756"><ele>252.0</ele><time>2026-03-29T13:55:03.999Z</time></trkpt><trkpt lat="45.0117169" lon="7.9900966"><ele>252.66666666666666</ele><time>2026-03-29T13:55:04.999Z</time></trkpt><trkpt lat="45.0117828" lon="7.9901224"><ele>253.33333333333331</ele><time>2026-03-29T13:55:05.999Z</time></trkpt><trkpt lat="45.0118577" lon="7.9901471"><ele>254.0</ele><time>2026-03-29T13:55:06.999Z</time></trkpt><trkpt lat="45.0119337" lon="7.9901825"><ele>254.66666666666666</ele><time>2026-03-29T13:55:07.999Z</time></trkpt><trkpt lat="45.0120111" lon="7.9902078"><ele>255.33333333333331</ele><time>2026-03-29T13:55:08.999Z</time></trkpt><trkpt lat="45.0120847" lon="7.9902352"><ele>256.0</ele><time>2026-03-29T13:55:09.999Z</time></trkpt><trkpt lat="45.0121613" lon="7.9902606"><ele>255.99999999999997</ele><time>2026-03-29T13:55:10.999Z</time></trkpt><trkpt lat="45.0122334" lon="7.9902913"><ele>256.0</ele><time>2026-03-29T13:55:11.999Z</time></trkpt><trkpt lat="45.0123077" lon="7.9903208"><ele>256.0</ele><time>2026-03-29T13:55:12.999Z</time></trkpt><trkpt lat="45.0123771" lon="7.9903592"><ele>256.0</ele><time>2026-03-29T13:55:13.999Z</time></trkpt><trkpt lat="45.0124433" lon="7.9904106"><ele>255.99999999999997</ele><time>2026-03-29T13:55:14.999Z</time></trkpt><trkpt lat="45.0125011" lon="7.990475"><ele>256.0</ele><time>2026-03-29T13:55:15.999Z</time></trkpt><trkpt lat="45.0125579" lon="7.9905442"><ele>256.40000000000003</ele><time>2026-03-29T13:55:16.999Z</time></trkpt><trkpt lat="45.0126218" lon="7.9906307"><ele>256.8</ele><time>2026-03-29T13:55:17.999Z</time></trkpt><trkpt lat="45.0126848" lon="7.9907301"><ele>257.20000000000005</ele><time>2026-03-29T13:55:18.999Z</time></trkpt><trkpt lat="45.012744" lon="7.9908281"><ele>257.6</ele><time>2026-03-29T13:55:19.999Z</time></trkpt><trkpt lat="45.0128007" lon="7.9909248"><ele>258.0</ele><time>2026-03-29T13:55:20.999Z</time></trkpt><trkpt lat="45.0128493" lon="7.9910286"><ele>259.2</ele><time>2026-03-29T13:55:21.999Z</time></trkpt><trkpt lat="45.0129" lon="7.9911316"><ele>260.4</ele><time>2026-03-29T13:55:22.999Z</time></trkpt><trkpt lat="45.0129446" lon="7.9912386"><ele>261.59999999999997</ele><time>2026-03-29T13:55:23.999Z</time></trkpt><trkpt lat="45.0129879" lon="7.9913563"><ele>262.8</ele><time>2026-03-29T13:55:24.999Z</time></trkpt><trkpt lat="45.0130285" lon="7.9914649"><ele>264.0</ele><time>2026-03-29T13:55:25.999Z</time></trkpt><trkpt lat="45.0130784" lon="7.9915774"><ele>263.5</ele><time>2026-03-29T13:55:26.999Z</time></trkpt><trkpt lat="45.0131401" lon="7.9916738"><ele>263.0</ele><time>2026-03-29T13:55:27.999Z</time></trkpt><trkpt lat="45.0132197" lon="7.991769"><ele>262.5</ele><time>2026-03-29T13:55:28.999Z</time></trkpt><trkpt lat="45.0133123" lon="7.9918884"><ele>262.0</ele><time>2026-03-29T13:55:29.999Z</time></trkpt><trkpt lat="45.013426" lon="7.9919967"><ele>262.0</ele><time>2026-03-29T13:55:30.999Z</time></trkpt><trkpt lat="45.0135534" lon="7.9920962"><ele>262.0</ele><time>2026-03-29T13:55:31.999Z</time></trkpt><trkpt lat="45.0136947" lon="7.9921726"><ele>262.0</ele><time>2026-03-29T13:55:32.999Z</time></trkpt><trkpt lat="45.0138468" lon="7.992233"><ele>262.0</ele><time>2026-03-29T13:55:33.999Z</time></trkpt><trkpt lat="45.0140014" lon="7.9922838"><ele>262.0</ele><time>2026-03-29T13:55:34.999Z</time></trkpt><trkpt lat="45.0141557" lon="7.9923394"><ele>262.0</ele><time>2026-03-29T13:55:35.999Z</time></trkpt><trkpt lat="45.0143172" lon="7.9923904"><ele>261.66666666666663</ele><time>2026-03-29T13:55:36.999Z</time></trkpt><trkpt lat="45.0144713" lon="7.9924457"><ele>261.3333333333333</ele><time>2026-03-29T13:55:37.999Z</time></trkpt><trkpt lat="45.0146229" lon="7.99249"><ele>261.0</ele><time>2026-03-29T13:55:38.999Z</time></trkpt><trkpt lat="45.0147651" lon="7.9925333"><ele>261.0</ele><time>2026-03-29T13:55:39.999Z</time></trkpt><trkpt lat="45.0149064" lon="7.992583"><ele>261.0</ele><time>2026-03-29T13:55:40.999Z</time></trkpt><trkpt lat="45.0150526" lon="7.9926308"><ele>261.0</ele><time>2026-03-29T13:55:41.999Z</time></trkpt><trkpt lat="45.0152018" lon="7.992672"><ele>261.0</ele><time>2026-03-29T13:55:42.999Z</time></trkpt><trkpt lat="45.0153487" lon="7.9927073"><ele>262.25</ele><time>2026-03-29T13:55:43.999Z</time></trkpt><trkpt lat="45.0154993" lon="7.9927239"><ele>263.5</ele><time>2026-03-29T13:55:44.999Z</time></trkpt><trkpt lat="45.0156438" lon="7.9927355"><ele>264.75</ele><time>2026-03-29T13:55:45.999Z</time></trkpt><trkpt lat="45.0157875" lon="7.9927354"><ele>266.0</ele><time>2026-03-29T13:55:47Z</time></trkpt><trkpt lat="45.0159296" lon="7.9927097"><ele>267.33333333333337</ele><time>2026-03-29T13:55:47.999Z</time></trkpt><trkpt lat="45.0160846" lon="7.9926805"><ele>268.6666666666667</ele><time>2026-03-29T13:55:48.999Z</time></trkpt><trkpt lat="45.0162412" lon="7.9926305"><ele>270.0</ele><time>2026-03-29T13:55:49.999Z</time></trkpt><trkpt lat="45.0164035" lon="7.99256"><ele>270.0</ele><time>2026-03-29T13:55:50.999Z</time></trkpt><trkpt lat="45.01656" lon="7.9924652"><ele>270.0</ele><time>2026-03-29T13:55:51.999Z</time></trkpt><trkpt lat="45.016715" lon="7.9923537"><ele>270.0</ele><time>2026-03-29T13:55:52.999Z</time></trkpt><trkpt lat="45.0168687" lon="7.9922423"><ele>270.0</ele><time>2026-03-29T13:55:53.999Z</time></trkpt><trkpt lat="45.0170201" lon="7.992124"><ele>270.0</ele><time>2026-03-29T13:55:54.999Z</time></trkpt><trkpt lat="45.0171648" lon="7.9919961"><ele>270.0</ele><time>2026-03-29T13:55:55.999Z</time></trkpt><trkpt lat="45.0173041" lon="7.9918545"><ele>270.0</ele><time>2026-03-29T13:55:56.999Z</time></trkpt><trkpt lat="45.0174407" lon="7.9917092"><ele>270.0</ele><time>2026-03-29T13:55:57.999Z</time></trkpt><trkpt lat="45.0175687" lon="7.9915605"><ele>270.0</ele><time>2026-03-29T13:55:58.999Z</time></trkpt><trkpt lat="45.0176893" lon="7.991399"><ele>268.6666666666667</ele><time>2026-03-29T13:55:59.999Z</time></trkpt><trkpt lat="45.0177988" lon="7.9912234"><ele>267.33333333333337</ele><time>2026-03-29T13:56:00.999Z</time></trkpt><trkpt lat="45.0179007" lon="7.9910279"><ele>266.0</ele><time>2026-03-29T13:56:01.999Z</time></trkpt><trkpt lat="45.0179875" lon="7.9908245"><ele>265.33333333333337</ele><time>2026-03-29T13:56:02.999Z</time></trkpt><trkpt lat="45.018077" lon="7.9906087"><ele>264.6666666666667</ele><time>2026-03-29T13:56:03.999Z</time></trkpt><trkpt lat="45.0181593" lon="7.9903879"><ele>264.0</ele><time>2026-03-29T13:56:04.999Z</time></trkpt><trkpt lat="45.0182445" lon="7.990159"><ele>266.0</ele><time>2026-03-29T13:56:05.999Z</time></trkpt><trkpt lat="45.018325" lon="7.9899407"><ele>268.0</ele><time>2026-03-29T13:56:06.999Z</time></trkpt><trkpt lat="45.0184047" lon="7.9897251"><ele>270.0</ele><time>2026-03-29T13:56:07.999Z</time></trkpt><trkpt lat="45.0184809" lon="7.9895213"><ele>270.0</ele><time>2026-03-29T13:56:08.999Z</time></trkpt><trkpt lat="45.0185531" lon="7.9893254"><ele>270.0</ele><time>2026-03-29T13:56:09.999Z</time></trkpt><trkpt lat="45.0186252" lon="7.9891299"><ele>270.0</ele><time>2026-03-29T13:56:10.999Z</time></trkpt><trkpt lat="45.0186888" lon="7.988946"><ele>269.5</ele><time>2026-03-29T13:56:11.999Z</time></trkpt><trkpt lat="45.0187458" lon="7.9887784"><ele>269.0</ele><time>2026-03-29T13:56:12.999Z</time></trkpt><trkpt lat="45.0188036" lon="7.9886184"><ele>268.5</ele><time>2026-03-29T13:56:13.999Z</time></trkpt><trkpt lat="45.0188689" lon="7.9884566"><ele>268.0</ele><time>2026-03-29T13:56:14.999Z</time></trkpt><trkpt lat="45.0189307" lon="7.9883102"><ele>268.0</ele><time>2026-03-29T13:56:15.999Z</time></trkpt><trkpt lat="45.0190069" lon="7.9881697"><ele>268.0</ele><time>2026-03-29T13:56:16.999Z</time></trkpt><trkpt lat="45.0190928" lon="7.9880551"><ele>268.0</ele><time>2026-03-29T13:56:17.999Z</time></trkpt><trkpt lat="45.0191811" lon="7.9879579"><ele>268.0</ele><time>2026-03-29T13:56:18.999Z</time></trkpt><trkpt lat="45.0192692" lon="7.9878746"><ele>269.0</ele><time>2026-03-29T13:56:19.999Z</time></trkpt><trkpt lat="45.0193509" lon="7.9878067"><ele>270.0</ele><time>2026-03-29T13:56:20.999Z</time></trkpt><trkpt lat="45.0194321" lon="7.9877529"><ele>271.0</ele><time>2026-03-29T13:56:22Z</time></trkpt><trkpt lat="45.0195056" lon="7.9877094"><ele>272.0</ele><time>2026-03-29T13:56:22.999Z</time></trkpt><trkpt lat="45.0195884" lon="7.9876785"><ele>273.0</ele><time>2026-03-29T13:56:23.999Z</time></trkpt><trkpt lat="45.0196792" lon="7.9876573"><ele>274.0</ele><time>2026-03-29T13:56:24.999Z</time></trkpt><trkpt lat="45.0197719" lon="7.9876475"><ele>274.0</ele><time>2026-03-29T13:56:25.999Z</time></trkpt><trkpt lat="45.0198601" lon="7.9876555"><ele>274.0</ele><time>2026-03-29T13:56:26.999Z</time></trkpt><trkpt lat="45.019941" lon="7.9876807"><ele>274.0</ele><time>2026-03-29T13:56:27.999Z</time></trkpt><trkpt lat="45.020019" lon="7.9877076"><ele>274.0</ele><time>2026-03-29T13:56:28.999Z</time></trkpt><trkpt lat="45.0201023" lon="7.9877382"><ele>274.0</ele><time>2026-03-29T13:56:29.999Z</time></trkpt><trkpt lat="45.0201894" lon="7.9877791"><ele>274.0</ele><time>2026-03-29T13:56:30.999Z</time></trkpt><trkpt lat="45.020294" lon="7.9878205"><ele>274.25</ele><time>2026-03-29T13:56:31.999Z</time></trkpt><trkpt lat="45.0204192" lon="7.9878693"><ele>274.5</ele><time>2026-03-29T13:56:32.999Z</time></trkpt><trkpt lat="45.0205571" lon="7.9879324"><ele>274.75</ele><time>2026-03-29T13:56:33.999Z</time></trkpt><trkpt lat="45.0206882" lon="7.9880015"><ele>275.0</ele><time>2026-03-29T13:56:34.999Z</time></trkpt><trkpt lat="45.020812" lon="7.9880602"><ele>274.75</ele><time>2026-03-29T13:56:35.999Z</time></trkpt><trkpt lat="45.0209274" lon="7.9881074"><ele>274.5</ele><time>2026-03-29T13:56:36.999Z</time></trkpt><trkpt lat="45.0210425" lon="7.9881386"><ele>274.25</ele><time>2026-03-29T13:56:37.999Z</time></trkpt><trkpt lat="45.0211899" lon="7.9881183"><ele>274.0</ele><time>2026-03-29T13:56:38.999Z</time></trkpt><trkpt lat="45.021334" lon="7.9880723"><ele>274.0</ele><time>2026-03-29T13:56:39.999Z</time></trkpt><trkpt lat="45.0214765" lon="7.9880206"><ele>274.0</ele><time>2026-03-29T13:56:40.999Z</time></trkpt><trkpt lat="45.0216043" lon="7.9879705"><ele>274.0</ele><time>2026-03-29T13:56:41.999Z</time></trkpt><trkpt lat="45.0217344" lon="7.9879186"><ele>274.0</ele><time>2026-03-29T13:56:42.999Z</time></trkpt><trkpt lat="45.0218451" lon="7.9878653"><ele>272.4</ele><time>2026-03-29T13:56:43.999Z</time></trkpt><trkpt lat="45.0219561" lon="7.9878129"><ele>270.79999999999995</ele><time>2026-03-29T13:56:44.999Z</time></trkpt><trkpt lat="45.0220673" lon="7.9877748"><ele>269.20000000000005</ele><time>2026-03-29T13:56:45.999Z</time></trkpt><trkpt lat="45.0221655" lon="7.9877624"><ele>267.6</ele><time>2026-03-29T13:56:46.999Z</time></trkpt><trkpt lat="45.0222653" lon="7.9877756"><ele>266.0</ele><time>2026-03-29T13:56:47.999Z</time></trkpt><trkpt lat="45.0223724" lon="7.9878208"><ele>264.25</ele><time>2026-03-29T13:56:48.999Z</time></trkpt><trkpt lat="45.0225" lon="7.9878869"><ele>262.5</ele><time>2026-03-29T13:56:49.999Z</time></trkpt><trkpt lat="45.0226368" lon="7.9879681"><ele>260.75</ele><time>2026-03-29T13:56:50.999Z</time></trkpt><trkpt lat="45.0227844" lon="7.9880581"><ele>259.0</ele><time>2026-03-29T13:56:51.999Z</time></trkpt><trkpt lat="45.0229431" lon="7.988157"><ele>259.0</ele><time>2026-03-29T13:56:52.999Z</time></trkpt><trkpt lat="45.0231122" lon="7.9882678"><ele>259.0</ele><time>2026-03-29T13:56:53.999Z</time></trkpt><trkpt lat="45.0232894" lon="7.988375"><ele>259.0</ele><time>2026-03-29T13:56:54.999Z</time></trkpt><trkpt lat="45.0234666" lon="7.9884718"><ele>256.0</ele><time>2026-03-29T13:56:55.999Z</time></trkpt><trkpt lat="45.0236489" lon="7.9885692"><ele>253.0</ele><time>2026-03-29T13:56:56.999Z</time></trkpt><trkpt lat="45.0238164" lon="7.9886737"><ele>250.0</ele><time>2026-03-29T13:56:57.999Z</time></trkpt><trkpt lat="45.0239605" lon="7.9887917"><ele>250.0</ele><time>2026-03-29T13:56:58.999Z</time></trkpt><trkpt lat="45.0240865" lon="7.9889148"><ele>250.0</ele><time>2026-03-29T13:56:59.999Z</time></trkpt><trkpt lat="45.0241971" lon="7.9890278"><ele>250.0</ele><time>2026-03-29T13:57:00.999Z</time></trkpt><trkpt lat="45.0242967" lon="7.9891311"><ele>250.0</ele><time>2026-03-29T13:57:01.999Z</time></trkpt><trkpt lat="45.0243967" lon="7.9892132"><ele>251.25</ele><time>2026-03-29T13:57:02.999Z</time></trkpt><trkpt lat="45.0245237" lon="7.9892001"><ele>252.5</ele><time>2026-03-29T13:57:03.999Z</time></trkpt><trkpt lat="45.0246375" lon="7.9891589"><ele>253.75</ele><time>2026-03-29T13:57:04.999Z</time></trkpt><trkpt lat="45.0247611" lon="7.9890896"><ele>255.0</ele><time>2026-03-29T13:57:05.999Z</time></trkpt><trkpt lat="45.0248877" lon="7.9890039"><ele>260.0</ele><time>2026-03-29T13:57:06.999Z</time></trkpt><trkpt lat="45.0250198" lon="7.988896"><ele>265.0</ele><time>2026-03-29T13:57:07.999Z</time></trkpt><trkpt lat="45.0251492" lon="7.9887777"><ele>270.0</ele><time>2026-03-29T13:57:08.999Z</time></trkpt><trkpt lat="45.0252743" lon="7.9886386"><ele>270.0</ele><time>2026-03-29T13:57:09.999Z</time></trkpt><trkpt lat="45.0253882" lon="7.9884753"><ele>270.0</ele><time>2026-03-29T13:57:10.999Z</time></trkpt><trkpt lat="45.025501" lon="7.988282"><ele>270.0</ele><time>2026-03-29T13:57:11.999Z</time></trkpt><trkpt lat="45.0256043" lon="7.9880829"><ele>268.3333333333333</ele><time>2026-03-29T13:57:12.999Z</time></trkpt><trkpt lat="45.0257167" lon="7.9878809"><ele>266.66666666666663</ele><time>2026-03-29T13:57:13.999Z</time></trkpt><trkpt lat="45.0258411" lon="7.9876898"><ele>265.0</ele><time>2026-03-29T13:57:14.999Z</time></trkpt><trkpt lat="45.0259797" lon="7.9875291"><ele>267.3333333333333</ele><time>2026-03-29T13:57:15.999Z</time></trkpt><trkpt lat="45.0261319" lon="7.9873919"><ele>269.6666666666667</ele><time>2026-03-29T13:57:16.999Z</time></trkpt><trkpt lat="45.0262926" lon="7.9872657"><ele>272.0</ele><time>2026-03-29T13:57:17.999Z</time></trkpt><trkpt lat="45.0264519" lon="7.9871626"><ele>272.0</ele><time>2026-03-29T13:57:18.999Z</time></trkpt><trkpt lat="45.0266202" lon="7.9870715"><ele>272.0</ele><time>2026-03-29T13:57:19.999Z</time></trkpt><trkpt lat="45.0267856" lon="7.9869795"><ele>272.0</ele><time>2026-03-29T13:57:20.999Z</time></trkpt><trkpt lat="45.0269548" lon="7.9869085"><ele>269.6666666666667</ele><time>2026-03-29T13:57:21.999Z</time></trkpt><trkpt lat="45.0271239" lon="7.9868661"><ele>267.3333333333333</ele><time>2026-03-29T13:57:22.999Z</time></trkpt><trkpt lat="45.0272914" lon="7.9868708"><ele>265.0</ele><time>2026-03-29T13:57:23.999Z</time></trkpt><trkpt lat="45.0274647" lon="7.9869228"><ele>265.0</ele><time>2026-03-29T13:57:24.999Z</time></trkpt><trkpt lat="45.0276431" lon="7.9869937"><ele>265.0</ele><time>2026-03-29T13:57:25.999Z</time></trkpt><trkpt lat="45.0278299" lon="7.9870735"><ele>265.0</ele><time>2026-03-29T13:57:26.999Z</time></trkpt><trkpt lat="45.0280167" lon="7.9871575"><ele>265.0</ele><time>2026-03-29T13:57:27.999Z</time></trkpt><trkpt lat="45.0281929" lon="7.9872312"><ele>265.0</ele><time>2026-03-29T13:57:28.999Z</time></trkpt><trkpt lat="45.0283645" lon="7.9872725"><ele>265.0</ele><time>2026-03-29T13:57:29.999Z</time></trkpt><trkpt lat="45.0285428" lon="7.987279"><ele>267.0</ele><time>2026-03-29T13:57:30.999Z</time></trkpt><trkpt lat="45.0287263" lon="7.9872653"><ele>269.0</ele><time>2026-03-29T13:57:31.999Z</time></trkpt><trkpt lat="45.0289187" lon="7.987237"><ele>271.0</ele><time>2026-03-29T13:57:32.999Z</time></trkpt><trkpt lat="45.0291121" lon="7.9872012"><ele>270.66666666666663</ele><time>2026-03-29T13:57:33.999Z</time></trkpt><trkpt lat="45.0292987" lon="7.9871443"><ele>270.3333333333333</ele><time>2026-03-29T13:57:34.999Z</time></trkpt><trkpt lat="45.0294737" lon="7.9870771"><ele>270.0</ele><time>2026-03-29T13:57:35.999Z</time></trkpt><trkpt lat="45.029643" lon="7.9869639"><ele>270.0</ele><time>2026-03-29T13:57:36.999Z</time></trkpt><trkpt lat="45.0297961" lon="7.9868602"><ele>270.0</ele><time>2026-03-29T13:57:37.999Z</time></trkpt><trkpt lat="45.0299409" lon="7.9867628"><ele>270.0</ele><time>2026-03-29T13:57:38.999Z</time></trkpt><trkpt lat="45.0300804" lon="7.9866709"><ele>271.0</ele><time>2026-03-29T13:57:39.999Z</time></trkpt><trkpt lat="45.0302043" lon="7.986599"><ele>272.0</ele><time>2026-03-29T13:57:40.999Z</time></trkpt><trkpt lat="45.0303315" lon="7.9865301"><ele>273.0</ele><time>2026-03-29T13:57:41.999Z</time></trkpt><trkpt lat="45.0304502" lon="7.986436"><ele>274.0</ele><time>2026-03-29T13:57:42.999Z</time></trkpt><trkpt lat="45.0305633" lon="7.9863027"><ele>274.0</ele><time>2026-03-29T13:57:43.999Z</time></trkpt><trkpt lat="45.0306637" lon="7.9861607"><ele>274.0</ele><time>2026-03-29T13:57:44.999Z</time></trkpt><trkpt lat="45.0307708" lon="7.9859748"><ele>274.0</ele><time>2026-03-29T13:57:45.999Z</time></trkpt><trkpt lat="45.0309016" lon="7.9857795"><ele>273.0</ele><time>2026-03-29T13:57:46.999Z</time></trkpt><trkpt lat="45.0310352" lon="7.9856188"><ele>272.0</ele><time>2026-03-29T13:57:47.999Z</time></trkpt><trkpt lat="45.0311874" lon="7.9854641"><ele>271.0</ele><time>2026-03-29T13:57:48.999Z</time></trkpt><trkpt lat="45.0313516" lon="7.9853238"><ele>271.0</ele><time>2026-03-29T13:57:49.999Z</time></trkpt><trkpt lat="45.0315128" lon="7.9851821"><ele>271.0</ele><time>2026-03-29T13:57:51Z</time></trkpt><trkpt lat="45.0316625" lon="7.9850464"><ele>271.0</ele><time>2026-03-29T13:57:51.999Z</time></trkpt><trkpt lat="45.0318058" lon="7.984909"><ele>271.3333333333333</ele><time>2026-03-29T13:57:52.999Z</time></trkpt><trkpt lat="45.0319302" lon="7.9847813"><ele>271.6666666666667</ele><time>2026-03-29T13:57:53.999Z</time></trkpt><trkpt lat="45.0320658" lon="7.9846734"><ele>272.0</ele><time>2026-03-29T13:57:54.999Z</time></trkpt><trkpt lat="45.0322122" lon="7.9845961"><ele>272.0</ele><time>2026-03-29T13:57:55.999Z</time></trkpt><trkpt lat="45.0323762" lon="7.9845375"><ele>272.0</ele><time>2026-03-29T13:57:56.999Z</time></trkpt><trkpt lat="45.0325447" lon="7.9845046"><ele>272.0</ele><time>2026-03-29T13:57:57.999Z</time></trkpt><trkpt lat="45.0326983" lon="7.9844916"><ele>272.0</ele><time>2026-03-29T13:57:58.999Z</time></trkpt><trkpt lat="45.0328424" lon="7.9845049"><ele>272.0</ele><time>2026-03-29T13:57:59.999Z</time></trkpt><trkpt lat="45.0329754" lon="7.9845598"><ele>272.0</ele><time>2026-03-29T13:58:00.999Z</time></trkpt><trkpt lat="45.0331021" lon="7.9846509"><ele>272.0</ele><time>2026-03-29T13:58:01.999Z</time></trkpt><trkpt lat="45.0332323" lon="7.984767"><ele>272.6666666666667</ele><time>2026-03-29T13:58:02.999Z</time></trkpt><trkpt lat="45.0333642" lon="7.9848877"><ele>273.3333333333333</ele><time>2026-03-29T13:58:03.999Z</time></trkpt><trkpt lat="45.0335022" lon="7.9849867"><ele>274.0</ele><time>2026-03-29T13:58:04.999Z</time></trkpt><trkpt lat="45.0336533" lon="7.9850695"><ele>274.0</ele><time>2026-03-29T13:58:05.999Z</time></trkpt><trkpt lat="45.0338128" lon="7.9851254"><ele>274.0</ele><time>2026-03-29T13:58:06.999Z</time></trkpt><trkpt lat="45.0339785" lon="7.9851434"><ele>274.0</ele><time>2026-03-29T13:58:07.999Z</time></trkpt><trkpt lat="45.0341377" lon="7.9851433"><ele>276.66666666666663</ele><time>2026-03-29T13:58:08.999Z</time></trkpt><trkpt lat="45.0342854" lon="7.9850934"><ele>279.3333333333333</ele><time>2026-03-29T13:58:09.999Z</time></trkpt><trkpt lat="45.0344321" lon="7.9849963"><ele>282.0</ele><time>2026-03-29T13:58:10.999Z</time></trkpt><trkpt lat="45.0345824" lon="7.9849008"><ele>281.6666666666667</ele><time>2026-03-29T13:58:11.999Z</time></trkpt><trkpt lat="45.0347428" lon="7.984824"><ele>281.33333333333337</ele><time>2026-03-29T13:58:12.999Z</time></trkpt><trkpt lat="45.0348886" lon="7.9848379"><ele>281.0</ele><time>2026-03-29T13:58:13.999Z</time></trkpt><trkpt lat="45.0350358" lon="7.9848738"><ele>281.0</ele><time>2026-03-29T13:58:14.999Z</time></trkpt><trkpt lat="45.0351878" lon="7.9849235"><ele>281.0</ele><time>2026-03-29T13:58:15.999Z</time></trkpt><trkpt lat="45.0353366" lon="7.9849862"><ele>281.0</ele><time>2026-03-29T13:58:16.999Z</time></trkpt><trkpt lat="45.0354694" lon="7.9850676"><ele>280.25</ele><time>2026-03-29T13:58:17.999Z</time></trkpt><trkpt lat="45.0355812" lon="7.9851884"><ele>279.5</ele><time>2026-03-29T13:58:18.999Z</time></trkpt><trkpt lat="45.0356682" lon="7.9853444"><ele>278.75</ele><time>2026-03-29T13:58:19.999Z</time></trkpt><trkpt lat="45.0357596" lon="7.985499"><ele>278.0</ele><time>2026-03-29T13:58:20.999Z</time></trkpt><trkpt lat="45.0359026" lon="7.9856008"><ele>280.6666666666667</ele><time>2026-03-29T13:58:21.999Z</time></trkpt><trkpt lat="45.0360355" lon="7.9857054"><ele>283.3333333333333</ele><time>2026-03-29T13:58:22.999Z</time></trkpt><trkpt lat="45.0362027" lon="7.9857621"><ele>286.0</ele><time>2026-03-29T13:58:23.999Z</time></trkpt><trkpt lat="45.0364074" lon="7.9857105"><ele>286.0</ele><time>2026-03-29T13:58:24.999Z</time></trkpt><trkpt lat="45.0365878" lon="7.9857088"><ele>286.0</ele><time>2026-03-29T13:58:25.999Z</time></trkpt><trkpt lat="45.0367579" lon="7.9857098"><ele>286.0</ele><time>2026-03-29T13:58:26.999Z</time></trkpt><trkpt lat="45.0369143" lon="7.9856917"><ele>288.0</ele><time>2026-03-29T13:58:27.999Z</time></trkpt><trkpt lat="45.0370647" lon="7.9856253"><ele>290.0</ele><time>2026-03-29T13:58:28.999Z</time></trkpt><trkpt lat="45.0372105" lon="7.9855239"><ele>292.0</ele><time>2026-03-29T13:58:29.999Z</time></trkpt><trkpt lat="45.0373344" lon="7.9853456"><ele>293.66666666666663</ele><time>2026-03-29T13:58:30.999Z</time></trkpt><trkpt lat="45.0374814" lon="7.9852018"><ele>295.3333333333333</ele><time>2026-03-29T13:58:31.999Z</time></trkpt><trkpt lat="45.0376398" lon="7.9850879"><ele>297.0</ele><time>2026-03-29T13:58:32.999Z</time></trkpt><trkpt lat="45.0378035" lon="7.9850328"><ele>297.0</ele><time>2026-03-29T13:58:33.999Z</time></trkpt><trkpt lat="45.0380096" lon="7.9850738"><ele>297.0</ele><time>2026-03-29T13:58:34.999Z</time></trkpt><trkpt lat="45.038178" lon="7.9850429"><ele>297.0</ele><time>2026-03-29T13:58:35.999Z</time></trkpt><trkpt lat="45.0383433" lon="7.9849855"><ele>294.3333333333333</ele><time>2026-03-29T13:58:36.999Z</time></trkpt><trkpt lat="45.0384785" lon="7.98482"><ele>291.66666666666663</ele><time>2026-03-29T13:58:37.999Z</time></trkpt><trkpt lat="45.0386216" lon="7.9846747"><ele>289.0</ele><time>2026-03-29T13:58:38.999Z</time></trkpt><trkpt lat="45.0387911" lon="7.9845567"><ele>289.0</ele><time>2026-03-29T13:58:39.999Z</time></trkpt><trkpt lat="45.0389681" lon="7.9844414"><ele>289.0</ele><time>2026-03-29T13:58:40.999Z</time></trkpt><trkpt lat="45.0391409" lon="7.9843102"><ele>289.0</ele><time>2026-03-29T13:58:41.999Z</time></trkpt><trkpt lat="45.0393252" lon="7.9841687"><ele>291.0</ele><time>2026-03-29T13:58:42.999Z</time></trkpt><trkpt lat="45.0395062" lon="7.984024"><ele>293.0</ele><time>2026-03-29T13:58:43.999Z</time></trkpt><trkpt lat="45.0396879" lon="7.9838676"><ele>295.0</ele><time>2026-03-29T13:58:44.999Z</time></trkpt><trkpt lat="45.0398614" lon="7.9837231"><ele>295.0</ele><time>2026-03-29T13:58:45.999Z</time></trkpt><trkpt lat="45.0400254" lon="7.9836013"><ele>295.0</ele><time>2026-03-29T13:58:46.999Z</time></trkpt><trkpt lat="45.0401868" lon="7.9834753"><ele>295.0</ele><time>2026-03-29T13:58:47.999Z</time></trkpt><trkpt lat="45.0403586" lon="7.9833549"><ele>294.3333333333333</ele><time>2026-03-29T13:58:48.999Z</time></trkpt><trkpt lat="45.0405248" lon="7.9832478"><ele>293.6666666666667</ele><time>2026-03-29T13:58:49.999Z</time></trkpt><trkpt lat="45.0406855" lon="7.9831782"><ele>293.0</ele><time>2026-03-29T13:58:50.999Z</time></trkpt><trkpt lat="45.0408143" lon="7.9831244"><ele>293.0</ele><time>2026-03-29T13:58:51.999Z</time></trkpt><trkpt lat="45.0409471" lon="7.9830491"><ele>293.0</ele><time>2026-03-29T13:58:52.999Z</time></trkpt><trkpt lat="45.0410772" lon="7.9829457"><ele>293.0</ele><time>2026-03-29T13:58:53.999Z</time></trkpt><trkpt lat="45.0412084" lon="7.9827944"><ele>293.0</ele><time>2026-03-29T13:58:54.999Z</time></trkpt><trkpt lat="45.0413219" lon="7.9826285"><ele>293.0</ele><time>2026-03-29T13:58:55.999Z</time></trkpt><trkpt lat="45.0414202" lon="7.9824533"><ele>293.0</ele><time>2026-03-29T13:58:56.999Z</time></trkpt><trkpt lat="45.0415061" lon="7.982272"><ele>293.5</ele><time>2026-03-29T13:58:57.999Z</time></trkpt><trkpt lat="45.0415543" lon="7.9820757"><ele>294.0</ele><time>2026-03-29T13:58:58.999Z</time></trkpt><trkpt lat="45.0415983" lon="7.9818877"><ele>294.5</ele><time>2026-03-29T13:58:59.999Z</time></trkpt><trkpt lat="45.0415958" lon="7.9816956"><ele>295.0</ele><time>2026-03-29T13:59:00.999Z</time></trkpt><trkpt lat="45.0415763" lon="7.9815115"><ele>295.0</ele><time>2026-03-29T13:59:01.999Z</time></trkpt><trkpt lat="45.0415385" lon="7.9813368"><ele>295.0</ele><time>2026-03-29T13:59:02.999Z</time></trkpt><trkpt lat="45.0414817" lon="7.981155"><ele>295.0</ele><time>2026-03-29T13:59:03.999Z</time></trkpt><trkpt lat="45.0414239" lon="7.9809567"><ele>295.0</ele><time>2026-03-29T13:59:04.999Z</time></trkpt><trkpt lat="45.0413775" lon="7.9807393"><ele>292.5</ele><time>2026-03-29T13:59:05.999Z</time></trkpt><trkpt lat="45.0413391" lon="7.9805198"><ele>290.0</ele><time>2026-03-29T13:59:06.999Z</time></trkpt><trkpt lat="45.0413027" lon="7.9803138"><ele>287.5</ele><time>2026-03-29T13:59:07.999Z</time></trkpt><trkpt lat="45.041262" lon="7.9801303"><ele>285.0</ele><time>2026-03-29T13:59:08.999Z</time></trkpt><trkpt lat="45.0412338" lon="7.9799842"><ele>282.8333333333333</ele><time>2026-03-29T13:59:09.999Z</time></trkpt><trkpt lat="45.0412044" lon="7.979852"><ele>280.6666666666667</ele><time>2026-03-29T13:59:10.999Z</time></trkpt><trkpt lat="45.0412035" lon="7.9797513"><ele>278.5</ele><time>2026-03-29T13:59:11.999Z</time></trkpt><trkpt lat="45.0412343" lon="7.97967"><ele>276.33333333333337</ele><time>2026-03-29T13:59:12.999Z</time></trkpt><trkpt lat="45.0413106" lon="7.9796148"><ele>274.1666666666667</ele><time>2026-03-29T13:59:14.999Z</time></trkpt><trkpt lat="45.0413613" lon="7.9797109"><ele>272.0</ele><time>2026-03-29T13:59:22.999Z</time></trkpt><trkpt lat="45.0413841" lon="7.9797974"><ele>272.0</ele><time>2026-03-29T13:59:23.999Z</time></trkpt><trkpt lat="45.0413932" lon="7.9799058"><ele>272.0</ele><time>2026-03-29T13:59:24.999Z</time></trkpt><trkpt lat="45.0414084" lon="7.9800282"><ele>272.0</ele><time>2026-03-29T13:59:25.999Z</time></trkpt><trkpt lat="45.0414229" lon="7.9801625"><ele>272.0</ele><time>2026-03-29T13:59:26.999Z</time></trkpt><trkpt lat="45.0414456" lon="7.9803139"><ele>272.0</ele><time>2026-03-29T13:59:27.999Z</time></trkpt><trkpt lat="45.0414631" lon="7.9804767"><ele>275.25</ele><time>2026-03-29T13:59:28.999Z</time></trkpt><trkpt lat="45.0414899" lon="7.9806683"><ele>278.5</ele><time>2026-03-29T13:59:29.999Z</time></trkpt><trkpt lat="45.0415322" lon="7.9808576"><ele>281.75</ele><time>2026-03-29T13:59:30.999Z</time></trkpt><trkpt lat="45.041595" lon="7.9810699"><ele>285.0</ele><time>2026-03-29T13:59:31.999Z</time></trkpt><trkpt lat="45.0416589" lon="7.9812713"><ele>285.0</ele><time>2026-03-29T13:59:32.999Z</time></trkpt><trkpt lat="45.0417307" lon="7.9814653"><ele>285.0</ele><time>2026-03-29T13:59:33.999Z</time></trkpt><trkpt lat="45.041817" lon="7.9816785"><ele>285.0</ele><time>2026-03-29T13:59:34.999Z</time></trkpt><trkpt lat="45.041922" lon="7.9819103"><ele>285.0</ele><time>2026-03-29T13:59:35.999Z</time></trkpt><trkpt lat="45.0419904" lon="7.9821748"><ele>285.0</ele><time>2026-03-29T13:59:36.999Z</time></trkpt><trkpt lat="45.0420595" lon="7.9823909"><ele>285.0</ele><time>2026-03-29T13:59:37.999Z</time></trkpt><trkpt lat="45.0421201" lon="7.9826025"><ele>280.3333333333333</ele><time>2026-03-29T13:59:38.999Z</time></trkpt><trkpt lat="45.042114" lon="7.9828411"><ele>275.66666666666663</ele><time>2026-03-29T13:59:39.999Z</time></trkpt><trkpt lat="45.0420934" lon="7.983103"><ele>271.0</ele><time>2026-03-29T13:59:40.999Z</time></trkpt><trkpt lat="45.0420221" lon="7.9833696"><ele>270.3333333333333</ele><time>2026-03-29T13:59:41.999Z</time></trkpt><trkpt lat="45.0419047" lon="7.9836244"><ele>269.6666666666667</ele><time>2026-03-29T13:59:42.999Z</time></trkpt><trkpt lat="45.0417647" lon="7.9838709"><ele>269.0</ele><time>2026-03-29T13:59:43.999Z</time></trkpt><trkpt lat="45.0416136" lon="7.9841235"><ele>269.0</ele><time>2026-03-29T13:59:44.999Z</time></trkpt><trkpt lat="45.0414606" lon="7.9843914"><ele>269.0</ele><time>2026-03-29T13:59:45.999Z</time></trkpt><trkpt lat="45.0413125" lon="7.9846849"><ele>269.0</ele><time>2026-03-29T13:59:46.999Z</time></trkpt><trkpt lat="45.0411688" lon="7.9849779"><ele>269.0</ele><time>2026-03-29T13:59:47.999Z</time></trkpt><trkpt lat="45.0410335" lon="7.9852748"><ele>267.0</ele><time>2026-03-29T13:59:48.999Z</time></trkpt><trkpt lat="45.0409047" lon="7.9855737"><ele>265.0</ele><time>2026-03-29T13:59:49.999Z</time></trkpt><trkpt lat="45.0407746" lon="7.9858586"><ele>263.0</ele><time>2026-03-29T13:59:50.999Z</time></trkpt><trkpt lat="45.0406461" lon="7.9861409"><ele>261.0</ele><time>2026-03-29T13:59:51.999Z</time></trkpt><trkpt lat="45.0405244" lon="7.9864222"><ele>263.5</ele><time>2026-03-29T13:59:52.999Z</time></trkpt><trkpt lat="45.0404031" lon="7.9866952"><ele>266.0</ele><time>2026-03-29T13:59:53.999Z</time></trkpt><trkpt lat="45.040268" lon="7.9869555"><ele>266.0</ele><time>2026-03-29T13:59:54.999Z</time></trkpt><trkpt lat="45.0401136" lon="7.9871822"><ele>266.0</ele><time>2026-03-29T13:59:55.999Z</time></trkpt><trkpt lat="45.0399468" lon="7.9873858"><ele>266.0</ele><time>2026-03-29T13:59:56.999Z</time></trkpt><trkpt lat="45.0397777" lon="7.9875628"><ele>264.6666666666667</ele><time>2026-03-29T13:59:57.999Z</time></trkpt><trkpt lat="45.0396075" lon="7.9877097"><ele>263.3333333333333</ele><time>2026-03-29T13:59:58.999Z</time></trkpt><trkpt lat="45.0394429" lon="7.9878525"><ele>262.0</ele><time>2026-03-29T13:59:59.999Z</time></trkpt><trkpt lat="45.0392822" lon="7.9879697"><ele>259.3333333333333</ele><time>2026-03-29T14:00:00.999Z</time></trkpt><trkpt lat="45.0391218" lon="7.9880609"><ele>256.6666666666667</ele><time>2026-03-29T14:00:01.999Z</time></trkpt><trkpt lat="45.0389697" lon="7.9881341"><ele>254.0</ele><time>2026-03-29T14:00:02.999Z</time></trkpt><trkpt lat="45.0388206" lon="7.9881892"><ele>254.0</ele><time>2026-03-29T14:00:04Z</time></trkpt><trkpt lat="45.0386862" lon="7.9882505"><ele>254.0</ele><time>2026-03-29T14:00:04.999Z</time></trkpt><trkpt lat="45.0385556" lon="7.9883172"><ele>254.0</ele><time>2026-03-29T14:00:05.999Z</time></trkpt><trkpt lat="45.0384289" lon="7.9883907"><ele>254.0</ele><time>2026-03-29T14:00:06.999Z</time></trkpt><trkpt lat="45.0383104" lon="7.9884901"><ele>252.5</ele><time>2026-03-29T14:00:07.999Z</time></trkpt><trkpt lat="45.0381981" lon="7.9886016"><ele>251.0</ele><time>2026-03-29T14:00:08.999Z</time></trkpt><trkpt lat="45.0380859" lon="7.9887278"><ele>249.5</ele><time>2026-03-29T14:00:09.999Z</time></trkpt><trkpt lat="45.0379903" lon="7.9888677"><ele>248.0</ele><time>2026-03-29T14:00:10.999Z</time></trkpt><trkpt lat="45.0378995" lon="7.9890415"><ele>250.66666666666669</ele><time>2026-03-29T14:00:11.999Z</time></trkpt><trkpt lat="45.037811" lon="7.9892415"><ele>253.33333333333331</ele><time>2026-03-29T14:00:12.999Z</time></trkpt><trkpt lat="45.0377177" lon="7.98946"><ele>256.0</ele><time>2026-03-29T14:00:13.999Z</time></trkpt><trkpt lat="45.0376138" lon="7.9896917"><ele>256.0</ele><time>2026-03-29T14:00:14.999Z</time></trkpt><trkpt lat="45.0374945" lon="7.9899238"><ele>256.0</ele><time>2026-03-29T14:00:15.999Z</time></trkpt><trkpt lat="45.0373854" lon="7.9901613"><ele>256.0</ele><time>2026-03-29T14:00:16.999Z</time></trkpt><trkpt lat="45.0372937" lon="7.99039"><ele>256.0</ele><time>2026-03-29T14:00:17.999Z</time></trkpt><trkpt lat="45.0372181" lon="7.9906031"><ele>256.0</ele><time>2026-03-29T14:00:18.999Z</time></trkpt><trkpt lat="45.0371875" lon="7.9908197"><ele>256.0</ele><time>2026-03-29T14:00:19.999Z</time></trkpt><trkpt lat="45.0371577" lon="7.9910278"><ele>256.0</ele><time>2026-03-29T14:00:20.999Z</time></trkpt><trkpt lat="45.0372026" lon="7.991281"><ele>256.0</ele><time>2026-03-29T14:00:21.999Z</time></trkpt><trkpt lat="45.0372445" lon="7.9915313"><ele>256.0</ele><time>2026-03-29T14:00:22.999Z</time></trkpt><trkpt lat="45.0373026" lon="7.9918003"><ele>253.66666666666666</ele><time>2026-03-29T14:00:23.999Z</time></trkpt><trkpt lat="45.0373645" lon="7.9920783"><ele>251.33333333333331</ele><time>2026-03-29T14:00:24.999Z</time></trkpt><trkpt lat="45.0374268" lon="7.9923543"><ele>249.0</ele><time>2026-03-29T14:00:25.999Z</time></trkpt><trkpt lat="45.0374861" lon="7.9926358"><ele>248.0</ele><time>2026-03-29T14:00:26.999Z</time></trkpt><trkpt lat="45.037545" lon="7.9928965"><ele>247.0</ele><time>2026-03-29T14:00:27.999Z</time></trkpt><trkpt lat="45.0376004" lon="7.9931434"><ele>246.0</ele><time>2026-03-29T14:00:28.999Z</time></trkpt><trkpt lat="45.0376495" lon="7.9933773"><ele>245.75</ele><time>2026-03-29T14:00:29.999Z</time></trkpt><trkpt lat="45.0377009" lon="7.9935928"><ele>245.5</ele><time>2026-03-29T14:00:30.999Z</time></trkpt><trkpt lat="45.0377443" lon="7.9937882"><ele>245.25</ele><time>2026-03-29T14:00:31.999Z</time></trkpt><trkpt lat="45.037777" lon="7.9939634"><ele>245.0</ele><time>2026-03-29T14:00:32.999Z</time></trkpt><trkpt lat="45.0378075" lon="7.9941028"><ele>244.66666666666669</ele><time>2026-03-29T14:00:33.999Z</time></trkpt><trkpt lat="45.0378359" lon="7.9942202"><ele>244.33333333333334</ele><time>2026-03-29T14:00:34.999Z</time></trkpt><trkpt lat="45.0378569" lon="7.9943135"><ele>244.0</ele><time>2026-03-29T14:00:35.999Z</time></trkpt><trkpt lat="45.0378846" lon="7.9944456"><ele>243.66666666666669</ele><time>2026-03-29T14:00:37.999Z</time></trkpt><trkpt lat="45.0379261" lon="7.9945348"><ele>243.33333333333334</ele><time>2026-03-29T14:00:39.999Z</time></trkpt><trkpt lat="45.0380274" lon="7.9945116"><ele>243.0</ele><time>2026-03-29T14:00:41.999Z</time></trkpt><trkpt lat="45.0380808" lon="7.994433"><ele>243.0</ele><time>2026-03-29T14:00:42.999Z</time></trkpt><trkpt lat="45.0381318" lon="7.9943339"><ele>243.0</ele><time>2026-03-29T14:00:43.999Z</time></trkpt><trkpt lat="45.0381747" lon="7.9942269"><ele>243.0</ele><time>2026-03-29T14:00:44.999Z</time></trkpt><trkpt lat="45.0382282" lon="7.9941079"><ele>243.0</ele><time>2026-03-29T14:00:45.999Z</time></trkpt><trkpt lat="45.0382977" lon="7.9939787"><ele>243.0</ele><time>2026-03-29T14:00:46.999Z</time></trkpt><trkpt lat="45.0383815" lon="7.99384"><ele>244.5</ele><time>2026-03-29T14:00:47.999Z</time></trkpt><trkpt lat="45.0384677" lon="7.9937087"><ele>246.0</ele><time>2026-03-29T14:00:48.999Z</time></trkpt><trkpt lat="45.0385566" lon="7.9935744"><ele>247.5</ele><time>2026-03-29T14:00:49.999Z</time></trkpt><trkpt lat="45.038647" lon="7.9934358"><ele>249.0</ele><time>2026-03-29T14:00:50.999Z</time></trkpt><trkpt lat="45.0387407" lon="7.9932929"><ele>249.0</ele><time>2026-03-29T14:00:51.999Z</time></trkpt><trkpt lat="45.038842" lon="7.9931624"><ele>249.0</ele><time>2026-03-29T14:00:52.999Z</time></trkpt><trkpt lat="45.0389531" lon="7.9930241"><ele>249.0</ele><time>2026-03-29T14:00:53.999Z</time></trkpt><trkpt lat="45.0390755" lon="7.9928855"><ele>249.0</ele><time>2026-03-29T14:00:54.999Z</time></trkpt><trkpt lat="45.0392059" lon="7.9927484"><ele>250.33333333333331</ele><time>2026-03-29T14:00:55.999Z</time></trkpt><trkpt lat="45.0393442" lon="7.9926148"><ele>251.66666666666666</ele><time>2026-03-29T14:00:56.999Z</time></trkpt><trkpt lat="45.0394841" lon="7.9924727"><ele>253.0</ele><time>2026-03-29T14:00:57.999Z</time></trkpt><trkpt lat="45.0396323" lon="7.9923227"><ele>253.0</ele><time>2026-03-29T14:00:58.999Z</time></trkpt><trkpt lat="45.0397866" lon="7.9921528"><ele>253.0</ele><time>2026-03-29T14:00:59.999Z</time></trkpt><trkpt lat="45.0399283" lon="7.9919624"><ele>253.0</ele><time>2026-03-29T14:01:00.999Z</time></trkpt><trkpt lat="45.0400732" lon="7.9917877"><ele>254.33333333333331</ele><time>2026-03-29T14:01:01.999Z</time></trkpt><trkpt lat="45.0402303" lon="7.9916415"><ele>255.66666666666669</ele><time>2026-03-29T14:01:02.999Z</time></trkpt><trkpt lat="45.0403995" lon="7.9915222"><ele>257.0</ele><time>2026-03-29T14:01:03.999Z</time></trkpt><trkpt lat="45.0405814" lon="7.9914129"><ele>257.0</ele><time>2026-03-29T14:01:04.999Z</time></trkpt><trkpt lat="45.0407528" lon="7.9913169"><ele>257.0</ele><time>2026-03-29T14:01:05.999Z</time></trkpt><trkpt lat="45.0409151" lon="7.9912304"><ele>257.0</ele><time>2026-03-29T14:01:06.999Z</time></trkpt><trkpt lat="45.0410832" lon="7.9911597"><ele>261.0</ele><time>2026-03-29T14:01:07.999Z</time></trkpt><trkpt lat="45.041253" lon="7.9911051"><ele>265.0</ele><time>2026-03-29T14:01:08.999Z</time></trkpt><trkpt lat="45.0414232" lon="7.991068"><ele>269.0</ele><time>2026-03-29T14:01:09.999Z</time></trkpt><trkpt lat="45.0415886" lon="7.9910341"><ele>271.33333333333337</ele><time>2026-03-29T14:01:10.999Z</time></trkpt><trkpt lat="45.041761" lon="7.9910189"><ele>273.6666666666667</ele><time>2026-03-29T14:01:11.999Z</time></trkpt><trkpt lat="45.0419255" lon="7.9910084"><ele>276.0</ele><time>2026-03-29T14:01:12.999Z</time></trkpt><trkpt lat="45.0420983" lon="7.9910588"><ele>276.0</ele><time>2026-03-29T14:01:13.999Z</time></trkpt><trkpt lat="45.0422423" lon="7.991065"><ele>276.0</ele><time>2026-03-29T14:01:14.999Z</time></trkpt><trkpt lat="45.0423759" lon="7.9910459"><ele>276.0</ele><time>2026-03-29T14:01:15.999Z</time></trkpt><trkpt lat="45.042489" lon="7.9909971"><ele>276.0</ele><time>2026-03-29T14:01:16.999Z</time></trkpt><trkpt lat="45.0425901" lon="7.9909146"><ele>273.0</ele><time>2026-03-29T14:01:17.999Z</time></trkpt><trkpt lat="45.0426931" lon="7.9908105"><ele>270.0</ele><time>2026-03-29T14:01:18.999Z</time></trkpt><trkpt lat="45.0427939" lon="7.9907064"><ele>267.0</ele><time>2026-03-29T14:01:19.999Z</time></trkpt><trkpt lat="45.0429112" lon="7.9905898"><ele>264.0</ele><time>2026-03-29T14:01:20.999Z</time></trkpt><trkpt lat="45.0430329" lon="7.9904648"><ele>264.0</ele><time>2026-03-29T14:01:21.999Z</time></trkpt><trkpt lat="45.043164" lon="7.9903242"><ele>264.0</ele><time>2026-03-29T14:01:22.999Z</time></trkpt><trkpt lat="45.0433103" lon="7.9901732"><ele>264.0</ele><time>2026-03-29T14:01:23.999Z</time></trkpt><trkpt lat="45.0434639" lon="7.9900281"><ele>264.3333333333333</ele><time>2026-03-29T14:01:24.999Z</time></trkpt><trkpt lat="45.0436258" lon="7.9898929"><ele>264.66666666666663</ele><time>2026-03-29T14:01:25.999Z</time></trkpt><trkpt lat="45.0438024" lon="7.9897749"><ele>265.0</ele><time>2026-03-29T14:01:26.999Z</time></trkpt><trkpt lat="45.0439881" lon="7.9896724"><ele>267.3333333333333</ele><time>2026-03-29T14:01:27.999Z</time></trkpt><trkpt lat="45.0441753" lon="7.9895909"><ele>269.6666666666667</ele><time>2026-03-29T14:01:28.999Z</time></trkpt><trkpt lat="45.0443583" lon="7.9895458"><ele>272.0</ele><time>2026-03-29T14:01:29.999Z</time></trkpt><trkpt lat="45.044533" lon="7.9895248"><ele>272.0</ele><time>2026-03-29T14:01:30.999Z</time></trkpt><trkpt lat="45.0446986" lon="7.9894915"><ele>272.0</ele><time>2026-03-29T14:01:31.999Z</time></trkpt><trkpt lat="45.0448587" lon="7.9894322"><ele>272.0</ele><time>2026-03-29T14:01:32.999Z</time></trkpt><trkpt lat="45.0450147" lon="7.9893229"><ele>273.6666666666667</ele><time>2026-03-29T14:01:33.999Z</time></trkpt><trkpt lat="45.0451312" lon="7.9891215"><ele>275.3333333333333</ele><time>2026-03-29T14:01:34.999Z</time></trkpt><trkpt lat="45.0452754" lon="7.9889555"><ele>277.0</ele><time>2026-03-29T14:01:35.999Z</time></trkpt><trkpt lat="45.0454098" lon="7.9887931"><ele>277.0</ele><time>2026-03-29T14:01:36.999Z</time></trkpt><trkpt lat="45.0455665" lon="7.9886487"><ele>277.0</ele><time>2026-03-29T14:01:37.999Z</time></trkpt><trkpt lat="45.045722" lon="7.9885153"><ele>277.0</ele><time>2026-03-29T14:01:38.999Z</time></trkpt><trkpt lat="45.0458843" lon="7.988406"><ele>279.3333333333333</ele><time>2026-03-29T14:01:39.999Z</time></trkpt><trkpt lat="45.0460471" lon="7.9882979"><ele>281.6666666666667</ele><time>2026-03-29T14:01:40.999Z</time></trkpt><trkpt lat="45.0462487" lon="7.9882686"><ele>284.0</ele><time>2026-03-29T14:01:41.999Z</time></trkpt><trkpt lat="45.0464255" lon="7.9882016"><ele>284.0</ele><time>2026-03-29T14:01:42.999Z</time></trkpt><trkpt lat="45.0466181" lon="7.988161"><ele>284.0</ele><time>2026-03-29T14:01:43.999Z</time></trkpt><trkpt lat="45.0468419" lon="7.988181"><ele>284.0</ele><time>2026-03-29T14:01:44.999Z</time></trkpt><trkpt lat="45.0470543" lon="7.9881905"><ele>288.0</ele><time>2026-03-29T14:01:45.999Z</time></trkpt><trkpt lat="45.0472716" lon="7.9881847"><ele>292.0</ele><time>2026-03-29T14:01:46.999Z</time></trkpt><trkpt lat="45.0474914" lon="7.9881785"><ele>296.0</ele><time>2026-03-29T14:01:47.999Z</time></trkpt><trkpt lat="45.0477018" lon="7.9881713"><ele>297.0</ele><time>2026-03-29T14:01:48.999Z</time></trkpt><trkpt lat="45.0479007" lon="7.9881488"><ele>298.0</ele><time>2026-03-29T14:01:49.999Z</time></trkpt><trkpt lat="45.0481" lon="7.9881188"><ele>299.0</ele><time>2026-03-29T14:01:50.999Z</time></trkpt><trkpt lat="45.0482807" lon="7.9880022"><ele>299.6666666666667</ele><time>2026-03-29T14:01:51.999Z</time></trkpt><trkpt lat="45.0484559" lon="7.9878883"><ele>300.3333333333333</ele><time>2026-03-29T14:01:52.999Z</time></trkpt><trkpt lat="45.0486306" lon="7.9877057"><ele>301.0</ele><time>2026-03-29T14:01:53.999Z</time></trkpt><trkpt lat="45.0488055" lon="7.9875524"><ele>300.66666666666663</ele><time>2026-03-29T14:01:54.999Z</time></trkpt><trkpt lat="45.048973" lon="7.9874106"><ele>300.3333333333333</ele><time>2026-03-29T14:01:55.999Z</time></trkpt><trkpt lat="45.0491344" lon="7.9872809"><ele>300.0</ele><time>2026-03-29T14:01:56.999Z</time></trkpt><trkpt lat="45.049304" lon="7.9871754"><ele>303.6666666666667</ele><time>2026-03-29T14:01:57.999Z</time></trkpt><trkpt lat="45.0494826" lon="7.987102"><ele>307.33333333333337</ele><time>2026-03-29T14:01:58.999Z</time></trkpt><trkpt lat="45.0496597" lon="7.9870326"><ele>311.0</ele><time>2026-03-29T14:01:59.999Z</time></trkpt><trkpt lat="45.0498514" lon="7.9870298"><ele>313.0</ele><time>2026-03-29T14:02:00.999Z</time></trkpt><trkpt lat="45.0500383" lon="7.9870057"><ele>315.0</ele><time>2026-03-29T14:02:01.999Z</time></trkpt><trkpt lat="45.050232" lon="7.9869785"><ele>317.0</ele><time>2026-03-29T14:02:02.999Z</time></trkpt><trkpt lat="45.0504344" lon="7.9869503"><ele>317.0</ele><time>2026-03-29T14:02:03.999Z</time></trkpt><trkpt lat="45.0506418" lon="7.9869315"><ele>317.0</ele><time>2026-03-29T14:02:04.999Z</time></trkpt><trkpt lat="45.0508492" lon="7.9869136"><ele>317.0</ele><time>2026-03-29T14:02:05.999Z</time></trkpt><trkpt lat="45.0510582" lon="7.9868892"><ele>318.0</ele><time>2026-03-29T14:02:06.999Z</time></trkpt><trkpt lat="45.0512684" lon="7.9868625"><ele>319.0</ele><time>2026-03-29T14:02:07.999Z</time></trkpt><trkpt lat="45.0514721" lon="7.9868338"><ele>320.0</ele><time>2026-03-29T14:02:08.999Z</time></trkpt><trkpt lat="45.0516694" lon="7.9868121"><ele>321.6666666666667</ele><time>2026-03-29T14:02:09.999Z</time></trkpt><trkpt lat="45.0518668" lon="7.9867921"><ele>323.3333333333333</ele><time>2026-03-29T14:02:10.999Z</time></trkpt><trkpt lat="45.0520634" lon="7.9867742"><ele>325.0</ele><time>2026-03-29T14:02:11.999Z</time></trkpt><trkpt lat="45.0522553" lon="7.9867531"><ele>325.0</ele><time>2026-03-29T14:02:12.999Z</time></trkpt><trkpt lat="45.0524445" lon="7.9867334"><ele>325.0</ele><time>2026-03-29T14:02:13.999Z</time></trkpt><trkpt lat="45.0526246" lon="7.9867144"><ele>325.0</ele><time>2026-03-29T14:02:14.999Z</time></trkpt><trkpt lat="45.0528012" lon="7.9866987"><ele>329.66666666666663</ele><time>2026-03-29T14:02:15.999Z</time></trkpt><trkpt lat="45.0529749" lon="7.986681"><ele>334.3333333333333</ele><time>2026-03-29T14:02:16.999Z</time></trkpt><trkpt lat="45.0531435" lon="7.9866632"><ele>339.0</ele><time>2026-03-29T14:02:17.999Z</time></trkpt><trkpt lat="45.0533147" lon="7.9866418"><ele>342.6666666666667</ele><time>2026-03-29T14:02:18.999Z</time></trkpt><trkpt lat="45.0534836" lon="7.9866239"><ele>346.33333333333337</ele><time>2026-03-29T14:02:19.999Z</time></trkpt><trkpt lat="45.0536499" lon="7.9866031"><ele>350.0</ele><time>2026-03-29T14:02:20.999Z</time></trkpt><trkpt lat="45.0538139" lon="7.986582"><ele>350.0</ele><time>2026-03-29T14:02:21.999Z</time></trkpt><trkpt lat="45.0539691" lon="7.9865655"><ele>350.0</ele><time>2026-03-29T14:02:22.999Z</time></trkpt><trkpt lat="45.0541186" lon="7.9865494"><ele>350.0</ele><time>2026-03-29T14:02:23.999Z</time></trkpt><trkpt lat="45.0542605" lon="7.9865305"><ele>350.0</ele><time>2026-03-29T14:02:24.999Z</time></trkpt><trkpt lat="45.05438" lon="7.9865207"><ele>350.6</ele><time>2026-03-29T14:02:26Z</time></trkpt><trkpt lat="45.0544836" lon="7.9865071"><ele>351.2</ele><time>2026-03-29T14:02:26.999Z</time></trkpt><trkpt lat="45.0545846" lon="7.9864787"><ele>351.79999999999995</ele><time>2026-03-29T14:02:27.999Z</time></trkpt><trkpt lat="45.0546645" lon="7.9864121"><ele>352.4</ele><time>2026-03-29T14:02:28.999Z</time></trkpt><trkpt lat="45.0547661" lon="7.9863728"><ele>353.0</ele><time>2026-03-29T14:02:29.999Z</time></trkpt><trkpt lat="45.0548662" lon="7.9863057"><ele>354.75</ele><time>2026-03-29T14:02:30.999Z</time></trkpt><trkpt lat="45.0549724" lon="7.9862167"><ele>356.5</ele><time>2026-03-29T14:02:32Z</time></trkpt><trkpt lat="45.0550774" lon="7.9861269"><ele>358.25</ele><time>2026-03-29T14:02:32.999Z</time></trkpt><trkpt lat="45.055193" lon="7.9860506"><ele>360.0</ele><time>2026-03-29T14:02:33.999Z</time></trkpt><trkpt lat="45.0553102" lon="7.9860088"><ele>360.0</ele><time>2026-03-29T14:02:34.999Z</time></trkpt><trkpt lat="45.0554287" lon="7.9859468"><ele>360.0</ele><time>2026-03-29T14:02:35.999Z</time></trkpt><trkpt lat="45.0555368" lon="7.9858811"><ele>360.0</ele><time>2026-03-29T14:02:36.999Z</time></trkpt><trkpt lat="45.0556479" lon="7.9857945"><ele>360.0</ele><time>2026-03-29T14:02:37.999Z</time></trkpt><trkpt lat="45.0557567" lon="7.9856861"><ele>360.5</ele><time>2026-03-29T14:02:38.999Z</time></trkpt><trkpt lat="45.0558582" lon="7.9855767"><ele>361.0</ele><time>2026-03-29T14:02:39.999Z</time></trkpt><trkpt lat="45.0559622" lon="7.98547"><ele>361.5</ele><time>2026-03-29T14:02:40.999Z</time></trkpt><trkpt lat="45.0560596" lon="7.9853836"><ele>362.0</ele><time>2026-03-29T14:02:41.999Z</time></trkpt><trkpt lat="45.0561593" lon="7.9853304"><ele>362.0</ele><time>2026-03-29T14:02:42.999Z</time></trkpt><trkpt lat="45.056265" lon="7.9853109"><ele>362.0</ele><time>2026-03-29T14:02:43.999Z</time></trkpt><trkpt lat="45.0563749" lon="7.9852896"><ele>362.0</ele><time>2026-03-29T14:02:44.999Z</time></trkpt><trkpt lat="45.0564918" lon="7.9852602"><ele>362.0</ele><time>2026-03-29T14:02:45.999Z</time></trkpt><trkpt lat="45.0566078" lon="7.9852343"><ele>366.0</ele><time>2026-03-29T14:02:46.999Z</time></trkpt><trkpt lat="45.0567367" lon="7.9852095"><ele>370.0</ele><time>2026-03-29T14:02:47.999Z</time></trkpt><trkpt lat="45.0568654" lon="7.9851834"><ele>374.0</ele><time>2026-03-29T14:02:48.999Z</time></trkpt><trkpt lat="45.0569865" lon="7.9851624"><ele>378.0</ele><time>2026-03-29T14:02:49.999Z</time></trkpt><trkpt lat="45.0570743" lon="7.9851746"><ele>378.0</ele><time>2026-03-29T14:02:50.999Z</time></trkpt><trkpt lat="45.0571694" lon="7.9852069"><ele>378.0</ele><time>2026-03-29T14:02:51.999Z</time></trkpt><trkpt lat="45.0572546" lon="7.9852425"><ele>378.0</ele><time>2026-03-29T14:02:52.999Z</time></trkpt><trkpt lat="45.0573507" lon="7.9852917"><ele>378.0</ele><time>2026-03-29T14:02:53.999Z</time></trkpt><trkpt lat="45.0574548" lon="7.9853329"><ele>378.0</ele><time>2026-03-29T14:02:54.999Z</time></trkpt><trkpt lat="45.0575581" lon="7.9853664"><ele>380.0</ele><time>2026-03-29T14:02:55.999Z</time></trkpt><trkpt lat="45.0576573" lon="7.9854058"><ele>382.0</ele><time>2026-03-29T14:02:56.999Z</time></trkpt><trkpt lat="45.0577428" lon="7.9854414"><ele>384.0</ele><time>2026-03-29T14:02:57.999Z</time></trkpt><trkpt lat="45.0578295" lon="7.9854365"><ele>386.0</ele><time>2026-03-29T14:02:58.999Z</time></trkpt><trkpt lat="45.0579188" lon="7.9854172"><ele>388.0</ele><time>2026-03-29T14:02:59.999Z</time></trkpt><trkpt lat="45.0580012" lon="7.9853349"><ele>388.0</ele><time>2026-03-29T14:03:00.999Z</time></trkpt><trkpt lat="45.0579855" lon="7.9851043"><ele>388.0</ele><time>2026-03-29T14:03:01.999Z</time></trkpt><trkpt lat="45.0580082" lon="7.984968"><ele>388.0</ele><time>2026-03-29T14:03:02.999Z</time></trkpt><trkpt lat="45.0579927" lon="7.9848242"><ele>388.0</ele><time>2026-03-29T14:03:03.999Z</time></trkpt><trkpt lat="45.0579902" lon="7.9847023"><ele>386.00000000000006</ele><time>2026-03-29T14:03:04.999Z</time></trkpt><trkpt lat="45.0579851" lon="7.9845815"><ele>384.0</ele><time>2026-03-29T14:03:05.999Z</time></trkpt><trkpt lat="45.0579765" lon="7.9844647"><ele>382.0</ele><time>2026-03-29T14:03:06.999Z</time></trkpt><trkpt lat="45.0579737" lon="7.9843497"><ele>380.0</ele><time>2026-03-29T14:03:07.999Z</time></trkpt><trkpt lat="45.0579821" lon="7.9842491"><ele>378.0</ele><time>2026-03-29T14:03:08.999Z</time></trkpt><trkpt lat="45.0580516" lon="7.9841682"><ele>376.0</ele><time>2026-03-29T14:03:09.999Z</time></trkpt><trkpt lat="45.0581274" lon="7.9841187"><ele>376.0</ele><time>2026-03-29T14:03:10.999Z</time></trkpt><trkpt lat="45.0582255" lon="7.9840956"><ele>376.0</ele><time>2026-03-29T14:03:11.999Z</time></trkpt><trkpt lat="45.0583408" lon="7.9841013"><ele>376.0</ele><time>2026-03-29T14:03:12.999Z</time></trkpt><trkpt lat="45.0584625" lon="7.9841085"><ele>376.0</ele><time>2026-03-29T14:03:13.999Z</time></trkpt><trkpt lat="45.0585942" lon="7.9841429"><ele>381.0</ele><time>2026-03-29T14:03:14.999Z</time></trkpt><trkpt lat="45.0587218" lon="7.9841834"><ele>386.0</ele><time>2026-03-29T14:03:15.999Z</time></trkpt><trkpt lat="45.0588517" lon="7.9842337"><ele>391.0</ele><time>2026-03-29T14:03:16.999Z</time></trkpt><trkpt lat="45.058982" lon="7.9842835"><ele>396.0</ele><time>2026-03-29T14:03:17.999Z</time></trkpt><trkpt lat="45.0591093" lon="7.9843284"><ele>397.0</ele><time>2026-03-29T14:03:18.999Z</time></trkpt><trkpt lat="45.0592263" lon="7.9843466"><ele>398.0</ele><time>2026-03-29T14:03:19.999Z</time></trkpt><trkpt lat="45.0593522" lon="7.9843511"><ele>399.0</ele><time>2026-03-29T14:03:20.999Z</time></trkpt><trkpt lat="45.0594818" lon="7.9843216"><ele>400.0</ele><time>2026-03-29T14:03:21.999Z</time></trkpt><trkpt lat="45.0596194" lon="7.98426"><ele>400.0</ele><time>2026-03-29T14:03:22.999Z</time></trkpt><trkpt lat="45.0597618" lon="7.9841932"><ele>400.0</ele><time>2026-03-29T14:03:23.999Z</time></trkpt><trkpt lat="45.0598945" lon="7.9841133"><ele>400.0</ele><time>2026-03-29T14:03:24.999Z</time></trkpt><trkpt lat="45.0600219" lon="7.9840366"><ele>400.0</ele><time>2026-03-29T14:03:25.999Z</time></trkpt><trkpt lat="45.0601463" lon="7.9839599"><ele>394.0</ele><time>2026-03-29T14:03:26.999Z</time></trkpt><trkpt lat="45.0602746" lon="7.9839155"><ele>388.0</ele><time>2026-03-29T14:03:27.999Z</time></trkpt><trkpt lat="45.0603982" lon="7.9839033"><ele>382.0</ele><time>2026-03-29T14:03:28.999Z</time></trkpt><trkpt lat="45.0605329" lon="7.9839099"><ele>376.0</ele><time>2026-03-29T14:03:29.999Z</time></trkpt><trkpt lat="45.0606778" lon="7.9839233"><ele>375.0</ele><time>2026-03-29T14:03:30.999Z</time></trkpt><trkpt lat="45.0608219" lon="7.9839483"><ele>374.0</ele><time>2026-03-29T14:03:31.999Z</time></trkpt><trkpt lat="45.0609705" lon="7.9839834"><ele>373.0</ele><time>2026-03-29T14:03:32.999Z</time></trkpt><trkpt lat="45.0611115" lon="7.984023"><ele>372.0</ele><time>2026-03-29T14:03:33.999Z</time></trkpt><trkpt lat="45.0612379" lon="7.984062"><ele>372.0</ele><time>2026-03-29T14:03:34.999Z</time></trkpt><trkpt lat="45.0613454" lon="7.9841002"><ele>372.0</ele><time>2026-03-29T14:03:35.999Z</time></trkpt><trkpt lat="45.0614439" lon="7.9841485"><ele>372.0</ele><time>2026-03-29T14:03:36.999Z</time></trkpt><trkpt lat="45.0615368" lon="7.9841915"><ele>372.0</ele><time>2026-03-29T14:03:37.999Z</time></trkpt><trkpt lat="45.0616172" lon="7.9842141"><ele>372.0</ele><time>2026-03-29T14:03:38.999Z</time></trkpt><trkpt lat="45.0617291" lon="7.9841516"><ele>370.25</ele><time>2026-03-29T14:03:39.999Z</time></trkpt><trkpt lat="45.0618371" lon="7.984066"><ele>368.5</ele><time>2026-03-29T14:03:40.999Z</time></trkpt><trkpt lat="45.0619583" lon="7.9839544"><ele>366.75</ele><time>2026-03-29T14:03:41.999Z</time></trkpt><trkpt lat="45.0620802" lon="7.9838408"><ele>365.0</ele><time>2026-03-29T14:03:42.999Z</time></trkpt><trkpt lat="45.0622023" lon="7.9837143"><ele>365.0</ele><time>2026-03-29T14:03:43.999Z</time></trkpt><trkpt lat="45.0623301" lon="7.9835713"><ele>365.0</ele><time>2026-03-29T14:03:44.999Z</time></trkpt><trkpt lat="45.0624505" lon="7.9834116"><ele>365.0</ele><time>2026-03-29T14:03:45.999Z</time></trkpt><trkpt lat="45.0625787" lon="7.9832386"><ele>365.0</ele><time>2026-03-29T14:03:46.999Z</time></trkpt><trkpt lat="45.0627113" lon="7.9830589"><ele>365.0</ele><time>2026-03-29T14:03:47.999Z</time></trkpt><trkpt lat="45.0628495" lon="7.9828835"><ele>365.0</ele><time>2026-03-29T14:03:48.999Z</time></trkpt><trkpt lat="45.0629962" lon="7.9827032"><ele>365.33333333333337</ele><time>2026-03-29T14:03:49.999Z</time></trkpt><trkpt lat="45.0631498" lon="7.9825125"><ele>365.6666666666667</ele><time>2026-03-29T14:03:50.999Z</time></trkpt><trkpt lat="45.0632988" lon="7.9823363"><ele>366.0</ele><time>2026-03-29T14:03:51.999Z</time></trkpt><trkpt lat="45.0634372" lon="7.9821613"><ele>368.0</ele><time>2026-03-29T14:03:52.999Z</time></trkpt><trkpt lat="45.0635569" lon="7.9819725"><ele>370.0</ele><time>2026-03-29T14:03:53.999Z</time></trkpt><trkpt lat="45.0636564" lon="7.9817768"><ele>372.0</ele><time>2026-03-29T14:03:54.999Z</time></trkpt><trkpt lat="45.0637291" lon="7.9815813"><ele>372.25</ele><time>2026-03-29T14:03:55.999Z</time></trkpt><trkpt lat="45.0637994" lon="7.9814022"><ele>372.5</ele><time>2026-03-29T14:03:56.999Z</time></trkpt><trkpt lat="45.0638818" lon="7.9812475"><ele>372.75</ele><time>2026-03-29T14:03:57.999Z</time></trkpt><trkpt lat="45.063989" lon="7.9811189"><ele>373.0</ele><time>2026-03-29T14:03:58.999Z</time></trkpt><trkpt lat="45.0641297" lon="7.9810321"><ele>374.0</ele><time>2026-03-29T14:03:59.999Z</time></trkpt><trkpt lat="45.0642892" lon="7.9809625"><ele>375.0</ele><time>2026-03-29T14:04:00.999Z</time></trkpt><trkpt lat="45.0644574" lon="7.980877"><ele>376.0</ele><time>2026-03-29T14:04:01.999Z</time></trkpt><trkpt lat="45.064627" lon="7.9807513"><ele>376.0</ele><time>2026-03-29T14:04:02.999Z</time></trkpt><trkpt lat="45.0647887" lon="7.9806023"><ele>376.0</ele><time>2026-03-29T14:04:03.999Z</time></trkpt><trkpt lat="45.064947" lon="7.9804331"><ele>376.0</ele><time>2026-03-29T14:04:04.999Z</time></trkpt><trkpt lat="45.0650999" lon="7.9802548"><ele>376.3333333333333</ele><time>2026-03-29T14:04:05.998Z</time></trkpt><trkpt lat="45.0652479" lon="7.9800734"><ele>376.6666666666667</ele><time>2026-03-29T14:04:06.999Z</time></trkpt><trkpt lat="45.0653787" lon="7.9798831"><ele>377.0</ele><time>2026-03-29T14:04:07.999Z</time></trkpt><trkpt lat="45.0655113" lon="7.9796912"><ele>377.0</ele><time>2026-03-29T14:04:08.999Z</time></trkpt><trkpt lat="45.0656398" lon="7.9795007"><ele>377.0</ele><time>2026-03-29T14:04:09.999Z</time></trkpt><trkpt lat="45.0657705" lon="7.9793079"><ele>377.0</ele><time>2026-03-29T14:04:10.999Z</time></trkpt><trkpt lat="45.0658959" lon="7.9791154"><ele>380.0</ele><time>2026-03-29T14:04:11.999Z</time></trkpt><trkpt lat="45.0660119" lon="7.9789032"><ele>383.0</ele><time>2026-03-29T14:04:12.999Z</time></trkpt><trkpt lat="45.0661313" lon="7.9786997"><ele>386.0</ele><time>2026-03-29T14:04:13.999Z</time></trkpt><trkpt lat="45.066259" lon="7.9785148"><ele>385.66666666666663</ele><time>2026-03-29T14:04:14.999Z</time></trkpt><trkpt lat="45.0663924" lon="7.9783417"><ele>385.33333333333337</ele><time>2026-03-29T14:04:15.999Z</time></trkpt><trkpt lat="45.0665292" lon="7.9781685"><ele>385.0</ele><time>2026-03-29T14:04:16.999Z</time></trkpt><trkpt lat="45.0666666" lon="7.9779821"><ele>384.0</ele><time>2026-03-29T14:04:17.999Z</time></trkpt><trkpt lat="45.0667986" lon="7.9777757"><ele>383.0</ele><time>2026-03-29T14:04:18.999Z</time></trkpt><trkpt lat="45.066937" lon="7.9775716"><ele>382.0</ele><time>2026-03-29T14:04:19.999Z</time></trkpt><trkpt lat="45.0670778" lon="7.9773679"><ele>382.0</ele><time>2026-03-29T14:04:20.999Z</time></trkpt><trkpt lat="45.0672217" lon="7.9771767"><ele>382.0</ele><time>2026-03-29T14:04:21.999Z</time></trkpt><trkpt lat="45.0673606" lon="7.9769761"><ele>382.0</ele><time>2026-03-29T14:04:22.999Z</time></trkpt><trkpt lat="45.067487" lon="7.9767462"><ele>386.3333333333333</ele><time>2026-03-29T14:04:23.999Z</time></trkpt><trkpt lat="45.0675793" lon="7.9765001"><ele>390.66666666666663</ele><time>2026-03-29T14:04:24.999Z</time></trkpt><trkpt lat="45.067674" lon="7.9762443"><ele>395.0</ele><time>2026-03-29T14:04:25.999Z</time></trkpt><trkpt lat="45.0677606" lon="7.9760038"><ele>395.3333333333333</ele><time>2026-03-29T14:04:26.999Z</time></trkpt><trkpt lat="45.0678513" lon="7.9757685"><ele>395.66666666666663</ele><time>2026-03-29T14:04:27.999Z</time></trkpt><trkpt lat="45.0679381" lon="7.9755471"><ele>396.0</ele><time>2026-03-29T14:04:28.999Z</time></trkpt><trkpt lat="45.0680152" lon="7.9753289"><ele>396.0</ele><time>2026-03-29T14:04:29.999Z</time></trkpt><trkpt lat="45.0680777" lon="7.9751415"><ele>396.0</ele><time>2026-03-29T14:04:30.999Z</time></trkpt><trkpt lat="45.0681403" lon="7.974966"><ele>396.0</ele><time>2026-03-29T14:04:31.999Z</time></trkpt><trkpt lat="45.0682022" lon="7.9748234"><ele>396.0</ele><time>2026-03-29T14:04:32.999Z</time></trkpt><trkpt lat="45.0682679" lon="7.9746886"><ele>399.5</ele><time>2026-03-29T14:04:33.999Z</time></trkpt><trkpt lat="45.0683447" lon="7.9745572"><ele>403.0</ele><time>2026-03-29T14:04:34.999Z</time></trkpt><trkpt lat="45.068426" lon="7.9744429"><ele>406.5</ele><time>2026-03-29T14:04:35.999Z</time></trkpt><trkpt lat="45.0685246" lon="7.974344"><ele>410.0</ele><time>2026-03-29T14:04:36.999Z</time></trkpt><trkpt lat="45.0686308" lon="7.9742677"><ele>410.0</ele><time>2026-03-29T14:04:37.999Z</time></trkpt><trkpt lat="45.0687411" lon="7.9742066"><ele>410.0</ele><time>2026-03-29T14:04:38.999Z</time></trkpt><trkpt lat="45.0688566" lon="7.9741372"><ele>410.0</ele><time>2026-03-29T14:04:39.999Z</time></trkpt><trkpt lat="45.0689758" lon="7.9740566"><ele>410.0</ele><time>2026-03-29T14:04:40.999Z</time></trkpt><trkpt lat="45.0691031" lon="7.9739714"><ele>410.75</ele><time>2026-03-29T14:04:41.999Z</time></trkpt><trkpt lat="45.0692325" lon="7.9738928"><ele>411.5</ele><time>2026-03-29T14:04:42.999Z</time></trkpt><trkpt lat="45.0693605" lon="7.9738237"><ele>412.25</ele><time>2026-03-29T14:04:43.999Z</time></trkpt><trkpt lat="45.0694755" lon="7.9737709"><ele>413.0</ele><time>2026-03-29T14:04:44.999Z</time></trkpt><trkpt lat="45.0695702" lon="7.9737097"><ele>413.0</ele><time>2026-03-29T14:04:45.999Z</time></trkpt><trkpt lat="45.06964" lon="7.9736203"><ele>413.0</ele><time>2026-03-29T14:04:46.999Z</time></trkpt><trkpt lat="45.0696826" lon="7.9735081"><ele>413.0</ele><time>2026-03-29T14:04:47.999Z</time></trkpt><trkpt lat="45.0697054" lon="7.9733755"><ele>413.0</ele><time>2026-03-29T14:04:48.999Z</time></trkpt><trkpt lat="45.069724" lon="7.9732347"><ele>413.0</ele><time>2026-03-29T14:04:49.999Z</time></trkpt><trkpt lat="45.0697453" lon="7.9730859"><ele>414.0</ele><time>2026-03-29T14:04:50.999Z</time></trkpt><trkpt lat="45.0697767" lon="7.9729325"><ele>415.0</ele><time>2026-03-29T14:04:51.999Z</time></trkpt><trkpt lat="45.0698251" lon="7.9728148"><ele>416.0</ele><time>2026-03-29T14:04:52.999Z</time></trkpt><trkpt lat="45.0699059" lon="7.9727268"><ele>417.0</ele><time>2026-03-29T14:04:53.999Z</time></trkpt><trkpt lat="45.0700017" lon="7.9726541"><ele>418.0</ele><time>2026-03-29T14:04:54.999Z</time></trkpt><trkpt lat="45.0701016" lon="7.9725673"><ele>419.79999999999995</ele><time>2026-03-29T14:04:55.999Z</time></trkpt><trkpt lat="45.0701992" lon="7.9724756"><ele>421.6</ele><time>2026-03-29T14:04:56.999Z</time></trkpt><trkpt lat="45.0702867" lon="7.9723719"><ele>423.40000000000003</ele><time>2026-03-29T14:04:57.999Z</time></trkpt><trkpt lat="45.0703648" lon="7.9722669"><ele>425.20000000000005</ele><time>2026-03-29T14:04:58.999Z</time></trkpt><trkpt lat="45.0704477" lon="7.9721968"><ele>427.0</ele><time>2026-03-29T14:04:59.999Z</time></trkpt><trkpt lat="45.0705367" lon="7.9721559"><ele>427.00000000000006</ele><time>2026-03-29T14:05:00.999Z</time></trkpt><trkpt lat="45.0706201" lon="7.9721411"><ele>427.0</ele><time>2026-03-29T14:05:01.999Z</time></trkpt><trkpt lat="45.0706917" lon="7.9721194"><ele>427.0</ele><time>2026-03-29T14:05:02.999Z</time></trkpt><trkpt lat="45.0707503" lon="7.9720868"><ele>427.0</ele><time>2026-03-29T14:05:03.999Z</time></trkpt><trkpt lat="45.0708189" lon="7.9720305"><ele>427.00000000000006</ele><time>2026-03-29T14:05:04.999Z</time></trkpt><trkpt lat="45.0708985" lon="7.9719697"><ele>427.0</ele><time>2026-03-29T14:05:05.999Z</time></trkpt><trkpt lat="45.0709886" lon="7.9719025"><ele>427.25</ele><time>2026-03-29T14:05:06.999Z</time></trkpt><trkpt lat="45.0710919" lon="7.9718336"><ele>427.5</ele><time>2026-03-29T14:05:07.999Z</time></trkpt><trkpt lat="45.0712046" lon="7.9717563"><ele>427.75</ele><time>2026-03-29T14:05:08.999Z</time></trkpt><trkpt lat="45.0713253" lon="7.9716786"><ele>428.0</ele><time>2026-03-29T14:05:09.999Z</time></trkpt><trkpt lat="45.0714499" lon="7.9716034"><ele>428.0</ele><time>2026-03-29T14:05:10.999Z</time></trkpt><trkpt lat="45.0715757" lon="7.9715143"><ele>428.0</ele><time>2026-03-29T14:05:11.999Z</time></trkpt><trkpt lat="45.0717036" lon="7.9714223"><ele>428.0</ele><time>2026-03-29T14:05:12.999Z</time></trkpt><trkpt lat="45.0718424" lon="7.9713229"><ele>428.0</ele><time>2026-03-29T14:05:13.999Z</time></trkpt><trkpt lat="45.0719908" lon="7.9712225"><ele>428.3333333333333</ele><time>2026-03-29T14:05:14.999Z</time></trkpt><trkpt lat="45.0721413" lon="7.9711124"><ele>428.66666666666663</ele><time>2026-03-29T14:05:15.999Z</time></trkpt><trkpt lat="45.0722967" lon="7.9710066"><ele>429.0</ele><time>2026-03-29T14:05:16.999Z</time></trkpt><trkpt lat="45.0724512" lon="7.9708938"><ele>433.33333333333337</ele><time>2026-03-29T14:05:17.999Z</time></trkpt><trkpt lat="45.0726058" lon="7.9707859"><ele>437.6666666666667</ele><time>2026-03-29T14:05:18.999Z</time></trkpt><trkpt lat="45.0727646" lon="7.970677"><ele>442.0</ele><time>2026-03-29T14:05:19.999Z</time></trkpt><trkpt lat="45.0729245" lon="7.9705613"><ele>442.0</ele><time>2026-03-29T14:05:20.999Z</time></trkpt><trkpt lat="45.0730813" lon="7.9704445"><ele>442.0</ele><time>2026-03-29T14:05:21.999Z</time></trkpt><trkpt lat="45.0732385" lon="7.9703315"><ele>442.0</ele><time>2026-03-29T14:05:22.999Z</time></trkpt><trkpt lat="45.0733851" lon="7.9702233"><ele>441.33333333333337</ele><time>2026-03-29T14:05:23.999Z</time></trkpt><trkpt lat="45.0735151" lon="7.9700917"><ele>440.66666666666663</ele><time>2026-03-29T14:05:24.999Z</time></trkpt><trkpt lat="45.0736348" lon="7.9699485"><ele>440.0</ele><time>2026-03-29T14:05:25.999Z</time></trkpt><trkpt lat="45.073742" lon="7.9698055"><ele>443.75</ele><time>2026-03-29T14:05:26.999Z</time></trkpt><trkpt lat="45.0738434" lon="7.9696739"><ele>447.5</ele><time>2026-03-29T14:05:27.999Z</time></trkpt><trkpt lat="45.0739397" lon="7.9695846"><ele>451.25</ele><time>2026-03-29T14:05:28.999Z</time></trkpt><trkpt lat="45.0740389" lon="7.9694912"><ele>455.0</ele><time>2026-03-29T14:05:30Z</time></trkpt><trkpt lat="45.0741514" lon="7.9694305"><ele>455.0</ele><time>2026-03-29T14:05:30.999Z</time></trkpt><trkpt lat="45.0742729" lon="7.9694106"><ele>455.0</ele><time>2026-03-29T14:05:31.999Z</time></trkpt><trkpt lat="45.0744061" lon="7.9694426"><ele>455.0</ele><time>2026-03-29T14:05:32.999Z</time></trkpt><trkpt lat="45.0745398" lon="7.9695053"><ele>455.0</ele><time>2026-03-29T14:05:33.999Z</time></trkpt><trkpt lat="45.0746829" lon="7.969574"><ele>455.0</ele><time>2026-03-29T14:05:34.999Z</time></trkpt><trkpt lat="45.074836" lon="7.9696336"><ele>455.0</ele><time>2026-03-29T14:05:35.999Z</time></trkpt><trkpt lat="45.0749826" lon="7.9696961"><ele>455.0</ele><time>2026-03-29T14:05:36.999Z</time></trkpt><trkpt lat="45.0751149" lon="7.969771"><ele>455.5</ele><time>2026-03-29T14:05:37.999Z</time></trkpt><trkpt lat="45.0752175" lon="7.9698827"><ele>456.0</ele><time>2026-03-29T14:05:38.999Z</time></trkpt><trkpt lat="45.0752727" lon="7.9700328"><ele>456.5</ele><time>2026-03-29T14:05:39.999Z</time></trkpt><trkpt lat="45.0752985" lon="7.9702044"><ele>457.0</ele><time>2026-03-29T14:05:40.999Z</time></trkpt><trkpt lat="45.0753163" lon="7.9703777"><ele>457.0</ele><time>2026-03-29T14:05:41.999Z</time></trkpt><trkpt lat="45.0753622" lon="7.9705605"><ele>457.0</ele><time>2026-03-29T14:05:42.999Z</time></trkpt><trkpt lat="45.0754329" lon="7.9707212"><ele>457.0</ele><time>2026-03-29T14:05:43.999Z</time></trkpt><trkpt lat="45.0755313" lon="7.9708787"><ele>457.0</ele><time>2026-03-29T14:05:44.999Z</time></trkpt><trkpt lat="45.0756218" lon="7.9710327"><ele>456.0</ele><time>2026-03-29T14:05:45.999Z</time></trkpt><trkpt lat="45.0756933" lon="7.9711999"><ele>455.0</ele><time>2026-03-29T14:05:46.999Z</time></trkpt><trkpt lat="45.0757369" lon="7.97139"><ele>454.0</ele><time>2026-03-29T14:05:47.999Z</time></trkpt><trkpt lat="45.0757499" lon="7.9715986"><ele>453.0</ele><time>2026-03-29T14:05:48.999Z</time></trkpt><trkpt lat="45.075735" lon="7.9718181"><ele>456.66666666666663</ele><time>2026-03-29T14:05:49.999Z</time></trkpt><trkpt lat="45.0757098" lon="7.9720342"><ele>460.3333333333333</ele><time>2026-03-29T14:05:50.999Z</time></trkpt><trkpt lat="45.075649" lon="7.9722267"><ele>464.0</ele><time>2026-03-29T14:05:51.999Z</time></trkpt><trkpt lat="45.0755543" lon="7.9723875"><ele>464.0</ele><time>2026-03-29T14:05:52.999Z</time></trkpt><trkpt lat="45.0754441" lon="7.9725116"><ele>464.0</ele><time>2026-03-29T14:05:53.999Z</time></trkpt><trkpt lat="45.0753525" lon="7.9726166"><ele>464.0</ele><time>2026-03-29T14:05:54.999Z</time></trkpt><trkpt lat="45.0752887" lon="7.9727227"><ele>464.0</ele><time>2026-03-29T14:05:55.999Z</time></trkpt><trkpt lat="45.0752605" lon="7.972831"><ele>464.0</ele><time>2026-03-29T14:05:56.999Z</time></trkpt><trkpt lat="45.0752347" lon="7.9729292"><ele>465.25</ele><time>2026-03-29T14:05:57.999Z</time></trkpt><trkpt lat="45.075267" lon="7.9730429"><ele>466.5</ele><time>2026-03-29T14:05:59.999Z</time></trkpt><trkpt lat="45.0754238" lon="7.9729818"><ele>467.75</ele><time>2026-03-29T14:06:01.999Z</time></trkpt><trkpt lat="45.0755343" lon="7.9728107"><ele>469.0</ele><time>2026-03-29T14:06:02.999Z</time></trkpt><trkpt lat="45.0756272" lon="7.9726739"><ele>469.0</ele><time>2026-03-29T14:06:03.999Z</time></trkpt><trkpt lat="45.0757138" lon="7.9725365"><ele>469.0</ele><time>2026-03-29T14:06:04.999Z</time></trkpt><trkpt lat="45.0758071" lon="7.9723871"><ele>469.0</ele><time>2026-03-29T14:06:05.999Z</time></trkpt><trkpt lat="45.0758911" lon="7.9722285"><ele>469.0</ele><time>2026-03-29T14:06:06.999Z</time></trkpt><trkpt lat="45.0759641" lon="7.9720493"><ele>471.5</ele><time>2026-03-29T14:06:07.999Z</time></trkpt><trkpt lat="45.0760257" lon="7.9718601"><ele>474.0</ele><time>2026-03-29T14:06:08.999Z</time></trkpt><trkpt lat="45.0760818" lon="7.9716948"><ele>476.5</ele><time>2026-03-29T14:06:09.999Z</time></trkpt><trkpt lat="45.0761542" lon="7.9715431"><ele>479.0</ele><time>2026-03-29T14:06:10.999Z</time></trkpt><trkpt lat="45.0762288" lon="7.9714055"><ele>479.0</ele><time>2026-03-29T14:06:11.999Z</time></trkpt><trkpt lat="45.076285" lon="7.9712529"><ele>479.0</ele><time>2026-03-29T14:06:12.999Z</time></trkpt><trkpt lat="45.0763166" lon="7.9711059"><ele>479.0</ele><time>2026-03-29T14:06:13.999Z</time></trkpt><trkpt lat="45.0762424" lon="7.970933"><ele>479.0</ele><time>2026-03-29T14:06:14.999Z</time></trkpt><trkpt lat="45.0761779" lon="7.970786"><ele>479.4</ele><time>2026-03-29T14:06:15.999Z</time></trkpt><trkpt lat="45.0761249" lon="7.9706481"><ele>479.79999999999995</ele><time>2026-03-29T14:06:16.999Z</time></trkpt><trkpt lat="45.0760941" lon="7.970505"><ele>480.20000000000005</ele><time>2026-03-29T14:06:17.999Z</time></trkpt><trkpt lat="45.0760802" lon="7.9703608"><ele>480.6</ele><time>2026-03-29T14:06:18.999Z</time></trkpt><trkpt lat="45.0760869" lon="7.9702172"><ele>481.0</ele><time>2026-03-29T14:06:19.999Z</time></trkpt><trkpt lat="45.0761057" lon="7.9700731"><ele>482.20000000000005</ele><time>2026-03-29T14:06:20.999Z</time></trkpt><trkpt lat="45.0761295" lon="7.969925"><ele>483.40000000000003</ele><time>2026-03-29T14:06:21.999Z</time></trkpt><trkpt lat="45.0761491" lon="7.9697811"><ele>484.6</ele><time>2026-03-29T14:06:22.999Z</time></trkpt><trkpt lat="45.0761662" lon="7.9696412"><ele>485.8</ele><time>2026-03-29T14:06:23.999Z</time></trkpt><trkpt lat="45.0761796" lon="7.969494"><ele>487.0</ele><time>2026-03-29T14:06:24.999Z</time></trkpt><trkpt lat="45.0762129" lon="7.9693642"><ele>487.0</ele><time>2026-03-29T14:06:25.999Z</time></trkpt><trkpt lat="45.0762509" lon="7.9692298"><ele>487.00000000000006</ele><time>2026-03-29T14:06:26.999Z</time></trkpt><trkpt lat="45.0762909" lon="7.9690952"><ele>487.00000000000006</ele><time>2026-03-29T14:06:27.999Z</time></trkpt><trkpt lat="45.0763355" lon="7.9689812"><ele>487.0</ele><time>2026-03-29T14:06:28.999Z</time></trkpt><trkpt lat="45.076376" lon="7.9688706"><ele>487.0</ele><time>2026-03-29T14:06:29.999Z</time></trkpt><trkpt lat="45.0764296" lon="7.9687779"><ele>487.8</ele><time>2026-03-29T14:06:30.999Z</time></trkpt><trkpt lat="45.076478" lon="7.9686901"><ele>488.6</ele><time>2026-03-29T14:06:31.999Z</time></trkpt><trkpt lat="45.0765356" lon="7.9685984"><ele>489.40000000000003</ele><time>2026-03-29T14:06:32.999Z</time></trkpt><trkpt lat="45.0766008" lon="7.9685146"><ele>490.20000000000005</ele><time>2026-03-29T14:06:33.999Z</time></trkpt><trkpt lat="45.0766823" lon="7.9684369"><ele>491.0</ele><time>2026-03-29T14:06:34.999Z</time></trkpt><trkpt lat="45.0767792" lon="7.9683587"><ele>493.66666666666663</ele><time>2026-03-29T14:06:35.999Z</time></trkpt><trkpt lat="45.0769074" lon="7.9682563"><ele>496.33333333333337</ele><time>2026-03-29T14:06:36.999Z</time></trkpt><trkpt lat="45.0770558" lon="7.9681517"><ele>499.0</ele><time>2026-03-29T14:06:37.999Z</time></trkpt><trkpt lat="45.077212" lon="7.9680502"><ele>499.0</ele><time>2026-03-29T14:06:38.999Z</time></trkpt><trkpt lat="45.0773689" lon="7.9679548"><ele>499.0</ele><time>2026-03-29T14:06:39.999Z</time></trkpt><trkpt lat="45.0775224" lon="7.967858"><ele>499.0</ele><time>2026-03-29T14:06:40.999Z</time></trkpt><trkpt lat="45.0776629" lon="7.9677617"><ele>501.0</ele><time>2026-03-29T14:06:41.999Z</time></trkpt><trkpt lat="45.0777998" lon="7.9676688"><ele>503.0</ele><time>2026-03-29T14:06:42.999Z</time></trkpt><trkpt lat="45.0779325" lon="7.967607"><ele>505.0</ele><time>2026-03-29T14:06:43.999Z</time></trkpt><trkpt lat="45.078068" lon="7.9675581"><ele>507.0</ele><time>2026-03-29T14:06:44.999Z</time></trkpt><trkpt lat="45.0782072" lon="7.9675611"><ele>507.75</ele><time>2026-03-29T14:06:45.999Z</time></trkpt><trkpt lat="45.0783455" lon="7.9675915"><ele>508.5</ele><time>2026-03-29T14:06:46.999Z</time></trkpt><trkpt lat="45.0784779" lon="7.9676549"><ele>509.25</ele><time>2026-03-29T14:06:47.999Z</time></trkpt><trkpt lat="45.0786082" lon="7.9677382"><ele>510.0</ele><time>2026-03-29T14:06:48.999Z</time></trkpt><trkpt lat="45.0787155" lon="7.9678934"><ele>510.0</ele><time>2026-03-29T14:06:49.999Z</time></trkpt><trkpt lat="45.0788272" lon="7.9680484"><ele>510.0</ele><time>2026-03-29T14:06:50.999Z</time></trkpt><trkpt lat="45.0789338" lon="7.9681919"><ele>510.0</ele><time>2026-03-29T14:06:51.999Z</time></trkpt><trkpt lat="45.0790412" lon="7.9683271"><ele>510.0</ele><time>2026-03-29T14:06:52.999Z</time></trkpt><trkpt lat="45.0791513" lon="7.9684448"><ele>512.4</ele><time>2026-03-29T14:06:53.999Z</time></trkpt><trkpt lat="45.0792597" lon="7.9685446"><ele>514.8</ele><time>2026-03-29T14:06:54.999Z</time></trkpt><trkpt lat="45.0793541" lon="7.9686287"><ele>517.2</ele><time>2026-03-29T14:06:55.999Z</time></trkpt><trkpt lat="45.0794421" lon="7.9687036"><ele>519.6</ele><time>2026-03-29T14:06:56.999Z</time></trkpt><trkpt lat="45.0795158" lon="7.9687709"><ele>522.0</ele><time>2026-03-29T14:06:57.999Z</time></trkpt><trkpt lat="45.079587" lon="7.9688014"><ele>522.0</ele><time>2026-03-29T14:06:58.999Z</time></trkpt><trkpt lat="45.0796565" lon="7.968806"><ele>522.0</ele><time>2026-03-29T14:06:59.999Z</time></trkpt><trkpt lat="45.0797268" lon="7.9686756"><ele>522.0</ele><time>2026-03-29T14:07:00.999Z</time></trkpt><trkpt lat="45.079799" lon="7.9685649"><ele>522.0</ele><time>2026-03-29T14:07:01.999Z</time></trkpt><trkpt lat="45.0798889" lon="7.9684232"><ele>522.0</ele><time>2026-03-29T14:07:02.999Z</time></trkpt><trkpt lat="45.0799807" lon="7.968257"><ele>516.6666666666666</ele><time>2026-03-29T14:07:03.999Z</time></trkpt><trkpt lat="45.08008" lon="7.9680916"><ele>511.3333333333333</ele><time>2026-03-29T14:07:04.999Z</time></trkpt><trkpt lat="45.0801871" lon="7.9679235"><ele>506.0</ele><time>2026-03-29T14:07:05.999Z</time></trkpt><trkpt lat="45.0803001" lon="7.967734"><ele>506.0</ele><time>2026-03-29T14:07:06.999Z</time></trkpt><trkpt lat="45.080418" lon="7.9675292"><ele>506.0</ele><time>2026-03-29T14:07:07.999Z</time></trkpt><trkpt lat="45.0805279" lon="7.9673166"><ele>506.0</ele><time>2026-03-29T14:07:08.999Z</time></trkpt><trkpt lat="45.0806402" lon="7.9670907"><ele>507.0</ele><time>2026-03-29T14:07:09.999Z</time></trkpt><trkpt lat="45.0807518" lon="7.9668523"><ele>508.0</ele><time>2026-03-29T14:07:10.999Z</time></trkpt><trkpt lat="45.080869" lon="7.9666121"><ele>509.0</ele><time>2026-03-29T14:07:11.999Z</time></trkpt><trkpt lat="45.080986" lon="7.9663739"><ele>509.0</ele><time>2026-03-29T14:07:12.999Z</time></trkpt><trkpt lat="45.0811049" lon="7.9661371"><ele>509.0</ele><time>2026-03-29T14:07:13.999Z</time></trkpt><trkpt lat="45.0812062" lon="7.9659043"><ele>509.0</ele><time>2026-03-29T14:07:14.999Z</time></trkpt><trkpt lat="45.0812909" lon="7.9656739"><ele>506.66666666666663</ele><time>2026-03-29T14:07:15.999Z</time></trkpt><trkpt lat="45.0813603" lon="7.9654478"><ele>504.33333333333337</ele><time>2026-03-29T14:07:16.999Z</time></trkpt><trkpt lat="45.0813913" lon="7.965228"><ele>502.0</ele><time>2026-03-29T14:07:17.999Z</time></trkpt><trkpt lat="45.0814191" lon="7.9650292"><ele>502.25</ele><time>2026-03-29T14:07:18.999Z</time></trkpt><trkpt lat="45.0814468" lon="7.9648319"><ele>502.5</ele><time>2026-03-29T14:07:19.999Z</time></trkpt><trkpt lat="45.0814961" lon="7.964649"><ele>502.75</ele><time>2026-03-29T14:07:20.999Z</time></trkpt><trkpt lat="45.0815647" lon="7.9644829"><ele>503.0</ele><time>2026-03-29T14:07:21.999Z</time></trkpt><trkpt lat="45.0816571" lon="7.9643593"><ele>508.0</ele><time>2026-03-29T14:07:22.999Z</time></trkpt><trkpt lat="45.0817626" lon="7.964254"><ele>513.0</ele><time>2026-03-29T14:07:23.999Z</time></trkpt><trkpt lat="45.0819151" lon="7.9641727"><ele>518.0</ele><time>2026-03-29T14:07:24.999Z</time></trkpt><trkpt lat="45.0820887" lon="7.9640742"><ele>518.0</ele><time>2026-03-29T14:07:25.999Z</time></trkpt><trkpt lat="45.0822559" lon="7.9639622"><ele>518.0</ele><time>2026-03-29T14:07:26.999Z</time></trkpt><trkpt lat="45.0824398" lon="7.9638358"><ele>518.0</ele><time>2026-03-29T14:07:27.999Z</time></trkpt><trkpt lat="45.0826218" lon="7.9636832"><ele>513.0</ele><time>2026-03-29T14:07:28.999Z</time></trkpt><trkpt lat="45.0827854" lon="7.9635226"><ele>508.0</ele><time>2026-03-29T14:07:29.999Z</time></trkpt><trkpt lat="45.0829454" lon="7.9633786"><ele>503.0</ele><time>2026-03-29T14:07:30.999Z</time></trkpt><trkpt lat="45.0831056" lon="7.9632676"><ele>499.0</ele><time>2026-03-29T14:07:31.999Z</time></trkpt><trkpt lat="45.083284" lon="7.9631692"><ele>495.0</ele><time>2026-03-29T14:07:32.999Z</time></trkpt><trkpt lat="45.0834681" lon="7.9630988"><ele>491.0</ele><time>2026-03-29T14:07:33.999Z</time></trkpt><trkpt lat="45.0836459" lon="7.9630456"><ele>491.0</ele><time>2026-03-29T14:07:34.999Z</time></trkpt><trkpt lat="45.0838194" lon="7.9629967"><ele>491.0</ele><time>2026-03-29T14:07:35.999Z</time></trkpt><trkpt lat="45.0839872" lon="7.9629617"><ele>491.0</ele><time>2026-03-29T14:07:36.999Z</time></trkpt><trkpt lat="45.0841474" lon="7.962969"><ele>489.66666666666663</ele><time>2026-03-29T14:07:37.999Z</time></trkpt><trkpt lat="45.084303" lon="7.9630068"><ele>488.33333333333337</ele><time>2026-03-29T14:07:38.999Z</time></trkpt><trkpt lat="45.0844395" lon="7.9630805"><ele>487.0</ele><time>2026-03-29T14:07:39.999Z</time></trkpt><trkpt lat="45.0845652" lon="7.9631921"><ele>487.0</ele><time>2026-03-29T14:07:40.999Z</time></trkpt><trkpt lat="45.0846713" lon="7.9633299"><ele>487.0</ele><time>2026-03-29T14:07:41.999Z</time></trkpt><trkpt lat="45.0847626" lon="7.9634498"><ele>487.0</ele><time>2026-03-29T14:07:42.999Z</time></trkpt><trkpt lat="45.0848631" lon="7.9635324"><ele>487.0</ele><time>2026-03-29T14:07:43.999Z</time></trkpt><trkpt lat="45.0849703" lon="7.9635504"><ele>487.0</ele><time>2026-03-29T14:07:44.999Z</time></trkpt><trkpt lat="45.0850696" lon="7.9635554"><ele>487.0</ele><time>2026-03-29T14:07:45.999Z</time></trkpt><trkpt lat="45.0851324" lon="7.9634198"><ele>487.0</ele><time>2026-03-29T14:07:46.999Z</time></trkpt><trkpt lat="45.0851742" lon="7.9632648"><ele>487.0</ele><time>2026-03-29T14:07:47.999Z</time></trkpt><trkpt lat="45.0852185" lon="7.963097"><ele>487.0</ele><time>2026-03-29T14:07:48.999Z</time></trkpt><trkpt lat="45.0852999" lon="7.9629523"><ele>487.0</ele><time>2026-03-29T14:07:49.999Z</time></trkpt><trkpt lat="45.0854203" lon="7.9628441"><ele>487.0</ele><time>2026-03-29T14:07:50.999Z</time></trkpt><trkpt lat="45.0855751" lon="7.9627842"><ele>487.0</ele><time>2026-03-29T14:07:51.999Z</time></trkpt><trkpt lat="45.0857508" lon="7.9627819"><ele>479.33333333333337</ele><time>2026-03-29T14:07:52.999Z</time></trkpt><trkpt lat="45.0859244" lon="7.9627885"><ele>471.66666666666663</ele><time>2026-03-29T14:07:53.999Z</time></trkpt><trkpt lat="45.0861002" lon="7.9627943"><ele>464.0</ele><time>2026-03-29T14:07:54.999Z</time></trkpt><trkpt lat="45.0862624" lon="7.9627898"><ele>464.0</ele><time>2026-03-29T14:07:55.999Z</time></trkpt><trkpt lat="45.086426" lon="7.9627768"><ele>464.0</ele><time>2026-03-29T14:07:56.999Z</time></trkpt><trkpt lat="45.0865845" lon="7.96275"><ele>464.0</ele><time>2026-03-29T14:07:57.999Z</time></trkpt><trkpt lat="45.0867506" lon="7.9626987"><ele>461.0</ele><time>2026-03-29T14:07:58.999Z</time></trkpt><trkpt lat="45.0869179" lon="7.9626154"><ele>458.0</ele><time>2026-03-29T14:07:59.999Z</time></trkpt><trkpt lat="45.0870839" lon="7.9625166"><ele>455.0</ele><time>2026-03-29T14:08:00.999Z</time></trkpt><trkpt lat="45.0872585" lon="7.9624082"><ele>454.66666666666663</ele><time>2026-03-29T14:08:01.999Z</time></trkpt><trkpt lat="45.0874277" lon="7.9623022"><ele>454.33333333333337</ele><time>2026-03-29T14:08:02.999Z</time></trkpt><trkpt lat="45.0875781" lon="7.9622225"><ele>454.0</ele><time>2026-03-29T14:08:03.999Z</time></trkpt><trkpt lat="45.0876964" lon="7.9621729"><ele>454.0</ele><time>2026-03-29T14:08:04.999Z</time></trkpt><trkpt lat="45.0877988" lon="7.9621533"><ele>454.0</ele><time>2026-03-29T14:08:05.999Z</time></trkpt><trkpt lat="45.0878846" lon="7.9621832"><ele>454.0</ele><time>2026-03-29T14:08:06.999Z</time></trkpt><trkpt lat="45.0879733" lon="7.9622371"><ele>454.0</ele><time>2026-03-29T14:08:07.999Z</time></trkpt><trkpt lat="45.0880459" lon="7.9623489"><ele>454.0</ele><time>2026-03-29T14:08:08.999Z</time></trkpt><trkpt lat="45.0879669" lon="7.9625198"><ele>452.5</ele><time>2026-03-29T14:08:09.999Z</time></trkpt><trkpt lat="45.0879011" lon="7.9626405"><ele>451.0</ele><time>2026-03-29T14:08:10.999Z</time></trkpt><trkpt lat="45.0878035" lon="7.9627249"><ele>449.5</ele><time>2026-03-29T14:08:11.999Z</time></trkpt><trkpt lat="45.0877068" lon="7.9628201"><ele>448.0</ele><time>2026-03-29T14:08:12.999Z</time></trkpt><trkpt lat="45.0876108" lon="7.962948"><ele>448.0</ele><time>2026-03-29T14:08:13.999Z</time></trkpt><trkpt lat="45.0875468" lon="7.9631078"><ele>447.99999999999994</ele><time>2026-03-29T14:08:14.999Z</time></trkpt><trkpt lat="45.0875225" lon="7.9632572"><ele>447.99999999999994</ele><time>2026-03-29T14:08:15.999Z</time></trkpt><trkpt lat="45.0875187" lon="7.9634029"><ele>448.0</ele><time>2026-03-29T14:08:16.999Z</time></trkpt><trkpt lat="45.0875984" lon="7.9634716"><ele>448.0</ele><time>2026-03-29T14:08:17.999Z</time></trkpt><trkpt lat="45.0876659" lon="7.9635509"><ele>448.6666666666667</ele><time>2026-03-29T14:08:18.999Z</time></trkpt><trkpt lat="45.0878116" lon="7.9635868"><ele>449.33333333333337</ele><time>2026-03-29T14:08:19.999Z</time></trkpt><trkpt lat="45.0879424" lon="7.9636601"><ele>450.0</ele><time>2026-03-29T14:08:20.999Z</time></trkpt><trkpt lat="45.0880804" lon="7.9637798"><ele>450.0</ele><time>2026-03-29T14:08:21.999Z</time></trkpt><trkpt lat="45.0882259" lon="7.9639151"><ele>450.0</ele><time>2026-03-29T14:08:22.999Z</time></trkpt><trkpt lat="45.0883774" lon="7.9640481"><ele>450.0</ele><time>2026-03-29T14:08:23.999Z</time></trkpt><trkpt lat="45.0885256" lon="7.964181"><ele>444.66666666666663</ele><time>2026-03-29T14:08:24.999Z</time></trkpt><trkpt lat="45.0886664" lon="7.9643213"><ele>439.3333333333333</ele><time>2026-03-29T14:08:25.999Z</time></trkpt><trkpt lat="45.0887871" lon="7.9644749"><ele>434.0</ele><time>2026-03-29T14:08:26.999Z</time></trkpt><trkpt lat="45.0888892" lon="7.96464"><ele>434.0</ele><time>2026-03-29T14:08:27.999Z</time></trkpt><trkpt lat="45.0889719" lon="7.9648022"><ele>434.0</ele><time>2026-03-29T14:08:28.999Z</time></trkpt><trkpt lat="45.0890581" lon="7.9649534"><ele>434.0</ele><time>2026-03-29T14:08:29.999Z</time></trkpt><trkpt lat="45.0891372" lon="7.9650873"><ele>434.0</ele><time>2026-03-29T14:08:30.999Z</time></trkpt><trkpt lat="45.0892078" lon="7.965197"><ele>429.6</ele><time>2026-03-29T14:08:31.999Z</time></trkpt><trkpt lat="45.0892866" lon="7.9652669"><ele>425.2</ele><time>2026-03-29T14:08:32.999Z</time></trkpt><trkpt lat="45.0893625" lon="7.9653108"><ele>420.8</ele><time>2026-03-29T14:08:33.999Z</time></trkpt><trkpt lat="45.0894507" lon="7.9652404"><ele>416.40000000000003</ele><time>2026-03-29T14:08:34.999Z</time></trkpt><trkpt lat="45.0895226" lon="7.9651515"><ele>412.0</ele><time>2026-03-29T14:08:35.999Z</time></trkpt><trkpt lat="45.0895468" lon="7.9650389"><ele>414.20000000000005</ele><time>2026-03-29T14:08:36.999Z</time></trkpt><trkpt lat="45.0895462" lon="7.9649141"><ele>416.4</ele><time>2026-03-29T14:08:37.999Z</time></trkpt><trkpt lat="45.0895129" lon="7.9647798"><ele>418.6</ele><time>2026-03-29T14:08:38.999Z</time></trkpt><trkpt lat="45.0894571" lon="7.9646287"><ele>420.79999999999995</ele><time>2026-03-29T14:08:39.999Z</time></trkpt><trkpt lat="45.0894022" lon="7.9644868"><ele>423.0</ele><time>2026-03-29T14:08:40.999Z</time></trkpt><trkpt lat="45.0893471" lon="7.9643543"><ele>423.0</ele><time>2026-03-29T14:08:41.999Z</time></trkpt><trkpt lat="45.0893366" lon="7.9642315"><ele>423.0</ele><time>2026-03-29T14:08:42.999Z</time></trkpt><trkpt lat="45.0893622" lon="7.9641217"><ele>423.0</ele><time>2026-03-29T14:08:43.999Z</time></trkpt><trkpt lat="45.089422" lon="7.9640644"><ele>423.0</ele><time>2026-03-29T14:08:44.999Z</time></trkpt><trkpt lat="45.0895019" lon="7.9640727"><ele>423.0</ele><time>2026-03-29T14:08:45.999Z</time></trkpt><trkpt lat="45.0895766" lon="7.9641196"><ele>423.0</ele><time>2026-03-29T14:08:46.999Z</time></trkpt><trkpt lat="45.0896578" lon="7.9642692"><ele>423.0</ele><time>2026-03-29T14:08:47.999Z</time></trkpt><trkpt lat="45.0897425" lon="7.9643877"><ele>423.0</ele><time>2026-03-29T14:08:48.999Z</time></trkpt><trkpt lat="45.0898345" lon="7.9644826"><ele>423.0</ele><time>2026-03-29T14:08:49.999Z</time></trkpt><trkpt lat="45.0899937" lon="7.9645106"><ele>423.0</ele><time>2026-03-29T14:08:50.999Z</time></trkpt><trkpt lat="45.0901463" lon="7.9644983"><ele>422.33333333333337</ele><time>2026-03-29T14:08:51.999Z</time></trkpt><trkpt lat="45.0903283" lon="7.9644537"><ele>421.6666666666667</ele><time>2026-03-29T14:08:52.999Z</time></trkpt><trkpt lat="45.0905098" lon="7.9644014"><ele>421.0</ele><time>2026-03-29T14:08:53.999Z</time></trkpt><trkpt lat="45.0906869" lon="7.9643594"><ele>421.0</ele><time>2026-03-29T14:08:54.999Z</time></trkpt><trkpt lat="45.0908544" lon="7.9643249"><ele>421.0</ele><time>2026-03-29T14:08:55.999Z</time></trkpt><trkpt lat="45.0910138" lon="7.9642883"><ele>421.0</ele><time>2026-03-29T14:08:56.999Z</time></trkpt><trkpt lat="45.0911684" lon="7.9642514"><ele>417.25</ele><time>2026-03-29T14:08:57.999Z</time></trkpt><trkpt lat="45.0913088" lon="7.964191"><ele>413.5</ele><time>2026-03-29T14:08:58.999Z</time></trkpt><trkpt lat="45.0914215" lon="7.9640807"><ele>409.75</ele><time>2026-03-29T14:08:59.999Z</time></trkpt><trkpt lat="45.0914928" lon="7.9639086"><ele>406.0</ele><time>2026-03-29T14:09:00.999Z</time></trkpt><trkpt lat="45.0914993" lon="7.9637261"><ele>406.0</ele><time>2026-03-29T14:09:01.999Z</time></trkpt><trkpt lat="45.0914843" lon="7.9635325"><ele>406.0</ele><time>2026-03-29T14:09:02.999Z</time></trkpt><trkpt lat="45.0914613" lon="7.9633269"><ele>406.0</ele><time>2026-03-29T14:09:03.999Z</time></trkpt><trkpt lat="45.0913896" lon="7.9630954"><ele>404.0</ele><time>2026-03-29T14:09:04.999Z</time></trkpt><trkpt lat="45.0913183" lon="7.9628373"><ele>402.0</ele><time>2026-03-29T14:09:05.999Z</time></trkpt><trkpt lat="45.0912822" lon="7.9626143"><ele>400.0</ele><time>2026-03-29T14:09:06.999Z</time></trkpt><trkpt lat="45.0912949" lon="7.9623988"><ele>400.0</ele><time>2026-03-29T14:09:07.999Z</time></trkpt><trkpt lat="45.0913515" lon="7.9621822"><ele>400.0</ele><time>2026-03-29T14:09:08.999Z</time></trkpt><trkpt lat="45.0914369" lon="7.9619683"><ele>400.0</ele><time>2026-03-29T14:09:09.999Z</time></trkpt><trkpt lat="45.0915457" lon="7.9617572"><ele>394.33333333333337</ele><time>2026-03-29T14:09:10.999Z</time></trkpt><trkpt lat="45.0916691" lon="7.961539"><ele>388.6666666666667</ele><time>2026-03-29T14:09:11.999Z</time></trkpt><trkpt lat="45.0917845" lon="7.9612979"><ele>383.0</ele><time>2026-03-29T14:09:12.999Z</time></trkpt><trkpt lat="45.0919072" lon="7.9610539"><ele>383.33333333333337</ele><time>2026-03-29T14:09:13.999Z</time></trkpt><trkpt lat="45.0920318" lon="7.9608027"><ele>383.6666666666667</ele><time>2026-03-29T14:09:14.999Z</time></trkpt><trkpt lat="45.0921601" lon="7.9605592"><ele>384.0</ele><time>2026-03-29T14:09:15.999Z</time></trkpt><trkpt lat="45.0922848" lon="7.9603098"><ele>384.0</ele><time>2026-03-29T14:09:16.999Z</time></trkpt><trkpt lat="45.0923999" lon="7.9600734"><ele>384.0</ele><time>2026-03-29T14:09:17.999Z</time></trkpt><trkpt lat="45.0925207" lon="7.9598382"><ele>384.0</ele><time>2026-03-29T14:09:18.999Z</time></trkpt><trkpt lat="45.0926334" lon="7.9595987"><ele>382.3333333333333</ele><time>2026-03-29T14:09:19.999Z</time></trkpt><trkpt lat="45.0927206" lon="7.9593578"><ele>380.66666666666663</ele><time>2026-03-29T14:09:20.999Z</time></trkpt><trkpt lat="45.0927616" lon="7.959085"><ele>379.0</ele><time>2026-03-29T14:09:21.999Z</time></trkpt><trkpt lat="45.0927733" lon="7.9588088"><ele>378.3333333333333</ele><time>2026-03-29T14:09:22.999Z</time></trkpt><trkpt lat="45.0927831" lon="7.9585224"><ele>377.6666666666667</ele><time>2026-03-29T14:09:23.999Z</time></trkpt><trkpt lat="45.0927919" lon="7.9582338"><ele>377.0</ele><time>2026-03-29T14:09:24.999Z</time></trkpt><trkpt lat="45.0927965" lon="7.9579603"><ele>377.0</ele><time>2026-03-29T14:09:25.999Z</time></trkpt><trkpt lat="45.0928059" lon="7.9577039"><ele>377.0</ele><time>2026-03-29T14:09:26.999Z</time></trkpt><trkpt lat="45.0928318" lon="7.9574925"><ele>377.0</ele><time>2026-03-29T14:09:27.999Z</time></trkpt><trkpt lat="45.0928915" lon="7.9573068"><ele>377.6666666666667</ele><time>2026-03-29T14:09:28.999Z</time></trkpt><trkpt lat="45.0929899" lon="7.9571527"><ele>378.3333333333333</ele><time>2026-03-29T14:09:29.999Z</time></trkpt><trkpt lat="45.0931108" lon="7.9570193"><ele>379.0</ele><time>2026-03-29T14:09:30.999Z</time></trkpt><trkpt lat="45.0932486" lon="7.9569006"><ele>382.3333333333333</ele><time>2026-03-29T14:09:31.999Z</time></trkpt><trkpt lat="45.0933992" lon="7.9567743"><ele>385.66666666666663</ele><time>2026-03-29T14:09:32.999Z</time></trkpt><trkpt lat="45.0935511" lon="7.9566356"><ele>389.0</ele><time>2026-03-29T14:09:33.999Z</time></trkpt><trkpt lat="45.0937004" lon="7.9564965"><ele>389.0</ele><time>2026-03-29T14:09:34.999Z</time></trkpt><trkpt lat="45.0938442" lon="7.9563481"><ele>389.0</ele><time>2026-03-29T14:09:35.999Z</time></trkpt><trkpt lat="45.093974" lon="7.9561898"><ele>389.0</ele><time>2026-03-29T14:09:36.999Z</time></trkpt><trkpt lat="45.0940943" lon="7.9560326"><ele>390.0</ele><time>2026-03-29T14:09:37.999Z</time></trkpt><trkpt lat="45.0942107" lon="7.9558846"><ele>391.0</ele><time>2026-03-29T14:09:38.999Z</time></trkpt><trkpt lat="45.0943189" lon="7.9557522"><ele>392.0</ele><time>2026-03-29T14:09:39.999Z</time></trkpt><trkpt lat="45.0944255" lon="7.9556248"><ele>393.0</ele><time>2026-03-29T14:09:40.999Z</time></trkpt><trkpt lat="45.0945297" lon="7.9555054"><ele>393.0</ele><time>2026-03-29T14:09:41.999Z</time></trkpt><trkpt lat="45.0946343" lon="7.9553845"><ele>393.0</ele><time>2026-03-29T14:09:42.999Z</time></trkpt><trkpt lat="45.0947411" lon="7.9552595"><ele>393.0</ele><time>2026-03-29T14:09:43.999Z</time></trkpt><trkpt lat="45.0948431" lon="7.9551244"><ele>393.0</ele><time>2026-03-29T14:09:44.999Z</time></trkpt><trkpt lat="45.094949" lon="7.95499"><ele>393.5</ele><time>2026-03-29T14:09:45.999Z</time></trkpt><trkpt lat="45.095038" lon="7.9548604"><ele>394.0</ele><time>2026-03-29T14:09:46.999Z</time></trkpt><trkpt lat="45.0951212" lon="7.9547329"><ele>394.5</ele><time>2026-03-29T14:09:47.999Z</time></trkpt><trkpt lat="45.0951962" lon="7.9546121"><ele>395.0</ele><time>2026-03-29T14:09:48.999Z</time></trkpt><trkpt lat="45.0952625" lon="7.9544999"><ele>395.0</ele><time>2026-03-29T14:09:49.999Z</time></trkpt><trkpt lat="45.0953188" lon="7.9543906"><ele>395.0</ele><time>2026-03-29T14:09:50.999Z</time></trkpt><trkpt lat="45.0953646" lon="7.9542798"><ele>395.0</ele><time>2026-03-29T14:09:51.999Z</time></trkpt><trkpt lat="45.0953933" lon="7.9541563"><ele>395.0</ele><time>2026-03-29T14:09:52.999Z</time></trkpt><trkpt lat="45.0954186" lon="7.9540106"><ele>395.0</ele><time>2026-03-29T14:09:53.999Z</time></trkpt><trkpt lat="45.0954481" lon="7.9538583"><ele>394.8</ele><time>2026-03-29T14:09:54.999Z</time></trkpt><trkpt lat="45.0954693" lon="7.9537051"><ele>394.6</ele><time>2026-03-29T14:09:55.999Z</time></trkpt><trkpt lat="45.0954692" lon="7.9535598"><ele>394.4</ele><time>2026-03-29T14:09:56.999Z</time></trkpt><trkpt lat="45.0954563" lon="7.9534362"><ele>394.2</ele><time>2026-03-29T14:09:57.999Z</time></trkpt><trkpt lat="45.0954108" lon="7.9533296"><ele>394.0</ele><time>2026-03-29T14:09:58.999Z</time></trkpt><trkpt lat="45.0953816" lon="7.953236"><ele>394.0</ele><time>2026-03-29T14:09:59.999Z</time></trkpt><trkpt lat="45.0953227" lon="7.9531053"><ele>394.0</ele><time>2026-03-29T14:10:01.999Z</time></trkpt><trkpt lat="45.0953447" lon="7.9529928"><ele>394.0</ele><time>2026-03-29T14:10:04.999Z</time></trkpt><trkpt lat="45.0954389" lon="7.9529618"><ele>394.0</ele><time>2026-03-29T14:10:06.999Z</time></trkpt><trkpt lat="45.0955091" lon="7.9529018"><ele>394.0</ele><time>2026-03-29T14:10:07.999Z</time></trkpt><trkpt lat="45.0955841" lon="7.9528152"><ele>394.0</ele><time>2026-03-29T14:10:08.999Z</time></trkpt><trkpt lat="45.0956543" lon="7.9527172"><ele>394.0</ele><time>2026-03-29T14:10:09.999Z</time></trkpt><trkpt lat="45.0957386" lon="7.9525967"><ele>394.0</ele><time>2026-03-29T14:10:10.999Z</time></trkpt><trkpt lat="45.0958249" lon="7.9524743"><ele>394.0</ele><time>2026-03-29T14:10:11.999Z</time></trkpt><trkpt lat="45.0959304" lon="7.9523534"><ele>393.5</ele><time>2026-03-29T14:10:12.999Z</time></trkpt><trkpt lat="45.0960505" lon="7.9522497"><ele>393.0</ele><time>2026-03-29T14:10:13.999Z</time></trkpt><trkpt lat="45.0961873" lon="7.9521752"><ele>392.5</ele><time>2026-03-29T14:10:14.999Z</time></trkpt><trkpt lat="45.0963289" lon="7.9521161"><ele>392.0</ele><time>2026-03-29T14:10:15.999Z</time></trkpt><trkpt lat="45.0964718" lon="7.9520583"><ele>393.0</ele><time>2026-03-29T14:10:16.999Z</time></trkpt><trkpt lat="45.0966076" lon="7.9519913"><ele>394.0</ele><time>2026-03-29T14:10:17.999Z</time></trkpt><trkpt lat="45.0967353" lon="7.9519201"><ele>395.0</ele><time>2026-03-29T14:10:18.999Z</time></trkpt><trkpt lat="45.0968541" lon="7.9518418"><ele>396.0</ele><time>2026-03-29T14:10:19.999Z</time></trkpt><trkpt lat="45.0969754" lon="7.9517374"><ele>393.0</ele><time>2026-03-29T14:10:20.999Z</time></trkpt><trkpt lat="45.0971004" lon="7.9516327"><ele>390.0</ele><time>2026-03-29T14:10:21.999Z</time></trkpt><trkpt lat="45.0972189" lon="7.951531"><ele>387.0</ele><time>2026-03-29T14:10:22.999Z</time></trkpt><trkpt lat="45.0973301" lon="7.9514281"><ele>384.0</ele><time>2026-03-29T14:10:23.999Z</time></trkpt><trkpt lat="45.0974285" lon="7.9513581"><ele>384.0</ele><time>2026-03-29T14:10:24.999Z</time></trkpt><trkpt lat="45.0975076" lon="7.9512903"><ele>384.0</ele><time>2026-03-29T14:10:25.999Z</time></trkpt><trkpt lat="45.0975667" lon="7.9512075"><ele>384.0</ele><time>2026-03-29T14:10:26.999Z</time></trkpt><trkpt lat="45.0975979" lon="7.9511116"><ele>384.0</ele><time>2026-03-29T14:10:27.999Z</time></trkpt><trkpt lat="45.0975398" lon="7.9509662"><ele>384.0</ele><time>2026-03-29T14:10:29.999Z</time></trkpt><trkpt lat="45.0974217" lon="7.9509696"><ele>382.79999999999995</ele><time>2026-03-29T14:10:31.999Z</time></trkpt><trkpt lat="45.0973003" lon="7.9510518"><ele>381.59999999999997</ele><time>2026-03-29T14:10:33.999Z</time></trkpt><trkpt lat="45.097233" lon="7.9511112"><ele>380.4</ele><time>2026-03-29T14:10:34.999Z</time></trkpt><trkpt lat="45.0971507" lon="7.9511814"><ele>379.2</ele><time>2026-03-29T14:10:35.999Z</time></trkpt><trkpt lat="45.0970476" lon="7.9512555"><ele>378.0</ele><time>2026-03-29T14:10:36.999Z</time></trkpt><trkpt lat="45.0969331" lon="7.9513324"><ele>378.0</ele><time>2026-03-29T14:10:37.999Z</time></trkpt><trkpt lat="45.0968116" lon="7.9514009"><ele>378.0</ele><time>2026-03-29T14:10:38.999Z</time></trkpt><trkpt lat="45.0966989" lon="7.9514453"><ele>378.0</ele><time>2026-03-29T14:10:39.999Z</time></trkpt><trkpt lat="45.0965931" lon="7.9514773"><ele>378.0</ele><time>2026-03-29T14:10:40.999Z</time></trkpt><trkpt lat="45.0964994" lon="7.9514667"><ele>378.0</ele><time>2026-03-29T14:10:41.999Z</time></trkpt><trkpt lat="45.0964175" lon="7.9514008"><ele>378.0</ele><time>2026-03-29T14:10:42.999Z</time></trkpt><trkpt lat="45.09639" lon="7.9512909"><ele>378.0</ele><time>2026-03-29T14:10:43.999Z</time></trkpt><trkpt lat="45.0963957" lon="7.9511677"><ele>378.0</ele><time>2026-03-29T14:10:44.999Z</time></trkpt><trkpt lat="45.0964442" lon="7.9510733"><ele>378.0</ele><time>2026-03-29T14:10:45.999Z</time></trkpt><trkpt lat="45.0965235" lon="7.9510056"><ele>378.0</ele><time>2026-03-29T14:10:46.999Z</time></trkpt><trkpt lat="45.0966661" lon="7.9509508"><ele>378.0</ele><time>2026-03-29T14:10:47.999Z</time></trkpt><trkpt lat="45.0967969" lon="7.9508993"><ele>378.0</ele><time>2026-03-29T14:10:48.999Z</time></trkpt><trkpt lat="45.0969425" lon="7.9508236"><ele>378.0</ele><time>2026-03-29T14:10:49.999Z</time></trkpt><trkpt lat="45.0970802" lon="7.9507114"><ele>374.3333333333333</ele><time>2026-03-29T14:10:50.999Z</time></trkpt><trkpt lat="45.0972169" lon="7.9505642"><ele>370.66666666666663</ele><time>2026-03-29T14:10:51.999Z</time></trkpt><trkpt lat="45.0973246" lon="7.9503265"><ele>367.0</ele><time>2026-03-29T14:10:52.999Z</time></trkpt><trkpt lat="45.0974311" lon="7.9501311"><ele>363.0</ele><time>2026-03-29T14:10:53.999Z</time></trkpt><trkpt lat="45.0975258" lon="7.9499224"><ele>359.0</ele><time>2026-03-29T14:10:54.999Z</time></trkpt><trkpt lat="45.0976171" lon="7.9497273"><ele>355.0</ele><time>2026-03-29T14:10:55.999Z</time></trkpt><trkpt lat="45.0977138" lon="7.9495547"><ele>355.0</ele><time>2026-03-29T14:10:56.999Z</time></trkpt><trkpt lat="45.0978217" lon="7.9494117"><ele>355.0</ele><time>2026-03-29T14:10:57.999Z</time></trkpt><trkpt lat="45.0979455" lon="7.9493018"><ele>355.0</ele><time>2026-03-29T14:10:58.999Z</time></trkpt><trkpt lat="45.0980794" lon="7.9492003"><ele>355.0</ele><time>2026-03-29T14:10:59.999Z</time></trkpt><trkpt lat="45.0982163" lon="7.9490941"><ele>353.66666666666663</ele><time>2026-03-29T14:11:00.999Z</time></trkpt><trkpt lat="45.0983438" lon="7.9489607"><ele>352.3333333333333</ele><time>2026-03-29T14:11:01.999Z</time></trkpt><trkpt lat="45.0984657" lon="7.9488011"><ele>351.0</ele><time>2026-03-29T14:11:02.999Z</time></trkpt><trkpt lat="45.0985875" lon="7.9486374"><ele>351.0</ele><time>2026-03-29T14:11:03.999Z</time></trkpt><trkpt lat="45.0987123" lon="7.9484747"><ele>351.0</ele><time>2026-03-29T14:11:04.999Z</time></trkpt><trkpt lat="45.0988359" lon="7.9483182"><ele>351.0</ele><time>2026-03-29T14:11:05.999Z</time></trkpt><trkpt lat="45.0989515" lon="7.9481541"><ele>349.0</ele><time>2026-03-29T14:11:06.999Z</time></trkpt><trkpt lat="45.0990643" lon="7.9480067"><ele>347.0</ele><time>2026-03-29T14:11:07.999Z</time></trkpt><trkpt lat="45.0991779" lon="7.947873"><ele>345.0</ele><time>2026-03-29T14:11:08.999Z</time></trkpt><trkpt lat="45.0992965" lon="7.9477637"><ele>343.0</ele><time>2026-03-29T14:11:09.999Z</time></trkpt><trkpt lat="45.0994288" lon="7.9476751"><ele>343.0</ele><time>2026-03-29T14:11:10.999Z</time></trkpt><trkpt lat="45.0995845" lon="7.9476085"><ele>343.0</ele><time>2026-03-29T14:11:11.999Z</time></trkpt><trkpt lat="45.0997512" lon="7.9475429"><ele>343.0</ele><time>2026-03-29T14:11:12.999Z</time></trkpt><trkpt lat="45.0999154" lon="7.947472"><ele>339.66666666666663</ele><time>2026-03-29T14:11:13.999Z</time></trkpt><trkpt lat="45.1000745" lon="7.9474065"><ele>336.3333333333333</ele><time>2026-03-29T14:11:14.999Z</time></trkpt><trkpt lat="45.1002286" lon="7.9473475"><ele>333.0</ele><time>2026-03-29T14:11:15.999Z</time></trkpt><trkpt lat="45.1003691" lon="7.9472979"><ele>333.0</ele><time>2026-03-29T14:11:16.999Z</time></trkpt><trkpt lat="45.100503" lon="7.9472361"><ele>333.0</ele><time>2026-03-29T14:11:17.999Z</time></trkpt><trkpt lat="45.1006014" lon="7.9471282"><ele>333.0</ele><time>2026-03-29T14:11:18.999Z</time></trkpt><trkpt lat="45.1006823" lon="7.9469861"><ele>333.0</ele><time>2026-03-29T14:11:19.999Z</time></trkpt><trkpt lat="45.1007192" lon="7.9468196"><ele>328.0</ele><time>2026-03-29T14:11:20.999Z</time></trkpt><trkpt lat="45.1007208" lon="7.9466171"><ele>323.0</ele><time>2026-03-29T14:11:21.999Z</time></trkpt><trkpt lat="45.1006837" lon="7.9464101"><ele>318.0</ele><time>2026-03-29T14:11:22.999Z</time></trkpt><trkpt lat="45.1006223" lon="7.9461993"><ele>318.0</ele><time>2026-03-29T14:11:23.999Z</time></trkpt><trkpt lat="45.1005699" lon="7.9460052"><ele>318.0</ele><time>2026-03-29T14:11:24.999Z</time></trkpt><trkpt lat="45.1005131" lon="7.9458057"><ele>318.0</ele><time>2026-03-29T14:11:25.999Z</time></trkpt><trkpt lat="45.1004798" lon="7.9455996"><ele>318.0</ele><time>2026-03-29T14:11:26.999Z</time></trkpt><trkpt lat="45.1004893" lon="7.9454015"><ele>314.3333333333333</ele><time>2026-03-29T14:11:27.999Z</time></trkpt><trkpt lat="45.1005301" lon="7.9451933"><ele>310.66666666666663</ele><time>2026-03-29T14:11:28.999Z</time></trkpt><trkpt lat="45.1006031" lon="7.9449799"><ele>307.0</ele><time>2026-03-29T14:11:29.999Z</time></trkpt><trkpt lat="45.1006824" lon="7.9447783"><ele>310.75</ele><time>2026-03-29T14:11:30.999Z</time></trkpt><trkpt lat="45.100761" lon="7.9445834"><ele>314.5</ele><time>2026-03-29T14:11:31.999Z</time></trkpt><trkpt lat="45.100844" lon="7.9443964"><ele>318.25</ele><time>2026-03-29T14:11:32.999Z</time></trkpt><trkpt lat="45.1009349" lon="7.9442564"><ele>322.0</ele><time>2026-03-29T14:11:33.999Z</time></trkpt><trkpt lat="45.101048" lon="7.9442144"><ele>322.0</ele><time>2026-03-29T14:11:34.999Z</time></trkpt><trkpt lat="45.1011615" lon="7.9442174"><ele>322.0</ele><time>2026-03-29T14:11:35.999Z</time></trkpt><trkpt lat="45.1012589" lon="7.9442123"><ele>322.0</ele><time>2026-03-29T14:11:36.999Z</time></trkpt><trkpt lat="45.1013378" lon="7.944181"><ele>322.0</ele><time>2026-03-29T14:11:37.999Z</time></trkpt><trkpt lat="45.101378" lon="7.9440444"><ele>322.0</ele><time>2026-03-29T14:11:38.999Z</time></trkpt><trkpt lat="45.1013891" lon="7.9439242"><ele>319.40000000000003</ele><time>2026-03-29T14:11:39.999Z</time></trkpt><trkpt lat="45.101344" lon="7.9438158"><ele>316.8</ele><time>2026-03-29T14:11:40.999Z</time></trkpt><trkpt lat="45.1012875" lon="7.9437555"><ele>314.2</ele><time>2026-03-29T14:11:41.999Z</time></trkpt><trkpt lat="45.1011548" lon="7.9437645"><ele>311.6</ele><time>2026-03-29T14:11:42.999Z</time></trkpt><trkpt lat="45.1010213" lon="7.943819"><ele>309.0</ele><time>2026-03-29T14:11:43.999Z</time></trkpt><trkpt lat="45.1008796" lon="7.9439241"><ele>307.0</ele><time>2026-03-29T14:11:44.999Z</time></trkpt><trkpt lat="45.1007462" lon="7.9440514"><ele>305.0</ele><time>2026-03-29T14:11:45.999Z</time></trkpt><trkpt lat="45.1006111" lon="7.9442385"><ele>303.0</ele><time>2026-03-29T14:11:46.999Z</time></trkpt><trkpt lat="45.1004794" lon="7.944404"><ele>303.0</ele><time>2026-03-29T14:11:47.999Z</time></trkpt><trkpt lat="45.1003493" lon="7.9445461"><ele>303.0</ele><time>2026-03-29T14:11:48.999Z</time></trkpt><trkpt lat="45.1002333" lon="7.9446962"><ele>303.0</ele><time>2026-03-29T14:11:49.999Z</time></trkpt><trkpt lat="45.1001322" lon="7.9448472"><ele>303.0</ele><time>2026-03-29T14:11:50.999Z</time></trkpt><trkpt lat="45.1000615" lon="7.9450112"><ele>303.0</ele><time>2026-03-29T14:11:51.999Z</time></trkpt><trkpt lat="45.1000154" lon="7.9452154"><ele>303.0</ele><time>2026-03-29T14:11:52.999Z</time></trkpt><trkpt lat="45.0999725" lon="7.9454113"><ele>303.0</ele><time>2026-03-29T14:11:53.999Z</time></trkpt><trkpt lat="45.0999975" lon="7.945602"><ele>303.6</ele><time>2026-03-29T14:11:54.999Z</time></trkpt><trkpt lat="45.0999772" lon="7.9457619"><ele>304.20000000000005</ele><time>2026-03-29T14:11:55.999Z</time></trkpt><trkpt lat="45.0999565" lon="7.9459155"><ele>304.8</ele><time>2026-03-29T14:11:56.999Z</time></trkpt><trkpt lat="45.0998946" lon="7.9460061"><ele>305.40000000000003</ele><time>2026-03-29T14:11:57.999Z</time></trkpt><trkpt lat="45.099816" lon="7.9459909"><ele>306.0</ele><time>2026-03-29T14:11:58.999Z</time></trkpt><trkpt lat="45.0997218" lon="7.9458578"><ele>306.0</ele><time>2026-03-29T14:11:59.999Z</time></trkpt><trkpt lat="45.0996845" lon="7.9457155"><ele>306.0</ele><time>2026-03-29T14:12:00.999Z</time></trkpt><trkpt lat="45.099652" lon="7.9456216"><ele>306.0</ele><time>2026-03-29T14:12:01.999Z</time></trkpt><trkpt lat="45.0997084" lon="7.9454982"><ele>306.0</ele><time>2026-03-29T14:12:02.999Z</time></trkpt><trkpt lat="45.0997665" lon="7.9453148"><ele>306.0</ele><time>2026-03-29T14:12:03.999Z</time></trkpt><trkpt lat="45.0997831" lon="7.9451393"><ele>302.8</ele><time>2026-03-29T14:12:04.999Z</time></trkpt><trkpt lat="45.0997522" lon="7.9449891"><ele>299.6</ele><time>2026-03-29T14:12:05.999Z</time></trkpt><trkpt lat="45.0997349" lon="7.9448361"><ele>296.4</ele><time>2026-03-29T14:12:06.999Z</time></trkpt><trkpt lat="45.0997499" lon="7.9446862"><ele>293.2</ele><time>2026-03-29T14:12:07.999Z</time></trkpt><trkpt lat="45.0997818" lon="7.9445252"><ele>290.0</ele><time>2026-03-29T14:12:08.999Z</time></trkpt><trkpt lat="45.0998399" lon="7.944364"><ele>288.33333333333337</ele><time>2026-03-29T14:12:09.999Z</time></trkpt><trkpt lat="45.0999054" lon="7.9441829"><ele>286.6666666666667</ele><time>2026-03-29T14:12:10.999Z</time></trkpt><trkpt lat="45.0999713" lon="7.9439884"><ele>285.0</ele><time>2026-03-29T14:12:11.999Z</time></trkpt><trkpt lat="45.1000332" lon="7.9437846"><ele>287.0</ele><time>2026-03-29T14:12:12.999Z</time></trkpt><trkpt lat="45.1001112" lon="7.9435611"><ele>289.0</ele><time>2026-03-29T14:12:13.999Z</time></trkpt><trkpt lat="45.1001795" lon="7.943348"><ele>291.0</ele><time>2026-03-29T14:12:14.999Z</time></trkpt><trkpt lat="45.1002584" lon="7.9431263"><ele>291.0</ele><time>2026-03-29T14:12:15.999Z</time></trkpt><trkpt lat="45.1003428" lon="7.9429113"><ele>291.0</ele><time>2026-03-29T14:12:16.999Z</time></trkpt><trkpt lat="45.1004229" lon="7.9426929"><ele>291.0</ele><time>2026-03-29T14:12:17.999Z</time></trkpt><trkpt lat="45.1004942" lon="7.9424831"><ele>291.75</ele><time>2026-03-29T14:12:18.999Z</time></trkpt><trkpt lat="45.1005615" lon="7.9422892"><ele>292.5</ele><time>2026-03-29T14:12:19.999Z</time></trkpt><trkpt lat="45.1006362" lon="7.9421058"><ele>293.25</ele><time>2026-03-29T14:12:20.999Z</time></trkpt><trkpt lat="45.1007082" lon="7.9419351"><ele>294.0</ele><time>2026-03-29T14:12:21.999Z</time></trkpt><trkpt lat="45.1007687" lon="7.9418025"><ele>292.2</ele><time>2026-03-29T14:12:22.999Z</time></trkpt><trkpt lat="45.1008345" lon="7.9416816"><ele>290.4</ele><time>2026-03-29T14:12:23.999Z</time></trkpt><trkpt lat="45.1009135" lon="7.9415765"><ele>288.6</ele><time>2026-03-29T14:12:24.999Z</time></trkpt><trkpt lat="45.1009935" lon="7.9414801"><ele>286.8</ele><time>2026-03-29T14:12:25.999Z</time></trkpt><trkpt lat="45.1010968" lon="7.9414292"><ele>285.0</ele><time>2026-03-29T14:12:26.999Z</time></trkpt><trkpt lat="45.1012032" lon="7.9414317"><ele>285.0</ele><time>2026-03-29T14:12:27.999Z</time></trkpt><trkpt lat="45.1012985" lon="7.9414525"><ele>285.0</ele><time>2026-03-29T14:12:28.999Z</time></trkpt><trkpt lat="45.1014051" lon="7.9414775"><ele>285.0</ele><time>2026-03-29T14:12:29.999Z</time></trkpt><trkpt lat="45.1014845" lon="7.941427"><ele>285.0</ele><time>2026-03-29T14:12:30.999Z</time></trkpt><trkpt lat="45.1015789" lon="7.9413789"><ele>285.0</ele><time>2026-03-29T14:12:31.999Z</time></trkpt><trkpt lat="45.1016317" lon="7.9411619"><ele>285.75</ele><time>2026-03-29T14:12:32.999Z</time></trkpt><trkpt lat="45.1016693" lon="7.9409948"><ele>286.5</ele><time>2026-03-29T14:12:33.999Z</time></trkpt><trkpt lat="45.1017076" lon="7.9408179"><ele>287.25</ele><time>2026-03-29T14:12:34.999Z</time></trkpt><trkpt lat="45.1017377" lon="7.9406573"><ele>288.0</ele><time>2026-03-29T14:12:35.999Z</time></trkpt><trkpt lat="45.1017886" lon="7.9404968"><ele>284.75</ele><time>2026-03-29T14:12:36.999Z</time></trkpt><trkpt lat="45.1018827" lon="7.940406"><ele>281.5</ele><time>2026-03-29T14:12:37.999Z</time></trkpt><trkpt lat="45.1019984" lon="7.9403223"><ele>278.25</ele><time>2026-03-29T14:12:38.999Z</time></trkpt><trkpt lat="45.1021338" lon="7.9402742"><ele>275.0</ele><time>2026-03-29T14:12:39.999Z</time></trkpt><trkpt lat="45.1022791" lon="7.9402366"><ele>276.0</ele><time>2026-03-29T14:12:40.999Z</time></trkpt><trkpt lat="45.1024371" lon="7.940183"><ele>277.0</ele><time>2026-03-29T14:12:41.999Z</time></trkpt><trkpt lat="45.1025894" lon="7.9401274"><ele>278.0</ele><time>2026-03-29T14:12:42.999Z</time></trkpt><trkpt lat="45.1027262" lon="7.9400927"><ele>278.0</ele><time>2026-03-29T14:12:43.999Z</time></trkpt><trkpt lat="45.1028621" lon="7.9400847"><ele>278.0</ele><time>2026-03-29T14:12:44.999Z</time></trkpt><trkpt lat="45.1029866" lon="7.9401419"><ele>278.0</ele><time>2026-03-29T14:12:45.999Z</time></trkpt><trkpt lat="45.1030984" lon="7.9402356"><ele>278.0</ele><time>2026-03-29T14:12:46.999Z</time></trkpt><trkpt lat="45.1031875" lon="7.9403706"><ele>276.75</ele><time>2026-03-29T14:12:47.999Z</time></trkpt><trkpt lat="45.1032844" lon="7.9404702"><ele>275.5</ele><time>2026-03-29T14:12:48.999Z</time></trkpt><trkpt lat="45.1033762" lon="7.9404869"><ele>274.25</ele><time>2026-03-29T14:12:49.999Z</time></trkpt><trkpt lat="45.1035305" lon="7.9404365"><ele>273.0</ele><time>2026-03-29T14:12:50.999Z</time></trkpt><trkpt lat="45.1036818" lon="7.9403481"><ele>273.0</ele><time>2026-03-29T14:12:51.999Z</time></trkpt><trkpt lat="45.1038155" lon="7.9403105"><ele>273.0</ele><time>2026-03-29T14:12:52.999Z</time></trkpt><trkpt lat="45.103945" lon="7.9402942"><ele>273.0</ele><time>2026-03-29T14:12:53.999Z</time></trkpt><trkpt lat="45.1040805" lon="7.9403064"><ele>273.0</ele><time>2026-03-29T14:12:54.999Z</time></trkpt><trkpt lat="45.1042201" lon="7.9403492"><ele>269.3333333333333</ele><time>2026-03-29T14:12:55.999Z</time></trkpt><trkpt lat="45.1043654" lon="7.9404339"><ele>265.66666666666663</ele><time>2026-03-29T14:12:56.999Z</time></trkpt><trkpt lat="45.1045066" lon="7.9405321"><ele>262.0</ele><time>2026-03-29T14:12:57.999Z</time></trkpt><trkpt lat="45.1046546" lon="7.9406394"><ele>262.0</ele><time>2026-03-29T14:12:58.999Z</time></trkpt><trkpt lat="45.1048136" lon="7.9407413"><ele>262.0</ele><time>2026-03-29T14:12:59.999Z</time></trkpt><trkpt lat="45.1049828" lon="7.9408338"><ele>262.0</ele><time>2026-03-29T14:13:00.999Z</time></trkpt><trkpt lat="45.1051681" lon="7.9409056"><ele>259.66666666666663</ele><time>2026-03-29T14:13:01.999Z</time></trkpt><trkpt lat="45.1053633" lon="7.9409618"><ele>257.3333333333333</ele><time>2026-03-29T14:13:02.999Z</time></trkpt><trkpt lat="45.105557" lon="7.9410239"><ele>255.0</ele><time>2026-03-29T14:13:03.999Z</time></trkpt><trkpt lat="45.1057574" lon="7.9410856"><ele>251.66666666666669</ele><time>2026-03-29T14:13:04.999Z</time></trkpt><trkpt lat="45.1059441" lon="7.9411505"><ele>248.33333333333334</ele><time>2026-03-29T14:13:05.999Z</time></trkpt><trkpt lat="45.1061269" lon="7.9412114"><ele>245.0</ele><time>2026-03-29T14:13:06.999Z</time></trkpt><trkpt lat="45.106306" lon="7.9412853"><ele>245.0</ele><time>2026-03-29T14:13:07.999Z</time></trkpt><trkpt lat="45.106483" lon="7.9413641"><ele>245.0</ele><time>2026-03-29T14:13:08.999Z</time></trkpt><trkpt lat="45.1066571" lon="7.9414526"><ele>245.0</ele><time>2026-03-29T14:13:09.999Z</time></trkpt><trkpt lat="45.1068247" lon="7.9415482"><ele>244.66666666666669</ele><time>2026-03-29T14:13:10.999Z</time></trkpt><trkpt lat="45.1069876" lon="7.9416488"><ele>244.33333333333331</ele><time>2026-03-29T14:13:11.999Z</time></trkpt><trkpt lat="45.1071457" lon="7.9417389"><ele>244.0</ele><time>2026-03-29T14:13:12.999Z</time></trkpt><trkpt lat="45.1072876" lon="7.9418189"><ele>242.25</ele><time>2026-03-29T14:13:13.999Z</time></trkpt><trkpt lat="45.1074206" lon="7.941874"><ele>240.5</ele><time>2026-03-29T14:13:14.999Z</time></trkpt><trkpt lat="45.1075366" lon="7.9419095"><ele>238.75</ele><time>2026-03-29T14:13:15.999Z</time></trkpt><trkpt lat="45.1076465" lon="7.9419061"><ele>237.0</ele><time>2026-03-29T14:13:16.999Z</time></trkpt><trkpt lat="45.1077469" lon="7.9418711"><ele>237.0</ele><time>2026-03-29T14:13:17.999Z</time></trkpt><trkpt lat="45.1078484" lon="7.9418207"><ele>237.0</ele><time>2026-03-29T14:13:18.999Z</time></trkpt><trkpt lat="45.1079466" lon="7.9417761"><ele>237.0</ele><time>2026-03-29T14:13:19.999Z</time></trkpt><trkpt lat="45.108043" lon="7.9417211"><ele>237.0</ele><time>2026-03-29T14:13:20.999Z</time></trkpt><trkpt lat="45.1081508" lon="7.9416631"><ele>237.0</ele><time>2026-03-29T14:13:21.999Z</time></trkpt><trkpt lat="45.108268" lon="7.9415903"><ele>238.0</ele><time>2026-03-29T14:13:22.999Z</time></trkpt><trkpt lat="45.1083881" lon="7.9414997"><ele>239.0</ele><time>2026-03-29T14:13:23.999Z</time></trkpt><trkpt lat="45.1085086" lon="7.9414328"><ele>240.0</ele><time>2026-03-29T14:13:24.999Z</time></trkpt><trkpt lat="45.1086366" lon="7.9413709"><ele>241.0</ele><time>2026-03-29T14:13:25.999Z</time></trkpt><trkpt lat="45.108768" lon="7.9413356"><ele>241.0</ele><time>2026-03-29T14:13:26.999Z</time></trkpt><trkpt lat="45.108903" lon="7.9413307"><ele>241.0</ele><time>2026-03-29T14:13:27.999Z</time></trkpt><trkpt lat="45.1090405" lon="7.9413425"><ele>241.0</ele><time>2026-03-29T14:13:28.999Z</time></trkpt><trkpt lat="45.10918" lon="7.941367"><ele>241.0</ele><time>2026-03-29T14:13:29.999Z</time></trkpt><trkpt lat="45.1093296" lon="7.941397"><ele>240.33333333333331</ele><time>2026-03-29T14:13:30.999Z</time></trkpt><trkpt lat="45.1094792" lon="7.9414227"><ele>239.66666666666669</ele><time>2026-03-29T14:13:31.999Z</time></trkpt><trkpt lat="45.1096366" lon="7.9414445"><ele>239.0</ele><time>2026-03-29T14:13:32.999Z</time></trkpt><trkpt lat="45.1097997" lon="7.9414687"><ele>238.66666666666669</ele><time>2026-03-29T14:13:33.999Z</time></trkpt><trkpt lat="45.1099613" lon="7.9414923"><ele>238.33333333333331</ele><time>2026-03-29T14:13:34.999Z</time></trkpt><trkpt lat="45.1101241" lon="7.9415138"><ele>238.0</ele><time>2026-03-29T14:13:35.999Z</time></trkpt><trkpt lat="45.1102826" lon="7.941543"><ele>238.0</ele><time>2026-03-29T14:13:36.999Z</time></trkpt><trkpt lat="45.1104333" lon="7.9415732"><ele>238.0</ele><time>2026-03-29T14:13:37.999Z</time></trkpt><trkpt lat="45.110572" lon="7.9416132"><ele>238.0</ele><time>2026-03-29T14:13:38.999Z</time></trkpt><trkpt lat="45.1106939" lon="7.9416603"><ele>238.0</ele><time>2026-03-29T14:13:39.999Z</time></trkpt><trkpt lat="45.1108134" lon="7.9417056"><ele>236.8</ele><time>2026-03-29T14:13:40.999Z</time></trkpt><trkpt lat="45.1109235" lon="7.9417443"><ele>235.60000000000002</ele><time>2026-03-29T14:13:41.999Z</time></trkpt><trkpt lat="45.1110261" lon="7.9417723"><ele>234.39999999999998</ele><time>2026-03-29T14:13:42.999Z</time></trkpt><trkpt lat="45.1111257" lon="7.9418099"><ele>233.2</ele><time>2026-03-29T14:13:43.999Z</time></trkpt><trkpt lat="45.1112336" lon="7.9418444"><ele>232.0</ele><time>2026-03-29T14:13:44.999Z</time></trkpt><trkpt lat="45.1113519" lon="7.9418684"><ele>232.0</ele><time>2026-03-29T14:13:45.999Z</time></trkpt><trkpt lat="45.1114784" lon="7.941879"><ele>232.0</ele><time>2026-03-29T14:13:46.999Z</time></trkpt><trkpt lat="45.1116253" lon="7.9418229"><ele>232.0</ele><time>2026-03-29T14:13:47.999Z</time></trkpt><trkpt lat="45.1117802" lon="7.9417732"><ele>232.0</ele><time>2026-03-29T14:13:48.999Z</time></trkpt><trkpt lat="45.111935" lon="7.9417445"><ele>232.25</ele><time>2026-03-29T14:13:49.999Z</time></trkpt><trkpt lat="45.112085" lon="7.9417193"><ele>232.5</ele><time>2026-03-29T14:13:50.999Z</time></trkpt><trkpt lat="45.1122159" lon="7.9417384"><ele>232.75</ele><time>2026-03-29T14:13:51.999Z</time></trkpt><trkpt lat="45.1123062" lon="7.9418467"><ele>233.0</ele><time>2026-03-29T14:13:52.999Z</time></trkpt><trkpt lat="45.1124144" lon="7.9419399"><ele>233.66666666666669</ele><time>2026-03-29T14:13:53.999Z</time></trkpt><trkpt lat="45.1125422" lon="7.9420359"><ele>234.33333333333331</ele><time>2026-03-29T14:13:54.999Z</time></trkpt><trkpt lat="45.1126852" lon="7.9420611"><ele>235.0</ele><time>2026-03-29T14:13:55.999Z</time></trkpt><trkpt lat="45.1128505" lon="7.9420325"><ele>235.0</ele><time>2026-03-29T14:13:56.999Z</time></trkpt><trkpt lat="45.1130274" lon="7.9419907"><ele>235.0</ele><time>2026-03-29T14:13:57.999Z</time></trkpt><trkpt lat="45.1132202" lon="7.941971"><ele>235.0</ele><time>2026-03-29T14:13:58.999Z</time></trkpt><trkpt lat="45.1134206" lon="7.9419509"><ele>233.66666666666666</ele><time>2026-03-29T14:13:59.999Z</time></trkpt><trkpt lat="45.11363" lon="7.9419192"><ele>232.33333333333331</ele><time>2026-03-29T14:14:00.999Z</time></trkpt><trkpt lat="45.1138272" lon="7.9419026"><ele>231.0</ele><time>2026-03-29T14:14:01.999Z</time></trkpt><trkpt lat="45.1140255" lon="7.9418891"><ele>231.33333333333331</ele><time>2026-03-29T14:14:02.999Z</time></trkpt><trkpt lat="45.1142197" lon="7.9418468"><ele>231.66666666666666</ele><time>2026-03-29T14:14:03.999Z</time></trkpt><trkpt lat="45.1144161" lon="7.9417993"><ele>232.0</ele><time>2026-03-29T14:14:04.999Z</time></trkpt><trkpt lat="45.1146107" lon="7.9416648"><ele>233.33333333333331</ele><time>2026-03-29T14:14:05.999Z</time></trkpt><trkpt lat="45.1148202" lon="7.94158"><ele>234.66666666666669</ele><time>2026-03-29T14:14:06.999Z</time></trkpt><trkpt lat="45.1150269" lon="7.9415262"><ele>236.0</ele><time>2026-03-29T14:14:07.999Z</time></trkpt><trkpt lat="45.1152311" lon="7.9414596"><ele>236.0</ele><time>2026-03-29T14:14:08.999Z</time></trkpt><trkpt lat="45.1154283" lon="7.9413912"><ele>236.0</ele><time>2026-03-29T14:14:09.999Z</time></trkpt><trkpt lat="45.1156152" lon="7.9413278"><ele>236.0</ele><time>2026-03-29T14:14:10.999Z</time></trkpt><trkpt lat="45.1157854" lon="7.9412751"><ele>234.0</ele><time>2026-03-29T14:14:11.999Z</time></trkpt><trkpt lat="45.1159482" lon="7.9412277"><ele>232.0</ele><time>2026-03-29T14:14:12.999Z</time></trkpt><trkpt lat="45.1160983" lon="7.941219"><ele>230.0</ele><time>2026-03-29T14:14:13.999Z</time></trkpt><trkpt lat="45.1162414" lon="7.9412762"><ele>230.0</ele><time>2026-03-29T14:14:14.999Z</time></trkpt><trkpt lat="45.1163762" lon="7.941386"><ele>230.0</ele><time>2026-03-29T14:14:15.999Z</time></trkpt><trkpt lat="45.1165239" lon="7.9415073"><ele>230.0</ele><time>2026-03-29T14:14:16.999Z</time></trkpt><trkpt lat="45.1166718" lon="7.9416227"><ele>229.66666666666669</ele><time>2026-03-29T14:14:17.999Z</time></trkpt><trkpt lat="45.1168429" lon="7.9416744"><ele>229.33333333333331</ele><time>2026-03-29T14:14:18.999Z</time></trkpt><trkpt lat="45.1170122" lon="7.9417261"><ele>229.0</ele><time>2026-03-29T14:14:19.999Z</time></trkpt><trkpt lat="45.1171908" lon="7.9417471"><ele>229.0</ele><time>2026-03-29T14:14:20.999Z</time></trkpt><trkpt lat="45.117396" lon="7.9416651"><ele>229.0</ele><time>2026-03-29T14:14:21.999Z</time></trkpt><trkpt lat="45.1176033" lon="7.9415961"><ele>229.0</ele><time>2026-03-29T14:14:22.999Z</time></trkpt><trkpt lat="45.1178031" lon="7.9415541"><ele>228.0</ele><time>2026-03-29T14:14:23.999Z</time></trkpt><trkpt lat="45.1180133" lon="7.9415161"><ele>227.0</ele><time>2026-03-29T14:14:24.999Z</time></trkpt><trkpt lat="45.1182266" lon="7.9414752"><ele>226.0</ele><time>2026-03-29T14:14:25.999Z</time></trkpt><trkpt lat="45.1184315" lon="7.9414284"><ele>225.0</ele><time>2026-03-29T14:14:26.999Z</time></trkpt><trkpt lat="45.1186231" lon="7.9413708"><ele>224.0</ele><time>2026-03-29T14:14:27.999Z</time></trkpt><trkpt lat="45.118817" lon="7.9412953"><ele>223.0</ele><time>2026-03-29T14:14:28.999Z</time></trkpt><trkpt lat="45.1190073" lon="7.9411908"><ele>223.33333333333331</ele><time>2026-03-29T14:14:29.999Z</time></trkpt><trkpt lat="45.1192027" lon="7.941067"><ele>223.66666666666669</ele><time>2026-03-29T14:14:30.999Z</time></trkpt><trkpt lat="45.1193857" lon="7.9409367"><ele>224.0</ele><time>2026-03-29T14:14:31.999Z</time></trkpt><trkpt lat="45.1195483" lon="7.9407953"><ele>224.0</ele><time>2026-03-29T14:14:32.999Z</time></trkpt><trkpt lat="45.1196999" lon="7.940643"><ele>224.0</ele><time>2026-03-29T14:14:33.999Z</time></trkpt><trkpt lat="45.1198405" lon="7.9404933"><ele>224.0</ele><time>2026-03-29T14:14:34.999Z</time></trkpt><trkpt lat="45.1199821" lon="7.9403546"><ele>221.66666666666669</ele><time>2026-03-29T14:14:35.999Z</time></trkpt><trkpt lat="45.1201353" lon="7.940238"><ele>219.33333333333331</ele><time>2026-03-29T14:14:36.999Z</time></trkpt><trkpt lat="45.1202955" lon="7.9401445"><ele>217.0</ele><time>2026-03-29T14:14:37.999Z</time></trkpt><trkpt lat="45.1204643" lon="7.9400693"><ele>216.66666666666666</ele><time>2026-03-29T14:14:38.999Z</time></trkpt><trkpt lat="45.1206405" lon="7.9400304"><ele>216.33333333333331</ele><time>2026-03-29T14:14:39.999Z</time></trkpt><trkpt lat="45.1208212" lon="7.9400227"><ele>216.0</ele><time>2026-03-29T14:14:40.999Z</time></trkpt><trkpt lat="45.1210016" lon="7.9400572"><ele>215.66666666666669</ele><time>2026-03-29T14:14:41.999Z</time></trkpt><trkpt lat="45.1211822" lon="7.9401224"><ele>215.33333333333334</ele><time>2026-03-29T14:14:42.999Z</time></trkpt><trkpt lat="45.1213657" lon="7.9402123"><ele>215.0</ele><time>2026-03-29T14:14:43.999Z</time></trkpt><trkpt lat="45.1215489" lon="7.9403118"><ele>214.66666666666669</ele><time>2026-03-29T14:14:44.999Z</time></trkpt><trkpt lat="45.1217284" lon="7.9404298"><ele>214.33333333333331</ele><time>2026-03-29T14:14:45.999Z</time></trkpt><trkpt lat="45.1219121" lon="7.9405684"><ele>214.0</ele><time>2026-03-29T14:14:46.999Z</time></trkpt><trkpt lat="45.1220944" lon="7.9407295"><ele>213.5</ele><time>2026-03-29T14:14:47.999Z</time></trkpt><trkpt lat="45.1222832" lon="7.9409058"><ele>213.0</ele><time>2026-03-29T14:14:48.999Z</time></trkpt><trkpt lat="45.1224797" lon="7.9410773"><ele>212.0</ele><time>2026-03-29T14:14:49.999Z</time></trkpt><trkpt lat="45.1226891" lon="7.9412346"><ele>211.0</ele><time>2026-03-29T14:14:50.999Z</time></trkpt><trkpt lat="45.1228998" lon="7.9413802"><ele>211.0</ele><time>2026-03-29T14:14:51.999Z</time></trkpt><trkpt lat="45.1231111" lon="7.9415124"><ele>211.0</ele><time>2026-03-29T14:14:52.999Z</time></trkpt><trkpt lat="45.1233106" lon="7.9416654"><ele>210.5</ele><time>2026-03-29T14:14:53.999Z</time></trkpt><trkpt lat="45.123503" lon="7.9418363"><ele>210.0</ele><time>2026-03-29T14:14:54.999Z</time></trkpt><trkpt lat="45.1236924" lon="7.9420145"><ele>210.0</ele><time>2026-03-29T14:14:55.999Z</time></trkpt><trkpt lat="45.1238738" lon="7.9422137"><ele>210.0</ele><time>2026-03-29T14:14:56.999Z</time></trkpt><trkpt lat="45.1240557" lon="7.9424159"><ele>209.0</ele><time>2026-03-29T14:14:57.999Z</time></trkpt><trkpt lat="45.1242392" lon="7.9426115"><ele>208.0</ele><time>2026-03-29T14:14:58.999Z</time></trkpt><trkpt lat="45.1244322" lon="7.9427952"><ele>208.0</ele><time>2026-03-29T14:14:59.999Z</time></trkpt><trkpt lat="45.1246299" lon="7.9429747"><ele>208.0</ele><time>2026-03-29T14:15:00.999Z</time></trkpt><trkpt lat="45.1248252" lon="7.9431353"><ele>208.0</ele><time>2026-03-29T14:15:01.999Z</time></trkpt><trkpt lat="45.125019" lon="7.9432622"><ele>208.0</ele><time>2026-03-29T14:15:02.999Z</time></trkpt><trkpt lat="45.1252131" lon="7.9433577"><ele>208.0</ele><time>2026-03-29T14:15:03.999Z</time></trkpt><trkpt lat="45.1254039" lon="7.9434253"><ele>208.0</ele><time>2026-03-29T14:15:04.999Z</time></trkpt><trkpt lat="45.1255979" lon="7.9434642"><ele>208.0</ele><time>2026-03-29T14:15:05.999Z</time></trkpt><trkpt lat="45.1257806" lon="7.9434856"><ele>208.0</ele><time>2026-03-29T14:15:06.999Z</time></trkpt><trkpt lat="45.125972" lon="7.9434963"><ele>207.66666666666666</ele><time>2026-03-29T14:15:07.999Z</time></trkpt><trkpt lat="45.1261609" lon="7.9435141"><ele>207.33333333333331</ele><time>2026-03-29T14:15:08.999Z</time></trkpt><trkpt lat="45.1263308" lon="7.9435384"><ele>207.0</ele><time>2026-03-29T14:15:09.999Z</time></trkpt><trkpt lat="45.1264935" lon="7.9435574"><ele>207.0</ele><time>2026-03-29T14:15:10.999Z</time></trkpt><trkpt lat="45.1266558" lon="7.9435773"><ele>207.0</ele><time>2026-03-29T14:15:11.999Z</time></trkpt><trkpt lat="45.1268163" lon="7.9436027"><ele>207.0</ele><time>2026-03-29T14:15:12.999Z</time></trkpt><trkpt lat="45.1269684" lon="7.9436246"><ele>207.0</ele><time>2026-03-29T14:15:13.999Z</time></trkpt><trkpt lat="45.1271234" lon="7.9436484"><ele>207.0</ele><time>2026-03-29T14:15:14.999Z</time></trkpt><trkpt lat="45.1272757" lon="7.9436622"><ele>207.0</ele><time>2026-03-29T14:15:15.999Z</time></trkpt><trkpt lat="45.1274255" lon="7.9436768"><ele>207.25</ele><time>2026-03-29T14:15:16.999Z</time></trkpt><trkpt lat="45.127576" lon="7.9436731"><ele>207.5</ele><time>2026-03-29T14:15:17.999Z</time></trkpt><trkpt lat="45.1277237" lon="7.9436646"><ele>207.75</ele><time>2026-03-29T14:15:18.999Z</time></trkpt><trkpt lat="45.1278632" lon="7.9436303"><ele>208.0</ele><time>2026-03-29T14:15:19.999Z</time></trkpt><trkpt lat="45.1280021" lon="7.9435819"><ele>208.0</ele><time>2026-03-29T14:15:20.999Z</time></trkpt><trkpt lat="45.1281417" lon="7.9434938"><ele>208.0</ele><time>2026-03-29T14:15:21.999Z</time></trkpt><trkpt lat="45.1282743" lon="7.9434282"><ele>208.0</ele><time>2026-03-29T14:15:22.999Z</time></trkpt><trkpt lat="45.1284107" lon="7.9433425"><ele>208.0</ele><time>2026-03-29T14:15:23.999Z</time></trkpt><trkpt lat="45.1285399" lon="7.9432745"><ele>208.25</ele><time>2026-03-29T14:15:24.999Z</time></trkpt><trkpt lat="45.1286699" lon="7.9432085"><ele>208.5</ele><time>2026-03-29T14:15:25.999Z</time></trkpt><trkpt lat="45.1287963" lon="7.9431435"><ele>208.75</ele><time>2026-03-29T14:15:26.999Z</time></trkpt><trkpt lat="45.1289124" lon="7.9430814"><ele>209.0</ele><time>2026-03-29T14:15:27.999Z</time></trkpt><trkpt lat="45.1290179" lon="7.9430212"><ele>208.83333333333334</ele><time>2026-03-29T14:15:28.999Z</time></trkpt><trkpt lat="45.1291085" lon="7.9429824"><ele>208.66666666666669</ele><time>2026-03-29T14:15:29.999Z</time></trkpt><trkpt lat="45.1291814" lon="7.9429502"><ele>208.5</ele><time>2026-03-29T14:15:30.999Z</time></trkpt><trkpt lat="45.1292461" lon="7.9429373"><ele>208.33333333333331</ele><time>2026-03-29T14:15:31.999Z</time></trkpt><trkpt lat="45.1293064" lon="7.9429818"><ele>208.16666666666666</ele><time>2026-03-29T14:15:32.999Z</time></trkpt><trkpt lat="45.1293028" lon="7.943078"><ele>208.0</ele><time>2026-03-29T14:15:33.999Z</time></trkpt><trkpt lat="45.1292891" lon="7.943253"><ele>208.0</ele><time>2026-03-29T14:15:35.999Z</time></trkpt><trkpt lat="45.1292492" lon="7.9433429"><ele>208.0</ele><time>2026-03-29T14:15:36.999Z</time></trkpt><trkpt lat="45.1291836" lon="7.9434608"><ele>208.0</ele><time>2026-03-29T14:15:37.999Z</time></trkpt><trkpt lat="45.1291252" lon="7.9435923"><ele>208.0</ele><time>2026-03-29T14:15:38.999Z</time></trkpt><trkpt lat="45.1290587" lon="7.9437393"><ele>208.0</ele><time>2026-03-29T14:15:39.999Z</time></trkpt><trkpt lat="45.1290069" lon="7.9438988"><ele>208.0</ele><time>2026-03-29T14:15:40.999Z</time></trkpt><trkpt lat="45.1289481" lon="7.9440722"><ele>208.0</ele><time>2026-03-29T14:15:41.999Z</time></trkpt><trkpt lat="45.1288938" lon="7.9442538"><ele>208.0</ele><time>2026-03-29T14:15:42.999Z</time></trkpt><trkpt lat="45.12884" lon="7.9444449"><ele>208.0</ele><time>2026-03-29T14:15:43.999Z</time></trkpt><trkpt lat="45.1287891" lon="7.9446209"><ele>207.8</ele><time>2026-03-29T14:15:44.999Z</time></trkpt><trkpt lat="45.1287454" lon="7.9447838"><ele>207.60000000000002</ele><time>2026-03-29T14:15:45.999Z</time></trkpt><trkpt lat="45.1287044" lon="7.9449417"><ele>207.39999999999998</ele><time>2026-03-29T14:15:46.999Z</time></trkpt><trkpt lat="45.1286738" lon="7.9450632"><ele>207.2</ele><time>2026-03-29T14:15:47.999Z</time></trkpt><trkpt lat="45.1286333" lon="7.9451811"><ele>207.0</ele><time>2026-03-29T14:15:48.999Z</time></trkpt><trkpt lat="45.1285959" lon="7.9452979"><ele>206.8</ele><time>2026-03-29T14:15:49.999Z</time></trkpt><trkpt lat="45.128584" lon="7.9454211"><ele>206.6</ele><time>2026-03-29T14:15:50.999Z</time></trkpt><trkpt lat="45.1285978" lon="7.945565"><ele>206.4</ele><time>2026-03-29T14:15:51.999Z</time></trkpt><trkpt lat="45.1286254" lon="7.9457278"><ele>206.20000000000002</ele><time>2026-03-29T14:15:53Z</time></trkpt><trkpt lat="45.1286602" lon="7.9458976"><ele>206.0</ele><time>2026-03-29T14:15:53.999Z</time></trkpt><trkpt lat="45.1286951" lon="7.9460761"><ele>205.75</ele><time>2026-03-29T14:15:54.999Z</time></trkpt><trkpt lat="45.1287352" lon="7.9462616"><ele>205.5</ele><time>2026-03-29T14:15:55.999Z</time></trkpt><trkpt lat="45.1287766" lon="7.9464462"><ele>205.25</ele><time>2026-03-29T14:15:56.999Z</time></trkpt><trkpt lat="45.1288166" lon="7.9466279"><ele>205.0</ele><time>2026-03-29T14:15:57.999Z</time></trkpt><trkpt lat="45.1288553" lon="7.9468163"><ele>205.0</ele><time>2026-03-29T14:15:58.999Z</time></trkpt><trkpt lat="45.1288912" lon="7.9470076"><ele>205.0</ele><time>2026-03-29T14:15:59.999Z</time></trkpt><trkpt lat="45.128931" lon="7.9471923"><ele>205.0</ele><time>2026-03-29T14:16:00.999Z</time></trkpt><trkpt lat="45.1289731" lon="7.9473832"><ele>205.0</ele><time>2026-03-29T14:16:01.999Z</time></trkpt><trkpt lat="45.129018" lon="7.947582"><ele>205.33333333333331</ele><time>2026-03-29T14:16:02.999Z</time></trkpt><trkpt lat="45.129064" lon="7.9477853"><ele>205.66666666666669</ele><time>2026-03-29T14:16:03.999Z</time></trkpt><trkpt lat="45.1291219" lon="7.9479902"><ele>206.0</ele><time>2026-03-29T14:16:04.999Z</time></trkpt><trkpt lat="45.129206" lon="7.9481835"><ele>205.33333333333334</ele><time>2026-03-29T14:16:05.999Z</time></trkpt><trkpt lat="45.1293007" lon="7.9483822"><ele>204.66666666666669</ele><time>2026-03-29T14:16:06.999Z</time></trkpt><trkpt lat="45.1294063" lon="7.9485802"><ele>204.0</ele><time>2026-03-29T14:16:07.999Z</time></trkpt><trkpt lat="45.1295229" lon="7.9487801"><ele>204.0</ele><time>2026-03-29T14:16:08.999Z</time></trkpt><trkpt lat="45.1296462" lon="7.9489748"><ele>204.0</ele><time>2026-03-29T14:16:09.999Z</time></trkpt><trkpt lat="45.1297699" lon="7.9491794"><ele>204.0</ele><time>2026-03-29T14:16:10.999Z</time></trkpt><trkpt lat="45.1298739" lon="7.9493972"><ele>205.66666666666669</ele><time>2026-03-29T14:16:11.999Z</time></trkpt><trkpt lat="45.1299558" lon="7.9496258"><ele>207.33333333333334</ele><time>2026-03-29T14:16:12.999Z</time></trkpt><trkpt lat="45.1300213" lon="7.9498585"><ele>209.0</ele><time>2026-03-29T14:16:13.999Z</time></trkpt><trkpt lat="45.1300574" lon="7.9500785"><ele>211.33333333333334</ele><time>2026-03-29T14:16:14.999Z</time></trkpt><trkpt lat="45.1300586" lon="7.9502984"><ele>213.66666666666669</ele><time>2026-03-29T14:16:15.999Z</time></trkpt><trkpt lat="45.1300275" lon="7.9505295"><ele>216.0</ele><time>2026-03-29T14:16:16.999Z</time></trkpt><trkpt lat="45.1299873" lon="7.9507575"><ele>218.0</ele><time>2026-03-29T14:16:17.999Z</time></trkpt><trkpt lat="45.1299449" lon="7.9510026"><ele>220.0</ele><time>2026-03-29T14:16:18.999Z</time></trkpt><trkpt lat="45.1299271" lon="7.9512455"><ele>222.0</ele><time>2026-03-29T14:16:19.999Z</time></trkpt><trkpt lat="45.1299337" lon="7.9514908"><ele>221.66666666666669</ele><time>2026-03-29T14:16:20.999Z</time></trkpt><trkpt lat="45.1299677" lon="7.9517308"><ele>221.33333333333334</ele><time>2026-03-29T14:16:21.999Z</time></trkpt><trkpt lat="45.1300071" lon="7.9519657"><ele>221.0</ele><time>2026-03-29T14:16:22.999Z</time></trkpt><trkpt lat="45.1300506" lon="7.9521769"><ele>221.0</ele><time>2026-03-29T14:16:23.999Z</time></trkpt><trkpt lat="45.1301062" lon="7.9523737"><ele>221.0</ele><time>2026-03-29T14:16:24.999Z</time></trkpt><trkpt lat="45.1301754" lon="7.952568"><ele>221.0</ele><time>2026-03-29T14:16:25.999Z</time></trkpt><trkpt lat="45.1302393" lon="7.9527845"><ele>220.0</ele><time>2026-03-29T14:16:26.999Z</time></trkpt><trkpt lat="45.1302934" lon="7.9530277"><ele>219.0</ele><time>2026-03-29T14:16:27.999Z</time></trkpt><trkpt lat="45.1303389" lon="7.9532721"><ele>218.0</ele><time>2026-03-29T14:16:28.999Z</time></trkpt><trkpt lat="45.1303699" lon="7.953513"><ele>216.66666666666669</ele><time>2026-03-29T14:16:29.999Z</time></trkpt><trkpt lat="45.130411" lon="7.9537499"><ele>215.33333333333331</ele><time>2026-03-29T14:16:30.999Z</time></trkpt><trkpt lat="45.1304752" lon="7.9539728"><ele>214.0</ele><time>2026-03-29T14:16:31.999Z</time></trkpt><trkpt lat="45.1305503" lon="7.9541575"><ele>213.75</ele><time>2026-03-29T14:16:32.999Z</time></trkpt><trkpt lat="45.1306153" lon="7.9543265"><ele>213.5</ele><time>2026-03-29T14:16:33.999Z</time></trkpt><trkpt lat="45.1306457" lon="7.9544886"><ele>213.25</ele><time>2026-03-29T14:16:34.999Z</time></trkpt><trkpt lat="45.1306463" lon="7.9546696"><ele>213.0</ele><time>2026-03-29T14:16:35.999Z</time></trkpt><trkpt lat="45.1306419" lon="7.9548477"><ele>213.0</ele><time>2026-03-29T14:16:36.999Z</time></trkpt><trkpt lat="45.1306423" lon="7.9549993"><ele>213.0</ele><time>2026-03-29T14:16:37.999Z</time></trkpt><trkpt lat="45.1306365" lon="7.95513"><ele>213.0</ele><time>2026-03-29T14:16:38.999Z</time></trkpt><trkpt lat="45.1306045" lon="7.955255"><ele>213.0</ele><time>2026-03-29T14:16:39.999Z</time></trkpt><trkpt lat="45.1305383" lon="7.955382"><ele>213.0</ele><time>2026-03-29T14:16:40.999Z</time></trkpt><trkpt lat="45.13045" lon="7.9554749"><ele>212.8</ele><time>2026-03-29T14:16:41.999Z</time></trkpt><trkpt lat="45.1303645" lon="7.9555551"><ele>212.60000000000002</ele><time>2026-03-29T14:16:42.999Z</time></trkpt><trkpt lat="45.1302924" lon="7.9556644"><ele>212.39999999999998</ele><time>2026-03-29T14:16:43.999Z</time></trkpt><trkpt lat="45.1302422" lon="7.9558074"><ele>212.2</ele><time>2026-03-29T14:16:44.999Z</time></trkpt><trkpt lat="45.1302346" lon="7.9559713"><ele>212.0</ele><time>2026-03-29T14:16:45.999Z</time></trkpt><trkpt lat="45.1302558" lon="7.9561533"><ele>212.0</ele><time>2026-03-29T14:16:46.999Z</time></trkpt><trkpt lat="45.1302832" lon="7.9563482"><ele>212.0</ele><time>2026-03-29T14:16:47.999Z</time></trkpt><trkpt lat="45.1303125" lon="7.9565505"><ele>212.0</ele><time>2026-03-29T14:16:48.999Z</time></trkpt><trkpt lat="45.1303442" lon="7.9567692"><ele>212.0</ele><time>2026-03-29T14:16:49.999Z</time></trkpt><trkpt lat="45.1303801" lon="7.9570003"><ele>213.33333333333334</ele><time>2026-03-29T14:16:50.999Z</time></trkpt><trkpt lat="45.1304206" lon="7.9572389"><ele>214.66666666666669</ele><time>2026-03-29T14:16:51.999Z</time></trkpt><trkpt lat="45.1304614" lon="7.9574821"><ele>216.0</ele><time>2026-03-29T14:16:52.999Z</time></trkpt><trkpt lat="45.1304997" lon="7.9577258"><ele>217.0</ele><time>2026-03-29T14:16:53.999Z</time></trkpt><trkpt lat="45.1305355" lon="7.9579762"><ele>218.0</ele><time>2026-03-29T14:16:54.999Z</time></trkpt><trkpt lat="45.1305239" lon="7.9582492"><ele>219.0</ele><time>2026-03-29T14:16:55.999Z</time></trkpt><trkpt lat="45.1304894" lon="7.9585131"><ele>221.0</ele><time>2026-03-29T14:16:56.999Z</time></trkpt><trkpt lat="45.1304544" lon="7.9587739"><ele>223.0</ele><time>2026-03-29T14:16:57.999Z</time></trkpt><trkpt lat="45.1304369" lon="7.9590407"><ele>225.0</ele><time>2026-03-29T14:16:58.999Z</time></trkpt><trkpt lat="45.1304363" lon="7.9593006"><ele>227.0</ele><time>2026-03-29T14:16:59.999Z</time></trkpt><trkpt lat="45.1304402" lon="7.9595648"><ele>229.0</ele><time>2026-03-29T14:17:00.999Z</time></trkpt><trkpt lat="45.1304277" lon="7.9598295"><ele>231.0</ele><time>2026-03-29T14:17:01.999Z</time></trkpt><trkpt lat="45.1304143" lon="7.9600877"><ele>232.33333333333331</ele><time>2026-03-29T14:17:02.999Z</time></trkpt><trkpt lat="45.1303971" lon="7.9603391"><ele>233.66666666666666</ele><time>2026-03-29T14:17:03.999Z</time></trkpt><trkpt lat="45.1303837" lon="7.9605766"><ele>235.0</ele><time>2026-03-29T14:17:04.999Z</time></trkpt><trkpt lat="45.1303734" lon="7.9607852"><ele>235.75</ele><time>2026-03-29T14:17:05.999Z</time></trkpt><trkpt lat="45.1303805" lon="7.9609913"><ele>236.5</ele><time>2026-03-29T14:17:06.999Z</time></trkpt><trkpt lat="45.130406" lon="7.9611958"><ele>237.25</ele><time>2026-03-29T14:17:07.999Z</time></trkpt><trkpt lat="45.1304605" lon="7.9613972"><ele>238.0</ele><time>2026-03-29T14:17:08.999Z</time></trkpt><trkpt lat="45.1305203" lon="7.9615909"><ele>239.33333333333331</ele><time>2026-03-29T14:17:09.999Z</time></trkpt><trkpt lat="45.1305851" lon="7.9617939"><ele>240.66666666666669</ele><time>2026-03-29T14:17:10.999Z</time></trkpt><trkpt lat="45.1306534" lon="7.9620041"><ele>242.0</ele><time>2026-03-29T14:17:11.999Z</time></trkpt><trkpt lat="45.1307178" lon="7.9622165"><ele>246.33333333333334</ele><time>2026-03-29T14:17:12.999Z</time></trkpt><trkpt lat="45.1307859" lon="7.9624328"><ele>250.66666666666669</ele><time>2026-03-29T14:17:13.999Z</time></trkpt><trkpt lat="45.1308582" lon="7.962648"><ele>255.0</ele><time>2026-03-29T14:17:14.999Z</time></trkpt><trkpt lat="45.130926" lon="7.962846"><ele>256.5</ele><time>2026-03-29T14:17:15.999Z</time></trkpt><trkpt lat="45.1309827" lon="7.9630534"><ele>258.0</ele><time>2026-03-29T14:17:16.999Z</time></trkpt><trkpt lat="45.1310118" lon="7.9632565"><ele>259.5</ele><time>2026-03-29T14:17:17.999Z</time></trkpt><trkpt lat="45.1309896" lon="7.9634237"><ele>261.0</ele><time>2026-03-29T14:17:18.999Z</time></trkpt><trkpt lat="45.1309622" lon="7.9636093"><ele>263.0</ele><time>2026-03-29T14:17:19.999Z</time></trkpt><trkpt lat="45.1309122" lon="7.9637911"><ele>265.0</ele><time>2026-03-29T14:17:20.999Z</time></trkpt><trkpt lat="45.1308554" lon="7.9640025"><ele>267.0</ele><time>2026-03-29T14:17:21.999Z</time></trkpt><trkpt lat="45.130785" lon="7.964217"><ele>267.0</ele><time>2026-03-29T14:17:22.999Z</time></trkpt><trkpt lat="45.1307698" lon="7.9644441"><ele>267.0</ele><time>2026-03-29T14:17:23.999Z</time></trkpt><trkpt lat="45.1307266" lon="7.9646765"><ele>267.0</ele><time>2026-03-29T14:17:24.999Z</time></trkpt><trkpt lat="45.1306855" lon="7.9649052"><ele>270.0</ele><time>2026-03-29T14:17:25.999Z</time></trkpt><trkpt lat="45.1306232" lon="7.9650937"><ele>273.0</ele><time>2026-03-29T14:17:26.999Z</time></trkpt><trkpt lat="45.1305587" lon="7.9652902"><ele>276.0</ele><time>2026-03-29T14:17:27.999Z</time></trkpt><trkpt lat="45.1304982" lon="7.9654889"><ele>276.0</ele><time>2026-03-29T14:17:28.999Z</time></trkpt><trkpt lat="45.1304419" lon="7.9657051"><ele>276.0</ele><time>2026-03-29T14:17:29.999Z</time></trkpt><trkpt lat="45.1303909" lon="7.9659212"><ele>276.0</ele><time>2026-03-29T14:17:30.999Z</time></trkpt><trkpt lat="45.1303484" lon="7.9661374"><ele>280.0</ele><time>2026-03-29T14:17:31.999Z</time></trkpt><trkpt lat="45.1303071" lon="7.9663476"><ele>284.0</ele><time>2026-03-29T14:17:32.999Z</time></trkpt><trkpt lat="45.1302804" lon="7.9665583"><ele>288.0</ele><time>2026-03-29T14:17:33.999Z</time></trkpt><trkpt lat="45.1302699" lon="7.9667688"><ele>291.6666666666667</ele><time>2026-03-29T14:17:34.999Z</time></trkpt><trkpt lat="45.1302737" lon="7.9669842"><ele>295.33333333333337</ele><time>2026-03-29T14:17:35.999Z</time></trkpt><trkpt lat="45.1302813" lon="7.967205"><ele>299.0</ele><time>2026-03-29T14:17:36.999Z</time></trkpt><trkpt lat="45.1302814" lon="7.9674148"><ele>302.0</ele><time>2026-03-29T14:17:37.999Z</time></trkpt><trkpt lat="45.1302506" lon="7.9676272"><ele>305.0</ele><time>2026-03-29T14:17:38.999Z</time></trkpt><trkpt lat="45.1302086" lon="7.9678277"><ele>308.0</ele><time>2026-03-29T14:17:39.999Z</time></trkpt><trkpt lat="45.1301573" lon="7.9680368"><ele>308.0</ele><time>2026-03-29T14:17:40.999Z</time></trkpt><trkpt lat="45.1301016" lon="7.968225"><ele>308.0</ele><time>2026-03-29T14:17:41.999Z</time></trkpt><trkpt lat="45.1300519" lon="7.9684057"><ele>308.0</ele><time>2026-03-29T14:17:42.999Z</time></trkpt><trkpt lat="45.1299899" lon="7.9685949"><ele>308.0</ele><time>2026-03-29T14:17:43.999Z</time></trkpt><trkpt lat="45.1299119" lon="7.9687857"><ele>306.33333333333337</ele><time>2026-03-29T14:17:44.999Z</time></trkpt><trkpt lat="45.1298558" lon="7.9689802"><ele>304.6666666666667</ele><time>2026-03-29T14:17:45.999Z</time></trkpt><trkpt lat="45.1298187" lon="7.969188"><ele>303.0</ele><time>2026-03-29T14:17:46.999Z</time></trkpt><trkpt lat="45.1298109" lon="7.969406"><ele>305.5</ele><time>2026-03-29T14:17:47.999Z</time></trkpt><trkpt lat="45.1298341" lon="7.9696065"><ele>308.0</ele><time>2026-03-29T14:17:48.999Z</time></trkpt><trkpt lat="45.1298732" lon="7.9697995"><ele>310.5</ele><time>2026-03-29T14:17:49.999Z</time></trkpt><trkpt lat="45.1298969" lon="7.9699866"><ele>313.0</ele><time>2026-03-29T14:17:50.999Z</time></trkpt><trkpt lat="45.1299202" lon="7.9701586"><ele>313.4</ele><time>2026-03-29T14:17:51.999Z</time></trkpt><trkpt lat="45.1299294" lon="7.9703066"><ele>313.8</ele><time>2026-03-29T14:17:52.999Z</time></trkpt><trkpt lat="45.1299044" lon="7.9704526"><ele>314.2</ele><time>2026-03-29T14:17:53.999Z</time></trkpt><trkpt lat="45.1298611" lon="7.9705838"><ele>314.6</ele><time>2026-03-29T14:17:54.999Z</time></trkpt><trkpt lat="45.1297994" lon="7.9707408"><ele>315.0</ele><time>2026-03-29T14:17:55.999Z</time></trkpt><trkpt lat="45.1297569" lon="7.9708901"><ele>317.5</ele><time>2026-03-29T14:17:56.999Z</time></trkpt><trkpt lat="45.1297182" lon="7.9710518"><ele>320.0</ele><time>2026-03-29T14:17:57.999Z</time></trkpt><trkpt lat="45.1296939" lon="7.9712092"><ele>322.5</ele><time>2026-03-29T14:17:58.999Z</time></trkpt><trkpt lat="45.1296928" lon="7.9713776"><ele>325.0</ele><time>2026-03-29T14:17:59.999Z</time></trkpt><trkpt lat="45.1297121" lon="7.9715415"><ele>328.2</ele><time>2026-03-29T14:18:00.999Z</time></trkpt><trkpt lat="45.1297363" lon="7.9716994"><ele>331.4</ele><time>2026-03-29T14:18:01.999Z</time></trkpt><trkpt lat="45.1297418" lon="7.9718468"><ele>334.6</ele><time>2026-03-29T14:18:02.999Z</time></trkpt><trkpt lat="45.1297061" lon="7.9719777"><ele>337.8</ele><time>2026-03-29T14:18:03.999Z</time></trkpt><trkpt lat="45.1296615" lon="7.9721101"><ele>341.0</ele><time>2026-03-29T14:18:04.999Z</time></trkpt><trkpt lat="45.129605" lon="7.972254"><ele>341.0</ele><time>2026-03-29T14:18:05.999Z</time></trkpt><trkpt lat="45.1295424" lon="7.9724023"><ele>341.0</ele><time>2026-03-29T14:18:06.999Z</time></trkpt><trkpt lat="45.1294657" lon="7.9725582"><ele>341.0</ele><time>2026-03-29T14:18:07.999Z</time></trkpt><trkpt lat="45.1293848" lon="7.9727358"><ele>341.0</ele><time>2026-03-29T14:18:08.999Z</time></trkpt><trkpt lat="45.1293104" lon="7.9728846"><ele>341.0</ele><time>2026-03-29T14:18:09.999Z</time></trkpt><trkpt lat="45.1292389" lon="7.9730083"><ele>341.0</ele><time>2026-03-29T14:18:10.999Z</time></trkpt><trkpt lat="45.1291659" lon="7.9731196"><ele>341.0</ele><time>2026-03-29T14:18:11.999Z</time></trkpt><trkpt lat="45.12906" lon="7.973149"><ele>341.0</ele><time>2026-03-29T14:18:12.999Z</time></trkpt><trkpt lat="45.1289416" lon="7.9731423"><ele>341.0</ele><time>2026-03-29T14:18:13.999Z</time></trkpt><trkpt lat="45.1288362" lon="7.9731554"><ele>341.0</ele><time>2026-03-29T14:18:14.999Z</time></trkpt><trkpt lat="45.1287527" lon="7.9732098"><ele>341.0</ele><time>2026-03-29T14:18:15.999Z</time></trkpt><trkpt lat="45.1286681" lon="7.973299"><ele>341.0</ele><time>2026-03-29T14:18:16.999Z</time></trkpt><trkpt lat="45.1286386" lon="7.9734348"><ele>341.0</ele><time>2026-03-29T14:18:17.999Z</time></trkpt><trkpt lat="45.1286131" lon="7.9735937"><ele>341.0</ele><time>2026-03-29T14:18:18.999Z</time></trkpt><trkpt lat="45.1286055" lon="7.973749"><ele>342.25</ele><time>2026-03-29T14:18:19.999Z</time></trkpt><trkpt lat="45.1285966" lon="7.973921"><ele>343.5</ele><time>2026-03-29T14:18:20.999Z</time></trkpt><trkpt lat="45.1285889" lon="7.9741243"><ele>344.75</ele><time>2026-03-29T14:18:21.999Z</time></trkpt><trkpt lat="45.1285599" lon="7.9743018"><ele>346.0</ele><time>2026-03-29T14:18:22.999Z</time></trkpt><trkpt lat="45.1284871" lon="7.9744415"><ele>347.8</ele><time>2026-03-29T14:18:23.999Z</time></trkpt><trkpt lat="45.1284346" lon="7.9745724"><ele>349.6</ele><time>2026-03-29T14:18:24.999Z</time></trkpt><trkpt lat="45.1284124" lon="7.9747239"><ele>351.4</ele><time>2026-03-29T14:18:25.999Z</time></trkpt><trkpt lat="45.1284033" lon="7.9748767"><ele>353.2</ele><time>2026-03-29T14:18:26.999Z</time></trkpt><trkpt lat="45.1284282" lon="7.9750231"><ele>355.0</ele><time>2026-03-29T14:18:27.999Z</time></trkpt><trkpt lat="45.1284906" lon="7.9751751"><ele>356.6</ele><time>2026-03-29T14:18:28.999Z</time></trkpt><trkpt lat="45.1285728" lon="7.975315"><ele>358.2</ele><time>2026-03-29T14:18:29.999Z</time></trkpt><trkpt lat="45.1286754" lon="7.9753561"><ele>359.79999999999995</ele><time>2026-03-29T14:18:30.999Z</time></trkpt><trkpt lat="45.1287354" lon="7.9754505"><ele>361.4</ele><time>2026-03-29T14:18:31.999Z</time></trkpt><trkpt lat="45.1287632" lon="7.9755574"><ele>363.0</ele><time>2026-03-29T14:18:32.999Z</time></trkpt><trkpt lat="45.1287655" lon="7.9756977"><ele>363.0</ele><time>2026-03-29T14:18:33.999Z</time></trkpt><trkpt lat="45.1287328" lon="7.975846"><ele>363.0</ele><time>2026-03-29T14:18:34.999Z</time></trkpt><trkpt lat="45.128684" lon="7.975997"><ele>363.0</ele><time>2026-03-29T14:18:35.999Z</time></trkpt><trkpt lat="45.1285959" lon="7.9761559"><ele>363.0</ele><time>2026-03-29T14:18:36.999Z</time></trkpt><trkpt lat="45.1285073" lon="7.9762856"><ele>367.25</ele><time>2026-03-29T14:18:37.999Z</time></trkpt><trkpt lat="45.1283914" lon="7.9763966"><ele>371.5</ele><time>2026-03-29T14:18:38.999Z</time></trkpt><trkpt lat="45.1282521" lon="7.9764279"><ele>375.75</ele><time>2026-03-29T14:18:39.999Z</time></trkpt><trkpt lat="45.1281274" lon="7.9764302"><ele>380.0</ele><time>2026-03-29T14:18:40.999Z</time></trkpt><trkpt lat="45.127976" lon="7.9763825"><ele>380.0</ele><time>2026-03-29T14:18:41.999Z</time></trkpt><trkpt lat="45.1278717" lon="7.9764091"><ele>380.0</ele><time>2026-03-29T14:18:42.999Z</time></trkpt><trkpt lat="45.1277553" lon="7.9765394"><ele>380.0</ele><time>2026-03-29T14:18:43.999Z</time></trkpt><trkpt lat="45.12763" lon="7.9765903"><ele>380.0</ele><time>2026-03-29T14:18:44.999Z</time></trkpt><trkpt lat="45.1274964" lon="7.9765575"><ele>374.8</ele><time>2026-03-29T14:18:45.999Z</time></trkpt><trkpt lat="45.1273926" lon="7.9765416"><ele>369.6</ele><time>2026-03-29T14:18:46.999Z</time></trkpt><trkpt lat="45.1273011" lon="7.9765941"><ele>364.4</ele><time>2026-03-29T14:18:47.999Z</time></trkpt><trkpt lat="45.1272103" lon="7.9766611"><ele>359.2</ele><time>2026-03-29T14:18:49Z</time></trkpt><trkpt lat="45.1271379" lon="7.9767341"><ele>354.0</ele><time>2026-03-29T14:18:49.999Z</time></trkpt><trkpt lat="45.1271076" lon="7.9768766"><ele>353.0</ele><time>2026-03-29T14:18:50.999Z</time></trkpt><trkpt lat="45.1270821" lon="7.977017"><ele>352.0</ele><time>2026-03-29T14:18:51.999Z</time></trkpt><trkpt lat="45.127127" lon="7.9772151"><ele>351.0</ele><time>2026-03-29T14:18:52.999Z</time></trkpt><trkpt lat="45.1271688" lon="7.9774492"><ele>350.0</ele><time>2026-03-29T14:18:53.999Z</time></trkpt><trkpt lat="45.1271594" lon="7.9776666"><ele>353.33333333333337</ele><time>2026-03-29T14:18:54.999Z</time></trkpt><trkpt lat="45.1271367" lon="7.9778984"><ele>356.6666666666667</ele><time>2026-03-29T14:18:55.999Z</time></trkpt><trkpt lat="45.1271203" lon="7.9781265"><ele>360.0</ele><time>2026-03-29T14:18:56.999Z</time></trkpt><trkpt lat="45.1271481" lon="7.9783694"><ele>363.5</ele><time>2026-03-29T14:18:57.999Z</time></trkpt><trkpt lat="45.1271532" lon="7.9785792"><ele>367.0</ele><time>2026-03-29T14:18:58.999Z</time></trkpt><trkpt lat="45.1271548" lon="7.9787626"><ele>370.5</ele><time>2026-03-29T14:18:59.999Z</time></trkpt><trkpt lat="45.1271645" lon="7.9789418"><ele>374.0</ele><time>2026-03-29T14:19:00.999Z</time></trkpt><trkpt lat="45.1271325" lon="7.9790936"><ele>372.0</ele><time>2026-03-29T14:19:01.999Z</time></trkpt><trkpt lat="45.1270909" lon="7.9792252"><ele>370.0</ele><time>2026-03-29T14:19:02.999Z</time></trkpt><trkpt lat="45.127056" lon="7.9793692"><ele>368.0</ele><time>2026-03-29T14:19:03.999Z</time></trkpt><trkpt lat="45.1269825" lon="7.9794772"><ele>366.0</ele><time>2026-03-29T14:19:04.999Z</time></trkpt><trkpt lat="45.1268251" lon="7.9794016"><ele>366.0</ele><time>2026-03-29T14:19:05.999Z</time></trkpt><trkpt lat="45.1266483" lon="7.979301"><ele>366.0</ele><time>2026-03-29T14:19:06.999Z</time></trkpt><trkpt lat="45.1264967" lon="7.9792377"><ele>366.0</ele><time>2026-03-29T14:19:07.999Z</time></trkpt><trkpt lat="45.1263404" lon="7.9791687"><ele>370.3333333333333</ele><time>2026-03-29T14:19:08.999Z</time></trkpt><trkpt lat="45.1261838" lon="7.9791013"><ele>374.66666666666663</ele><time>2026-03-29T14:19:09.999Z</time></trkpt><trkpt lat="45.1260211" lon="7.9790684"><ele>379.0</ele><time>2026-03-29T14:19:10.999Z</time></trkpt><trkpt lat="45.1258542" lon="7.9790865"><ele>383.3333333333333</ele><time>2026-03-29T14:19:11.999Z</time></trkpt><trkpt lat="45.1256864" lon="7.9791303"><ele>387.66666666666663</ele><time>2026-03-29T14:19:12.999Z</time></trkpt><trkpt lat="45.1255103" lon="7.9791922"><ele>392.0</ele><time>2026-03-29T14:19:13.999Z</time></trkpt><trkpt lat="45.1253339" lon="7.9792404"><ele>394.3333333333333</ele><time>2026-03-29T14:19:14.999Z</time></trkpt><trkpt lat="45.1251746" lon="7.9793056"><ele>396.66666666666663</ele><time>2026-03-29T14:19:15.999Z</time></trkpt><trkpt lat="45.1250244" lon="7.9793806"><ele>399.0</ele><time>2026-03-29T14:19:16.999Z</time></trkpt><trkpt lat="45.1248766" lon="7.9794569"><ele>399.25</ele><time>2026-03-29T14:19:17.999Z</time></trkpt><trkpt lat="45.1247516" lon="7.9795285"><ele>399.5</ele><time>2026-03-29T14:19:18.999Z</time></trkpt><trkpt lat="45.1246262" lon="7.9795823"><ele>399.75</ele><time>2026-03-29T14:19:19.999Z</time></trkpt><trkpt lat="45.1245087" lon="7.9796446"><ele>400.0</ele><time>2026-03-29T14:19:20.999Z</time></trkpt><trkpt lat="45.1243921" lon="7.9797206"><ele>400.0</ele><time>2026-03-29T14:19:21.999Z</time></trkpt><trkpt lat="45.1242842" lon="7.9798345"><ele>400.0</ele><time>2026-03-29T14:19:22.999Z</time></trkpt><trkpt lat="45.124174" lon="7.9799765"><ele>400.0</ele><time>2026-03-29T14:19:23.999Z</time></trkpt><trkpt lat="45.1240341" lon="7.9800998"><ele>400.0</ele><time>2026-03-29T14:19:24.999Z</time></trkpt><trkpt lat="45.1238952" lon="7.9801938"><ele>399.6666666666667</ele><time>2026-03-29T14:19:25.999Z</time></trkpt><trkpt lat="45.1237626" lon="7.9802764"><ele>399.33333333333337</ele><time>2026-03-29T14:19:26.999Z</time></trkpt><trkpt lat="45.1236181" lon="7.9803711"><ele>399.0</ele><time>2026-03-29T14:19:27.999Z</time></trkpt><trkpt lat="45.1234837" lon="7.9804759"><ele>399.0</ele><time>2026-03-29T14:19:28.999Z</time></trkpt><trkpt lat="45.1233466" lon="7.9805421"><ele>399.0</ele><time>2026-03-29T14:19:29.999Z</time></trkpt><trkpt lat="45.123213" lon="7.980604"><ele>399.0</ele><time>2026-03-29T14:19:30.999Z</time></trkpt><trkpt lat="45.1230829" lon="7.9806641"><ele>399.0</ele><time>2026-03-29T14:19:31.999Z</time></trkpt><trkpt lat="45.1229625" lon="7.9807494"><ele>397.5</ele><time>2026-03-29T14:19:32.999Z</time></trkpt><trkpt lat="45.1228472" lon="7.9808504"><ele>396.0</ele><time>2026-03-29T14:19:33.999Z</time></trkpt><trkpt lat="45.1227323" lon="7.980956"><ele>394.5</ele><time>2026-03-29T14:19:34.999Z</time></trkpt><trkpt lat="45.1226205" lon="7.9810487"><ele>393.0</ele><time>2026-03-29T14:19:35.999Z</time></trkpt><trkpt lat="45.1225131" lon="7.9811345"><ele>393.0</ele><time>2026-03-29T14:19:36.999Z</time></trkpt><trkpt lat="45.1224134" lon="7.9812348"><ele>393.0</ele><time>2026-03-29T14:19:37.999Z</time></trkpt><trkpt lat="45.1223407" lon="7.9813247"><ele>393.0</ele><time>2026-03-29T14:19:38.999Z</time></trkpt><trkpt lat="45.1222784" lon="7.981419"><ele>393.0</ele><time>2026-03-29T14:19:39.999Z</time></trkpt><trkpt lat="45.1222338" lon="7.9815238"><ele>393.0</ele><time>2026-03-29T14:19:40.999Z</time></trkpt><trkpt lat="45.1221968" lon="7.9816341"><ele>390.5</ele><time>2026-03-29T14:19:41.999Z</time></trkpt><trkpt lat="45.1221519" lon="7.9817989"><ele>388.0</ele><time>2026-03-29T14:19:42.999Z</time></trkpt><trkpt lat="45.1221081" lon="7.9819867"><ele>385.5</ele><time>2026-03-29T14:19:43.999Z</time></trkpt><trkpt lat="45.1220608" lon="7.9821749"><ele>383.0</ele><time>2026-03-29T14:19:44.999Z</time></trkpt><trkpt lat="45.1219864" lon="7.9823405"><ele>383.0</ele><time>2026-03-29T14:19:45.999Z</time></trkpt><trkpt lat="45.1218848" lon="7.9824863"><ele>383.0</ele><time>2026-03-29T14:19:46.999Z</time></trkpt><trkpt lat="45.1217611" lon="7.9826188"><ele>383.0</ele><time>2026-03-29T14:19:47.999Z</time></trkpt><trkpt lat="45.1216254" lon="7.9827239"><ele>387.0</ele><time>2026-03-29T14:19:48.999Z</time></trkpt><trkpt lat="45.1214811" lon="7.9828022"><ele>391.0</ele><time>2026-03-29T14:19:49.999Z</time></trkpt><trkpt lat="45.1213284" lon="7.9828406"><ele>395.0</ele><time>2026-03-29T14:19:50.999Z</time></trkpt><trkpt lat="45.1211663" lon="7.9828401"><ele>395.0</ele><time>2026-03-29T14:19:51.999Z</time></trkpt><trkpt lat="45.1210112" lon="7.9827925"><ele>395.0</ele><time>2026-03-29T14:19:52.999Z</time></trkpt><trkpt lat="45.1208696" lon="7.9827681"><ele>395.0</ele><time>2026-03-29T14:19:53.999Z</time></trkpt><trkpt lat="45.1207267" lon="7.9827668"><ele>395.0</ele><time>2026-03-29T14:19:54.999Z</time></trkpt><trkpt lat="45.1205935" lon="7.9827936"><ele>397.5</ele><time>2026-03-29T14:19:55.999Z</time></trkpt><trkpt lat="45.1204679" lon="7.9828417"><ele>400.0</ele><time>2026-03-29T14:19:56.999Z</time></trkpt><trkpt lat="45.1203419" lon="7.9829138"><ele>402.5</ele><time>2026-03-29T14:19:57.999Z</time></trkpt><trkpt lat="45.1202189" lon="7.9830144"><ele>405.0</ele><time>2026-03-29T14:19:58.999Z</time></trkpt><trkpt lat="45.1201051" lon="7.9831645"><ele>405.0</ele><time>2026-03-29T14:19:59.999Z</time></trkpt><trkpt lat="45.1200039" lon="7.9833462"><ele>405.0</ele><time>2026-03-29T14:20:00.999Z</time></trkpt><trkpt lat="45.1199154" lon="7.9835237"><ele>405.0</ele><time>2026-03-29T14:20:01.999Z</time></trkpt><trkpt lat="45.1198313" lon="7.9836865"><ele>407.0</ele><time>2026-03-29T14:20:02.999Z</time></trkpt><trkpt lat="45.1197942" lon="7.9838544"><ele>409.0</ele><time>2026-03-29T14:20:03.999Z</time></trkpt><trkpt lat="45.1197309" lon="7.9840101"><ele>411.0</ele><time>2026-03-29T14:20:04.999Z</time></trkpt><trkpt lat="45.1196627" lon="7.9841864"><ele>413.0</ele><time>2026-03-29T14:20:05.999Z</time></trkpt><trkpt lat="45.1195926" lon="7.9843387"><ele>415.49999999999994</ele><time>2026-03-29T14:20:06.999Z</time></trkpt><trkpt lat="45.1195241" lon="7.9844211"><ele>418.0</ele><time>2026-03-29T14:20:07.999Z</time></trkpt><trkpt lat="45.1194669" lon="7.9845532"><ele>420.5</ele><time>2026-03-29T14:20:09.999Z</time></trkpt><trkpt lat="45.1194239" lon="7.9846348"><ele>423.0</ele><time>2026-03-29T14:20:10.999Z</time></trkpt><trkpt lat="45.1193774" lon="7.9847224"><ele>425.49999999999994</ele><time>2026-03-29T14:20:11.999Z</time></trkpt><trkpt lat="45.1193177" lon="7.9848344"><ele>428.0</ele><time>2026-03-29T14:20:12.999Z</time></trkpt><trkpt lat="45.1192438" lon="7.9849788"><ele>428.5</ele><time>2026-03-29T14:20:13.999Z</time></trkpt><trkpt lat="45.1191833" lon="7.9851362"><ele>429.0</ele><time>2026-03-29T14:20:14.999Z</time></trkpt><trkpt lat="45.1191353" lon="7.9853043"><ele>429.5</ele><time>2026-03-29T14:20:15.999Z</time></trkpt><trkpt lat="45.1191012" lon="7.985474"><ele>430.0</ele><time>2026-03-29T14:20:16.999Z</time></trkpt><trkpt lat="45.1190757" lon="7.9856595"><ele>430.0</ele><time>2026-03-29T14:20:17.999Z</time></trkpt><trkpt lat="45.1191084" lon="7.9858338"><ele>430.0</ele><time>2026-03-29T14:20:19Z</time></trkpt><trkpt lat="45.1191611" lon="7.986007"><ele>430.0</ele><time>2026-03-29T14:20:19.999Z</time></trkpt><trkpt lat="45.1192187" lon="7.9861727"><ele>430.0</ele><time>2026-03-29T14:20:20.999Z</time></trkpt><trkpt lat="45.1192836" lon="7.9863274"><ele>433.0</ele><time>2026-03-29T14:20:21.999Z</time></trkpt><trkpt lat="45.1193389" lon="7.9864982"><ele>436.0</ele><time>2026-03-29T14:20:22.999Z</time></trkpt><trkpt lat="45.1194079" lon="7.9866359"><ele>439.0</ele><time>2026-03-29T14:20:23.999Z</time></trkpt><trkpt lat="45.119463" lon="7.986754"><ele>442.0</ele><time>2026-03-29T14:20:24.999Z</time></trkpt><trkpt lat="45.1194835" lon="7.9868924"><ele>442.8</ele><time>2026-03-29T14:20:25.999Z</time></trkpt><trkpt lat="45.1194744" lon="7.9870322"><ele>443.6</ele><time>2026-03-29T14:20:26.999Z</time></trkpt><trkpt lat="45.1194237" lon="7.9871816"><ele>444.40000000000003</ele><time>2026-03-29T14:20:27.999Z</time></trkpt><trkpt lat="45.1193718" lon="7.9872951"><ele>445.20000000000005</ele><time>2026-03-29T14:20:28.999Z</time></trkpt><trkpt lat="45.1192989" lon="7.9873843"><ele>446.0</ele><time>2026-03-29T14:20:29.999Z</time></trkpt><trkpt lat="45.1192238" lon="7.98743"><ele>447.20000000000005</ele><time>2026-03-29T14:20:30.999Z</time></trkpt><trkpt lat="45.1191941" lon="7.9875268"><ele>448.40000000000003</ele><time>2026-03-29T14:20:31.999Z</time></trkpt><trkpt lat="45.1191724" lon="7.987647"><ele>449.6</ele><time>2026-03-29T14:20:32.999Z</time></trkpt><trkpt lat="45.1191533" lon="7.9877686"><ele>450.8</ele><time>2026-03-29T14:20:33.999Z</time></trkpt><trkpt lat="45.1191698" lon="7.9879068"><ele>452.0</ele><time>2026-03-29T14:20:34.999Z</time></trkpt><trkpt lat="45.119181" lon="7.9881035"><ele>452.0</ele><time>2026-03-29T14:20:35.999Z</time></trkpt><trkpt lat="45.1192397" lon="7.9883076"><ele>452.0</ele><time>2026-03-29T14:20:36.999Z</time></trkpt><trkpt lat="45.1192785" lon="7.9884926"><ele>452.0</ele><time>2026-03-29T14:20:37.999Z</time></trkpt><trkpt lat="45.1193548" lon="7.988631"><ele>452.0</ele><time>2026-03-29T14:20:38.999Z</time></trkpt><trkpt lat="45.1194352" lon="7.9887548"><ele>456.75</ele><time>2026-03-29T14:20:39.999Z</time></trkpt><trkpt lat="45.1195261" lon="7.9888653"><ele>461.5</ele><time>2026-03-29T14:20:40.999Z</time></trkpt><trkpt lat="45.1196186" lon="7.9889731"><ele>466.25</ele><time>2026-03-29T14:20:41.999Z</time></trkpt><trkpt lat="45.1196944" lon="7.9891057"><ele>471.0</ele><time>2026-03-29T14:20:42.999Z</time></trkpt><trkpt lat="45.1197596" lon="7.9892557"><ele>469.25</ele><time>2026-03-29T14:20:43.999Z</time></trkpt><trkpt lat="45.1198448" lon="7.9893938"><ele>467.5</ele><time>2026-03-29T14:20:44.999Z</time></trkpt><trkpt lat="45.1199227" lon="7.9895264"><ele>465.75</ele><time>2026-03-29T14:20:45.999Z</time></trkpt><trkpt lat="45.119996" lon="7.9896463"><ele>464.0</ele><time>2026-03-29T14:20:46.999Z</time></trkpt><trkpt lat="45.1200711" lon="7.9897487"><ele>464.0</ele><time>2026-03-29T14:20:47.999Z</time></trkpt><trkpt lat="45.1201477" lon="7.9898572"><ele>464.0</ele><time>2026-03-29T14:20:48.999Z</time></trkpt><trkpt lat="45.1202293" lon="7.9899821"><ele>464.0</ele><time>2026-03-29T14:20:49.999Z</time></trkpt><trkpt lat="45.1203241" lon="7.9900827"><ele>464.0</ele><time>2026-03-29T14:20:50.999Z</time></trkpt><trkpt lat="45.1204281" lon="7.9901514"><ele>466.75</ele><time>2026-03-29T14:20:51.999Z</time></trkpt><trkpt lat="45.1205581" lon="7.9901859"><ele>469.5</ele><time>2026-03-29T14:20:52.999Z</time></trkpt><trkpt lat="45.120679" lon="7.9902068"><ele>472.25</ele><time>2026-03-29T14:20:53.999Z</time></trkpt><trkpt lat="45.12076" lon="7.9902187"><ele>475.0</ele><time>2026-03-29T14:20:54.999Z</time></trkpt><trkpt lat="45.1208314" lon="7.9903585"><ele>475.0</ele><time>2026-03-29T14:20:56.999Z</time></trkpt><trkpt lat="45.1207916" lon="7.9904578"><ele>475.0</ele><time>2026-03-29T14:20:57.999Z</time></trkpt><trkpt lat="45.1207447" lon="7.9905798"><ele>475.0</ele><time>2026-03-29T14:20:58.999Z</time></trkpt><trkpt lat="45.1207029" lon="7.9907231"><ele>475.0</ele><time>2026-03-29T14:20:59.999Z</time></trkpt><trkpt lat="45.1206576" lon="7.990889"><ele>475.0</ele><time>2026-03-29T14:21:00.999Z</time></trkpt><trkpt lat="45.1206208" lon="7.9910627"><ele>472.5</ele><time>2026-03-29T14:21:01.999Z</time></trkpt><trkpt lat="45.1205779" lon="7.991252"><ele>470.0</ele><time>2026-03-29T14:21:02.999Z</time></trkpt><trkpt lat="45.1205385" lon="7.9914187"><ele>467.5</ele><time>2026-03-29T14:21:03.999Z</time></trkpt><trkpt lat="45.1205263" lon="7.9915975"><ele>465.0</ele><time>2026-03-29T14:21:04.999Z</time></trkpt><trkpt lat="45.1205187" lon="7.9917765"><ele>461.5</ele><time>2026-03-29T14:21:05.999Z</time></trkpt><trkpt lat="45.1205304" lon="7.9919654"><ele>458.0</ele><time>2026-03-29T14:21:06.999Z</time></trkpt><trkpt lat="45.1205486" lon="7.9921422"><ele>454.5</ele><time>2026-03-29T14:21:07.999Z</time></trkpt><trkpt lat="45.1205732" lon="7.9923094"><ele>451.0</ele><time>2026-03-29T14:21:08.999Z</time></trkpt><trkpt lat="45.1206027" lon="7.9924564"><ele>449.8</ele><time>2026-03-29T14:21:09.999Z</time></trkpt><trkpt lat="45.1206317" lon="7.9925714"><ele>448.6</ele><time>2026-03-29T14:21:10.999Z</time></trkpt><trkpt lat="45.1206618" lon="7.9926607"><ele>447.4</ele><time>2026-03-29T14:21:11.999Z</time></trkpt><trkpt lat="45.1207" lon="7.9927934"><ele>446.2</ele><time>2026-03-29T14:21:13.999Z</time></trkpt><trkpt lat="45.1207469" lon="7.9929525"><ele>445.0</ele><time>2026-03-29T14:21:15.999Z</time></trkpt><trkpt lat="45.1207813" lon="7.9930604"><ele>450.75</ele><time>2026-03-29T14:21:16.999Z</time></trkpt><trkpt lat="45.1208013" lon="7.9931931"><ele>456.5</ele><time>2026-03-29T14:21:17.999Z</time></trkpt><trkpt lat="45.1208175" lon="7.9933522"><ele>462.25</ele><time>2026-03-29T14:21:18.999Z</time></trkpt><trkpt lat="45.1208677" lon="7.9935087"><ele>468.0</ele><time>2026-03-29T14:21:19.999Z</time></trkpt><trkpt lat="45.1209514" lon="7.9936619"><ele>470.25</ele><time>2026-03-29T14:21:20.999Z</time></trkpt><trkpt lat="45.1210675" lon="7.9937975"><ele>472.5</ele><time>2026-03-29T14:21:21.999Z</time></trkpt><trkpt lat="45.1211956" lon="7.993921"><ele>474.75</ele><time>2026-03-29T14:21:22.999Z</time></trkpt><trkpt lat="45.1213059" lon="7.9940429"><ele>477.0</ele><time>2026-03-29T14:21:23.999Z</time></trkpt><trkpt lat="45.1214016" lon="7.9941583"><ele>475.40000000000003</ele><time>2026-03-29T14:21:24.999Z</time></trkpt><trkpt lat="45.1214954" lon="7.9942638"><ele>473.80000000000007</ele><time>2026-03-29T14:21:25.999Z</time></trkpt><trkpt lat="45.1215827" lon="7.9943743"><ele>472.2</ele><time>2026-03-29T14:21:26.999Z</time></trkpt><trkpt lat="45.121653" lon="7.9944694"><ele>470.6</ele><time>2026-03-29T14:21:27.999Z</time></trkpt><trkpt lat="45.1217255" lon="7.9945708"><ele>469.0</ele><time>2026-03-29T14:21:30Z</time></trkpt><trkpt lat="45.1217808" lon="7.9946483"><ele>467.50000000000006</ele><time>2026-03-29T14:21:32.999Z</time></trkpt><trkpt lat="45.1218737" lon="7.9947221"><ele>466.0</ele><time>2026-03-29T14:21:53.999Z</time></trkpt><trkpt lat="45.1219332" lon="7.9947574"><ele>464.5</ele><time>2026-03-29T14:21:54.999Z</time></trkpt><trkpt lat="45.1219957" lon="7.9948174"><ele>463.0</ele><time>2026-03-29T14:21:55.999Z</time></trkpt><trkpt lat="45.1220728" lon="7.9948861"><ele>461.50000000000006</ele><time>2026-03-29T14:21:56.999Z</time></trkpt><trkpt lat="45.1221646" lon="7.9949656"><ele>460.0</ele><time>2026-03-29T14:21:57.999Z</time></trkpt><trkpt lat="45.1222729" lon="7.9950363"><ele>456.75</ele><time>2026-03-29T14:21:58.999Z</time></trkpt><trkpt lat="45.1224007" lon="7.9950903"><ele>453.5</ele><time>2026-03-29T14:21:59.999Z</time></trkpt><trkpt lat="45.1225309" lon="7.9951234"><ele>450.25</ele><time>2026-03-29T14:22:00.999Z</time></trkpt><trkpt lat="45.1226558" lon="7.9951546"><ele>447.0</ele><time>2026-03-29T14:22:01.999Z</time></trkpt><trkpt lat="45.1227822" lon="7.9951761"><ele>447.0</ele><time>2026-03-29T14:22:02.999Z</time></trkpt><trkpt lat="45.1228957" lon="7.9951961"><ele>447.00000000000006</ele><time>2026-03-29T14:22:03.999Z</time></trkpt><trkpt lat="45.1230101" lon="7.9952184"><ele>447.00000000000006</ele><time>2026-03-29T14:22:04.999Z</time></trkpt><trkpt lat="45.1231144" lon="7.9952576"><ele>447.0</ele><time>2026-03-29T14:22:05.999Z</time></trkpt><trkpt lat="45.1232066" lon="7.995318"><ele>447.0</ele><time>2026-03-29T14:22:06.999Z</time></trkpt><trkpt lat="45.1232943" lon="7.9953923"><ele>450.75</ele><time>2026-03-29T14:22:07.999Z</time></trkpt><trkpt lat="45.123353" lon="7.9955195"><ele>454.5</ele><time>2026-03-29T14:22:08.999Z</time></trkpt><trkpt lat="45.1233896" lon="7.9956687"><ele>458.25</ele><time>2026-03-29T14:22:09.999Z</time></trkpt><trkpt lat="45.1233989" lon="7.9958329"><ele>462.0</ele><time>2026-03-29T14:22:10.999Z</time></trkpt><trkpt lat="45.1233421" lon="7.9960074"><ele>462.5</ele><time>2026-03-29T14:22:11.999Z</time></trkpt><trkpt lat="45.1233019" lon="7.9961964"><ele>463.0</ele><time>2026-03-29T14:22:12.999Z</time></trkpt><trkpt lat="45.1232606" lon="7.9963793"><ele>463.5</ele><time>2026-03-29T14:22:13.999Z</time></trkpt><trkpt lat="45.1232074" lon="7.9965439"><ele>464.0</ele><time>2026-03-29T14:22:14.999Z</time></trkpt><trkpt lat="45.1231699" lon="7.9967086"><ele>456.5</ele><time>2026-03-29T14:22:15.999Z</time></trkpt><trkpt lat="45.1231452" lon="7.996869"><ele>449.0</ele><time>2026-03-29T14:22:16.999Z</time></trkpt><trkpt lat="45.1231314" lon="7.9970475"><ele>441.5</ele><time>2026-03-29T14:22:17.999Z</time></trkpt><trkpt lat="45.1231236" lon="7.9972195"><ele>434.0</ele><time>2026-03-29T14:22:18.999Z</time></trkpt><trkpt lat="45.1231068" lon="7.997376"><ele>435.0</ele><time>2026-03-29T14:22:19.999Z</time></trkpt><trkpt lat="45.1230812" lon="7.9975077"><ele>436.0</ele><time>2026-03-29T14:22:20.999Z</time></trkpt><trkpt lat="45.123054" lon="7.9976379"><ele>437.0</ele><time>2026-03-29T14:22:21.999Z</time></trkpt><trkpt lat="45.1229912" lon="7.9977528"><ele>438.0</ele><time>2026-03-29T14:22:23.999Z</time></trkpt><trkpt lat="45.1229268" lon="7.9978222"><ele>439.0</ele><time>2026-03-29T14:22:24.999Z</time></trkpt><trkpt lat="45.1228474" lon="7.9978877"><ele>439.0</ele><time>2026-03-29T14:22:25.999Z</time></trkpt><trkpt lat="45.1227534" lon="7.9979523"><ele>439.0</ele><time>2026-03-29T14:22:26.999Z</time></trkpt><trkpt lat="45.1226551" lon="7.9980219"><ele>439.0</ele><time>2026-03-29T14:22:27.999Z</time></trkpt><trkpt lat="45.122555" lon="7.9981053"><ele>439.0</ele><time>2026-03-29T14:22:28.999Z</time></trkpt><trkpt lat="45.1224478" lon="7.9981877"><ele>436.5</ele><time>2026-03-29T14:22:29.999Z</time></trkpt><trkpt lat="45.1223374" lon="7.9982734"><ele>434.0</ele><time>2026-03-29T14:22:30.999Z</time></trkpt><trkpt lat="45.1222269" lon="7.998373"><ele>431.5</ele><time>2026-03-29T14:22:31.999Z</time></trkpt><trkpt lat="45.1221249" lon="7.9984881"><ele>429.0</ele><time>2026-03-29T14:22:32.999Z</time></trkpt><trkpt lat="45.1220365" lon="7.9985983"><ele>429.0</ele><time>2026-03-29T14:22:33.999Z</time></trkpt><trkpt lat="45.1219655" lon="7.9987294"><ele>429.0</ele><time>2026-03-29T14:22:34.999Z</time></trkpt><trkpt lat="45.1219008" lon="7.998835"><ele>429.0</ele><time>2026-03-29T14:22:35.999Z</time></trkpt><trkpt lat="45.1218297" lon="7.9989242"><ele>429.0</ele><time>2026-03-29T14:22:36.999Z</time></trkpt><trkpt lat="45.1217643" lon="7.9990103"><ele>429.0</ele><time>2026-03-29T14:22:37.999Z</time></trkpt><trkpt lat="45.1217066" lon="7.9990952"><ele>429.79999999999995</ele><time>2026-03-29T14:22:38.999Z</time></trkpt><trkpt lat="45.1216537" lon="7.9991701"><ele>430.59999999999997</ele><time>2026-03-29T14:22:39.999Z</time></trkpt><trkpt lat="45.1215988" lon="7.9992784"><ele>431.4</ele><time>2026-03-29T14:22:41.999Z</time></trkpt><trkpt lat="45.1215554" lon="7.9993509"><ele>432.2</ele><time>2026-03-29T14:22:44.999Z</time></trkpt><trkpt lat="45.1215407" lon="7.9995467"><ele>433.0</ele><time>2026-03-29T14:23:00.999Z</time></trkpt><trkpt lat="45.1215358" lon="7.9996562"><ele>429.0</ele><time>2026-03-29T14:23:01.999Z</time></trkpt><trkpt lat="45.1215378" lon="7.9997881"><ele>425.0</ele><time>2026-03-29T14:23:02.999Z</time></trkpt><trkpt lat="45.1215419" lon="7.9999503"><ele>421.0</ele><time>2026-03-29T14:23:03.999Z</time></trkpt><trkpt lat="45.1215188" lon="8.0001267"><ele>417.0</ele><time>2026-03-29T14:23:04.999Z</time></trkpt><trkpt lat="45.1214564" lon="8.0002962"><ele>417.0</ele><time>2026-03-29T14:23:05.999Z</time></trkpt><trkpt lat="45.1213617" lon="8.0004446"><ele>417.0</ele><time>2026-03-29T14:23:06.999Z</time></trkpt><trkpt lat="45.1212577" lon="8.0005945"><ele>417.0</ele><time>2026-03-29T14:23:07.999Z</time></trkpt><trkpt lat="45.121149" lon="8.0007267"><ele>417.0</ele><time>2026-03-29T14:23:08.999Z</time></trkpt><trkpt lat="45.121027" lon="8.0008181"><ele>418.25</ele><time>2026-03-29T14:23:09.999Z</time></trkpt><trkpt lat="45.120893" lon="8.0008769"><ele>419.5</ele><time>2026-03-29T14:23:10.999Z</time></trkpt><trkpt lat="45.1207546" lon="8.0009339"><ele>420.75</ele><time>2026-03-29T14:23:11.999Z</time></trkpt><trkpt lat="45.1206186" lon="8.0010212"><ele>422.0</ele><time>2026-03-29T14:23:12.999Z</time></trkpt><trkpt lat="45.1204796" lon="8.0011302"><ele>422.0</ele><time>2026-03-29T14:23:13.999Z</time></trkpt><trkpt lat="45.1203396" lon="8.0012445"><ele>422.0</ele><time>2026-03-29T14:23:14.999Z</time></trkpt><trkpt lat="45.1202037" lon="8.0013529"><ele>422.0</ele><time>2026-03-29T14:23:15.999Z</time></trkpt><trkpt lat="45.1200697" lon="8.0014592"><ele>422.0</ele><time>2026-03-29T14:23:16.999Z</time></trkpt><trkpt lat="45.1199394" lon="8.0015721"><ele>422.0</ele><time>2026-03-29T14:23:17.999Z</time></trkpt><trkpt lat="45.11981" lon="8.0016792"><ele>422.0</ele><time>2026-03-29T14:23:18.999Z</time></trkpt><trkpt lat="45.1196851" lon="8.001783"><ele>422.0</ele><time>2026-03-29T14:23:19.999Z</time></trkpt><trkpt lat="45.1195658" lon="8.0018881"><ele>423.5</ele><time>2026-03-29T14:23:20.999Z</time></trkpt><trkpt lat="45.1194626" lon="8.0019818"><ele>425.0</ele><time>2026-03-29T14:23:21.999Z</time></trkpt><trkpt lat="45.1193475" lon="8.0020377"><ele>426.5</ele><time>2026-03-29T14:23:22.999Z</time></trkpt><trkpt lat="45.1192318" lon="8.0020677"><ele>428.0</ele><time>2026-03-29T14:23:23.999Z</time></trkpt><trkpt lat="45.1191132" lon="8.0020753"><ele>429.75</ele><time>2026-03-29T14:23:24.999Z</time></trkpt><trkpt lat="45.1189923" lon="8.0020897"><ele>431.5</ele><time>2026-03-29T14:23:25.999Z</time></trkpt><trkpt lat="45.1188705" lon="8.0021182"><ele>433.25</ele><time>2026-03-29T14:23:26.999Z</time></trkpt><trkpt lat="45.1187556" lon="8.0021682"><ele>435.0</ele><time>2026-03-29T14:23:27.999Z</time></trkpt><trkpt lat="45.118644" lon="8.0022297"><ele>435.0</ele><time>2026-03-29T14:23:28.999Z</time></trkpt><trkpt lat="45.1185356" lon="8.0022769"><ele>435.0</ele><time>2026-03-29T14:23:29.999Z</time></trkpt><trkpt lat="45.1184302" lon="8.0023101"><ele>435.0</ele><time>2026-03-29T14:23:30.999Z</time></trkpt><trkpt lat="45.1183161" lon="8.0023352"><ele>435.0</ele><time>2026-03-29T14:23:31.999Z</time></trkpt><trkpt lat="45.118199" lon="8.0023325"><ele>438.5</ele><time>2026-03-29T14:23:33Z</time></trkpt><trkpt lat="45.1180751" lon="8.0023125"><ele>442.0</ele><time>2026-03-29T14:23:33.999Z</time></trkpt><trkpt lat="45.1179574" lon="8.0022878"><ele>445.5</ele><time>2026-03-29T14:23:34.999Z</time></trkpt><trkpt lat="45.1178423" lon="8.0022737"><ele>449.0</ele><time>2026-03-29T14:23:35.999Z</time></trkpt><trkpt lat="45.1177214" lon="8.0022962"><ele>449.0</ele><time>2026-03-29T14:23:36.999Z</time></trkpt><trkpt lat="45.1176006" lon="8.0023448"><ele>449.0</ele><time>2026-03-29T14:23:37.999Z</time></trkpt><trkpt lat="45.1174916" lon="8.0024084"><ele>449.0</ele><time>2026-03-29T14:23:38.999Z</time></trkpt><trkpt lat="45.1173891" lon="8.002474"><ele>449.0</ele><time>2026-03-29T14:23:39.999Z</time></trkpt><trkpt lat="45.1173006" lon="8.0025255"><ele>446.66666666666663</ele><time>2026-03-29T14:23:40.999Z</time></trkpt><trkpt lat="45.117228" lon="8.002569"><ele>444.3333333333333</ele><time>2026-03-29T14:23:41.999Z</time></trkpt><trkpt lat="45.1171644" lon="8.002606"><ele>442.0</ele><time>2026-03-29T14:23:42.999Z</time></trkpt><trkpt lat="45.1170946" lon="8.002672"><ele>439.66666666666663</ele><time>2026-03-29T14:23:43.999Z</time></trkpt><trkpt lat="45.1170409" lon="8.0027603"><ele>437.3333333333333</ele><time>2026-03-29T14:23:44.999Z</time></trkpt><trkpt lat="45.1169909" lon="8.0028571"><ele>435.0</ele><time>2026-03-29T14:23:45.999Z</time></trkpt><trkpt lat="45.1169336" lon="8.0029578"><ele>435.0</ele><time>2026-03-29T14:23:46.999Z</time></trkpt><trkpt lat="45.1168731" lon="8.0030851"><ele>435.0</ele><time>2026-03-29T14:23:47.999Z</time></trkpt><trkpt lat="45.1168134" lon="8.0032145"><ele>435.0</ele><time>2026-03-29T14:23:48.999Z</time></trkpt><trkpt lat="45.1167318" lon="8.0033289"><ele>435.0</ele><time>2026-03-29T14:23:49.999Z</time></trkpt><trkpt lat="45.1166657" lon="8.0034373"><ele>435.0</ele><time>2026-03-29T14:23:50.999Z</time></trkpt><trkpt lat="45.1166032" lon="8.0035433"><ele>432.6</ele><time>2026-03-29T14:23:51.999Z</time></trkpt><trkpt lat="45.1165277" lon="8.003653"><ele>430.2</ele><time>2026-03-29T14:23:52.999Z</time></trkpt><trkpt lat="45.1164408" lon="8.0037631"><ele>427.79999999999995</ele><time>2026-03-29T14:23:53.999Z</time></trkpt><trkpt lat="45.1163531" lon="8.0038487"><ele>425.4</ele><time>2026-03-29T14:23:54.999Z</time></trkpt><trkpt lat="45.1162772" lon="8.0039157"><ele>423.0</ele><time>2026-03-29T14:23:55.999Z</time></trkpt><trkpt lat="45.1162073" lon="8.0039674"><ele>423.0</ele><time>2026-03-29T14:23:56.999Z</time></trkpt><trkpt lat="45.1161376" lon="8.0040089"><ele>423.0</ele><time>2026-03-29T14:23:58Z</time></trkpt><trkpt lat="45.1160709" lon="8.0041312"><ele>423.0</ele><time>2026-03-29T14:23:59.999Z</time></trkpt><trkpt lat="45.1160636" lon="8.0042219"><ele>423.0</ele><time>2026-03-29T14:24:00.999Z</time></trkpt><trkpt lat="45.1160635" lon="8.004321"><ele>423.0</ele><time>2026-03-29T14:24:01.999Z</time></trkpt><trkpt lat="45.1160476" lon="8.0044168"><ele>423.0</ele><time>2026-03-29T14:24:02.999Z</time></trkpt><trkpt lat="45.1160391" lon="8.0045187"><ele>426.59999999999997</ele><time>2026-03-29T14:24:03.999Z</time></trkpt><trkpt lat="45.1160522" lon="8.0046222"><ele>430.2</ele><time>2026-03-29T14:24:04.999Z</time></trkpt><trkpt lat="45.116106" lon="8.0047145"><ele>433.8</ele><time>2026-03-29T14:24:05.999Z</time></trkpt><trkpt lat="45.1161638" lon="8.0048273"><ele>437.4</ele><time>2026-03-29T14:24:06.999Z</time></trkpt><trkpt lat="45.1162222" lon="8.0049385"><ele>441.0</ele><time>2026-03-29T14:24:07.999Z</time></trkpt><trkpt lat="45.1163049" lon="8.0050465"><ele>445.25</ele><time>2026-03-29T14:24:08.999Z</time></trkpt><trkpt lat="45.1163846" lon="8.0051651"><ele>449.5</ele><time>2026-03-29T14:24:09.999Z</time></trkpt><trkpt lat="45.1164788" lon="8.005278"><ele>453.75</ele><time>2026-03-29T14:24:10.999Z</time></trkpt><trkpt lat="45.1165771" lon="8.0053511"><ele>458.0</ele><time>2026-03-29T14:24:11.999Z</time></trkpt><trkpt lat="45.1166873" lon="8.0053927"><ele>451.0</ele><time>2026-03-29T14:24:12.999Z</time></trkpt><trkpt lat="45.1167996" lon="8.0054326"><ele>443.99999999999994</ele><time>2026-03-29T14:24:13.999Z</time></trkpt><trkpt lat="45.1169053" lon="8.0054755"><ele>437.0</ele><time>2026-03-29T14:24:14.999Z</time></trkpt><trkpt lat="45.1169958" lon="8.0055172"><ele>430.0</ele><time>2026-03-29T14:24:15.999Z</time></trkpt><trkpt lat="45.1170507" lon="8.0055736"><ele>423.0</ele><time>2026-03-29T14:24:16.999Z</time></trkpt><trkpt lat="45.1171141" lon="8.0056499"><ele>423.0</ele><time>2026-03-29T14:24:17.999Z</time></trkpt><trkpt lat="45.1171712" lon="8.0057377"><ele>423.0</ele><time>2026-03-29T14:24:18.999Z</time></trkpt><trkpt lat="45.1172092" lon="8.0058392"><ele>423.0</ele><time>2026-03-29T14:24:19.999Z</time></trkpt><trkpt lat="45.1171837" lon="8.0059547"><ele>423.0</ele><time>2026-03-29T14:24:20.999Z</time></trkpt><trkpt lat="45.1171446" lon="8.006065"><ele>423.0</ele><time>2026-03-29T14:24:21.999Z</time></trkpt><trkpt lat="45.1170853" lon="8.006168"><ele>423.0</ele><time>2026-03-29T14:24:22.999Z</time></trkpt><trkpt lat="45.1170027" lon="8.0062651"><ele>425.25</ele><time>2026-03-29T14:24:23.999Z</time></trkpt><trkpt lat="45.1169184" lon="8.0063358"><ele>427.5</ele><time>2026-03-29T14:24:24.999Z</time></trkpt><trkpt lat="45.1168136" lon="8.0064275"><ele>429.75</ele><time>2026-03-29T14:24:25.999Z</time></trkpt><trkpt lat="45.1167248" lon="8.0065381"><ele>432.0</ele><time>2026-03-29T14:24:26.999Z</time></trkpt><trkpt lat="45.1166516" lon="8.0066752"><ele>432.0</ele><time>2026-03-29T14:24:27.999Z</time></trkpt><trkpt lat="45.1165821" lon="8.0068444"><ele>432.0</ele><time>2026-03-29T14:24:28.999Z</time></trkpt><trkpt lat="45.1165854" lon="8.0070397"><ele>432.0</ele><time>2026-03-29T14:24:29.999Z</time></trkpt><trkpt lat="45.1165866" lon="8.0072421"><ele>432.0</ele><time>2026-03-29T14:24:30.999Z</time></trkpt><trkpt lat="45.1166045" lon="8.0074531"><ele>431.0</ele><time>2026-03-29T14:24:31.999Z</time></trkpt><trkpt lat="45.1166343" lon="8.0076661"><ele>430.0</ele><time>2026-03-29T14:24:32.999Z</time></trkpt><trkpt lat="45.1166491" lon="8.007867"><ele>429.0</ele><time>2026-03-29T14:24:33.999Z</time></trkpt><trkpt lat="45.1166296" lon="8.0079879"><ele>428.0</ele><time>2026-03-29T14:24:34.999Z</time></trkpt><trkpt lat="45.1165949" lon="8.0081367"><ele>436.5</ele><time>2026-03-29T14:24:35.999Z</time></trkpt><trkpt lat="45.1165269" lon="8.0082697"><ele>445.0</ele><time>2026-03-29T14:24:36.999Z</time></trkpt><trkpt lat="45.1164831" lon="8.0084377"><ele>453.5</ele><time>2026-03-29T14:24:37.999Z</time></trkpt><trkpt lat="45.1164079" lon="8.0085909"><ele>462.0</ele><time>2026-03-29T14:24:38.999Z</time></trkpt><trkpt lat="45.1163382" lon="8.0087667"><ele>462.0</ele><time>2026-03-29T14:24:39.999Z</time></trkpt><trkpt lat="45.1162584" lon="8.0089407"><ele>462.0</ele><time>2026-03-29T14:24:40.999Z</time></trkpt><trkpt lat="45.1161927" lon="8.0091223"><ele>462.0</ele><time>2026-03-29T14:24:41.999Z</time></trkpt><trkpt lat="45.1161293" lon="8.0093058"><ele>462.0</ele><time>2026-03-29T14:24:42.999Z</time></trkpt><trkpt lat="45.1161013" lon="8.0094864"><ele>457.25</ele><time>2026-03-29T14:24:43.999Z</time></trkpt><trkpt lat="45.1160702" lon="8.0096474"><ele>452.5</ele><time>2026-03-29T14:24:44.999Z</time></trkpt><trkpt lat="45.1160457" lon="8.0098076"><ele>447.75</ele><time>2026-03-29T14:24:45.999Z</time></trkpt><trkpt lat="45.1160413" lon="8.009976"><ele>443.0</ele><time>2026-03-29T14:24:46.999Z</time></trkpt><trkpt lat="45.1160674" lon="8.0101625"><ele>440.5</ele><time>2026-03-29T14:24:47.999Z</time></trkpt><trkpt lat="45.1161293" lon="8.0103134"><ele>438.0</ele><time>2026-03-29T14:24:48.999Z</time></trkpt><trkpt lat="45.1162059" lon="8.0104638"><ele>435.5</ele><time>2026-03-29T14:24:49.999Z</time></trkpt><trkpt lat="45.1162908" lon="8.0106167"><ele>433.0</ele><time>2026-03-29T14:24:50.999Z</time></trkpt><trkpt lat="45.1163675" lon="8.0107727"><ele>434.25</ele><time>2026-03-29T14:24:51.999Z</time></trkpt><trkpt lat="45.1164143" lon="8.0109408"><ele>435.5</ele><time>2026-03-29T14:24:52.999Z</time></trkpt><trkpt lat="45.1164438" lon="8.0111238"><ele>436.75</ele><time>2026-03-29T14:24:53.999Z</time></trkpt><trkpt lat="45.1164371" lon="8.011308"><ele>438.0</ele><time>2026-03-29T14:24:54.999Z</time></trkpt><trkpt lat="45.1164388" lon="8.0115031"><ele>438.75</ele><time>2026-03-29T14:24:55.999Z</time></trkpt><trkpt lat="45.1164529" lon="8.0116875"><ele>439.5</ele><time>2026-03-29T14:24:56.999Z</time></trkpt><trkpt lat="45.1164742" lon="8.0118567"><ele>440.25</ele><time>2026-03-29T14:24:57.999Z</time></trkpt><trkpt lat="45.1164922" lon="8.0120152"><ele>441.0</ele><time>2026-03-29T14:24:58.999Z</time></trkpt><trkpt lat="45.1165419" lon="8.0121559"><ele>436.20000000000005</ele><time>2026-03-29T14:24:59.999Z</time></trkpt><trkpt lat="45.1165974" lon="8.0122653"><ele>431.40000000000003</ele><time>2026-03-29T14:25:00.999Z</time></trkpt><trkpt lat="45.1166585" lon="8.0123471"><ele>426.6</ele><time>2026-03-29T14:25:01.999Z</time></trkpt><trkpt lat="45.1167605" lon="8.0124004"><ele>421.8</ele><time>2026-03-29T14:25:02.999Z</time></trkpt><trkpt lat="45.1168674" lon="8.0124542"><ele>417.0</ele><time>2026-03-29T14:25:03.999Z</time></trkpt><trkpt lat="45.116978" lon="8.0124993"><ele>417.0</ele><time>2026-03-29T14:25:04.999Z</time></trkpt><trkpt lat="45.1171031" lon="8.0125579"><ele>417.0</ele><time>2026-03-29T14:25:05.999Z</time></trkpt><trkpt lat="45.1172391" lon="8.0125976"><ele>417.0</ele><time>2026-03-29T14:25:06.999Z</time></trkpt><trkpt lat="45.1173817" lon="8.0126417"><ele>417.0</ele><time>2026-03-29T14:25:07.999Z</time></trkpt><trkpt lat="45.1175338" lon="8.0127098"><ele>412.25</ele><time>2026-03-29T14:25:08.999Z</time></trkpt><trkpt lat="45.1176565" lon="8.012754"><ele>407.5</ele><time>2026-03-29T14:25:09.999Z</time></trkpt><trkpt lat="45.1177715" lon="8.0127698"><ele>402.75</ele><time>2026-03-29T14:25:10.999Z</time></trkpt><trkpt lat="45.1178945" lon="8.0128115"><ele>398.0</ele><time>2026-03-29T14:25:11.999Z</time></trkpt><trkpt lat="45.1180085" lon="8.012855"><ele>398.0</ele><time>2026-03-29T14:25:12.999Z</time></trkpt><trkpt lat="45.118088" lon="8.0129483"><ele>398.0</ele><time>2026-03-29T14:25:13.999Z</time></trkpt><trkpt lat="45.1181813" lon="8.0130534"><ele>398.0</ele><time>2026-03-29T14:25:14.999Z</time></trkpt><trkpt lat="45.1182869" lon="8.0131524"><ele>398.0</ele><time>2026-03-29T14:25:15.999Z</time></trkpt><trkpt lat="45.1184012" lon="8.0132365"><ele>398.5</ele><time>2026-03-29T14:25:16.999Z</time></trkpt><trkpt lat="45.1185241" lon="8.0133214"><ele>399.0</ele><time>2026-03-29T14:25:17.999Z</time></trkpt><trkpt lat="45.1186349" lon="8.0134307"><ele>399.5</ele><time>2026-03-29T14:25:18.999Z</time></trkpt><trkpt lat="45.1187234" lon="8.0135778"><ele>400.0</ele><time>2026-03-29T14:25:19.999Z</time></trkpt><trkpt lat="45.1188128" lon="8.0137049"><ele>400.0</ele><time>2026-03-29T14:25:20.999Z</time></trkpt><trkpt lat="45.1189141" lon="8.0138017"><ele>400.0</ele><time>2026-03-29T14:25:21.999Z</time></trkpt><trkpt lat="45.1190334" lon="8.013884"><ele>400.0</ele><time>2026-03-29T14:25:22.999Z</time></trkpt><trkpt lat="45.1191572" lon="8.0139808"><ele>400.0</ele><time>2026-03-29T14:25:23.999Z</time></trkpt><trkpt lat="45.1192921" lon="8.0140988"><ele>399.25</ele><time>2026-03-29T14:25:24.999Z</time></trkpt><trkpt lat="45.1194236" lon="8.0142175"><ele>398.5</ele><time>2026-03-29T14:25:25.999Z</time></trkpt><trkpt lat="45.1195442" lon="8.0143279"><ele>397.75</ele><time>2026-03-29T14:25:26.999Z</time></trkpt><trkpt lat="45.119657" lon="8.0144411"><ele>397.0</ele><time>2026-03-29T14:25:27.999Z</time></trkpt><trkpt lat="45.1197648" lon="8.014536"><ele>397.0</ele><time>2026-03-29T14:25:28.999Z</time></trkpt><trkpt lat="45.1198722" lon="8.014619"><ele>397.0</ele><time>2026-03-29T14:25:29.999Z</time></trkpt><trkpt lat="45.1199786" lon="8.0147022"><ele>397.0</ele><time>2026-03-29T14:25:30.999Z</time></trkpt><trkpt lat="45.1200719" lon="8.0147746"><ele>397.0</ele><time>2026-03-29T14:25:31.999Z</time></trkpt><trkpt lat="45.1201698" lon="8.0148511"><ele>399.0</ele><time>2026-03-29T14:25:32.999Z</time></trkpt><trkpt lat="45.1203004" lon="8.0148914"><ele>401.0</ele><time>2026-03-29T14:25:33.999Z</time></trkpt><trkpt lat="45.1204194" lon="8.0148977"><ele>403.0</ele><time>2026-03-29T14:25:34.999Z</time></trkpt><trkpt lat="45.1205162" lon="8.0149481"><ele>405.0</ele><time>2026-03-29T14:25:35.999Z</time></trkpt><trkpt lat="45.1206072" lon="8.0149939"><ele>406.0</ele><time>2026-03-29T14:25:36.999Z</time></trkpt><trkpt lat="45.1206512" lon="8.0151528"><ele>407.0</ele><time>2026-03-29T14:25:38.999Z</time></trkpt><trkpt lat="45.1207165" lon="8.0152476"><ele>408.0</ele><time>2026-03-29T14:25:39.999Z</time></trkpt><trkpt lat="45.1207981" lon="8.0153358"><ele>409.0</ele><time>2026-03-29T14:25:40.999Z</time></trkpt><trkpt lat="45.1208862" lon="8.0154104"><ele>410.0</ele><time>2026-03-29T14:25:41.999Z</time></trkpt><trkpt lat="45.1209975" lon="8.0154806"><ele>410.0</ele><time>2026-03-29T14:25:42.999Z</time></trkpt><trkpt lat="45.1211326" lon="8.0155286"><ele>410.0</ele><time>2026-03-29T14:25:43.999Z</time></trkpt><trkpt lat="45.1212554" lon="8.0155727"><ele>410.0</ele><time>2026-03-29T14:25:44.999Z</time></trkpt><trkpt lat="45.1213612" lon="8.0156242"><ele>410.0</ele><time>2026-03-29T14:25:45.999Z</time></trkpt><trkpt lat="45.1214829" lon="8.0156585"><ele>405.75</ele><time>2026-03-29T14:25:46.999Z</time></trkpt><trkpt lat="45.121617" lon="8.0156735"><ele>401.5</ele><time>2026-03-29T14:25:47.999Z</time></trkpt><trkpt lat="45.1217603" lon="8.0156633"><ele>397.25</ele><time>2026-03-29T14:25:48.999Z</time></trkpt><trkpt lat="45.1219128" lon="8.0156321"><ele>393.0</ele><time>2026-03-29T14:25:49.999Z</time></trkpt><trkpt lat="45.1220646" lon="8.0156107"><ele>393.0</ele><time>2026-03-29T14:25:50.999Z</time></trkpt><trkpt lat="45.1221998" lon="8.0155892"><ele>393.0</ele><time>2026-03-29T14:25:51.999Z</time></trkpt><trkpt lat="45.1223132" lon="8.0155485"><ele>393.0</ele><time>2026-03-29T14:25:52.999Z</time></trkpt><trkpt lat="45.122429" lon="8.0155211"><ele>393.0</ele><time>2026-03-29T14:25:53.999Z</time></trkpt><trkpt lat="45.1225195" lon="8.0154379"><ele>395.0</ele><time>2026-03-29T14:25:54.999Z</time></trkpt><trkpt lat="45.1226276" lon="8.0153619"><ele>397.0</ele><time>2026-03-29T14:25:55.999Z</time></trkpt><trkpt lat="45.1227394" lon="8.015273"><ele>399.0</ele><time>2026-03-29T14:25:56.999Z</time></trkpt><trkpt lat="45.1228682" lon="8.0152014"><ele>401.0</ele><time>2026-03-29T14:25:57.999Z</time></trkpt><trkpt lat="45.1229841" lon="8.0151417"><ele>401.0</ele><time>2026-03-29T14:25:58.999Z</time></trkpt><trkpt lat="45.1230909" lon="8.0150906"><ele>401.0</ele><time>2026-03-29T14:25:59.999Z</time></trkpt><trkpt lat="45.1232001" lon="8.0150339"><ele>401.0</ele><time>2026-03-29T14:26:00.999Z</time></trkpt><trkpt lat="45.1233115" lon="8.0149603"><ele>401.0</ele><time>2026-03-29T14:26:01.999Z</time></trkpt><trkpt lat="45.1234185" lon="8.0148776"><ele>401.25</ele><time>2026-03-29T14:26:02.999Z</time></trkpt><trkpt lat="45.123532" lon="8.01479"><ele>401.5</ele><time>2026-03-29T14:26:03.999Z</time></trkpt><trkpt lat="45.1236503" lon="8.0147086"><ele>401.75</ele><time>2026-03-29T14:26:04.999Z</time></trkpt><trkpt lat="45.1237637" lon="8.0146449"><ele>402.0</ele><time>2026-03-29T14:26:05.999Z</time></trkpt><trkpt lat="45.1238827" lon="8.0146016"><ele>402.0</ele><time>2026-03-29T14:26:06.999Z</time></trkpt><trkpt lat="45.1240176" lon="8.0146061"><ele>402.0</ele><time>2026-03-29T14:26:07.999Z</time></trkpt><trkpt lat="45.1241479" lon="8.0146237"><ele>402.0</ele><time>2026-03-29T14:26:08.999Z</time></trkpt><trkpt lat="45.1242783" lon="8.0146479"><ele>402.0</ele><time>2026-03-29T14:26:09.999Z</time></trkpt><trkpt lat="45.1244059" lon="8.0146442"><ele>402.0</ele><time>2026-03-29T14:26:10.999Z</time></trkpt><trkpt lat="45.1245322" lon="8.0146274"><ele>402.0</ele><time>2026-03-29T14:26:11.999Z</time></trkpt><trkpt lat="45.1246665" lon="8.0145585"><ele>402.0</ele><time>2026-03-29T14:26:12.999Z</time></trkpt><trkpt lat="45.124817" lon="8.0144551"><ele>402.0</ele><time>2026-03-29T14:26:14Z</time></trkpt><trkpt lat="45.1249495" lon="8.0143872"><ele>400.25</ele><time>2026-03-29T14:26:14.999Z</time></trkpt><trkpt lat="45.1250814" lon="8.0143229"><ele>398.5</ele><time>2026-03-29T14:26:15.999Z</time></trkpt><trkpt lat="45.1252021" lon="8.0142667"><ele>396.75</ele><time>2026-03-29T14:26:16.999Z</time></trkpt><trkpt lat="45.1253127" lon="8.0142117"><ele>395.0</ele><time>2026-03-29T14:26:17.999Z</time></trkpt><trkpt lat="45.1254154" lon="8.0141454"><ele>395.0</ele><time>2026-03-29T14:26:18.999Z</time></trkpt><trkpt lat="45.1255186" lon="8.014054"><ele>395.0</ele><time>2026-03-29T14:26:19.999Z</time></trkpt><trkpt lat="45.1256129" lon="8.013955"><ele>395.0</ele><time>2026-03-29T14:26:20.999Z</time></trkpt><trkpt lat="45.1256941" lon="8.0138376"><ele>395.0</ele><time>2026-03-29T14:26:21.999Z</time></trkpt><trkpt lat="45.1257679" lon="8.0137309"><ele>397.4</ele><time>2026-03-29T14:26:23Z</time></trkpt><trkpt lat="45.1258418" lon="8.0136292"><ele>399.8</ele><time>2026-03-29T14:26:23.999Z</time></trkpt><trkpt lat="45.1259249" lon="8.013546"><ele>402.20000000000005</ele><time>2026-03-29T14:26:24.999Z</time></trkpt><trkpt lat="45.1260154" lon="8.0134864"><ele>404.6</ele><time>2026-03-29T14:26:25.999Z</time></trkpt><trkpt lat="45.1261156" lon="8.01347"><ele>407.0</ele><time>2026-03-29T14:26:26.999Z</time></trkpt><trkpt lat="45.1262246" lon="8.013461"><ele>407.0</ele><time>2026-03-29T14:26:27.999Z</time></trkpt><trkpt lat="45.126333" lon="8.013454"><ele>407.0</ele><time>2026-03-29T14:26:28.999Z</time></trkpt><trkpt lat="45.1264465" lon="8.0134138"><ele>407.0</ele><time>2026-03-29T14:26:29.999Z</time></trkpt><trkpt lat="45.1265636" lon="8.013315"><ele>407.0</ele><time>2026-03-29T14:26:30.999Z</time></trkpt><trkpt lat="45.1266816" lon="8.0132226"><ele>401.75</ele><time>2026-03-29T14:26:31.999Z</time></trkpt><trkpt lat="45.1267955" lon="8.0131439"><ele>396.5</ele><time>2026-03-29T14:26:32.999Z</time></trkpt><trkpt lat="45.1268993" lon="8.0130447"><ele>391.25</ele><time>2026-03-29T14:26:33.999Z</time></trkpt><trkpt lat="45.127014" lon="8.0129781"><ele>386.0</ele><time>2026-03-29T14:26:34.999Z</time></trkpt><trkpt lat="45.1271262" lon="8.0129248"><ele>386.0</ele><time>2026-03-29T14:26:35.999Z</time></trkpt><trkpt lat="45.1272316" lon="8.0128527"><ele>386.0</ele><time>2026-03-29T14:26:36.999Z</time></trkpt><trkpt lat="45.1273409" lon="8.0128064"><ele>386.0</ele><time>2026-03-29T14:26:37.999Z</time></trkpt><trkpt lat="45.1274177" lon="8.0127337"><ele>386.0</ele><time>2026-03-29T14:26:38.999Z</time></trkpt><trkpt lat="45.1274901" lon="8.0126649"><ele>386.0</ele><time>2026-03-29T14:26:39.999Z</time></trkpt><trkpt lat="45.1275401" lon="8.0125564"><ele>386.0</ele><time>2026-03-29T14:26:40.999Z</time></trkpt><trkpt lat="45.1275816" lon="8.0124309"><ele>386.0</ele><time>2026-03-29T14:26:41.999Z</time></trkpt><trkpt lat="45.1275768" lon="8.0122658"><ele>386.0</ele><time>2026-03-29T14:26:42.999Z</time></trkpt><trkpt lat="45.1275657" lon="8.012116"><ele>386.0</ele><time>2026-03-29T14:26:43.999Z</time></trkpt><trkpt lat="45.1275523" lon="8.0119646"><ele>386.0</ele><time>2026-03-29T14:26:44.999Z</time></trkpt><trkpt lat="45.1275265" lon="8.0118243"><ele>385.99999999999994</ele><time>2026-03-29T14:26:45.999Z</time></trkpt><trkpt lat="45.1275032" lon="8.0117092"><ele>386.0</ele><time>2026-03-29T14:26:46.999Z</time></trkpt><trkpt lat="45.1274956" lon="8.0116063"><ele>386.0</ele><time>2026-03-29T14:26:47.999Z</time></trkpt><trkpt lat="45.1275312" lon="8.0114408"><ele>386.0</ele><time>2026-03-29T14:26:49.999Z</time></trkpt><trkpt lat="45.1275898" lon="8.0114978"><ele>385.99999999999994</ele><time>2026-03-29T14:26:50.999Z</time></trkpt><trkpt lat="45.1276485" lon="8.0115741"><ele>386.0</ele><time>2026-03-29T14:26:51.999Z</time></trkpt><trkpt lat="45.127708" lon="8.0116419"><ele>385.99999999999994</ele><time>2026-03-29T14:26:52.999Z</time></trkpt><trkpt lat="45.127789" lon="8.0117444"><ele>386.0</ele><time>2026-03-29T14:26:53.999Z</time></trkpt><trkpt lat="45.1278603" lon="8.0117972"><ele>386.0</ele><time>2026-03-29T14:26:54.999Z</time></trkpt><trkpt lat="45.1279398" lon="8.0118284"><ele>386.0</ele><time>2026-03-29T14:26:55.999Z</time></trkpt><trkpt lat="45.1280119" lon="8.0118385"><ele>385.99999999999994</ele><time>2026-03-29T14:26:56.999Z</time></trkpt><trkpt lat="45.1280968" lon="8.0118557"><ele>386.0</ele><time>2026-03-29T14:26:57.999Z</time></trkpt><trkpt lat="45.1281877" lon="8.0118655"><ele>384.49999999999994</ele><time>2026-03-29T14:26:58.999Z</time></trkpt><trkpt lat="45.128248" lon="8.0119233"><ele>383.0</ele><time>2026-03-29T14:26:59.999Z</time></trkpt><trkpt lat="45.1282988" lon="8.0119967"><ele>381.5</ele><time>2026-03-29T14:27:00.999Z</time></trkpt><trkpt lat="45.1283638" lon="8.0120721"><ele>380.0</ele><time>2026-03-29T14:27:01.999Z</time></trkpt><trkpt lat="45.128448" lon="8.0121325"><ele>378.5</ele><time>2026-03-29T14:27:02.999Z</time></trkpt><trkpt lat="45.1285322" lon="8.0122061"><ele>377.0</ele><time>2026-03-29T14:27:03.999Z</time></trkpt><trkpt lat="45.1286098" lon="8.0122838"><ele>377.0</ele><time>2026-03-29T14:27:04.999Z</time></trkpt><trkpt lat="45.1286961" lon="8.0123393"><ele>377.0</ele><time>2026-03-29T14:27:05.999Z</time></trkpt><trkpt lat="45.1287838" lon="8.0123739"><ele>377.0</ele><time>2026-03-29T14:27:06.999Z</time></trkpt><trkpt lat="45.1288696" lon="8.0123985"><ele>377.0</ele><time>2026-03-29T14:27:07.999Z</time></trkpt><trkpt lat="45.1289609" lon="8.0123918"><ele>377.0</ele><time>2026-03-29T14:27:08.999Z</time></trkpt><trkpt lat="45.1290356" lon="8.0123971"><ele>377.0</ele><time>2026-03-29T14:27:09.999Z</time></trkpt><trkpt lat="45.1291257" lon="8.012402"><ele>378.0</ele><time>2026-03-29T14:27:10.999Z</time></trkpt><trkpt lat="45.1292026" lon="8.012411"><ele>379.0</ele><time>2026-03-29T14:27:11.999Z</time></trkpt><trkpt lat="45.1292867" lon="8.0124211"><ele>380.0</ele><time>2026-03-29T14:27:12.999Z</time></trkpt><trkpt lat="45.1293663" lon="8.0124237"><ele>381.0</ele><time>2026-03-29T14:27:13.999Z</time></trkpt><trkpt lat="45.1294484" lon="8.0124183"><ele>382.0</ele><time>2026-03-29T14:27:14.999Z</time></trkpt><trkpt lat="45.1295296" lon="8.012424"><ele>383.0</ele><time>2026-03-29T14:27:15.999Z</time></trkpt><trkpt lat="45.1296149" lon="8.0124235"><ele>383.0</ele><time>2026-03-29T14:27:16.999Z</time></trkpt><trkpt lat="45.1296966" lon="8.0124088"><ele>383.0</ele><time>2026-03-29T14:27:17.999Z</time></trkpt><trkpt lat="45.1297795" lon="8.0124023"><ele>383.0</ele><time>2026-03-29T14:27:18.999Z</time></trkpt><trkpt lat="45.129859" lon="8.0123831"><ele>383.0</ele><time>2026-03-29T14:27:19.999Z</time></trkpt><trkpt lat="45.1299457" lon="8.0123472"><ele>383.0</ele><time>2026-03-29T14:27:20.999Z</time></trkpt><trkpt lat="45.1300278" lon="8.0123371"><ele>383.0</ele><time>2026-03-29T14:27:21.999Z</time></trkpt><trkpt lat="45.1301069" lon="8.0123628"><ele>382.0</ele><time>2026-03-29T14:27:22.999Z</time></trkpt><trkpt lat="45.1301865" lon="8.0124094"><ele>381.0</ele><time>2026-03-29T14:27:23.999Z</time></trkpt><trkpt lat="45.1302613" lon="8.0124741"><ele>380.0</ele><time>2026-03-29T14:27:24.999Z</time></trkpt><trkpt lat="45.130341" lon="8.0125428"><ele>379.0</ele><time>2026-03-29T14:27:26Z</time></trkpt><trkpt lat="45.130429" lon="8.012602"><ele>378.0</ele><time>2026-03-29T14:27:26.999Z</time></trkpt><trkpt lat="45.1305131" lon="8.0126454"><ele>377.5</ele><time>2026-03-29T14:27:27.999Z</time></trkpt><trkpt lat="45.130584" lon="8.012644"><ele>377.0</ele><time>2026-03-29T14:27:28.999Z</time></trkpt><trkpt lat="45.1306586" lon="8.0126203"><ele>376.5</ele><time>2026-03-29T14:27:29.999Z</time></trkpt><trkpt lat="45.1307294" lon="8.0125674"><ele>376.0</ele><time>2026-03-29T14:27:30.999Z</time></trkpt><trkpt lat="45.1307955" lon="8.0124506"><ele>375.5</ele><time>2026-03-29T14:27:31.999Z</time></trkpt><trkpt lat="45.1308769" lon="8.0123796"><ele>375.0</ele><time>2026-03-29T14:27:32.999Z</time></trkpt><trkpt lat="45.1309584" lon="8.0122918"><ele>375.0</ele><time>2026-03-29T14:27:33.999Z</time></trkpt><trkpt lat="45.1310378" lon="8.0122269"><ele>375.0</ele><time>2026-03-29T14:27:34.999Z</time></trkpt><trkpt lat="45.1311189" lon="8.0121775"><ele>375.0</ele><time>2026-03-29T14:27:35.999Z</time></trkpt><trkpt lat="45.1312084" lon="8.012131"><ele>375.0</ele><time>2026-03-29T14:27:36.999Z</time></trkpt><trkpt lat="45.1312929" lon="8.0121094"><ele>375.0</ele><time>2026-03-29T14:27:37.999Z</time></trkpt><trkpt lat="45.1313833" lon="8.0121077"><ele>375.0</ele><time>2026-03-29T14:27:38.999Z</time></trkpt><trkpt lat="45.1314541" lon="8.0121402"><ele>375.0</ele><time>2026-03-29T14:27:39.999Z</time></trkpt><trkpt lat="45.1315249" lon="8.0121882"><ele>375.0</ele><time>2026-03-29T14:27:40.999Z</time></trkpt><trkpt lat="45.1315877" lon="8.0122684"><ele>375.0</ele><time>2026-03-29T14:27:41.999Z</time></trkpt><trkpt lat="45.1316501" lon="8.0123625"><ele>375.0</ele><time>2026-03-29T14:27:42.999Z</time></trkpt><trkpt lat="45.1317132" lon="8.0124729"><ele>375.0</ele><time>2026-03-29T14:27:43.999Z</time></trkpt><trkpt lat="45.1317836" lon="8.0125872"><ele>367.25</ele><time>2026-03-29T14:27:44.999Z</time></trkpt><trkpt lat="45.131867" lon="8.0126865"><ele>359.5</ele><time>2026-03-29T14:27:45.999Z</time></trkpt><trkpt lat="45.1319688" lon="8.0127698"><ele>351.75</ele><time>2026-03-29T14:27:46.999Z</time></trkpt><trkpt lat="45.1320819" lon="8.012835"><ele>344.0</ele><time>2026-03-29T14:27:47.999Z</time></trkpt><trkpt lat="45.1321953" lon="8.0128895"><ele>344.0</ele><time>2026-03-29T14:27:48.999Z</time></trkpt><trkpt lat="45.1323131" lon="8.0129389"><ele>344.0</ele><time>2026-03-29T14:27:49.999Z</time></trkpt><trkpt lat="45.1324342" lon="8.0129829"><ele>344.0</ele><time>2026-03-29T14:27:50.999Z</time></trkpt><trkpt lat="45.1325633" lon="8.0130318"><ele>344.0</ele><time>2026-03-29T14:27:51.999Z</time></trkpt><trkpt lat="45.1326921" lon="8.0130822"><ele>343.79999999999995</ele><time>2026-03-29T14:27:52.999Z</time></trkpt><trkpt lat="45.1328106" lon="8.0131274"><ele>343.59999999999997</ele><time>2026-03-29T14:27:53.999Z</time></trkpt><trkpt lat="45.1329141" lon="8.013182"><ele>343.4</ele><time>2026-03-29T14:27:54.999Z</time></trkpt><trkpt lat="45.133008" lon="8.0132294"><ele>343.2</ele><time>2026-03-29T14:27:55.999Z</time></trkpt><trkpt lat="45.1330989" lon="8.0132843"><ele>343.0</ele><time>2026-03-29T14:27:56.999Z</time></trkpt><trkpt lat="45.1331833" lon="8.0133281"><ele>343.4</ele><time>2026-03-29T14:27:57.999Z</time></trkpt><trkpt lat="45.133267" lon="8.0133891"><ele>343.79999999999995</ele><time>2026-03-29T14:27:58.999Z</time></trkpt><trkpt lat="45.1333513" lon="8.01345"><ele>344.2</ele><time>2026-03-29T14:27:59.999Z</time></trkpt><trkpt lat="45.1334427" lon="8.0135012"><ele>344.6</ele><time>2026-03-29T14:28:00.999Z</time></trkpt><trkpt lat="45.133533" lon="8.0135524"><ele>345.0</ele><time>2026-03-29T14:28:01.999Z</time></trkpt><trkpt lat="45.1336279" lon="8.0136058"><ele>345.0</ele><time>2026-03-29T14:28:02.999Z</time></trkpt><trkpt lat="45.1337271" lon="8.0136643"><ele>345.0</ele><time>2026-03-29T14:28:03.999Z</time></trkpt><trkpt lat="45.1338241" lon="8.0137235"><ele>345.0</ele><time>2026-03-29T14:28:04.999Z</time></trkpt><trkpt lat="45.1339286" lon="8.0137787"><ele>345.0</ele><time>2026-03-29T14:28:05.999Z</time></trkpt><trkpt lat="45.1340327" lon="8.0138296"><ele>345.0</ele><time>2026-03-29T14:28:06.999Z</time></trkpt><trkpt lat="45.1341341" lon="8.0138855"><ele>342.8</ele><time>2026-03-29T14:28:07.999Z</time></trkpt><trkpt lat="45.1342313" lon="8.013932"><ele>340.6</ele><time>2026-03-29T14:28:08.999Z</time></trkpt><trkpt lat="45.1343327" lon="8.0139789"><ele>338.4</ele><time>2026-03-29T14:28:09.999Z</time></trkpt><trkpt lat="45.1344348" lon="8.0140369"><ele>336.2</ele><time>2026-03-29T14:28:10.999Z</time></trkpt><trkpt lat="45.1345357" lon="8.0141013"><ele>334.0</ele><time>2026-03-29T14:28:11.999Z</time></trkpt><trkpt lat="45.1346312" lon="8.0141804"><ele>333.75</ele><time>2026-03-29T14:28:12.999Z</time></trkpt><trkpt lat="45.1347379" lon="8.0142649"><ele>333.5</ele><time>2026-03-29T14:28:13.999Z</time></trkpt><trkpt lat="45.134852" lon="8.0143586"><ele>333.25</ele><time>2026-03-29T14:28:14.999Z</time></trkpt><trkpt lat="45.1349771" lon="8.0144587"><ele>333.0</ele><time>2026-03-29T14:28:15.999Z</time></trkpt><trkpt lat="45.1351101" lon="8.0145618"><ele>329.6666666666667</ele><time>2026-03-29T14:28:16.999Z</time></trkpt><trkpt lat="45.1352426" lon="8.0146619"><ele>326.33333333333337</ele><time>2026-03-29T14:28:17.999Z</time></trkpt><trkpt lat="45.1353826" lon="8.0147614"><ele>323.0</ele><time>2026-03-29T14:28:18.999Z</time></trkpt><trkpt lat="45.1355247" lon="8.014864"><ele>323.0</ele><time>2026-03-29T14:28:19.999Z</time></trkpt><trkpt lat="45.1356593" lon="8.0149632"><ele>323.0</ele><time>2026-03-29T14:28:20.999Z</time></trkpt><trkpt lat="45.1357841" lon="8.0150688"><ele>323.0</ele><time>2026-03-29T14:28:21.999Z</time></trkpt><trkpt lat="45.1359014" lon="8.0151599"><ele>323.0</ele><time>2026-03-29T14:28:22.999Z</time></trkpt><trkpt lat="45.1360155" lon="8.0152458"><ele>321.5</ele><time>2026-03-29T14:28:23.999Z</time></trkpt><trkpt lat="45.1361272" lon="8.0153326"><ele>320.0</ele><time>2026-03-29T14:28:24.999Z</time></trkpt><trkpt lat="45.1362409" lon="8.0154146"><ele>318.5</ele><time>2026-03-29T14:28:25.999Z</time></trkpt><trkpt lat="45.1363521" lon="8.01549"><ele>317.0</ele><time>2026-03-29T14:28:26.999Z</time></trkpt><trkpt lat="45.1364574" lon="8.0155647"><ele>316.4</ele><time>2026-03-29T14:28:27.999Z</time></trkpt><trkpt lat="45.1365603" lon="8.0156441"><ele>315.79999999999995</ele><time>2026-03-29T14:28:28.999Z</time></trkpt><trkpt lat="45.1366539" lon="8.0157374"><ele>315.2</ele><time>2026-03-29T14:28:29.999Z</time></trkpt><trkpt lat="45.1367376" lon="8.0158321"><ele>314.59999999999997</ele><time>2026-03-29T14:28:30.999Z</time></trkpt><trkpt lat="45.13679" lon="8.0159398"><ele>314.0</ele><time>2026-03-29T14:28:31.999Z</time></trkpt><trkpt lat="45.1367963" lon="8.0160767"><ele>314.0</ele><time>2026-03-29T14:28:32.999Z</time></trkpt><trkpt lat="45.1367747" lon="8.0162284"><ele>314.0</ele><time>2026-03-29T14:28:33.999Z</time></trkpt><trkpt lat="45.136757" lon="8.0163767"><ele>314.0</ele><time>2026-03-29T14:28:34.999Z</time></trkpt><trkpt lat="45.1367341" lon="8.0165294"><ele>314.0</ele><time>2026-03-29T14:28:35.999Z</time></trkpt><trkpt lat="45.136736" lon="8.0166757"><ele>314.0</ele><time>2026-03-29T14:28:36.999Z</time></trkpt><trkpt lat="45.1367644" lon="8.0168335"><ele>313.0</ele><time>2026-03-29T14:28:37.999Z</time></trkpt><trkpt lat="45.1368198" lon="8.016985"><ele>312.0</ele><time>2026-03-29T14:28:38.999Z</time></trkpt><trkpt lat="45.136891" lon="8.0171347"><ele>311.0</ele><time>2026-03-29T14:28:39.999Z</time></trkpt><trkpt lat="45.1369667" lon="8.0172799"><ele>310.0</ele><time>2026-03-29T14:28:40.999Z</time></trkpt><trkpt lat="45.1370381" lon="8.0174122"><ele>306.5</ele><time>2026-03-29T14:28:41.999Z</time></trkpt><trkpt lat="45.137132" lon="8.0175325"><ele>303.0</ele><time>2026-03-29T14:28:42.999Z</time></trkpt><trkpt lat="45.1372451" lon="8.0176332"><ele>299.5</ele><time>2026-03-29T14:28:43.999Z</time></trkpt><trkpt lat="45.137377" lon="8.0177272"><ele>296.0</ele><time>2026-03-29T14:28:44.999Z</time></trkpt><trkpt lat="45.1375082" lon="8.0178523"><ele>295.0</ele><time>2026-03-29T14:28:45.999Z</time></trkpt><trkpt lat="45.137642" lon="8.0180122"><ele>294.0</ele><time>2026-03-29T14:28:46.999Z</time></trkpt><trkpt lat="45.1377577" lon="8.0181923"><ele>293.0</ele><time>2026-03-29T14:28:47.999Z</time></trkpt><trkpt lat="45.1378757" lon="8.0183502"><ele>291.6666666666667</ele><time>2026-03-29T14:28:49Z</time></trkpt><trkpt lat="45.1379778" lon="8.0184649"><ele>290.33333333333337</ele><time>2026-03-29T14:28:49.999Z</time></trkpt><trkpt lat="45.1380523" lon="8.018539"><ele>289.0</ele><time>2026-03-29T14:28:50.999Z</time></trkpt><trkpt lat="45.1381091" lon="8.0185829"><ele>287.6666666666667</ele><time>2026-03-29T14:28:51.999Z</time></trkpt><trkpt lat="45.1381639" lon="8.018644"><ele>286.3333333333333</ele><time>2026-03-29T14:28:52.999Z</time></trkpt><trkpt lat="45.1382131" lon="8.0187277"><ele>285.0</ele><time>2026-03-29T14:28:53.999Z</time></trkpt><trkpt lat="45.1382718" lon="8.018824"><ele>284.8333333333333</ele><time>2026-03-29T14:28:54.999Z</time></trkpt><trkpt lat="45.1383259" lon="8.0189281"><ele>284.6666666666667</ele><time>2026-03-29T14:28:55.999Z</time></trkpt><trkpt lat="45.1383912" lon="8.0190171"><ele>284.5</ele><time>2026-03-29T14:28:56.999Z</time></trkpt><trkpt lat="45.1384569" lon="8.0190862"><ele>284.33333333333337</ele><time>2026-03-29T14:28:57.999Z</time></trkpt><trkpt lat="45.1385586" lon="8.0190877"><ele>284.1666666666667</ele><time>2026-03-29T14:28:58.999Z</time></trkpt><trkpt lat="45.1386413" lon="8.0190944"><ele>284.0</ele><time>2026-03-29T14:28:59.999Z</time></trkpt><trkpt lat="45.1387026" lon="8.0190661"><ele>284.0</ele><time>2026-03-29T14:29:00.999Z</time></trkpt><trkpt lat="45.138824" lon="8.0191301"><ele>284.0</ele><time>2026-03-29T14:29:02.999Z</time></trkpt><trkpt lat="45.1388958" lon="8.0191988"><ele>284.0</ele><time>2026-03-29T14:29:03.999Z</time></trkpt><trkpt lat="45.1389688" lon="8.0192876"><ele>284.0</ele><time>2026-03-29T14:29:04.999Z</time></trkpt><trkpt lat="45.1390403" lon="8.0193905"><ele>284.0</ele><time>2026-03-29T14:29:05.999Z</time></trkpt><trkpt lat="45.1391046" lon="8.0195053"><ele>284.1666666666667</ele><time>2026-03-29T14:29:06.999Z</time></trkpt><trkpt lat="45.1391601" lon="8.0196188"><ele>284.33333333333337</ele><time>2026-03-29T14:29:07.999Z</time></trkpt><trkpt lat="45.1391869" lon="8.0197053"><ele>284.5</ele><time>2026-03-29T14:29:08.999Z</time></trkpt><trkpt lat="45.139208" lon="8.0198002"><ele>284.6666666666667</ele><time>2026-03-29T14:29:09.999Z</time></trkpt><trkpt lat="45.1392185" lon="8.0198961"><ele>284.8333333333333</ele><time>2026-03-29T14:29:10.999Z</time></trkpt><trkpt lat="45.1392295" lon="8.02"><ele>285.0</ele><time>2026-03-29T14:29:11.999Z</time></trkpt><trkpt lat="45.1392314" lon="8.0201117"><ele>285.0</ele><time>2026-03-29T14:29:12.999Z</time></trkpt><trkpt lat="45.139227" lon="8.0202176"><ele>285.0</ele><time>2026-03-29T14:29:13.999Z</time></trkpt><trkpt lat="45.13922" lon="8.0203255"><ele>285.0</ele><time>2026-03-29T14:29:14.999Z</time></trkpt><trkpt lat="45.1392152" lon="8.0204281"><ele>285.0</ele><time>2026-03-29T14:29:15.999Z</time></trkpt><trkpt lat="45.1392156" lon="8.0205234"><ele>285.0</ele><time>2026-03-29T14:29:16.999Z</time></trkpt><trkpt lat="45.13922" lon="8.0206221"><ele>285.0</ele><time>2026-03-29T14:29:17.999Z</time></trkpt><trkpt lat="45.1392246" lon="8.0207165"><ele>285.0</ele><time>2026-03-29T14:29:18.999Z</time></trkpt><trkpt lat="45.1392288" lon="8.020814"><ele>283.8</ele><time>2026-03-29T14:29:19.999Z</time></trkpt><trkpt lat="45.1392398" lon="8.0209042"><ele>282.6</ele><time>2026-03-29T14:29:20.999Z</time></trkpt><trkpt lat="45.1392755" lon="8.0210506"><ele>281.4</ele><time>2026-03-29T14:29:22.999Z</time></trkpt><trkpt lat="45.1393269" lon="8.0212008"><ele>280.2</ele><time>2026-03-29T14:29:24.999Z</time></trkpt><trkpt lat="45.1393869" lon="8.0213167"><ele>279.0</ele><time>2026-03-29T14:29:26.999Z</time></trkpt><trkpt lat="45.1394277" lon="8.0214024"><ele>279.0</ele><time>2026-03-29T14:29:29.999Z</time></trkpt><trkpt lat="45.1394186" lon="8.0213117"><ele>279.0</ele><time>2026-03-29T14:29:35.999Z</time></trkpt><trkpt lat="45.1393589" lon="8.0212379"><ele>279.0</ele><time>2026-03-29T14:29:36.999Z</time></trkpt><trkpt lat="45.1393204" lon="8.0211486"><ele>279.0</ele><time>2026-03-29T14:29:37.999Z</time></trkpt><trkpt lat="45.139282" lon="8.02103"><ele>279.0</ele><time>2026-03-29T14:29:38.999Z</time></trkpt><trkpt lat="45.139262" lon="8.0209031"><ele>279.0</ele><time>2026-03-29T14:29:39.999Z</time></trkpt><trkpt lat="45.1392392" lon="8.0207425"><ele>280.5</ele><time>2026-03-29T14:29:40.999Z</time></trkpt><trkpt lat="45.1392239" lon="8.0205733"><ele>282.0</ele><time>2026-03-29T14:29:41.999Z</time></trkpt><trkpt lat="45.1392124" lon="8.0203977"><ele>283.5</ele><time>2026-03-29T14:29:42.999Z</time></trkpt><trkpt lat="45.1392322" lon="8.0202247"><ele>285.0</ele><time>2026-03-29T14:29:43.999Z</time></trkpt><trkpt lat="45.1392313" lon="8.0200547"><ele>285.0</ele><time>2026-03-29T14:29:44.999Z</time></trkpt><trkpt lat="45.1392251" lon="8.0199123"><ele>285.0</ele><time>2026-03-29T14:29:45.999Z</time></trkpt><trkpt lat="45.1392076" lon="8.0197748"><ele>285.0</ele><time>2026-03-29T14:29:46.999Z</time></trkpt><trkpt lat="45.1391696" lon="8.019637"><ele>285.0</ele><time>2026-03-29T14:29:47.999Z</time></trkpt><trkpt lat="45.1391109" lon="8.0195103"><ele>285.0</ele><time>2026-03-29T14:29:48.999Z</time></trkpt><trkpt lat="45.1390292" lon="8.0193852"><ele>285.0</ele><time>2026-03-29T14:29:49.999Z</time></trkpt><trkpt lat="45.1389615" lon="8.019282"><ele>285.0</ele><time>2026-03-29T14:29:50.999Z</time></trkpt><trkpt lat="45.1388908" lon="8.0191905"><ele>285.0</ele><time>2026-03-29T14:29:51.999Z</time></trkpt><trkpt lat="45.1388218" lon="8.019129"><ele>285.0</ele><time>2026-03-29T14:29:52.999Z</time></trkpt><trkpt lat="45.1387689" lon="8.019049"><ele>285.0</ele><time>2026-03-29T14:29:54.999Z</time></trkpt><trkpt lat="45.1388015" lon="8.0189649"><ele>285.0</ele><time>2026-03-29T14:29:56.999Z</time></trkpt><trkpt lat="45.1389535" lon="8.0189653"><ele>284.75</ele><time>2026-03-29T14:29:58.999Z</time></trkpt><trkpt lat="45.1390433" lon="8.0190298"><ele>284.5</ele><time>2026-03-29T14:29:59.999Z</time></trkpt><trkpt lat="45.1391304" lon="8.019114"><ele>284.25</ele><time>2026-03-29T14:30:00.999Z</time></trkpt><trkpt lat="45.1392272" lon="8.0192222"><ele>284.0</ele><time>2026-03-29T14:30:01.999Z</time></trkpt><trkpt lat="45.1393257" lon="8.0193366"><ele>284.5</ele><time>2026-03-29T14:30:02.999Z</time></trkpt><trkpt lat="45.1394298" lon="8.0194541"><ele>285.0</ele><time>2026-03-29T14:30:04Z</time></trkpt><trkpt lat="45.1395264" lon="8.0195614"><ele>285.5</ele><time>2026-03-29T14:30:04.999Z</time></trkpt><trkpt lat="45.1396259" lon="8.0196465"><ele>286.0</ele><time>2026-03-29T14:30:05.999Z</time></trkpt><trkpt lat="45.1397217" lon="8.0197253"><ele>286.0</ele><time>2026-03-29T14:30:06.999Z</time></trkpt><trkpt lat="45.1398192" lon="8.0198194"><ele>286.0</ele><time>2026-03-29T14:30:07.999Z</time></trkpt><trkpt lat="45.1399232" lon="8.0199231"><ele>286.0</ele><time>2026-03-29T14:30:08.999Z</time></trkpt><trkpt lat="45.1400304" lon="8.0200357"><ele>286.0</ele><time>2026-03-29T14:30:09.999Z</time></trkpt><trkpt lat="45.1401106" lon="8.0201603"><ele>287.6</ele><time>2026-03-29T14:30:10.999Z</time></trkpt><trkpt lat="45.1401879" lon="8.020282"><ele>289.20000000000005</ele><time>2026-03-29T14:30:11.999Z</time></trkpt><trkpt lat="45.1402279" lon="8.0204324"><ele>290.79999999999995</ele><time>2026-03-29T14:30:12.999Z</time></trkpt><trkpt lat="45.1402518" lon="8.020528"><ele>292.4</ele><time>2026-03-29T14:30:13.999Z</time></trkpt><trkpt lat="45.1403181" lon="8.0206494"><ele>294.0</ele><time>2026-03-29T14:30:14.999Z</time></trkpt><trkpt lat="45.1404142" lon="8.0207235"><ele>294.0</ele><time>2026-03-29T14:30:15.999Z</time></trkpt><trkpt lat="45.1405283" lon="8.0207997"><ele>294.0</ele><time>2026-03-29T14:30:16.999Z</time></trkpt><trkpt lat="45.1406434" lon="8.0209103"><ele>294.0</ele><time>2026-03-29T14:30:17.999Z</time></trkpt><trkpt lat="45.1407593" lon="8.0210372"><ele>294.0</ele><time>2026-03-29T14:30:18.999Z</time></trkpt><trkpt lat="45.140869" lon="8.0211647"><ele>296.5</ele><time>2026-03-29T14:30:19.999Z</time></trkpt><trkpt lat="45.1409711" lon="8.0212909"><ele>299.0</ele><time>2026-03-29T14:30:20.999Z</time></trkpt><trkpt lat="45.1410655" lon="8.0214109"><ele>301.5</ele><time>2026-03-29T14:30:21.999Z</time></trkpt><trkpt lat="45.1411384" lon="8.0215033"><ele>304.0</ele><time>2026-03-29T14:30:22.999Z</time></trkpt><trkpt lat="45.1412056" lon="8.0215886"><ele>304.0</ele><time>2026-03-29T14:30:23.999Z</time></trkpt><trkpt lat="45.1412763" lon="8.0216477"><ele>304.0</ele><time>2026-03-29T14:30:24.999Z</time></trkpt><trkpt lat="45.1413648" lon="8.0216692"><ele>304.0</ele><time>2026-03-29T14:30:25.999Z</time></trkpt><trkpt lat="45.141464" lon="8.0217132"><ele>304.0</ele><time>2026-03-29T14:30:26.999Z</time></trkpt><trkpt lat="45.1415628" lon="8.0217651"><ele>304.0</ele><time>2026-03-29T14:30:27.999Z</time></trkpt><trkpt lat="45.1416789" lon="8.02184"><ele>305.0</ele><time>2026-03-29T14:30:29Z</time></trkpt><trkpt lat="45.1417936" lon="8.021941"><ele>306.0</ele><time>2026-03-29T14:30:29.999Z</time></trkpt><trkpt lat="45.1419113" lon="8.0220593"><ele>307.0</ele><time>2026-03-29T14:30:30.999Z</time></trkpt><trkpt lat="45.1420305" lon="8.0221693"><ele>308.0</ele><time>2026-03-29T14:30:31.999Z</time></trkpt><trkpt lat="45.142151" lon="8.0222776"><ele>308.0</ele><time>2026-03-29T14:30:32.999Z</time></trkpt><trkpt lat="45.1422896" lon="8.0223764"><ele>308.0</ele><time>2026-03-29T14:30:33.999Z</time></trkpt><trkpt lat="45.1424281" lon="8.0224751"><ele>308.0</ele><time>2026-03-29T14:30:34.999Z</time></trkpt><trkpt lat="45.1425674" lon="8.0225761"><ele>306.6666666666667</ele><time>2026-03-29T14:30:35.999Z</time></trkpt><trkpt lat="45.1427043" lon="8.0226989"><ele>305.3333333333333</ele><time>2026-03-29T14:30:36.999Z</time></trkpt><trkpt lat="45.142819" lon="8.0228462"><ele>304.0</ele><time>2026-03-29T14:30:37.999Z</time></trkpt><trkpt lat="45.1429224" lon="8.0229936"><ele>304.0</ele><time>2026-03-29T14:30:38.999Z</time></trkpt><trkpt lat="45.1429641" lon="8.0231186"><ele>304.0</ele><time>2026-03-29T14:30:39.999Z</time></trkpt><trkpt lat="45.1430036" lon="8.0232584"><ele>304.0</ele><time>2026-03-29T14:30:40.999Z</time></trkpt><trkpt lat="45.1430567" lon="8.0234003"><ele>304.0</ele><time>2026-03-29T14:30:41.999Z</time></trkpt><trkpt lat="45.143134" lon="8.0235278"><ele>304.0</ele><time>2026-03-29T14:30:42.999Z</time></trkpt><trkpt lat="45.1432079" lon="8.0236546"><ele>304.75</ele><time>2026-03-29T14:30:43.999Z</time></trkpt><trkpt lat="45.1433404" lon="8.0236947"><ele>305.5</ele><time>2026-03-29T14:30:44.999Z</time></trkpt><trkpt lat="45.143456" lon="8.0237224"><ele>306.25</ele><time>2026-03-29T14:30:45.999Z</time></trkpt><trkpt lat="45.143587" lon="8.0237184"><ele>307.0</ele><time>2026-03-29T14:30:46.999Z</time></trkpt><trkpt lat="45.1437079" lon="8.023745"><ele>307.0</ele><time>2026-03-29T14:30:47.999Z</time></trkpt><trkpt lat="45.1438285" lon="8.023814"><ele>307.0</ele><time>2026-03-29T14:30:48.999Z</time></trkpt><trkpt lat="45.1439511" lon="8.0238993"><ele>307.0</ele><time>2026-03-29T14:30:49.999Z</time></trkpt><trkpt lat="45.1440697" lon="8.0239915"><ele>307.0</ele><time>2026-03-29T14:30:50.999Z</time></trkpt><trkpt lat="45.1441826" lon="8.0240758"><ele>311.0</ele><time>2026-03-29T14:30:51.999Z</time></trkpt><trkpt lat="45.1443013" lon="8.0241513"><ele>315.0</ele><time>2026-03-29T14:30:52.999Z</time></trkpt><trkpt lat="45.1444196" lon="8.0242364"><ele>319.0</ele><time>2026-03-29T14:30:53.999Z</time></trkpt><trkpt lat="45.1445066" lon="8.0243655"><ele>323.0</ele><time>2026-03-29T14:30:54.999Z</time></trkpt><trkpt lat="45.1445948" lon="8.024498"><ele>323.0</ele><time>2026-03-29T14:30:55.999Z</time></trkpt><trkpt lat="45.1446625" lon="8.0246511"><ele>323.0</ele><time>2026-03-29T14:30:56.999Z</time></trkpt><trkpt lat="45.1447209" lon="8.0248167"><ele>323.0</ele><time>2026-03-29T14:30:57.999Z</time></trkpt><trkpt lat="45.1447709" lon="8.0249915"><ele>323.0</ele><time>2026-03-29T14:30:58.999Z</time></trkpt><trkpt lat="45.14482" lon="8.0251702"><ele>321.25</ele><time>2026-03-29T14:30:59.999Z</time></trkpt><trkpt lat="45.1448547" lon="8.0253368"><ele>319.5</ele><time>2026-03-29T14:31:00.999Z</time></trkpt><trkpt lat="45.1448707" lon="8.0254949"><ele>317.75</ele><time>2026-03-29T14:31:01.999Z</time></trkpt><trkpt lat="45.1448734" lon="8.0256461"><ele>316.0</ele><time>2026-03-29T14:31:02.999Z</time></trkpt><trkpt lat="45.1448331" lon="8.0258026"><ele>317.0</ele><time>2026-03-29T14:31:03.999Z</time></trkpt><trkpt lat="45.1448006" lon="8.0259433"><ele>318.0</ele><time>2026-03-29T14:31:04.999Z</time></trkpt><trkpt lat="45.1447569" lon="8.0260773"><ele>319.0</ele><time>2026-03-29T14:31:05.999Z</time></trkpt><trkpt lat="45.1447184" lon="8.0261847"><ele>320.0</ele><time>2026-03-29T14:31:06.999Z</time></trkpt><trkpt lat="45.1446734" lon="8.0262899"><ele>321.0</ele><time>2026-03-29T14:31:07.999Z</time></trkpt><trkpt lat="45.1446476" lon="8.0263979"><ele>321.0</ele><time>2026-03-29T14:31:08.999Z</time></trkpt><trkpt lat="45.1446489" lon="8.0265329"><ele>321.0</ele><time>2026-03-29T14:31:09.999Z</time></trkpt><trkpt lat="45.1446638" lon="8.0266751"><ele>321.0</ele><time>2026-03-29T14:31:10.999Z</time></trkpt><trkpt lat="45.1446755" lon="8.0268407"><ele>321.0</ele><time>2026-03-29T14:31:11.999Z</time></trkpt><trkpt lat="45.1447318" lon="8.0270498"><ele>320.5</ele><time>2026-03-29T14:31:12.999Z</time></trkpt><trkpt lat="45.1447705" lon="8.0272363"><ele>320.0</ele><time>2026-03-29T14:31:13.999Z</time></trkpt><trkpt lat="45.1448097" lon="8.0274204"><ele>319.5</ele><time>2026-03-29T14:31:14.999Z</time></trkpt><trkpt lat="45.1448223" lon="8.0275889"><ele>319.0</ele><time>2026-03-29T14:31:15.999Z</time></trkpt><trkpt lat="45.1448303" lon="8.0277594"><ele>318.0</ele><time>2026-03-29T14:31:16.999Z</time></trkpt><trkpt lat="45.1448303" lon="8.0279293"><ele>317.0</ele><time>2026-03-29T14:31:17.999Z</time></trkpt><trkpt lat="45.1448396" lon="8.0281067"><ele>316.0</ele><time>2026-03-29T14:31:18.999Z</time></trkpt><trkpt lat="45.1448509" lon="8.0283084"><ele>315.0</ele><time>2026-03-29T14:31:19.999Z</time></trkpt><trkpt lat="45.1448811" lon="8.0285118"><ele>315.0</ele><time>2026-03-29T14:31:20.999Z</time></trkpt><trkpt lat="45.1449088" lon="8.0287331"><ele>315.0</ele><time>2026-03-29T14:31:21.999Z</time></trkpt><trkpt lat="45.1449567" lon="8.0289414"><ele>315.0</ele><time>2026-03-29T14:31:22.999Z</time></trkpt><trkpt lat="45.1450181" lon="8.0291901"><ele>315.5</ele><time>2026-03-29T14:31:23.999Z</time></trkpt><trkpt lat="45.1450313" lon="8.0294122"><ele>316.0</ele><time>2026-03-29T14:31:24.999Z</time></trkpt><trkpt lat="45.1450816" lon="8.0296189"><ele>316.5</ele><time>2026-03-29T14:31:25.999Z</time></trkpt><trkpt lat="45.1451102" lon="8.029747"><ele>317.0</ele><time>2026-03-29T14:31:26.999Z</time></trkpt><trkpt lat="45.145142" lon="8.0299031"><ele>317.0</ele><time>2026-03-29T14:31:27.999Z</time></trkpt><trkpt lat="45.145191" lon="8.0300277"><ele>317.0</ele><time>2026-03-29T14:31:28.999Z</time></trkpt><trkpt lat="45.1452541" lon="8.0301633"><ele>317.0</ele><time>2026-03-29T14:31:29.999Z</time></trkpt><trkpt lat="45.1453772" lon="8.0302428"><ele>317.0</ele><time>2026-03-29T14:31:30.999Z</time></trkpt><trkpt lat="45.1454759" lon="8.0303372"><ele>317.0</ele><time>2026-03-29T14:31:31.999Z</time></trkpt><trkpt lat="45.1455963" lon="8.0304107"><ele>317.0</ele><time>2026-03-29T14:31:32.999Z</time></trkpt><trkpt lat="45.1457242" lon="8.0304442"><ele>317.0</ele><time>2026-03-29T14:31:33.999Z</time></trkpt><trkpt lat="45.1458549" lon="8.0304374"><ele>317.0</ele><time>2026-03-29T14:31:34.999Z</time></trkpt><trkpt lat="45.1459739" lon="8.0304034"><ele>311.6</ele><time>2026-03-29T14:31:35.999Z</time></trkpt><trkpt lat="45.1460995" lon="8.0303611"><ele>306.2</ele><time>2026-03-29T14:31:36.999Z</time></trkpt><trkpt lat="45.146209" lon="8.0303765"><ele>300.8</ele><time>2026-03-29T14:31:37.999Z</time></trkpt><trkpt lat="45.1463213" lon="8.0303894"><ele>295.4</ele><time>2026-03-29T14:31:38.999Z</time></trkpt><trkpt lat="45.1464088" lon="8.030396"><ele>290.0</ele><time>2026-03-29T14:31:39.999Z</time></trkpt><trkpt lat="45.1464881" lon="8.0304037"><ele>287.2</ele><time>2026-03-29T14:31:41.999Z</time></trkpt><trkpt lat="45.1466166" lon="8.0304239"><ele>284.4</ele><time>2026-03-29T14:31:49.999Z</time></trkpt><trkpt lat="45.1466869" lon="8.0304391"><ele>281.6</ele><time>2026-03-29T14:31:50.999Z</time></trkpt><trkpt lat="45.1467631" lon="8.0304601"><ele>278.8</ele><time>2026-03-29T14:31:51.999Z</time></trkpt><trkpt lat="45.1468542" lon="8.0304942"><ele>276.0</ele><time>2026-03-29T14:31:52.999Z</time></trkpt><trkpt lat="45.146954" lon="8.0305326"><ele>276.0</ele><time>2026-03-29T14:31:53.999Z</time></trkpt><trkpt lat="45.1470595" lon="8.0305927"><ele>276.0</ele><time>2026-03-29T14:31:54.999Z</time></trkpt><trkpt lat="45.1471636" lon="8.0306409"><ele>276.0</ele><time>2026-03-29T14:31:55.999Z</time></trkpt><trkpt lat="45.1472537" lon="8.0306915"><ele>276.0</ele><time>2026-03-29T14:31:56.999Z</time></trkpt><trkpt lat="45.1473368" lon="8.030728"><ele>276.0</ele><time>2026-03-29T14:31:57.999Z</time></trkpt><trkpt lat="45.147404" lon="8.0307385"><ele>275.5</ele><time>2026-03-29T14:31:58.999Z</time></trkpt><trkpt lat="45.1474837" lon="8.0307548"><ele>275.0</ele><time>2026-03-29T14:31:59.999Z</time></trkpt><trkpt lat="45.1475642" lon="8.0307976"><ele>274.5</ele><time>2026-03-29T14:32:00.999Z</time></trkpt><trkpt lat="45.1476468" lon="8.0308361"><ele>274.0</ele><time>2026-03-29T14:32:01.999Z</time></trkpt><trkpt lat="45.1476925" lon="8.0309385"><ele>273.5</ele><time>2026-03-29T14:32:02.999Z</time></trkpt><trkpt lat="45.1477578" lon="8.0310527"><ele>273.0</ele><time>2026-03-29T14:32:03.999Z</time></trkpt><trkpt lat="45.1478351" lon="8.0311626"><ele>275.4</ele><time>2026-03-29T14:32:04.999Z</time></trkpt><trkpt lat="45.1479112" lon="8.0312653"><ele>277.8</ele><time>2026-03-29T14:32:05.999Z</time></trkpt><trkpt lat="45.1480089" lon="8.0313635"><ele>280.2</ele><time>2026-03-29T14:32:06.999Z</time></trkpt><trkpt lat="45.1481009" lon="8.0314428"><ele>282.6</ele><time>2026-03-29T14:32:07.999Z</time></trkpt><trkpt lat="45.1481877" lon="8.0315109"><ele>285.0</ele><time>2026-03-29T14:32:08.999Z</time></trkpt><trkpt lat="45.1482696" lon="8.0315747"><ele>286.0</ele><time>2026-03-29T14:32:09.999Z</time></trkpt><trkpt lat="45.1483467" lon="8.0316452"><ele>287.0</ele><time>2026-03-29T14:32:10.999Z</time></trkpt><trkpt lat="45.1484415" lon="8.0316944"><ele>288.0</ele><time>2026-03-29T14:32:11.999Z</time></trkpt><trkpt lat="45.1485509" lon="8.0317154"><ele>289.0</ele><time>2026-03-29T14:32:12.999Z</time></trkpt><trkpt lat="45.148664" lon="8.0317273"><ele>290.0</ele><time>2026-03-29T14:32:13.999Z</time></trkpt><trkpt lat="45.1487825" lon="8.0317404"><ele>290.0</ele><time>2026-03-29T14:32:14.999Z</time></trkpt><trkpt lat="45.1488885" lon="8.0317766"><ele>290.0</ele><time>2026-03-29T14:32:15.999Z</time></trkpt><trkpt lat="45.1489847" lon="8.0318219"><ele>290.0</ele><time>2026-03-29T14:32:16.999Z</time></trkpt><trkpt lat="45.1490717" lon="8.0318608"><ele>290.0</ele><time>2026-03-29T14:32:17.999Z</time></trkpt><trkpt lat="45.1491733" lon="8.0319553"><ele>290.0</ele><time>2026-03-29T14:32:19.999Z</time></trkpt><trkpt lat="45.1492234" lon="8.032011"><ele>290.6</ele><time>2026-03-29T14:32:20.999Z</time></trkpt><trkpt lat="45.1492217" lon="8.0321182"><ele>291.2</ele><time>2026-03-29T14:32:21.999Z</time></trkpt><trkpt lat="45.1491794" lon="8.0322884"><ele>291.8</ele><time>2026-03-29T14:32:23.999Z</time></trkpt><trkpt lat="45.149148" lon="8.0324023"><ele>292.4</ele><time>2026-03-29T14:32:24.999Z</time></trkpt><trkpt lat="45.1491313" lon="8.0325415"><ele>293.0</ele><time>2026-03-29T14:32:25.999Z</time></trkpt><trkpt lat="45.1491157" lon="8.0326781"><ele>293.0</ele><time>2026-03-29T14:32:26.999Z</time></trkpt><trkpt lat="45.1491076" lon="8.0328173"><ele>293.0</ele><time>2026-03-29T14:32:27.999Z</time></trkpt><trkpt lat="45.1490896" lon="8.0329377"><ele>293.0</ele><time>2026-03-29T14:32:28.999Z</time></trkpt><trkpt lat="45.1490472" lon="8.0330682"><ele>293.0</ele><time>2026-03-29T14:32:29.999Z</time></trkpt><trkpt lat="45.1489958" lon="8.0331996"><ele>293.0</ele><time>2026-03-29T14:32:30.999Z</time></trkpt><trkpt lat="45.1489372" lon="8.0333178"><ele>290.1666666666667</ele><time>2026-03-29T14:32:31.999Z</time></trkpt><trkpt lat="45.148875" lon="8.0334193"><ele>287.33333333333337</ele><time>2026-03-29T14:32:32.999Z</time></trkpt><trkpt lat="45.1488294" lon="8.0334981"><ele>284.5</ele><time>2026-03-29T14:32:33.999Z</time></trkpt><trkpt lat="45.1487903" lon="8.0335776"><ele>281.6666666666667</ele><time>2026-03-29T14:32:34.999Z</time></trkpt><trkpt lat="45.1487699" lon="8.0337304"><ele>278.8333333333333</ele><time>2026-03-29T14:32:36.999Z</time></trkpt><trkpt lat="45.1487917" lon="8.0338231"><ele>276.0</ele><time>2026-03-29T14:32:37.999Z</time></trkpt><trkpt lat="45.148833" lon="8.0339619"><ele>276.0</ele><time>2026-03-29T14:32:38.999Z</time></trkpt><trkpt lat="45.1488602" lon="8.0340971"><ele>276.0</ele><time>2026-03-29T14:32:39.999Z</time></trkpt><trkpt lat="45.1488993" lon="8.0342168"><ele>276.0</ele><time>2026-03-29T14:32:40.999Z</time></trkpt><trkpt lat="45.1489288" lon="8.034346"><ele>276.0</ele><time>2026-03-29T14:32:41.999Z</time></trkpt><trkpt lat="45.1489703" lon="8.0344394"><ele>276.0</ele><time>2026-03-29T14:32:42.999Z</time></trkpt><trkpt lat="45.1489907" lon="8.0345531"><ele>276.0</ele><time>2026-03-29T14:32:43.999Z</time></trkpt><trkpt lat="45.1489951" lon="8.0346539"><ele>274.75</ele><time>2026-03-29T14:32:44.999Z</time></trkpt><trkpt lat="45.1489385" lon="8.0347876"><ele>273.5</ele><time>2026-03-29T14:32:46.999Z</time></trkpt><trkpt lat="45.1488291" lon="8.0348405"><ele>272.25</ele><time>2026-03-29T14:32:47.999Z</time></trkpt><trkpt lat="45.1487431" lon="8.0349135"><ele>271.0</ele><time>2026-03-29T14:32:48.999Z</time></trkpt><trkpt lat="45.1485893" lon="8.0349557"><ele>271.6</ele><time>2026-03-29T14:32:49.999Z</time></trkpt><trkpt lat="45.1484814" lon="8.0350196"><ele>272.20000000000005</ele><time>2026-03-29T14:32:50.999Z</time></trkpt><trkpt lat="45.1483923" lon="8.0350937"><ele>272.79999999999995</ele><time>2026-03-29T14:32:51.999Z</time></trkpt><trkpt lat="45.1483128" lon="8.0351765"><ele>273.4</ele><time>2026-03-29T14:32:52.999Z</time></trkpt><trkpt lat="45.1482368" lon="8.0352584"><ele>274.0</ele><time>2026-03-29T14:32:53.999Z</time></trkpt><trkpt lat="45.1481686" lon="8.0353516"><ele>270.59999999999997</ele><time>2026-03-29T14:32:54.999Z</time></trkpt><trkpt lat="45.1481066" lon="8.0354507"><ele>267.2</ele><time>2026-03-29T14:32:55.999Z</time></trkpt><trkpt lat="45.1480846" lon="8.0355803"><ele>263.79999999999995</ele><time>2026-03-29T14:32:56.999Z</time></trkpt><trkpt lat="45.1480615" lon="8.0357187"><ele>260.4</ele><time>2026-03-29T14:32:57.999Z</time></trkpt><trkpt lat="45.1480778" lon="8.0358616"><ele>257.0</ele><time>2026-03-29T14:32:58.999Z</time></trkpt><trkpt lat="45.1481449" lon="8.0360381"><ele>257.0</ele><time>2026-03-29T14:32:59.999Z</time></trkpt><trkpt lat="45.1481915" lon="8.036189"><ele>257.0</ele><time>2026-03-29T14:33:00.999Z</time></trkpt><trkpt lat="45.148222" lon="8.0363544"><ele>257.0</ele><time>2026-03-29T14:33:01.999Z</time></trkpt><trkpt lat="45.1482274" lon="8.0365399"><ele>257.0</ele><time>2026-03-29T14:33:02.999Z</time></trkpt><trkpt lat="45.1482234" lon="8.0367448"><ele>259.75</ele><time>2026-03-29T14:33:03.999Z</time></trkpt><trkpt lat="45.1482172" lon="8.0369633"><ele>262.5</ele><time>2026-03-29T14:33:04.999Z</time></trkpt><trkpt lat="45.1482152" lon="8.0371756"><ele>265.25</ele><time>2026-03-29T14:33:05.999Z</time></trkpt><trkpt lat="45.1482133" lon="8.0373806"><ele>268.0</ele><time>2026-03-29T14:33:06.999Z</time></trkpt><trkpt lat="45.1482032" lon="8.0375774"><ele>259.75</ele><time>2026-03-29T14:33:07.999Z</time></trkpt><trkpt lat="45.1481734" lon="8.0377679"><ele>251.5</ele><time>2026-03-29T14:33:08.999Z</time></trkpt><trkpt lat="45.1481269" lon="8.0379466"><ele>243.25</ele><time>2026-03-29T14:33:09.999Z</time></trkpt><trkpt lat="45.1480699" lon="8.038106"><ele>235.0</ele><time>2026-03-29T14:33:10.999Z</time></trkpt><trkpt lat="45.1479868" lon="8.0382278"><ele>235.0</ele><time>2026-03-29T14:33:11.999Z</time></trkpt><trkpt lat="45.1479008" lon="8.0383211"><ele>235.0</ele><time>2026-03-29T14:33:12.999Z</time></trkpt><trkpt lat="45.1478196" lon="8.038397"><ele>235.0</ele><time>2026-03-29T14:33:13.999Z</time></trkpt><trkpt lat="45.1477244" lon="8.0384505"><ele>235.0</ele><time>2026-03-29T14:33:14.999Z</time></trkpt><trkpt lat="45.1476257" lon="8.0384937"><ele>235.0</ele><time>2026-03-29T14:33:15.999Z</time></trkpt><trkpt lat="45.1475199" lon="8.0385369"><ele>234.99999999999997</ele><time>2026-03-29T14:33:16.999Z</time></trkpt><trkpt lat="45.1474229" lon="8.0385848"><ele>235.0</ele><time>2026-03-29T14:33:17.999Z</time></trkpt><trkpt lat="45.1473447" lon="8.0386523"><ele>235.0</ele><time>2026-03-29T14:33:18.999Z</time></trkpt><trkpt lat="45.1472917" lon="8.0387411"><ele>235.0</ele><time>2026-03-29T14:33:19.999Z</time></trkpt><trkpt lat="45.1472563" lon="8.0388354"><ele>234.99999999999997</ele><time>2026-03-29T14:33:20.999Z</time></trkpt><trkpt lat="45.1472672" lon="8.0389463"><ele>235.0</ele><time>2026-03-29T14:33:21.999Z</time></trkpt><trkpt lat="45.1473025" lon="8.039063"><ele>234.0</ele><time>2026-03-29T14:33:22.999Z</time></trkpt><trkpt lat="45.1473843" lon="8.0391552"><ele>233.0</ele><time>2026-03-29T14:33:23.999Z</time></trkpt><trkpt lat="45.1474765" lon="8.039236"><ele>232.0</ele><time>2026-03-29T14:33:24.999Z</time></trkpt><trkpt lat="45.1475757" lon="8.0393096"><ele>231.0</ele><time>2026-03-29T14:33:25.999Z</time></trkpt><trkpt lat="45.1476578" lon="8.0394226"><ele>230.0</ele><time>2026-03-29T14:33:26.999Z</time></trkpt><trkpt lat="45.1477321" lon="8.0395662"><ele>230.0</ele><time>2026-03-29T14:33:27.999Z</time></trkpt><trkpt lat="45.1478124" lon="8.0397153"><ele>230.0</ele><time>2026-03-29T14:33:28.999Z</time></trkpt><trkpt lat="45.1479032" lon="8.0398687"><ele>230.0</ele><time>2026-03-29T14:33:29.999Z</time></trkpt><trkpt lat="45.1480011" lon="8.0400097"><ele>230.0</ele><time>2026-03-29T14:33:30.999Z</time></trkpt><trkpt lat="45.148106" lon="8.0401448"><ele>230.0</ele><time>2026-03-29T14:33:31.999Z</time></trkpt><trkpt lat="45.1482092" lon="8.040282"><ele>230.0</ele><time>2026-03-29T14:33:32.999Z</time></trkpt><trkpt lat="45.1483003" lon="8.0404103"><ele>230.0</ele><time>2026-03-29T14:33:33.999Z</time></trkpt><trkpt lat="45.1483852" lon="8.0405333"><ele>230.0</ele><time>2026-03-29T14:33:34.999Z</time></trkpt><trkpt lat="45.148448" lon="8.0406674"><ele>228.8</ele><time>2026-03-29T14:33:35.999Z</time></trkpt><trkpt lat="45.1484783" lon="8.0408044"><ele>227.6</ele><time>2026-03-29T14:33:36.999Z</time></trkpt><trkpt lat="45.1484339" lon="8.0409397"><ele>226.39999999999998</ele><time>2026-03-29T14:33:37.999Z</time></trkpt><trkpt lat="45.1484273" lon="8.041067"><ele>225.2</ele><time>2026-03-29T14:33:38.999Z</time></trkpt><trkpt lat="45.1484592" lon="8.041222"><ele>224.0</ele><time>2026-03-29T14:33:39.999Z</time></trkpt><trkpt lat="45.1484987" lon="8.0413736"><ele>224.0</ele><time>2026-03-29T14:33:40.999Z</time></trkpt><trkpt lat="45.148537" lon="8.0415329"><ele>223.99999999999997</ele><time>2026-03-29T14:33:41.999Z</time></trkpt><trkpt lat="45.1485747" lon="8.0416743"><ele>223.99999999999997</ele><time>2026-03-29T14:33:42.999Z</time></trkpt><trkpt lat="45.1486104" lon="8.0418206"><ele>224.0</ele><time>2026-03-29T14:33:43.999Z</time></trkpt><trkpt lat="45.1486279" lon="8.0419605"><ele>224.0</ele><time>2026-03-29T14:33:44.999Z</time></trkpt><trkpt lat="45.1486058" lon="8.0421163"><ele>222.0</ele><time>2026-03-29T14:33:45.999Z</time></trkpt><trkpt lat="45.1485794" lon="8.0422777"><ele>220.0</ele><time>2026-03-29T14:33:46.999Z</time></trkpt><trkpt lat="45.1485718" lon="8.0424428"><ele>218.0</ele><time>2026-03-29T14:33:47.999Z</time></trkpt><trkpt lat="45.1485975" lon="8.04261"><ele>216.0</ele><time>2026-03-29T14:33:48.999Z</time></trkpt><trkpt lat="45.1486535" lon="8.0427896"><ele>213.66666666666669</ele><time>2026-03-29T14:33:49.999Z</time></trkpt><trkpt lat="45.148746" lon="8.0429659"><ele>211.33333333333334</ele><time>2026-03-29T14:33:50.999Z</time></trkpt><trkpt lat="45.1488653" lon="8.0431437"><ele>209.0</ele><time>2026-03-29T14:33:51.999Z</time></trkpt><trkpt lat="45.1489876" lon="8.0433333"><ele>212.0</ele><time>2026-03-29T14:33:52.999Z</time></trkpt><trkpt lat="45.1491081" lon="8.0435272"><ele>215.0</ele><time>2026-03-29T14:33:53.999Z</time></trkpt><trkpt lat="45.149221" lon="8.0437307"><ele>218.0</ele><time>2026-03-29T14:33:54.999Z</time></trkpt><trkpt lat="45.149333" lon="8.0439288"><ele>214.0</ele><time>2026-03-29T14:33:55.999Z</time></trkpt><trkpt lat="45.1494416" lon="8.0441346"><ele>210.0</ele><time>2026-03-29T14:33:56.999Z</time></trkpt><trkpt lat="45.1495413" lon="8.0443411"><ele>206.0</ele><time>2026-03-29T14:33:57.999Z</time></trkpt><trkpt lat="45.1496389" lon="8.0445569"><ele>206.0</ele><time>2026-03-29T14:33:58.999Z</time></trkpt><trkpt lat="45.1497439" lon="8.0447613"><ele>206.0</ele><time>2026-03-29T14:33:59.999Z</time></trkpt><trkpt lat="45.1498448" lon="8.0449404"><ele>206.0</ele><time>2026-03-29T14:34:00.999Z</time></trkpt><trkpt lat="45.1499303" lon="8.045127"><ele>206.25</ele><time>2026-03-29T14:34:01.999Z</time></trkpt><trkpt lat="45.1499895" lon="8.0453203"><ele>206.5</ele><time>2026-03-29T14:34:02.999Z</time></trkpt><trkpt lat="45.1500141" lon="8.0455185"><ele>206.75</ele><time>2026-03-29T14:34:03.999Z</time></trkpt><trkpt lat="45.1500537" lon="8.0456956"><ele>207.0</ele><time>2026-03-29T14:34:04.999Z</time></trkpt><trkpt lat="45.1500904" lon="8.0458687"><ele>207.0</ele><time>2026-03-29T14:34:05.999Z</time></trkpt><trkpt lat="45.1501911" lon="8.045991"><ele>207.0</ele><time>2026-03-29T14:34:06.999Z</time></trkpt><trkpt lat="45.150296" lon="8.0460927"><ele>207.0</ele><time>2026-03-29T14:34:07.999Z</time></trkpt><trkpt lat="45.1504259" lon="8.0461667"><ele>207.0</ele><time>2026-03-29T14:34:08.999Z</time></trkpt><trkpt lat="45.1505497" lon="8.0462481"><ele>207.0</ele><time>2026-03-29T14:34:09.999Z</time></trkpt><trkpt lat="45.1506763" lon="8.0463521"><ele>207.0</ele><time>2026-03-29T14:34:10.999Z</time></trkpt><trkpt lat="45.1507897" lon="8.0464332"><ele>207.0</ele><time>2026-03-29T14:34:11.999Z</time></trkpt><trkpt lat="45.1508917" lon="8.0465038"><ele>207.0</ele><time>2026-03-29T14:34:12.999Z</time></trkpt><trkpt lat="45.1509831" lon="8.0465753"><ele>207.0</ele><time>2026-03-29T14:34:13.999Z</time></trkpt><trkpt lat="45.1510577" lon="8.0466744"><ele>207.0</ele><time>2026-03-29T14:34:14.999Z</time></trkpt><trkpt lat="45.1511249" lon="8.0467912"><ele>207.0</ele><time>2026-03-29T14:34:15.999Z</time></trkpt><trkpt lat="45.1511874" lon="8.0469272"><ele>207.0</ele><time>2026-03-29T14:34:16.999Z</time></trkpt><trkpt lat="45.151233" lon="8.047075"><ele>207.0</ele><time>2026-03-29T14:34:17.999Z</time></trkpt><trkpt lat="45.1512845" lon="8.0472235"><ele>207.0</ele><time>2026-03-29T14:34:18.999Z</time></trkpt><trkpt lat="45.1513363" lon="8.0473727"><ele>207.0</ele><time>2026-03-29T14:34:19.999Z</time></trkpt><trkpt lat="45.1513894" lon="8.0475313"><ele>207.0</ele><time>2026-03-29T14:34:20.999Z</time></trkpt><trkpt lat="45.151447" lon="8.0476764"><ele>207.0</ele><time>2026-03-29T14:34:21.999Z</time></trkpt><trkpt lat="45.1514983" lon="8.0478139"><ele>208.0</ele><time>2026-03-29T14:34:22.999Z</time></trkpt><trkpt lat="45.1515562" lon="8.0479632"><ele>209.0</ele><time>2026-03-29T14:34:23.999Z</time></trkpt><trkpt lat="45.1516289" lon="8.048113"><ele>210.0</ele><time>2026-03-29T14:34:24.999Z</time></trkpt><trkpt lat="45.1517237" lon="8.0482662"><ele>211.0</ele><time>2026-03-29T14:34:25.999Z</time></trkpt><trkpt lat="45.1518285" lon="8.0484319"><ele>207.66666666666666</ele><time>2026-03-29T14:34:26.999Z</time></trkpt><trkpt lat="45.1519329" lon="8.0486"><ele>204.33333333333331</ele><time>2026-03-29T14:34:27.999Z</time></trkpt><trkpt lat="45.1520412" lon="8.0487534"><ele>201.0</ele><time>2026-03-29T14:34:28.999Z</time></trkpt><trkpt lat="45.1521482" lon="8.0488896"><ele>201.0</ele><time>2026-03-29T14:34:29.999Z</time></trkpt><trkpt lat="45.1522599" lon="8.0489976"><ele>201.0</ele><time>2026-03-29T14:34:30.999Z</time></trkpt><trkpt lat="45.1523748" lon="8.0490877"><ele>201.0</ele><time>2026-03-29T14:34:31.999Z</time></trkpt><trkpt lat="45.1524856" lon="8.0491755"><ele>201.0</ele><time>2026-03-29T14:34:32.999Z</time></trkpt><trkpt lat="45.1525839" lon="8.0492742"><ele>199.16666666666666</ele><time>2026-03-29T14:34:33.999Z</time></trkpt><trkpt lat="45.1526633" lon="8.0493729"><ele>197.33333333333334</ele><time>2026-03-29T14:34:34.999Z</time></trkpt><trkpt lat="45.152741" lon="8.0494585"><ele>195.5</ele><time>2026-03-29T14:34:35.999Z</time></trkpt><trkpt lat="45.1528097" lon="8.0495337"><ele>193.66666666666669</ele><time>2026-03-29T14:34:36.999Z</time></trkpt><trkpt lat="45.152851" lon="8.0496229"><ele>191.83333333333334</ele><time>2026-03-29T14:34:37.999Z</time></trkpt><trkpt lat="45.1528637" lon="8.0497398"><ele>190.0</ele><time>2026-03-29T14:34:38.999Z</time></trkpt><trkpt lat="45.1528621" lon="8.0498736"><ele>188.33333333333334</ele><time>2026-03-29T14:34:39.999Z</time></trkpt><trkpt lat="45.1528547" lon="8.0500087"><ele>186.66666666666669</ele><time>2026-03-29T14:34:40.999Z</time></trkpt><trkpt lat="45.1528592" lon="8.0501296"><ele>185.0</ele><time>2026-03-29T14:34:41.999Z</time></trkpt><trkpt lat="45.1528746" lon="8.0502316"><ele>183.33333333333334</ele><time>2026-03-29T14:34:42.999Z</time></trkpt><trkpt lat="45.15291" lon="8.0503287"><ele>181.66666666666666</ele><time>2026-03-29T14:34:43.999Z</time></trkpt><trkpt lat="45.1529519" lon="8.0504212"><ele>180.0</ele><time>2026-03-29T14:34:44.999Z</time></trkpt><trkpt lat="45.1530048" lon="8.0505117"><ele>180.0</ele><time>2026-03-29T14:34:45.999Z</time></trkpt><trkpt lat="45.1530642" lon="8.0505965"><ele>180.0</ele><time>2026-03-29T14:34:46.999Z</time></trkpt><trkpt lat="45.1531232" lon="8.0506627"><ele>180.0</ele><time>2026-03-29T14:34:47.999Z</time></trkpt><trkpt lat="45.1531707" lon="8.0507221"><ele>180.0</ele><time>2026-03-29T14:34:48.999Z</time></trkpt><trkpt lat="45.1532249" lon="8.0507911"><ele>180.0</ele><time>2026-03-29T14:34:50.999Z</time></trkpt><trkpt lat="45.1532556" lon="8.0508926"><ele>180.0</ele><time>2026-03-29T14:35:35.999Z</time></trkpt><trkpt lat="45.1531722" lon="8.0509541"><ele>179.2</ele><time>2026-03-29T14:35:37.999Z</time></trkpt><trkpt lat="45.1530989" lon="8.0509978"><ele>178.4</ele><time>2026-03-29T14:35:38.999Z</time></trkpt><trkpt lat="45.1530228" lon="8.0510458"><ele>177.60000000000002</ele><time>2026-03-29T14:35:39.999Z</time></trkpt><trkpt lat="45.1529282" lon="8.0510941"><ele>176.8</ele><time>2026-03-29T14:35:40.999Z</time></trkpt><trkpt lat="45.1528409" lon="8.0511453"><ele>176.0</ele><time>2026-03-29T14:35:41.998Z</time></trkpt><trkpt lat="45.1527505" lon="8.051208"><ele>176.0</ele><time>2026-03-29T14:35:42.999Z</time></trkpt><trkpt lat="45.1526679" lon="8.0512712"><ele>176.0</ele><time>2026-03-29T14:35:43.999Z</time></trkpt><trkpt lat="45.1525875" lon="8.0513222"><ele>176.0</ele><time>2026-03-29T14:35:44.999Z</time></trkpt><trkpt lat="45.1525056" lon="8.0513788"><ele>176.0</ele><time>2026-03-29T14:35:45.999Z</time></trkpt><trkpt lat="45.1524401" lon="8.051445"><ele>176.0</ele><time>2026-03-29T14:35:46.999Z</time></trkpt><trkpt lat="45.1523735" lon="8.0514872"><ele>176.0</ele><time>2026-03-29T14:35:47.999Z</time></trkpt><trkpt lat="45.1522721" lon="8.051587"><ele>176.20000000000002</ele><time>2026-03-29T14:35:49.999Z</time></trkpt><trkpt lat="45.1522494" lon="8.0516739"><ele>176.4</ele><time>2026-03-29T14:35:50.999Z</time></trkpt><trkpt lat="45.1522547" lon="8.0517872"><ele>176.6</ele><time>2026-03-29T14:35:51.999Z</time></trkpt><trkpt lat="45.1522843" lon="8.0519129"><ele>176.8</ele><time>2026-03-29T14:35:52.999Z</time></trkpt><trkpt lat="45.1523276" lon="8.0520526"><ele>177.0</ele><time>2026-03-29T14:35:53.999Z</time></trkpt><trkpt lat="45.1523893" lon="8.052191"><ele>176.75</ele><time>2026-03-29T14:35:54.999Z</time></trkpt><trkpt lat="45.1524502" lon="8.0523445"><ele>176.5</ele><time>2026-03-29T14:35:55.999Z</time></trkpt><trkpt lat="45.1525133" lon="8.0525162"><ele>176.25</ele><time>2026-03-29T14:35:56.999Z</time></trkpt><trkpt lat="45.1525779" lon="8.0526948"><ele>176.0</ele><time>2026-03-29T14:35:57.999Z</time></trkpt><trkpt lat="45.1526399" lon="8.0528667"><ele>176.0</ele><time>2026-03-29T14:35:58.999Z</time></trkpt><trkpt lat="45.152696" lon="8.0530416"><ele>176.0</ele><time>2026-03-29T14:35:59.999Z</time></trkpt><trkpt lat="45.1527498" lon="8.0532141"><ele>176.0</ele><time>2026-03-29T14:36:00.999Z</time></trkpt><trkpt lat="45.1528043" lon="8.0533922"><ele>176.0</ele><time>2026-03-29T14:36:01.999Z</time></trkpt><trkpt lat="45.1528599" lon="8.0535725"><ele>175.5</ele><time>2026-03-29T14:36:02.999Z</time></trkpt><trkpt lat="45.1529201" lon="8.0537422"><ele>175.0</ele><time>2026-03-29T14:36:03.999Z</time></trkpt><trkpt lat="45.1529797" lon="8.0539139"><ele>174.5</ele><time>2026-03-29T14:36:04.999Z</time></trkpt><trkpt lat="45.153041" lon="8.0540833"><ele>174.0</ele><time>2026-03-29T14:36:05.999Z</time></trkpt><trkpt lat="45.1531016" lon="8.0542595"><ele>174.0</ele><time>2026-03-29T14:36:06.999Z</time></trkpt><trkpt lat="45.1531638" lon="8.0544347"><ele>174.0</ele><time>2026-03-29T14:36:07.999Z</time></trkpt><trkpt lat="45.1532161" lon="8.0546152"><ele>174.0</ele><time>2026-03-29T14:36:08.999Z</time></trkpt><trkpt lat="45.1532738" lon="8.0547846"><ele>174.0</ele><time>2026-03-29T14:36:09.999Z</time></trkpt><trkpt lat="45.1533332" lon="8.0549574"><ele>174.0</ele><time>2026-03-29T14:36:10.999Z</time></trkpt><trkpt lat="45.1533927" lon="8.0551273"><ele>174.0</ele><time>2026-03-29T14:36:11.999Z</time></trkpt><trkpt lat="45.1534518" lon="8.0552937"><ele>174.0</ele><time>2026-03-29T14:36:12.999Z</time></trkpt><trkpt lat="45.1535081" lon="8.0554704"><ele>174.0</ele><time>2026-03-29T14:36:13.999Z</time></trkpt><trkpt lat="45.1535656" lon="8.0556279"><ele>174.0</ele><time>2026-03-29T14:36:14.999Z</time></trkpt><trkpt lat="45.1536064" lon="8.0557736"><ele>174.0</ele><time>2026-03-29T14:36:15.999Z</time></trkpt><trkpt lat="45.1536449" lon="8.055923"><ele>174.0</ele><time>2026-03-29T14:36:16.999Z</time></trkpt><trkpt lat="45.1536996" lon="8.0560589"><ele>174.0</ele><time>2026-03-29T14:36:17.999Z</time></trkpt><trkpt lat="45.1537599" lon="8.0561781"><ele>174.0</ele><time>2026-03-29T14:36:18.999Z</time></trkpt><trkpt lat="45.1538693" lon="8.0562387"><ele>174.0</ele><time>2026-03-29T14:36:19.999Z</time></trkpt><trkpt lat="45.1539594" lon="8.0563014"><ele>174.0</ele><time>2026-03-29T14:36:20.999Z</time></trkpt><trkpt lat="45.1540616" lon="8.0563916"><ele>174.0</ele><time>2026-03-29T14:36:21.999Z</time></trkpt><trkpt lat="45.1541647" lon="8.0565006"><ele>174.0</ele><time>2026-03-29T14:36:22.999Z</time></trkpt><trkpt lat="45.1542651" lon="8.05663"><ele>173.5</ele><time>2026-03-29T14:36:23.999Z</time></trkpt><trkpt lat="45.1543701" lon="8.0567614"><ele>173.0</ele><time>2026-03-29T14:36:24.999Z</time></trkpt><trkpt lat="45.1544764" lon="8.0569088"><ele>172.5</ele><time>2026-03-29T14:36:25.999Z</time></trkpt><trkpt lat="45.1545863" lon="8.0570611"><ele>172.0</ele><time>2026-03-29T14:36:26.999Z</time></trkpt><trkpt lat="45.1546974" lon="8.0571944"><ele>172.0</ele><time>2026-03-29T14:36:27.999Z</time></trkpt><trkpt lat="45.1548096" lon="8.0573308"><ele>172.0</ele><time>2026-03-29T14:36:28.999Z</time></trkpt><trkpt lat="45.1549225" lon="8.057462"><ele>172.0</ele><time>2026-03-29T14:36:29.999Z</time></trkpt><trkpt lat="45.1550319" lon="8.0575951"><ele>172.0</ele><time>2026-03-29T14:36:30.999Z</time></trkpt><trkpt lat="45.1551373" lon="8.0577257"><ele>172.0</ele><time>2026-03-29T14:36:31.999Z</time></trkpt><trkpt lat="45.1552445" lon="8.05786"><ele>172.0</ele><time>2026-03-29T14:36:32.999Z</time></trkpt><trkpt lat="45.1553541" lon="8.0579904"><ele>172.0</ele><time>2026-03-29T14:36:33.999Z</time></trkpt><trkpt lat="45.1554636" lon="8.0581262"><ele>172.0</ele><time>2026-03-29T14:36:34.999Z</time></trkpt><trkpt lat="45.1555647" lon="8.0582681"><ele>171.75</ele><time>2026-03-29T14:36:35.999Z</time></trkpt><trkpt lat="45.1556637" lon="8.0584091"><ele>171.5</ele><time>2026-03-29T14:36:36.999Z</time></trkpt><trkpt lat="45.1557525" lon="8.0585568"><ele>171.25</ele><time>2026-03-29T14:36:37.999Z</time></trkpt><trkpt lat="45.1558388" lon="8.0587132"><ele>171.0</ele><time>2026-03-29T14:36:38.999Z</time></trkpt><trkpt lat="45.1559155" lon="8.0588762"><ele>171.0</ele><time>2026-03-29T14:36:39.999Z</time></trkpt><trkpt lat="45.155982" lon="8.0590444"><ele>171.0</ele><time>2026-03-29T14:36:40.999Z</time></trkpt><trkpt lat="45.1560351" lon="8.0592078"><ele>171.0</ele><time>2026-03-29T14:36:41.999Z</time></trkpt><trkpt lat="45.1560786" lon="8.0593705"><ele>171.0</ele><time>2026-03-29T14:36:42.999Z</time></trkpt><trkpt lat="45.1561148" lon="8.05953"><ele>171.0</ele><time>2026-03-29T14:36:43.999Z</time></trkpt><trkpt lat="45.1561422" lon="8.0596935"><ele>171.0</ele><time>2026-03-29T14:36:44.999Z</time></trkpt><trkpt lat="45.1561573" lon="8.0598646"><ele>171.0</ele><time>2026-03-29T14:36:45.999Z</time></trkpt><trkpt lat="45.1561681" lon="8.0600378"><ele>171.0</ele><time>2026-03-29T14:36:46.999Z</time></trkpt><trkpt lat="45.1561746" lon="8.0602133"><ele>171.0</ele><time>2026-03-29T14:36:47.999Z</time></trkpt><trkpt lat="45.1561717" lon="8.0604002"><ele>171.0</ele><time>2026-03-29T14:36:48.999Z</time></trkpt><trkpt lat="45.1561633" lon="8.060595"><ele>171.0</ele><time>2026-03-29T14:36:49.999Z</time></trkpt><trkpt lat="45.1561538" lon="8.0607898"><ele>171.0</ele><time>2026-03-29T14:36:50.999Z</time></trkpt><trkpt lat="45.1561427" lon="8.0609834"><ele>170.75</ele><time>2026-03-29T14:36:51.999Z</time></trkpt><trkpt lat="45.1561254" lon="8.0611823"><ele>170.5</ele><time>2026-03-29T14:36:52.999Z</time></trkpt><trkpt lat="45.1561068" lon="8.0613788"><ele>170.25</ele><time>2026-03-29T14:36:53.999Z</time></trkpt><trkpt lat="45.1560922" lon="8.0615788"><ele>170.0</ele><time>2026-03-29T14:36:54.999Z</time></trkpt><trkpt lat="45.1560759" lon="8.0617749"><ele>169.75</ele><time>2026-03-29T14:36:55.999Z</time></trkpt><trkpt lat="45.1560578" lon="8.0619745"><ele>169.5</ele><time>2026-03-29T14:36:56.999Z</time></trkpt><trkpt lat="45.1560461" lon="8.0621744"><ele>169.25</ele><time>2026-03-29T14:36:57.999Z</time></trkpt><trkpt lat="45.1560304" lon="8.0623768"><ele>169.0</ele><time>2026-03-29T14:36:58.999Z</time></trkpt><trkpt lat="45.156004" lon="8.0625746"><ele>169.25</ele><time>2026-03-29T14:36:59.999Z</time></trkpt><trkpt lat="45.1559721" lon="8.0627744"><ele>169.5</ele><time>2026-03-29T14:37:00.999Z</time></trkpt><trkpt lat="45.1559409" lon="8.0629639"><ele>169.75</ele><time>2026-03-29T14:37:01.999Z</time></trkpt><trkpt lat="45.1559105" lon="8.0631508"><ele>170.0</ele><time>2026-03-29T14:37:02.999Z</time></trkpt><trkpt lat="45.1558813" lon="8.063323"><ele>170.0</ele><time>2026-03-29T14:37:03.999Z</time></trkpt><trkpt lat="45.155858" lon="8.0634844"><ele>170.0</ele><time>2026-03-29T14:37:04.999Z</time></trkpt><trkpt lat="45.1558351" lon="8.0636379"><ele>170.0</ele><time>2026-03-29T14:37:05.999Z</time></trkpt><trkpt lat="45.1558132" lon="8.0637761"><ele>170.0</ele><time>2026-03-29T14:37:06.999Z</time></trkpt><trkpt lat="45.1557943" lon="8.0639215"><ele>170.0</ele><time>2026-03-29T14:37:07.999Z</time></trkpt><trkpt lat="45.1557786" lon="8.0640591"><ele>170.0</ele><time>2026-03-29T14:37:08.999Z</time></trkpt><trkpt lat="45.1557612" lon="8.0642055"><ele>170.0</ele><time>2026-03-29T14:37:09.999Z</time></trkpt><trkpt lat="45.1557457" lon="8.064349"><ele>170.0</ele><time>2026-03-29T14:37:10.999Z</time></trkpt><trkpt lat="45.1557262" lon="8.0644868"><ele>170.0</ele><time>2026-03-29T14:37:11.999Z</time></trkpt><trkpt lat="45.1557113" lon="8.0646236"><ele>170.0</ele><time>2026-03-29T14:37:12.999Z</time></trkpt><trkpt lat="45.1556935" lon="8.0647602"><ele>170.83333333333331</ele><time>2026-03-29T14:37:13.999Z</time></trkpt><trkpt lat="45.1556778" lon="8.064894"><ele>171.66666666666666</ele><time>2026-03-29T14:37:14.999Z</time></trkpt><trkpt lat="45.1556644" lon="8.065026"><ele>172.5</ele><time>2026-03-29T14:37:15.999Z</time></trkpt><trkpt lat="45.15565" lon="8.0651438"><ele>173.33333333333334</ele><time>2026-03-29T14:37:16.999Z</time></trkpt><trkpt lat="45.1556312" lon="8.0652635"><ele>174.16666666666669</ele><time>2026-03-29T14:37:17.999Z</time></trkpt><trkpt lat="45.155625" lon="8.0653763"><ele>175.0</ele><time>2026-03-29T14:37:18.999Z</time></trkpt><trkpt lat="45.1556113" lon="8.0654801"><ele>175.0</ele><time>2026-03-29T14:37:19.999Z</time></trkpt><trkpt lat="45.1555919" lon="8.0655676"><ele>175.0</ele><time>2026-03-29T14:37:20.999Z</time></trkpt><trkpt lat="45.155553" lon="8.0656378"><ele>175.0</ele><time>2026-03-29T14:37:21.999Z</time></trkpt><trkpt lat="45.1555053" lon="8.0657076"><ele>175.0</ele><time>2026-03-29T14:37:22.999Z</time></trkpt><trkpt lat="45.1554473" lon="8.0657607"><ele>175.0</ele><time>2026-03-29T14:37:23.999Z</time></trkpt><trkpt lat="45.1553984" lon="8.0658316"><ele>175.0</ele><time>2026-03-29T14:37:24.999Z</time></trkpt><trkpt lat="45.1553632" lon="8.0659083"><ele>175.0</ele><time>2026-03-29T14:37:25.999Z</time></trkpt><trkpt lat="45.1553764" lon="8.0660754"><ele>175.0</ele><time>2026-03-29T14:37:27.999Z</time></trkpt><trkpt lat="45.155417" lon="8.0661448"><ele>175.0</ele><time>2026-03-29T14:37:28.999Z</time></trkpt><trkpt lat="45.1555304" lon="8.0662267"><ele>175.0</ele><time>2026-03-29T14:37:30.999Z</time></trkpt><trkpt lat="45.1555965" lon="8.0662762"><ele>175.0</ele><time>2026-03-29T14:37:31.999Z</time></trkpt><trkpt lat="45.1556569" lon="8.066347"><ele>175.0</ele><time>2026-03-29T14:37:32.999Z</time></trkpt><trkpt lat="45.155713" lon="8.0664395"><ele>175.0</ele><time>2026-03-29T14:37:33.999Z</time></trkpt><trkpt lat="45.1557625" lon="8.0665688"><ele>173.75</ele><time>2026-03-29T14:37:34.999Z</time></trkpt><trkpt lat="45.1558198" lon="8.0667283"><ele>172.5</ele><time>2026-03-29T14:37:35.999Z</time></trkpt><trkpt lat="45.1558791" lon="8.066921"><ele>171.25</ele><time>2026-03-29T14:37:36.999Z</time></trkpt><trkpt lat="45.1559312" lon="8.0671262"><ele>170.0</ele><time>2026-03-29T14:37:37.999Z</time></trkpt><trkpt lat="45.1559887" lon="8.0673623"><ele>170.66666666666666</ele><time>2026-03-29T14:37:38.999Z</time></trkpt><trkpt lat="45.156048" lon="8.0676007"><ele>171.33333333333334</ele><time>2026-03-29T14:37:39.999Z</time></trkpt><trkpt lat="45.1561183" lon="8.0678539"><ele>172.0</ele><time>2026-03-29T14:37:40.999Z</time></trkpt><trkpt lat="45.1562" lon="8.0681139"><ele>172.66666666666669</ele><time>2026-03-29T14:37:41.999Z</time></trkpt><trkpt lat="45.1562848" lon="8.0683937"><ele>173.33333333333334</ele><time>2026-03-29T14:37:42.999Z</time></trkpt><trkpt lat="45.1563607" lon="8.0686951"><ele>174.0</ele><time>2026-03-29T14:37:43.999Z</time></trkpt><trkpt lat="45.1564315" lon="8.0690222"><ele>173.5</ele><time>2026-03-29T14:37:44.999Z</time></trkpt><trkpt lat="45.1565122" lon="8.0693465"><ele>173.0</ele><time>2026-03-29T14:37:45.999Z</time></trkpt><trkpt lat="45.1566025" lon="8.0696641"><ele>172.5</ele><time>2026-03-29T14:37:46.999Z</time></trkpt><trkpt lat="45.1566884" lon="8.0699762"><ele>172.0</ele><time>2026-03-29T14:37:47.999Z</time></trkpt><trkpt lat="45.1567715" lon="8.0702773"><ele>172.0</ele><time>2026-03-29T14:37:48.999Z</time></trkpt><trkpt lat="45.156852" lon="8.070573"><ele>172.0</ele><time>2026-03-29T14:37:49.999Z</time></trkpt><trkpt lat="45.1569288" lon="8.0708525"><ele>172.0</ele><time>2026-03-29T14:37:50.999Z</time></trkpt><trkpt lat="45.1570016" lon="8.0711308"><ele>172.0</ele><time>2026-03-29T14:37:51.999Z</time></trkpt><trkpt lat="45.1570722" lon="8.0713993"><ele>172.0</ele><time>2026-03-29T14:37:52.999Z</time></trkpt><trkpt lat="45.1571408" lon="8.071653"><ele>172.0</ele><time>2026-03-29T14:37:53.999Z</time></trkpt><trkpt lat="45.157212" lon="8.0719038"><ele>172.0</ele><time>2026-03-29T14:37:54.999Z</time></trkpt><trkpt lat="45.1572827" lon="8.0721446"><ele>172.0</ele><time>2026-03-29T14:37:55.999Z</time></trkpt><trkpt lat="45.1573489" lon="8.0723792"><ele>172.0</ele><time>2026-03-29T14:37:56.999Z</time></trkpt><trkpt lat="45.1574127" lon="8.0726058"><ele>172.0</ele><time>2026-03-29T14:37:57.999Z</time></trkpt><trkpt lat="45.1574745" lon="8.0728265"><ele>172.0</ele><time>2026-03-29T14:37:58.999Z</time></trkpt><trkpt lat="45.1575287" lon="8.0730397"><ele>172.0</ele><time>2026-03-29T14:37:59.999Z</time></trkpt><trkpt lat="45.1575819" lon="8.0732432"><ele>171.75</ele><time>2026-03-29T14:38:00.999Z</time></trkpt><trkpt lat="45.1576369" lon="8.073423"><ele>171.5</ele><time>2026-03-29T14:38:01.999Z</time></trkpt><trkpt lat="45.1576886" lon="8.0735892"><ele>171.25</ele><time>2026-03-29T14:38:02.999Z</time></trkpt><trkpt lat="45.1577255" lon="8.0737402"><ele>171.0</ele><time>2026-03-29T14:38:03.999Z</time></trkpt><trkpt lat="45.1577313" lon="8.0738906"><ele>171.0</ele><time>2026-03-29T14:38:04.999Z</time></trkpt><trkpt lat="45.157715" lon="8.0740448"><ele>171.0</ele><time>2026-03-29T14:38:05.999Z</time></trkpt><trkpt lat="45.1576927" lon="8.0742039"><ele>171.0</ele><time>2026-03-29T14:38:06.999Z</time></trkpt><trkpt lat="45.1576645" lon="8.0743774"><ele>171.0</ele><time>2026-03-29T14:38:07.999Z</time></trkpt><trkpt lat="45.1576384" lon="8.0745656"><ele>171.0</ele><time>2026-03-29T14:38:08.999Z</time></trkpt><trkpt lat="45.1576063" lon="8.0747661"><ele>171.0</ele><time>2026-03-29T14:38:09.999Z</time></trkpt><trkpt lat="45.1575516" lon="8.0749597"><ele>171.0</ele><time>2026-03-29T14:38:10.999Z</time></trkpt><trkpt lat="45.157469" lon="8.0751688"><ele>172.33333333333334</ele><time>2026-03-29T14:38:11.999Z</time></trkpt><trkpt lat="45.1573929" lon="8.0753835"><ele>173.66666666666669</ele><time>2026-03-29T14:38:12.999Z</time></trkpt><trkpt lat="45.1573149" lon="8.0756179"><ele>175.0</ele><time>2026-03-29T14:38:13.999Z</time></trkpt><trkpt lat="45.1572335" lon="8.0758592"><ele>176.66666666666669</ele><time>2026-03-29T14:38:14.999Z</time></trkpt><trkpt lat="45.1571511" lon="8.0761042"><ele>178.33333333333334</ele><time>2026-03-29T14:38:15.999Z</time></trkpt><trkpt lat="45.1570628" lon="8.0763353"><ele>180.0</ele><time>2026-03-29T14:38:16.999Z</time></trkpt><trkpt lat="45.1569607" lon="8.0765497"><ele>182.0</ele><time>2026-03-29T14:38:17.999Z</time></trkpt><trkpt lat="45.1568407" lon="8.0767337"><ele>184.0</ele><time>2026-03-29T14:38:18.999Z</time></trkpt><trkpt lat="45.1567148" lon="8.0768744"><ele>186.0</ele><time>2026-03-29T14:38:19.999Z</time></trkpt><trkpt lat="45.1565957" lon="8.0769926"><ele>186.25</ele><time>2026-03-29T14:38:20.999Z</time></trkpt><trkpt lat="45.1564851" lon="8.0771169"><ele>186.5</ele><time>2026-03-29T14:38:21.999Z</time></trkpt><trkpt lat="45.1564038" lon="8.0772494"><ele>186.75</ele><time>2026-03-29T14:38:22.999Z</time></trkpt><trkpt lat="45.1563464" lon="8.0774071"><ele>187.0</ele><time>2026-03-29T14:38:24Z</time></trkpt><trkpt lat="45.1563322" lon="8.0775916"><ele>187.0</ele><time>2026-03-29T14:38:24.999Z</time></trkpt><trkpt lat="45.1563518" lon="8.0777872"><ele>187.0</ele><time>2026-03-29T14:38:25.999Z</time></trkpt><trkpt lat="45.1563813" lon="8.0779981"><ele>187.0</ele><time>2026-03-29T14:38:26.999Z</time></trkpt><trkpt lat="45.156395" lon="8.0782213"><ele>187.0</ele><time>2026-03-29T14:38:27.999Z</time></trkpt><trkpt lat="45.1563854" lon="8.0784545"><ele>189.0</ele><time>2026-03-29T14:38:28.999Z</time></trkpt><trkpt lat="45.1563449" lon="8.0786918"><ele>191.0</ele><time>2026-03-29T14:38:29.999Z</time></trkpt><trkpt lat="45.1562665" lon="8.0789188"><ele>193.0</ele><time>2026-03-29T14:38:30.999Z</time></trkpt><trkpt lat="45.1561555" lon="8.0791214"><ele>194.66666666666666</ele><time>2026-03-29T14:38:31.999Z</time></trkpt><trkpt lat="45.1560238" lon="8.0793129"><ele>196.33333333333331</ele><time>2026-03-29T14:38:32.999Z</time></trkpt><trkpt lat="45.1558959" lon="8.0795094"><ele>198.0</ele><time>2026-03-29T14:38:33.999Z</time></trkpt><trkpt lat="45.1557838" lon="8.0797242"><ele>198.0</ele><time>2026-03-29T14:38:34.999Z</time></trkpt><trkpt lat="45.1556807" lon="8.079945"><ele>198.0</ele><time>2026-03-29T14:38:35.999Z</time></trkpt><trkpt lat="45.1555971" lon="8.0801671"><ele>198.0</ele><time>2026-03-29T14:38:36.999Z</time></trkpt><trkpt lat="45.155525" lon="8.080388"><ele>198.0</ele><time>2026-03-29T14:38:37.999Z</time></trkpt><trkpt lat="45.155453" lon="8.0805939"><ele>198.0</ele><time>2026-03-29T14:38:38.999Z</time></trkpt><trkpt lat="45.1553876" lon="8.0807794"><ele>198.0</ele><time>2026-03-29T14:38:39.999Z</time></trkpt><trkpt lat="45.1553283" lon="8.08094"><ele>198.0</ele><time>2026-03-29T14:38:40.999Z</time></trkpt><trkpt lat="45.1552798" lon="8.0810705"><ele>199.60000000000002</ele><time>2026-03-29T14:38:41.999Z</time></trkpt><trkpt lat="45.1552825" lon="8.0811794"><ele>201.20000000000002</ele><time>2026-03-29T14:38:42.999Z</time></trkpt><trkpt lat="45.1552848" lon="8.0812914"><ele>202.8</ele><time>2026-03-29T14:38:43.999Z</time></trkpt><trkpt lat="45.1553282" lon="8.0813764"><ele>204.4</ele><time>2026-03-29T14:38:44.999Z</time></trkpt><trkpt lat="45.1554518" lon="8.0813006"><ele>206.0</ele><time>2026-03-29T14:38:45.999Z</time></trkpt><trkpt lat="45.1555203" lon="8.081209"><ele>206.0</ele><time>2026-03-29T14:38:46.999Z</time></trkpt><trkpt lat="45.1556012" lon="8.0810812"><ele>206.0</ele><time>2026-03-29T14:38:47.999Z</time></trkpt><trkpt lat="45.1556979" lon="8.0809373"><ele>206.0</ele><time>2026-03-29T14:38:48.999Z</time></trkpt><trkpt lat="45.1557966" lon="8.0807914"><ele>206.0</ele><time>2026-03-29T14:38:49.999Z</time></trkpt><trkpt lat="45.155896" lon="8.0806464"><ele>206.60000000000002</ele><time>2026-03-29T14:38:50.999Z</time></trkpt><trkpt lat="45.1559883" lon="8.0805227"><ele>207.2</ele><time>2026-03-29T14:38:51.999Z</time></trkpt><trkpt lat="45.1560819" lon="8.0804325"><ele>207.8</ele><time>2026-03-29T14:38:52.999Z</time></trkpt><trkpt lat="45.1561696" lon="8.0803979"><ele>208.39999999999998</ele><time>2026-03-29T14:38:53.999Z</time></trkpt><trkpt lat="45.1562337" lon="8.0804184"><ele>209.0</ele><time>2026-03-29T14:38:54.999Z</time></trkpt><trkpt lat="45.1562515" lon="8.08061"><ele>209.0</ele><time>2026-03-29T14:38:56.999Z</time></trkpt><trkpt lat="45.1562224" lon="8.0807339"><ele>209.0</ele><time>2026-03-29T14:38:57.999Z</time></trkpt><trkpt lat="45.1561938" lon="8.0808805"><ele>209.0</ele><time>2026-03-29T14:38:58.999Z</time></trkpt><trkpt lat="45.1561624" lon="8.0810488"><ele>209.0</ele><time>2026-03-29T14:38:59.999Z</time></trkpt><trkpt lat="45.1561277" lon="8.0812367"><ele>211.75</ele><time>2026-03-29T14:39:00.999Z</time></trkpt><trkpt lat="45.1560882" lon="8.0814326"><ele>214.5</ele><time>2026-03-29T14:39:01.999Z</time></trkpt><trkpt lat="45.1560482" lon="8.0816264"><ele>217.25</ele><time>2026-03-29T14:39:02.999Z</time></trkpt><trkpt lat="45.1560095" lon="8.0818158"><ele>220.0</ele><time>2026-03-29T14:39:03.999Z</time></trkpt><trkpt lat="45.1559765" lon="8.0819914"><ele>221.75</ele><time>2026-03-29T14:39:04.999Z</time></trkpt><trkpt lat="45.1559505" lon="8.0821553"><ele>223.5</ele><time>2026-03-29T14:39:05.999Z</time></trkpt><trkpt lat="45.1559251" lon="8.0822993"><ele>225.25</ele><time>2026-03-29T14:39:06.999Z</time></trkpt><trkpt lat="45.1558763" lon="8.0824327"><ele>227.0</ele><time>2026-03-29T14:39:07.999Z</time></trkpt><trkpt lat="45.1558108" lon="8.0825989"><ele>226.75</ele><time>2026-03-29T14:39:08.999Z</time></trkpt><trkpt lat="45.1557086" lon="8.0827443"><ele>226.5</ele><time>2026-03-29T14:39:09.999Z</time></trkpt><trkpt lat="45.1556427" lon="8.0829044"><ele>226.25</ele><time>2026-03-29T14:39:10.999Z</time></trkpt><trkpt lat="45.155577" lon="8.083037"><ele>226.0</ele><time>2026-03-29T14:39:11.999Z</time></trkpt><trkpt lat="45.1555259" lon="8.0831647"><ele>229.0</ele><time>2026-03-29T14:39:12.999Z</time></trkpt><trkpt lat="45.1554764" lon="8.0832843"><ele>232.00000000000003</ele><time>2026-03-29T14:39:13.999Z</time></trkpt><trkpt lat="45.1554673" lon="8.0834161"><ele>235.00000000000003</ele><time>2026-03-29T14:39:14.999Z</time></trkpt><trkpt lat="45.1555004" lon="8.0835499"><ele>238.0</ele><time>2026-03-29T14:39:15.999Z</time></trkpt><trkpt lat="45.155566" lon="8.0836869"><ele>241.0</ele><time>2026-03-29T14:39:16.999Z</time></trkpt><trkpt lat="45.1556331" lon="8.0838034"><ele>241.0</ele><time>2026-03-29T14:39:17.999Z</time></trkpt><trkpt lat="45.1556841" lon="8.083904"><ele>241.00000000000003</ele><time>2026-03-29T14:39:18.999Z</time></trkpt><trkpt lat="45.1557281" lon="8.0840033"><ele>241.00000000000003</ele><time>2026-03-29T14:39:19.999Z</time></trkpt><trkpt lat="45.155761" lon="8.0841185"><ele>241.0</ele><time>2026-03-29T14:39:20.999Z</time></trkpt><trkpt lat="45.1557878" lon="8.0842411"><ele>241.0</ele><time>2026-03-29T14:39:21.999Z</time></trkpt><trkpt lat="45.1557561" lon="8.0844071"><ele>241.5</ele><time>2026-03-29T14:39:22.999Z</time></trkpt><trkpt lat="45.1557094" lon="8.0845733"><ele>242.0</ele><time>2026-03-29T14:39:23.999Z</time></trkpt><trkpt lat="45.1556462" lon="8.084756"><ele>242.5</ele><time>2026-03-29T14:39:24.999Z</time></trkpt><trkpt lat="45.1555844" lon="8.0849316"><ele>243.0</ele><time>2026-03-29T14:39:25.999Z</time></trkpt><trkpt lat="45.1555239" lon="8.0851174"><ele>245.5</ele><time>2026-03-29T14:39:26.999Z</time></trkpt><trkpt lat="45.1554621" lon="8.0853154"><ele>248.0</ele><time>2026-03-29T14:39:27.999Z</time></trkpt><trkpt lat="45.1554021" lon="8.0854997"><ele>250.5</ele><time>2026-03-29T14:39:28.999Z</time></trkpt><trkpt lat="45.1553417" lon="8.085688"><ele>253.0</ele><time>2026-03-29T14:39:29.999Z</time></trkpt><trkpt lat="45.1552887" lon="8.085881"><ele>255.0</ele><time>2026-03-29T14:39:30.999Z</time></trkpt><trkpt lat="45.1552588" lon="8.0860907"><ele>257.0</ele><time>2026-03-29T14:39:31.999Z</time></trkpt><trkpt lat="45.1552536" lon="8.0863123"><ele>259.0</ele><time>2026-03-29T14:39:32.999Z</time></trkpt><trkpt lat="45.1552645" lon="8.0865342"><ele>258.75</ele><time>2026-03-29T14:39:33.999Z</time></trkpt><trkpt lat="45.155271" lon="8.0867394"><ele>258.5</ele><time>2026-03-29T14:39:34.999Z</time></trkpt><trkpt lat="45.1552667" lon="8.086928"><ele>258.25</ele><time>2026-03-29T14:39:35.999Z</time></trkpt><trkpt lat="45.1552415" lon="8.087107"><ele>258.0</ele><time>2026-03-29T14:39:36.999Z</time></trkpt><trkpt lat="45.1551977" lon="8.0872775"><ele>258.75</ele><time>2026-03-29T14:39:37.999Z</time></trkpt><trkpt lat="45.1551318" lon="8.087431"><ele>259.5</ele><time>2026-03-29T14:39:38.999Z</time></trkpt><trkpt lat="45.1550431" lon="8.0875556"><ele>260.25</ele><time>2026-03-29T14:39:39.999Z</time></trkpt><trkpt lat="45.1549459" lon="8.0876761"><ele>261.0</ele><time>2026-03-29T14:39:40.999Z</time></trkpt><trkpt lat="45.1548565" lon="8.0878031"><ele>261.0</ele><time>2026-03-29T14:39:41.999Z</time></trkpt><trkpt lat="45.1547962" lon="8.0879428"><ele>261.0</ele><time>2026-03-29T14:39:42.999Z</time></trkpt><trkpt lat="45.1547787" lon="8.088114"><ele>261.0</ele><time>2026-03-29T14:39:43.999Z</time></trkpt><trkpt lat="45.1548079" lon="8.0882924"><ele>261.0</ele><time>2026-03-29T14:39:44.999Z</time></trkpt><trkpt lat="45.1548808" lon="8.0884759"><ele>261.0</ele><time>2026-03-29T14:39:45.999Z</time></trkpt><trkpt lat="45.1549634" lon="8.0886602"><ele>261.0</ele><time>2026-03-29T14:39:46.999Z</time></trkpt><trkpt lat="45.1550538" lon="8.0888593"><ele>261.0</ele><time>2026-03-29T14:39:47.999Z</time></trkpt><trkpt lat="45.1551538" lon="8.0890632"><ele>263.6666666666667</ele><time>2026-03-29T14:39:48.999Z</time></trkpt><trkpt lat="45.1552505" lon="8.0892663"><ele>266.33333333333337</ele><time>2026-03-29T14:39:49.999Z</time></trkpt><trkpt lat="45.1553465" lon="8.0894717"><ele>269.0</ele><time>2026-03-29T14:39:50.999Z</time></trkpt><trkpt lat="45.1554468" lon="8.0896653"><ele>269.0</ele><time>2026-03-29T14:39:51.999Z</time></trkpt><trkpt lat="45.1555633" lon="8.0898364"><ele>269.0</ele><time>2026-03-29T14:39:52.999Z</time></trkpt><trkpt lat="45.1556968" lon="8.0899848"><ele>269.0</ele><time>2026-03-29T14:39:53.999Z</time></trkpt><trkpt lat="45.1558262" lon="8.0901485"><ele>269.6666666666667</ele><time>2026-03-29T14:39:54.999Z</time></trkpt><trkpt lat="45.1559492" lon="8.0903383"><ele>270.3333333333333</ele><time>2026-03-29T14:39:55.999Z</time></trkpt><trkpt lat="45.156063" lon="8.090543"><ele>271.0</ele><time>2026-03-29T14:39:56.999Z</time></trkpt><trkpt lat="45.1561797" lon="8.0907571"><ele>274.0</ele><time>2026-03-29T14:39:57.999Z</time></trkpt><trkpt lat="45.1563026" lon="8.090971"><ele>277.0</ele><time>2026-03-29T14:39:58.999Z</time></trkpt><trkpt lat="45.1564178" lon="8.0911798"><ele>280.0</ele><time>2026-03-29T14:39:59.999Z</time></trkpt><trkpt lat="45.1565219" lon="8.0913649"><ele>279.3333333333333</ele><time>2026-03-29T14:40:00.999Z</time></trkpt><trkpt lat="45.1566095" lon="8.0915489"><ele>278.6666666666667</ele><time>2026-03-29T14:40:01.999Z</time></trkpt><trkpt lat="45.1566833" lon="8.0917425"><ele>278.0</ele><time>2026-03-29T14:40:02.999Z</time></trkpt><trkpt lat="45.1567436" lon="8.0919385"><ele>278.0</ele><time>2026-03-29T14:40:03.999Z</time></trkpt><trkpt lat="45.1568035" lon="8.0921164"><ele>278.0</ele><time>2026-03-29T14:40:04.999Z</time></trkpt><trkpt lat="45.1568753" lon="8.0922915"><ele>278.0</ele><time>2026-03-29T14:40:05.999Z</time></trkpt><trkpt lat="45.1569584" lon="8.0924614"><ele>278.0</ele><time>2026-03-29T14:40:06.999Z</time></trkpt><trkpt lat="45.1570387" lon="8.0926114"><ele>280.0</ele><time>2026-03-29T14:40:07.999Z</time></trkpt><trkpt lat="45.1571073" lon="8.0927488"><ele>282.0</ele><time>2026-03-29T14:40:08.999Z</time></trkpt><trkpt lat="45.1571731" lon="8.0928766"><ele>284.0</ele><time>2026-03-29T14:40:10Z</time></trkpt><trkpt lat="45.1572403" lon="8.092995"><ele>286.0</ele><time>2026-03-29T14:40:10.999Z</time></trkpt><trkpt lat="45.1572229" lon="8.0931251"><ele>288.0</ele><time>2026-03-29T14:40:11.999Z</time></trkpt><trkpt lat="45.1572401" lon="8.0932331"><ele>288.2</ele><time>2026-03-29T14:40:12.999Z</time></trkpt><trkpt lat="45.1572525" lon="8.093329"><ele>288.4</ele><time>2026-03-29T14:40:13.999Z</time></trkpt><trkpt lat="45.1571638" lon="8.0933268"><ele>288.59999999999997</ele><time>2026-03-29T14:40:14.999Z</time></trkpt><trkpt lat="45.1570499" lon="8.0933822"><ele>288.8</ele><time>2026-03-29T14:40:16.999Z</time></trkpt><trkpt lat="45.1569585" lon="8.0934103"><ele>289.0</ele><time>2026-03-29T14:40:17.999Z</time></trkpt><trkpt lat="45.1568447" lon="8.0934358"><ele>289.0</ele><time>2026-03-29T14:40:18.999Z</time></trkpt><trkpt lat="45.1567246" lon="8.0934357"><ele>289.0</ele><time>2026-03-29T14:40:19.999Z</time></trkpt><trkpt lat="45.1566142" lon="8.0934411"><ele>289.0</ele><time>2026-03-29T14:40:21Z</time></trkpt><trkpt lat="45.156509" lon="8.093456"><ele>289.0</ele><time>2026-03-29T14:40:21.999Z</time></trkpt><trkpt lat="45.1563953" lon="8.0934692"><ele>290.0</ele><time>2026-03-29T14:40:22.999Z</time></trkpt><trkpt lat="45.1562701" lon="8.0934969"><ele>291.0</ele><time>2026-03-29T14:40:24Z</time></trkpt><trkpt lat="45.1561422" lon="8.0935216"><ele>292.0</ele><time>2026-03-29T14:40:24.999Z</time></trkpt><trkpt lat="45.1560144" lon="8.0935503"><ele>293.0</ele><time>2026-03-29T14:40:25.999Z</time></trkpt><trkpt lat="45.1558859" lon="8.0935747"><ele>293.0</ele><time>2026-03-29T14:40:26.999Z</time></trkpt><trkpt lat="45.155749" lon="8.0935917"><ele>293.0</ele><time>2026-03-29T14:40:27.999Z</time></trkpt><trkpt lat="45.1556116" lon="8.0936047"><ele>293.0</ele><time>2026-03-29T14:40:28.999Z</time></trkpt><trkpt lat="45.1554766" lon="8.0936155"><ele>293.0</ele><time>2026-03-29T14:40:29.999Z</time></trkpt><trkpt lat="45.1553446" lon="8.0936475"><ele>293.0</ele><time>2026-03-29T14:40:30.999Z</time></trkpt><trkpt lat="45.1552413" lon="8.0936772"><ele>293.0</ele><time>2026-03-29T14:40:31.999Z</time></trkpt><trkpt lat="45.1551644" lon="8.0937165"><ele>293.0</ele><time>2026-03-29T14:40:32.999Z</time></trkpt><trkpt lat="45.1551055" lon="8.0937987"><ele>293.0</ele><time>2026-03-29T14:40:33.999Z</time></trkpt><trkpt lat="45.1550587" lon="8.0939282"><ele>293.0</ele><time>2026-03-29T14:40:34.999Z</time></trkpt><trkpt lat="45.1550175" lon="8.0940944"><ele>293.0</ele><time>2026-03-29T14:40:35.999Z</time></trkpt><trkpt lat="45.1549711" lon="8.0942755"><ele>293.0</ele><time>2026-03-29T14:40:36.999Z</time></trkpt><trkpt lat="45.1549227" lon="8.0944662"><ele>293.0</ele><time>2026-03-29T14:40:37.999Z</time></trkpt><trkpt lat="45.1548773" lon="8.0946737"><ele>293.0</ele><time>2026-03-29T14:40:38.999Z</time></trkpt><trkpt lat="45.1548254" lon="8.0948949"><ele>293.0</ele><time>2026-03-29T14:40:39.999Z</time></trkpt><trkpt lat="45.1547637" lon="8.0951067"><ele>293.0</ele><time>2026-03-29T14:40:40.999Z</time></trkpt><trkpt lat="45.1546966" lon="8.0953133"><ele>293.0</ele><time>2026-03-29T14:40:41.999Z</time></trkpt><trkpt lat="45.1546305" lon="8.0955273"><ele>293.0</ele><time>2026-03-29T14:40:42.999Z</time></trkpt><trkpt lat="45.1545728" lon="8.0957439"><ele>293.0</ele><time>2026-03-29T14:40:43.999Z</time></trkpt><trkpt lat="45.1545321" lon="8.0959757"><ele>293.0</ele><time>2026-03-29T14:40:44.999Z</time></trkpt><trkpt lat="45.1545085" lon="8.096217"><ele>291.0</ele><time>2026-03-29T14:40:46Z</time></trkpt><trkpt lat="45.1544998" lon="8.0964548"><ele>289.0</ele><time>2026-03-29T14:40:46.999Z</time></trkpt><trkpt lat="45.1544839" lon="8.0966888"><ele>287.0</ele><time>2026-03-29T14:40:48Z</time></trkpt><trkpt lat="45.1544693" lon="8.0968999"><ele>286.5</ele><time>2026-03-29T14:40:48.999Z</time></trkpt><trkpt lat="45.1544421" lon="8.097075"><ele>286.0</ele><time>2026-03-29T14:40:49.999Z</time></trkpt><trkpt lat="45.1543904" lon="8.0972277"><ele>285.5</ele><time>2026-03-29T14:40:50.999Z</time></trkpt><trkpt lat="45.15432" lon="8.0973863"><ele>285.0</ele><time>2026-03-29T14:40:51.999Z</time></trkpt><trkpt lat="45.1542392" lon="8.097565"><ele>284.3333333333333</ele><time>2026-03-29T14:40:52.999Z</time></trkpt><trkpt lat="45.154155" lon="8.0977569"><ele>283.66666666666663</ele><time>2026-03-29T14:40:53.999Z</time></trkpt><trkpt lat="45.1540574" lon="8.0979665"><ele>283.0</ele><time>2026-03-29T14:40:54.999Z</time></trkpt><trkpt lat="45.1539544" lon="8.098188"><ele>283.66666666666663</ele><time>2026-03-29T14:40:55.999Z</time></trkpt><trkpt lat="45.1538467" lon="8.0984097"><ele>284.3333333333333</ele><time>2026-03-29T14:40:56.999Z</time></trkpt><trkpt lat="45.1537429" lon="8.0986342"><ele>285.0</ele><time>2026-03-29T14:40:57.999Z</time></trkpt><trkpt lat="45.1536426" lon="8.0988504"><ele>285.0</ele><time>2026-03-29T14:40:58.999Z</time></trkpt><trkpt lat="45.1535428" lon="8.0990633"><ele>285.0</ele><time>2026-03-29T14:40:59.999Z</time></trkpt><trkpt lat="45.1534444" lon="8.0992684"><ele>285.0</ele><time>2026-03-29T14:41:00.999Z</time></trkpt><trkpt lat="45.153351" lon="8.0994579"><ele>284.0</ele><time>2026-03-29T14:41:01.999Z</time></trkpt><trkpt lat="45.1532742" lon="8.0996445"><ele>283.0</ele><time>2026-03-29T14:41:02.999Z</time></trkpt><trkpt lat="45.1532088" lon="8.0998261"><ele>282.0</ele><time>2026-03-29T14:41:03.999Z</time></trkpt><trkpt lat="45.1531606" lon="8.1000156"><ele>281.0</ele><time>2026-03-29T14:41:04.999Z</time></trkpt><trkpt lat="45.1531478" lon="8.1002146"><ele>278.75</ele><time>2026-03-29T14:41:05.999Z</time></trkpt><trkpt lat="45.153172" lon="8.1004253"><ele>276.5</ele><time>2026-03-29T14:41:06.999Z</time></trkpt><trkpt lat="45.1532029" lon="8.1006281"><ele>274.25</ele><time>2026-03-29T14:41:07.999Z</time></trkpt><trkpt lat="45.1531908" lon="8.100809"><ele>272.0</ele><time>2026-03-29T14:41:08.999Z</time></trkpt><trkpt lat="45.1531319" lon="8.1009885"><ele>270.0</ele><time>2026-03-29T14:41:09.999Z</time></trkpt><trkpt lat="45.1530667" lon="8.1011628"><ele>268.0</ele><time>2026-03-29T14:41:10.999Z</time></trkpt><trkpt lat="45.1530293" lon="8.1013574"><ele>266.0</ele><time>2026-03-29T14:41:11.999Z</time></trkpt><trkpt lat="45.1530098" lon="8.1015735"><ele>264.0</ele><time>2026-03-29T14:41:12.999Z</time></trkpt><trkpt lat="45.1530053" lon="8.1017989"><ele>261.6666666666667</ele><time>2026-03-29T14:41:13.999Z</time></trkpt><trkpt lat="45.1530054" lon="8.1020146"><ele>259.33333333333337</ele><time>2026-03-29T14:41:14.999Z</time></trkpt><trkpt lat="45.1530235" lon="8.1022246"><ele>257.0</ele><time>2026-03-29T14:41:15.999Z</time></trkpt><trkpt lat="45.1530611" lon="8.1024399"><ele>257.6666666666667</ele><time>2026-03-29T14:41:16.999Z</time></trkpt><trkpt lat="45.1531266" lon="8.1026547"><ele>258.3333333333333</ele><time>2026-03-29T14:41:17.999Z</time></trkpt><trkpt lat="45.1532126" lon="8.1028538"><ele>259.0</ele><time>2026-03-29T14:41:18.999Z</time></trkpt><trkpt lat="45.1533015" lon="8.1030317"><ele>259.0</ele><time>2026-03-29T14:41:19.999Z</time></trkpt><trkpt lat="45.1533784" lon="8.1031837"><ele>259.0</ele><time>2026-03-29T14:41:20.999Z</time></trkpt><trkpt lat="45.1534322" lon="8.1033063"><ele>259.0</ele><time>2026-03-29T14:41:21.999Z</time></trkpt><trkpt lat="45.1534352" lon="8.1034137"><ele>259.0</ele><time>2026-03-29T14:41:22.999Z</time></trkpt><trkpt lat="45.1534086" lon="8.1035041"><ele>259.0</ele><time>2026-03-29T14:41:23.999Z</time></trkpt><trkpt lat="45.1533356" lon="8.1035209"><ele>258.59999999999997</ele><time>2026-03-29T14:41:24.999Z</time></trkpt><trkpt lat="45.153246" lon="8.1034834"><ele>258.2</ele><time>2026-03-29T14:41:25.999Z</time></trkpt><trkpt lat="45.1531517" lon="8.1034146"><ele>257.79999999999995</ele><time>2026-03-29T14:41:26.999Z</time></trkpt><trkpt lat="45.1530528" lon="8.1033184"><ele>257.4</ele><time>2026-03-29T14:41:27.999Z</time></trkpt><trkpt lat="45.1529553" lon="8.1032052"><ele>257.0</ele><time>2026-03-29T14:41:28.999Z</time></trkpt><trkpt lat="45.1528603" lon="8.1031059"><ele>256.0</ele><time>2026-03-29T14:41:29.999Z</time></trkpt><trkpt lat="45.152774" lon="8.1030105"><ele>255.0</ele><time>2026-03-29T14:41:30.999Z</time></trkpt><trkpt lat="45.1527059" lon="8.1029291"><ele>254.0</ele><time>2026-03-29T14:41:31.999Z</time></trkpt><trkpt lat="45.1526429" lon="8.102885"><ele>253.0</ele><time>2026-03-29T14:41:32.999Z</time></trkpt><trkpt lat="45.1525344" lon="8.1029827"><ele>252.0</ele><time>2026-03-29T14:41:34.999Z</time></trkpt><trkpt lat="45.1525268" lon="8.1031098"><ele>249.75</ele><time>2026-03-29T14:41:35.999Z</time></trkpt><trkpt lat="45.1525584" lon="8.1032579"><ele>247.5</ele><time>2026-03-29T14:41:36.999Z</time></trkpt><trkpt lat="45.1526084" lon="8.1034222"><ele>245.25</ele><time>2026-03-29T14:41:37.997Z</time></trkpt><trkpt lat="45.1526765" lon="8.1036008"><ele>243.0</ele><time>2026-03-29T14:41:38.999Z</time></trkpt><trkpt lat="45.1527424" lon="8.1037984"><ele>243.0</ele><time>2026-03-29T14:41:39.999Z</time></trkpt><trkpt lat="45.1528136" lon="8.1040042"><ele>243.0</ele><time>2026-03-29T14:41:40.999Z</time></trkpt><trkpt lat="45.1528824" lon="8.1042178"><ele>243.0</ele><time>2026-03-29T14:41:41.999Z</time></trkpt><trkpt lat="45.1529525" lon="8.1044211"><ele>240.0</ele><time>2026-03-29T14:41:42.999Z</time></trkpt><trkpt lat="45.1530148" lon="8.1046195"><ele>237.0</ele><time>2026-03-29T14:41:43.999Z</time></trkpt><trkpt lat="45.1530778" lon="8.1048075"><ele>234.0</ele><time>2026-03-29T14:41:44.999Z</time></trkpt><trkpt lat="45.1531415" lon="8.1049787"><ele>231.0</ele><time>2026-03-29T14:41:45.999Z</time></trkpt><trkpt lat="45.1532048" lon="8.1051372"><ele>231.75</ele><time>2026-03-29T14:41:46.999Z</time></trkpt><trkpt lat="45.1533138" lon="8.105258"><ele>232.5</ele><time>2026-03-29T14:41:47.999Z</time></trkpt><trkpt lat="45.1534417" lon="8.1053454"><ele>233.25</ele><time>2026-03-29T14:41:48.999Z</time></trkpt><trkpt lat="45.1535623" lon="8.1054406"><ele>234.0</ele><time>2026-03-29T14:41:49.999Z</time></trkpt><trkpt lat="45.1536624" lon="8.1055449"><ele>234.0</ele><time>2026-03-29T14:41:50.999Z</time></trkpt><trkpt lat="45.1537522" lon="8.1056722"><ele>234.0</ele><time>2026-03-29T14:41:51.999Z</time></trkpt><trkpt lat="45.1538141" lon="8.1058269"><ele>234.0</ele><time>2026-03-29T14:41:52.999Z</time></trkpt><trkpt lat="45.1538468" lon="8.1060028"><ele>234.0</ele><time>2026-03-29T14:41:53.999Z</time></trkpt><trkpt lat="45.1538747" lon="8.106197"><ele>231.33333333333331</ele><time>2026-03-29T14:41:54.999Z</time></trkpt><trkpt lat="45.1538982" lon="8.1064008"><ele>228.66666666666666</ele><time>2026-03-29T14:41:55.999Z</time></trkpt><trkpt lat="45.1539199" lon="8.1066181"><ele>226.0</ele><time>2026-03-29T14:41:56.999Z</time></trkpt><trkpt lat="45.1539417" lon="8.1068275"><ele>225.5</ele><time>2026-03-29T14:41:57.999Z</time></trkpt><trkpt lat="45.1539606" lon="8.1070113"><ele>225.0</ele><time>2026-03-29T14:41:58.999Z</time></trkpt><trkpt lat="45.1539886" lon="8.1071777"><ele>224.5</ele><time>2026-03-29T14:41:59.999Z</time></trkpt><trkpt lat="45.1540407" lon="8.1073334"><ele>224.0</ele><time>2026-03-29T14:42:00.999Z</time></trkpt><trkpt lat="45.1541032" lon="8.1074829"><ele>224.0</ele><time>2026-03-29T14:42:01.999Z</time></trkpt><trkpt lat="45.1541941" lon="8.1076332"><ele>224.0</ele><time>2026-03-29T14:42:02.999Z</time></trkpt><trkpt lat="45.1542726" lon="8.1077787"><ele>224.0</ele><time>2026-03-29T14:42:03.999Z</time></trkpt><trkpt lat="45.154355" lon="8.1078767"><ele>224.0</ele><time>2026-03-29T14:42:04.999Z</time></trkpt><trkpt lat="45.1544476" lon="8.1079215"><ele>224.0</ele><time>2026-03-29T14:42:05.999Z</time></trkpt><trkpt lat="45.1545601" lon="8.1079266"><ele>224.0</ele><time>2026-03-29T14:42:06.999Z</time></trkpt><trkpt lat="45.1546907" lon="8.1078737"><ele>224.0</ele><time>2026-03-29T14:42:07.999Z</time></trkpt><trkpt lat="45.154823" lon="8.1077962"><ele>224.0</ele><time>2026-03-29T14:42:08.999Z</time></trkpt><trkpt lat="45.1549762" lon="8.1077095"><ele>224.5</ele><time>2026-03-29T14:42:09.999Z</time></trkpt><trkpt lat="45.1551196" lon="8.1076338"><ele>225.0</ele><time>2026-03-29T14:42:10.999Z</time></trkpt><trkpt lat="45.155243" lon="8.1075585"><ele>225.5</ele><time>2026-03-29T14:42:11.999Z</time></trkpt><trkpt lat="45.1553584" lon="8.1074898"><ele>226.0</ele><time>2026-03-29T14:42:12.999Z</time></trkpt><trkpt lat="45.1554451" lon="8.1074528"><ele>225.99999999999997</ele><time>2026-03-29T14:42:13.999Z</time></trkpt><trkpt lat="45.1555244" lon="8.1074797"><ele>226.0</ele><time>2026-03-29T14:42:14.999Z</time></trkpt><trkpt lat="45.1555703" lon="8.1075464"><ele>226.0</ele><time>2026-03-29T14:42:15.999Z</time></trkpt><trkpt lat="45.1555961" lon="8.107632"><ele>226.0</ele><time>2026-03-29T14:42:16.999Z</time></trkpt><trkpt lat="45.1555113" lon="8.1077582"><ele>225.99999999999997</ele><time>2026-03-29T14:42:17.999Z</time></trkpt><trkpt lat="45.1554446" lon="8.1078788"><ele>226.0</ele><time>2026-03-29T14:42:18.999Z</time></trkpt><trkpt lat="45.1553584" lon="8.1080177"><ele>226.0</ele><time>2026-03-29T14:42:19.999Z</time></trkpt><trkpt lat="45.1552769" lon="8.108167"><ele>226.0</ele><time>2026-03-29T14:42:20.999Z</time></trkpt><trkpt lat="45.1551865" lon="8.1083194"><ele>226.0</ele><time>2026-03-29T14:42:21.999Z</time></trkpt><trkpt lat="45.1550936" lon="8.108453"><ele>226.0</ele><time>2026-03-29T14:42:22.999Z</time></trkpt><trkpt lat="45.1549891" lon="8.1085464"><ele>221.0</ele><time>2026-03-29T14:42:23.999Z</time></trkpt><trkpt lat="45.1548746" lon="8.1086098"><ele>216.0</ele><time>2026-03-29T14:42:24.999Z</time></trkpt><trkpt lat="45.1547463" lon="8.1086373"><ele>211.0</ele><time>2026-03-29T14:42:25.999Z</time></trkpt><trkpt lat="45.1545993" lon="8.108633"><ele>206.0</ele><time>2026-03-29T14:42:26.999Z</time></trkpt><trkpt lat="45.1544499" lon="8.1086084"><ele>205.5</ele><time>2026-03-29T14:42:27.999Z</time></trkpt><trkpt lat="45.1543042" lon="8.1085949"><ele>205.0</ele><time>2026-03-29T14:42:28.999Z</time></trkpt><trkpt lat="45.1541644" lon="8.108575"><ele>204.5</ele><time>2026-03-29T14:42:29.999Z</time></trkpt><trkpt lat="45.1540414" lon="8.1085538"><ele>204.0</ele><time>2026-03-29T14:42:30.999Z</time></trkpt><trkpt lat="45.1539269" lon="8.1085389"><ele>201.25</ele><time>2026-03-29T14:42:31.999Z</time></trkpt><trkpt lat="45.153817" lon="8.108544"><ele>198.5</ele><time>2026-03-29T14:42:32.999Z</time></trkpt><trkpt lat="45.1537077" lon="8.1086013"><ele>195.75</ele><time>2026-03-29T14:42:33.999Z</time></trkpt><trkpt lat="45.1536064" lon="8.108697"><ele>193.0</ele><time>2026-03-29T14:42:34.999Z</time></trkpt><trkpt lat="45.1535557" lon="8.1088595"><ele>193.0</ele><time>2026-03-29T14:42:35.999Z</time></trkpt><trkpt lat="45.1535132" lon="8.1090237"><ele>193.0</ele><time>2026-03-29T14:42:36.999Z</time></trkpt><trkpt lat="45.1534972" lon="8.1091971"><ele>193.0</ele><time>2026-03-29T14:42:37.999Z</time></trkpt><trkpt lat="45.1535267" lon="8.1093849"><ele>193.0</ele><time>2026-03-29T14:42:38.999Z</time></trkpt><trkpt lat="45.1535893" lon="8.1095681"><ele>193.33333333333331</ele><time>2026-03-29T14:42:39.999Z</time></trkpt><trkpt lat="45.1536627" lon="8.1097628"><ele>193.66666666666669</ele><time>2026-03-29T14:42:40.999Z</time></trkpt><trkpt lat="45.1537376" lon="8.1099577"><ele>194.0</ele><time>2026-03-29T14:42:41.999Z</time></trkpt><trkpt lat="45.1538264" lon="8.1101607"><ele>194.33333333333334</ele><time>2026-03-29T14:42:42.999Z</time></trkpt><trkpt lat="45.1539317" lon="8.110357"><ele>194.66666666666669</ele><time>2026-03-29T14:42:43.999Z</time></trkpt><trkpt lat="45.1540394" lon="8.1105413"><ele>195.0</ele><time>2026-03-29T14:42:44.999Z</time></trkpt><trkpt lat="45.154118" lon="8.1107391"><ele>196.33333333333331</ele><time>2026-03-29T14:42:45.999Z</time></trkpt><trkpt lat="45.154144" lon="8.1109418"><ele>197.66666666666666</ele><time>2026-03-29T14:42:46.999Z</time></trkpt><trkpt lat="45.1541361" lon="8.1111563"><ele>199.0</ele><time>2026-03-29T14:42:47.999Z</time></trkpt><trkpt lat="45.154124" lon="8.1113735"><ele>201.33333333333331</ele><time>2026-03-29T14:42:48.999Z</time></trkpt><trkpt lat="45.154119" lon="8.1115826"><ele>203.66666666666669</ele><time>2026-03-29T14:42:49.999Z</time></trkpt><trkpt lat="45.1541426" lon="8.1117947"><ele>206.0</ele><time>2026-03-29T14:42:50.999Z</time></trkpt><trkpt lat="45.1542072" lon="8.111997"><ele>206.0</ele><time>2026-03-29T14:42:51.999Z</time></trkpt><trkpt lat="45.1543122" lon="8.1121872"><ele>206.0</ele><time>2026-03-29T14:42:52.999Z</time></trkpt><trkpt lat="45.1544573" lon="8.1123382"><ele>206.0</ele><time>2026-03-29T14:42:53.999Z</time></trkpt><trkpt lat="45.1546058" lon="8.1124829"><ele>207.66666666666669</ele><time>2026-03-29T14:42:54.999Z</time></trkpt><trkpt lat="45.1547949" lon="8.1125618"><ele>209.33333333333331</ele><time>2026-03-29T14:42:55.999Z</time></trkpt><trkpt lat="45.154965" lon="8.1126768"><ele>211.0</ele><time>2026-03-29T14:42:56.999Z</time></trkpt><trkpt lat="45.1551535" lon="8.1127397"><ele>211.0</ele><time>2026-03-29T14:42:57.999Z</time></trkpt><trkpt lat="45.1553495" lon="8.1127831"><ele>211.0</ele><time>2026-03-29T14:42:58.999Z</time></trkpt><trkpt lat="45.1555444" lon="8.1128349"><ele>211.0</ele><time>2026-03-29T14:42:59.999Z</time></trkpt><trkpt lat="45.1557219" lon="8.1128794"><ele>210.0</ele><time>2026-03-29T14:43:00.999Z</time></trkpt><trkpt lat="45.1558787" lon="8.1129162"><ele>209.0</ele><time>2026-03-29T14:43:02Z</time></trkpt><trkpt lat="45.155995" lon="8.1129443"><ele>208.0</ele><time>2026-03-29T14:43:02.999Z</time></trkpt><trkpt lat="45.1560882" lon="8.1129833"><ele>207.0</ele><time>2026-03-29T14:43:03.999Z</time></trkpt><trkpt lat="45.1561455" lon="8.1130532"><ele>207.0</ele><time>2026-03-29T14:43:04.999Z</time></trkpt><trkpt lat="45.1561673" lon="8.1131379"><ele>207.0</ele><time>2026-03-29T14:43:05.999Z</time></trkpt><trkpt lat="45.1561316" lon="8.1132587"><ele>207.0</ele><time>2026-03-29T14:43:07.999Z</time></trkpt><trkpt lat="45.156076" lon="8.1133109"><ele>207.0</ele><time>2026-03-29T14:43:08.999Z</time></trkpt><trkpt lat="45.1558348" lon="8.1132933"><ele>213.0</ele><time>2026-03-29T14:43:09.999Z</time></trkpt><trkpt lat="45.1556812" lon="8.1133191"><ele>219.0</ele><time>2026-03-29T14:43:10.999Z</time></trkpt><trkpt lat="45.1555146" lon="8.113346"><ele>225.0</ele><time>2026-03-29T14:43:11.999Z</time></trkpt><trkpt lat="45.1553505" lon="8.1133843"><ele>225.0</ele><time>2026-03-29T14:43:12.999Z</time></trkpt><trkpt lat="45.1551807" lon="8.1134151"><ele>225.0</ele><time>2026-03-29T14:43:13.999Z</time></trkpt><trkpt lat="45.155023" lon="8.1134366"><ele>225.0</ele><time>2026-03-29T14:43:14.999Z</time></trkpt><trkpt lat="45.1548719" lon="8.1134833"><ele>225.75</ele><time>2026-03-29T14:43:15.999Z</time></trkpt><trkpt lat="45.1547301" lon="8.1135684"><ele>226.5</ele><time>2026-03-29T14:43:16.999Z</time></trkpt><trkpt lat="45.1546138" lon="8.1136972"><ele>227.25</ele><time>2026-03-29T14:43:17.999Z</time></trkpt><trkpt lat="45.1545017" lon="8.1137967"><ele>228.0</ele><time>2026-03-29T14:43:18.999Z</time></trkpt><trkpt lat="45.1543835" lon="8.1138657"><ele>228.0</ele><time>2026-03-29T14:43:19.999Z</time></trkpt><trkpt lat="45.1542532" lon="8.113888"><ele>228.0</ele><time>2026-03-29T14:43:20.999Z</time></trkpt><trkpt lat="45.154126" lon="8.113901"><ele>228.0</ele><time>2026-03-29T14:43:21.999Z</time></trkpt><trkpt lat="45.1540016" lon="8.1139203"><ele>228.0</ele><time>2026-03-29T14:43:22.999Z</time></trkpt><trkpt lat="45.1538842" lon="8.1139708"><ele>231.75</ele><time>2026-03-29T14:43:23.999Z</time></trkpt><trkpt lat="45.1537876" lon="8.1140779"><ele>235.5</ele><time>2026-03-29T14:43:24.999Z</time></trkpt><trkpt lat="45.1537106" lon="8.1142023"><ele>239.25</ele><time>2026-03-29T14:43:25.999Z</time></trkpt><trkpt lat="45.1536536" lon="8.1143461"><ele>243.0</ele><time>2026-03-29T14:43:26.999Z</time></trkpt><trkpt lat="45.1536128" lon="8.1144861"><ele>243.0</ele><time>2026-03-29T14:43:27.999Z</time></trkpt><trkpt lat="45.153588" lon="8.1146118"><ele>243.0</ele><time>2026-03-29T14:43:28.999Z</time></trkpt><trkpt lat="45.1535814" lon="8.1147458"><ele>243.0</ele><time>2026-03-29T14:43:29.999Z</time></trkpt><trkpt lat="45.1535943" lon="8.1148805"><ele>243.0</ele><time>2026-03-29T14:43:30.999Z</time></trkpt><trkpt lat="45.153644" lon="8.11502"><ele>243.0</ele><time>2026-03-29T14:43:31.999Z</time></trkpt><trkpt lat="45.153736" lon="8.1151333"><ele>242.0</ele><time>2026-03-29T14:43:32.999Z</time></trkpt><trkpt lat="45.1538571" lon="8.1152202"><ele>241.0</ele><time>2026-03-29T14:43:33.999Z</time></trkpt><trkpt lat="45.1539838" lon="8.1152813"><ele>240.0</ele><time>2026-03-29T14:43:34.999Z</time></trkpt><trkpt lat="45.154111" lon="8.1153471"><ele>239.0</ele><time>2026-03-29T14:43:35.999Z</time></trkpt><trkpt lat="45.1542249" lon="8.1154258"><ele>238.75</ele><time>2026-03-29T14:43:36.999Z</time></trkpt><trkpt lat="45.1543215" lon="8.1155281"><ele>238.5</ele><time>2026-03-29T14:43:37.999Z</time></trkpt><trkpt lat="45.1544048" lon="8.1156601"><ele>238.25</ele><time>2026-03-29T14:43:38.999Z</time></trkpt><trkpt lat="45.1544764" lon="8.115814"><ele>238.0</ele><time>2026-03-29T14:43:39.999Z</time></trkpt><trkpt lat="45.1545317" lon="8.1159942"><ele>235.0</ele><time>2026-03-29T14:43:40.999Z</time></trkpt><trkpt lat="45.1545754" lon="8.1162044"><ele>232.0</ele><time>2026-03-29T14:43:41.999Z</time></trkpt><trkpt lat="45.1546188" lon="8.1164245"><ele>229.0</ele><time>2026-03-29T14:43:42.999Z</time></trkpt><trkpt lat="45.1546648" lon="8.1166714"><ele>227.0</ele><time>2026-03-29T14:43:43.999Z</time></trkpt><trkpt lat="45.154715" lon="8.1169243"><ele>225.0</ele><time>2026-03-29T14:43:44.999Z</time></trkpt><trkpt lat="45.1547666" lon="8.1171909"><ele>223.0</ele><time>2026-03-29T14:43:45.999Z</time></trkpt><trkpt lat="45.1548252" lon="8.1174652"><ele>223.66666666666666</ele><time>2026-03-29T14:43:46.999Z</time></trkpt><trkpt lat="45.15488" lon="8.1177347"><ele>224.33333333333331</ele><time>2026-03-29T14:43:47.999Z</time></trkpt><trkpt lat="45.15493" lon="8.1179976"><ele>225.0</ele><time>2026-03-29T14:43:48.999Z</time></trkpt><trkpt lat="45.1549719" lon="8.1182496"><ele>221.66666666666669</ele><time>2026-03-29T14:43:49.999Z</time></trkpt><trkpt lat="45.1550054" lon="8.1184998"><ele>218.33333333333334</ele><time>2026-03-29T14:43:50.999Z</time></trkpt><trkpt lat="45.1550353" lon="8.1187351"><ele>215.0</ele><time>2026-03-29T14:43:51.999Z</time></trkpt><trkpt lat="45.1550569" lon="8.1189568"><ele>213.5</ele><time>2026-03-29T14:43:52.999Z</time></trkpt><trkpt lat="45.1550552" lon="8.1191706"><ele>212.0</ele><time>2026-03-29T14:43:53.999Z</time></trkpt><trkpt lat="45.1550232" lon="8.1193612"><ele>210.5</ele><time>2026-03-29T14:43:54.999Z</time></trkpt><trkpt lat="45.1550061" lon="8.1195331"><ele>209.0</ele><time>2026-03-29T14:43:55.999Z</time></trkpt><trkpt lat="45.1550124" lon="8.1196838"><ele>209.0</ele><time>2026-03-29T14:43:56.999Z</time></trkpt><trkpt lat="45.1550553" lon="8.1198217"><ele>209.0</ele><time>2026-03-29T14:43:57.999Z</time></trkpt><trkpt lat="45.155112" lon="8.1199532"><ele>209.0</ele><time>2026-03-29T14:43:58.999Z</time></trkpt><trkpt lat="45.1551651" lon="8.1200996"><ele>209.0</ele><time>2026-03-29T14:43:59.999Z</time></trkpt><trkpt lat="45.155182" lon="8.1202566"><ele>209.0</ele><time>2026-03-29T14:44:00.999Z</time></trkpt><trkpt lat="45.1551439" lon="8.1204246"><ele>208.5</ele><time>2026-03-29T14:44:01.999Z</time></trkpt><trkpt lat="45.1550669" lon="8.1205723"><ele>208.0</ele><time>2026-03-29T14:44:02.999Z</time></trkpt><trkpt lat="45.15497" lon="8.1207294"><ele>207.5</ele><time>2026-03-29T14:44:03.999Z</time></trkpt><trkpt lat="45.1548774" lon="8.1209135"><ele>207.0</ele><time>2026-03-29T14:44:04.999Z</time></trkpt><trkpt lat="45.1547785" lon="8.1211011"><ele>203.66666666666669</ele><time>2026-03-29T14:44:05.999Z</time></trkpt><trkpt lat="45.1546687" lon="8.1212932"><ele>200.33333333333334</ele><time>2026-03-29T14:44:06.999Z</time></trkpt><trkpt lat="45.1545596" lon="8.1214828"><ele>197.0</ele><time>2026-03-29T14:44:07.999Z</time></trkpt><trkpt lat="45.1544517" lon="8.1216688"><ele>196.66666666666669</ele><time>2026-03-29T14:44:08.999Z</time></trkpt><trkpt lat="45.1543473" lon="8.1218512"><ele>196.33333333333331</ele><time>2026-03-29T14:44:09.999Z</time></trkpt><trkpt lat="45.1542483" lon="8.12202"><ele>196.0</ele><time>2026-03-29T14:44:10.999Z</time></trkpt><trkpt lat="45.1541492" lon="8.1221902"><ele>196.0</ele><time>2026-03-29T14:44:11.999Z</time></trkpt><trkpt lat="45.1540498" lon="8.1223498"><ele>196.0</ele><time>2026-03-29T14:44:12.999Z</time></trkpt><trkpt lat="45.1539543" lon="8.1224989"><ele>196.0</ele><time>2026-03-29T14:44:13.999Z</time></trkpt><trkpt lat="45.1538628" lon="8.1226516"><ele>196.0</ele><time>2026-03-29T14:44:14.999Z</time></trkpt><trkpt lat="45.1537715" lon="8.1228117"><ele>196.25</ele><time>2026-03-29T14:44:15.999Z</time></trkpt><trkpt lat="45.1536784" lon="8.1229665"><ele>196.5</ele><time>2026-03-29T14:44:16.999Z</time></trkpt><trkpt lat="45.1535882" lon="8.1231145"><ele>196.75</ele><time>2026-03-29T14:44:17.999Z</time></trkpt><trkpt lat="45.1535114" lon="8.1232634"><ele>197.0</ele><time>2026-03-29T14:44:18.999Z</time></trkpt><trkpt lat="45.1534423" lon="8.1234272"><ele>195.25</ele><time>2026-03-29T14:44:19.999Z</time></trkpt><trkpt lat="45.1533858" lon="8.1236021"><ele>193.5</ele><time>2026-03-29T14:44:20.999Z</time></trkpt><trkpt lat="45.1533506" lon="8.1238004"><ele>191.75</ele><time>2026-03-29T14:44:21.999Z</time></trkpt><trkpt lat="45.1533409" lon="8.1240095"><ele>190.0</ele><time>2026-03-29T14:44:22.999Z</time></trkpt><trkpt lat="45.1533629" lon="8.1242333"><ele>190.0</ele><time>2026-03-29T14:44:23.999Z</time></trkpt><trkpt lat="45.1533971" lon="8.124471"><ele>190.0</ele><time>2026-03-29T14:44:24.999Z</time></trkpt><trkpt lat="45.1534285" lon="8.1246989"><ele>190.0</ele><time>2026-03-29T14:44:25.999Z</time></trkpt><trkpt lat="45.1534644" lon="8.1249248"><ele>190.25</ele><time>2026-03-29T14:44:26.999Z</time></trkpt><trkpt lat="45.1534945" lon="8.1251233"><ele>190.5</ele><time>2026-03-29T14:44:27.999Z</time></trkpt><trkpt lat="45.1535098" lon="8.125316"><ele>190.75</ele><time>2026-03-29T14:44:28.999Z</time></trkpt><trkpt lat="45.1535281" lon="8.1255"><ele>191.0</ele><time>2026-03-29T14:44:29.999Z</time></trkpt><trkpt lat="45.1534726" lon="8.1256438"><ele>190.4</ele><time>2026-03-29T14:44:30.999Z</time></trkpt><trkpt lat="45.1534425" lon="8.125798"><ele>189.8</ele><time>2026-03-29T14:44:31.999Z</time></trkpt><trkpt lat="45.1534027" lon="8.1259544"><ele>189.20000000000002</ele><time>2026-03-29T14:44:32.999Z</time></trkpt><trkpt lat="45.1533742" lon="8.1260787"><ele>188.60000000000002</ele><time>2026-03-29T14:44:33.999Z</time></trkpt><trkpt lat="45.1533178" lon="8.1261905"><ele>188.0</ele><time>2026-03-29T14:44:35.999Z</time></trkpt><trkpt lat="45.1533708" lon="8.1261355"><ele>188.0</ele><time>2026-03-29T14:44:43.999Z</time></trkpt><trkpt lat="45.153423" lon="8.1261926"><ele>188.0</ele><time>2026-03-29T14:44:45.999Z</time></trkpt><trkpt lat="45.1534283" lon="8.1262835"><ele>188.0</ele><time>2026-03-29T14:44:46.999Z</time></trkpt><trkpt lat="45.1534155" lon="8.1264138"><ele>188.0</ele><time>2026-03-29T14:44:47.999Z</time></trkpt><trkpt lat="45.1534058" lon="8.1265675"><ele>188.0</ele><time>2026-03-29T14:44:48.999Z</time></trkpt><trkpt lat="45.153407" lon="8.1267445"><ele>187.0</ele><time>2026-03-29T14:44:49.999Z</time></trkpt><trkpt lat="45.1534124" lon="8.1269462"><ele>186.0</ele><time>2026-03-29T14:44:50.999Z</time></trkpt><trkpt lat="45.153417" lon="8.1271592"><ele>185.0</ele><time>2026-03-29T14:44:51.999Z</time></trkpt><trkpt lat="45.1534228" lon="8.1273764"><ele>184.0</ele><time>2026-03-29T14:44:52.999Z</time></trkpt><trkpt lat="45.1534245" lon="8.1275841"><ele>181.75</ele><time>2026-03-29T14:44:53.999Z</time></trkpt><trkpt lat="45.1534258" lon="8.1277953"><ele>179.5</ele><time>2026-03-29T14:44:54.999Z</time></trkpt><trkpt lat="45.1534271" lon="8.1280062"><ele>177.25</ele><time>2026-03-29T14:44:55.999Z</time></trkpt><trkpt lat="45.1534254" lon="8.1282055"><ele>175.0</ele><time>2026-03-29T14:44:56.999Z</time></trkpt><trkpt lat="45.1534297" lon="8.1283904"><ele>173.8</ele><time>2026-03-29T14:44:57.999Z</time></trkpt><trkpt lat="45.1534359" lon="8.1285429"><ele>172.6</ele><time>2026-03-29T14:44:58.999Z</time></trkpt><trkpt lat="45.1534551" lon="8.1286929"><ele>171.39999999999998</ele><time>2026-03-29T14:44:59.999Z</time></trkpt><trkpt lat="45.1535095" lon="8.1288154"><ele>170.2</ele><time>2026-03-29T14:45:00.999Z</time></trkpt><trkpt lat="45.1535992" lon="8.1289206"><ele>169.0</ele><time>2026-03-29T14:45:01.999Z</time></trkpt><trkpt lat="45.1536994" lon="8.1290351"><ele>167.33333333333334</ele><time>2026-03-29T14:45:02.999Z</time></trkpt><trkpt lat="45.1538038" lon="8.129165"><ele>165.66666666666666</ele><time>2026-03-29T14:45:03.999Z</time></trkpt><trkpt lat="45.1539282" lon="8.1293119"><ele>164.0</ele><time>2026-03-29T14:45:04.999Z</time></trkpt><trkpt lat="45.1540576" lon="8.1294515"><ele>164.0</ele><time>2026-03-29T14:45:05.999Z</time></trkpt><trkpt lat="45.154185" lon="8.1295852"><ele>164.0</ele><time>2026-03-29T14:45:06.999Z</time></trkpt><trkpt lat="45.154295" lon="8.1297119"><ele>164.0</ele><time>2026-03-29T14:45:07.999Z</time></trkpt><trkpt lat="45.1544085" lon="8.1298286"><ele>164.0</ele><time>2026-03-29T14:45:09Z</time></trkpt><trkpt lat="45.1545438" lon="8.1299213"><ele>163.66666666666666</ele><time>2026-03-29T14:45:09.999Z</time></trkpt><trkpt lat="45.1546978" lon="8.1300006"><ele>163.33333333333334</ele><time>2026-03-29T14:45:10.999Z</time></trkpt><trkpt lat="45.1548586" lon="8.1300743"><ele>163.0</ele><time>2026-03-29T14:45:11.999Z</time></trkpt><trkpt lat="45.1550131" lon="8.1301647"><ele>163.0</ele><time>2026-03-29T14:45:12.999Z</time></trkpt><trkpt lat="45.1551637" lon="8.1302706"><ele>163.0</ele><time>2026-03-29T14:45:13.999Z</time></trkpt><trkpt lat="45.15532" lon="8.1303805"><ele>163.0</ele><time>2026-03-29T14:45:14.999Z</time></trkpt><trkpt lat="45.1554761" lon="8.1304887"><ele>163.0</ele><time>2026-03-29T14:45:15.999Z</time></trkpt><trkpt lat="45.1556413" lon="8.1305809"><ele>163.0</ele><time>2026-03-29T14:45:16.999Z</time></trkpt><trkpt lat="45.1558241" lon="8.1306614"><ele>163.0</ele><time>2026-03-29T14:45:17.999Z</time></trkpt><trkpt lat="45.1560086" lon="8.1307374"><ele>161.66666666666669</ele><time>2026-03-29T14:45:18.999Z</time></trkpt><trkpt lat="45.1561871" lon="8.1308132"><ele>160.33333333333334</ele><time>2026-03-29T14:45:19.999Z</time></trkpt><trkpt lat="45.156344" lon="8.1308789"><ele>159.0</ele><time>2026-03-29T14:45:20.999Z</time></trkpt><trkpt lat="45.1565041" lon="8.1309368"><ele>160.33333333333334</ele><time>2026-03-29T14:45:21.999Z</time></trkpt><trkpt lat="45.1566599" lon="8.1309958"><ele>161.66666666666669</ele><time>2026-03-29T14:45:22.999Z</time></trkpt><trkpt lat="45.1568197" lon="8.1310295"><ele>163.0</ele><time>2026-03-29T14:45:23.999Z</time></trkpt><trkpt lat="45.1569986" lon="8.1310501"><ele>163.0</ele><time>2026-03-29T14:45:24.999Z</time></trkpt><trkpt lat="45.1571787" lon="8.1310775"><ele>163.0</ele><time>2026-03-29T14:45:25.999Z</time></trkpt><trkpt lat="45.157351" lon="8.1310989"><ele>163.0</ele><time>2026-03-29T14:45:26.999Z</time></trkpt><trkpt lat="45.1575096" lon="8.13113"><ele>162.0</ele><time>2026-03-29T14:45:27.999Z</time></trkpt><trkpt lat="45.157661" lon="8.1311607"><ele>161.0</ele><time>2026-03-29T14:45:28.999Z</time></trkpt><trkpt lat="45.1578045" lon="8.1311989"><ele>160.0</ele><time>2026-03-29T14:45:29.999Z</time></trkpt><trkpt lat="45.1579457" lon="8.1312487"><ele>159.0</ele><time>2026-03-29T14:45:30.999Z</time></trkpt><trkpt lat="45.1580898" lon="8.1313103"><ele>158.5</ele><time>2026-03-29T14:45:31.999Z</time></trkpt><trkpt lat="45.158229" lon="8.1313579"><ele>158.0</ele><time>2026-03-29T14:45:32.999Z</time></trkpt><trkpt lat="45.1583706" lon="8.1313773"><ele>157.5</ele><time>2026-03-29T14:45:33.999Z</time></trkpt><trkpt lat="45.1585033" lon="8.1314035"><ele>157.0</ele><time>2026-03-29T14:45:34.999Z</time></trkpt><trkpt lat="45.1586272" lon="8.1314368"><ele>157.0</ele><time>2026-03-29T14:45:35.999Z</time></trkpt><trkpt lat="45.1587667" lon="8.1314885"><ele>157.0</ele><time>2026-03-29T14:45:36.999Z</time></trkpt><trkpt lat="45.1589031" lon="8.1315966"><ele>157.0</ele><time>2026-03-29T14:45:37.999Z</time></trkpt><trkpt lat="45.1590405" lon="8.1317157"><ele>156.0</ele><time>2026-03-29T14:45:38.999Z</time></trkpt><trkpt lat="45.1592026" lon="8.1318505"><ele>155.0</ele><time>2026-03-29T14:45:39.999Z</time></trkpt><trkpt lat="45.1593788" lon="8.1319747"><ele>154.0</ele><time>2026-03-29T14:45:40.999Z</time></trkpt><trkpt lat="45.159569" lon="8.1320835"><ele>154.0</ele><time>2026-03-29T14:45:41.999Z</time></trkpt><trkpt lat="45.1597662" lon="8.1321879"><ele>154.0</ele><time>2026-03-29T14:45:42.999Z</time></trkpt><trkpt lat="45.1599531" lon="8.1322894"><ele>154.0</ele><time>2026-03-29T14:45:43.999Z</time></trkpt><trkpt lat="45.16013" lon="8.1323873"><ele>151.66666666666669</ele><time>2026-03-29T14:45:44.999Z</time></trkpt><trkpt lat="45.1602988" lon="8.1324746"><ele>149.33333333333334</ele><time>2026-03-29T14:45:45.999Z</time></trkpt><trkpt lat="45.1604593" lon="8.1325581"><ele>147.0</ele><time>2026-03-29T14:45:46.999Z</time></trkpt><trkpt lat="45.1606053" lon="8.1326341"><ele>147.25</ele><time>2026-03-29T14:45:47.999Z</time></trkpt><trkpt lat="45.1607385" lon="8.1327079"><ele>147.5</ele><time>2026-03-29T14:45:48.999Z</time></trkpt><trkpt lat="45.1608519" lon="8.1327763"><ele>147.75</ele><time>2026-03-29T14:45:49.999Z</time></trkpt><trkpt lat="45.1609474" lon="8.1328464"><ele>148.0</ele><time>2026-03-29T14:45:50.999Z</time></trkpt><trkpt lat="45.1610187" lon="8.1329388"><ele>148.0</ele><time>2026-03-29T14:45:51.999Z</time></trkpt><trkpt lat="45.1610695" lon="8.1330576"><ele>148.0</ele><time>2026-03-29T14:45:52.999Z</time></trkpt><trkpt lat="45.1611096" lon="8.1332076"><ele>148.0</ele><time>2026-03-29T14:45:53.999Z</time></trkpt><trkpt lat="45.1611353" lon="8.1333955"><ele>148.0</ele><time>2026-03-29T14:45:54.999Z</time></trkpt><trkpt lat="45.1611476" lon="8.1336145"><ele>148.0</ele><time>2026-03-29T14:45:55.999Z</time></trkpt><trkpt lat="45.1611535" lon="8.1338424"><ele>148.0</ele><time>2026-03-29T14:45:56.999Z</time></trkpt><trkpt lat="45.1611607" lon="8.1340903"><ele>148.0</ele><time>2026-03-29T14:45:57.999Z</time></trkpt><trkpt lat="45.1611713" lon="8.1343475"><ele>148.0</ele><time>2026-03-29T14:45:58.999Z</time></trkpt><trkpt lat="45.1611915" lon="8.1346216"><ele>148.0</ele><time>2026-03-29T14:45:59.999Z</time></trkpt><trkpt lat="45.1612064" lon="8.1349158"><ele>148.0</ele><time>2026-03-29T14:46:00.999Z</time></trkpt><trkpt lat="45.1612223" lon="8.1352254"><ele>147.0</ele><time>2026-03-29T14:46:01.999Z</time></trkpt><trkpt lat="45.1612357" lon="8.1355475"><ele>146.0</ele><time>2026-03-29T14:46:02.999Z</time></trkpt><trkpt lat="45.1612504" lon="8.1358777"><ele>146.0</ele><time>2026-03-29T14:46:03.999Z</time></trkpt><trkpt lat="45.1612691" lon="8.1362239"><ele>146.0</ele><time>2026-03-29T14:46:04.999Z</time></trkpt><trkpt lat="45.1612919" lon="8.1365833"><ele>146.0</ele><time>2026-03-29T14:46:05.999Z</time></trkpt><trkpt lat="45.1613148" lon="8.1369551"><ele>146.0</ele><time>2026-03-29T14:46:06.999Z</time></trkpt><trkpt lat="45.1613393" lon="8.1373413"><ele>146.0</ele><time>2026-03-29T14:46:07.999Z</time></trkpt><trkpt lat="45.1613631" lon="8.1377414"><ele>146.0</ele><time>2026-03-29T14:46:08.999Z</time></trkpt><trkpt lat="45.1613855" lon="8.1381322"><ele>146.0</ele><time>2026-03-29T14:46:09.999Z</time></trkpt><trkpt lat="45.1614072" lon="8.1385289"><ele>146.0</ele><time>2026-03-29T14:46:10.999Z</time></trkpt><trkpt lat="45.1614278" lon="8.1389246"><ele>146.0</ele><time>2026-03-29T14:46:11.999Z</time></trkpt><trkpt lat="45.1614465" lon="8.1393202"><ele>146.0</ele><time>2026-03-29T14:46:12.999Z</time></trkpt><trkpt lat="45.1614698" lon="8.1397253"><ele>146.0</ele><time>2026-03-29T14:46:13.999Z</time></trkpt><trkpt lat="45.1614939" lon="8.1401368"><ele>146.0</ele><time>2026-03-29T14:46:14.999Z</time></trkpt><trkpt lat="45.1615125" lon="8.1405435"><ele>146.0</ele><time>2026-03-29T14:46:15.999Z</time></trkpt><trkpt lat="45.1615321" lon="8.1409516"><ele>146.0</ele><time>2026-03-29T14:46:16.999Z</time></trkpt><trkpt lat="45.1615497" lon="8.1413688"><ele>145.5</ele><time>2026-03-29T14:46:17.999Z</time></trkpt><trkpt lat="45.1615673" lon="8.1417809"><ele>145.0</ele><time>2026-03-29T14:46:18.999Z</time></trkpt><trkpt lat="45.1615898" lon="8.142182"><ele>145.0</ele><time>2026-03-29T14:46:19.999Z</time></trkpt><trkpt lat="45.1616183" lon="8.1425906"><ele>145.0</ele><time>2026-03-29T14:46:20.999Z</time></trkpt><trkpt lat="45.1616517" lon="8.1429931"><ele>145.5</ele><time>2026-03-29T14:46:21.999Z</time></trkpt><trkpt lat="45.1617003" lon="8.1434021"><ele>146.0</ele><time>2026-03-29T14:46:22.999Z</time></trkpt><trkpt lat="45.1617581" lon="8.143812"><ele>145.5</ele><time>2026-03-29T14:46:23.999Z</time></trkpt><trkpt lat="45.1618205" lon="8.1442252"><ele>145.0</ele><time>2026-03-29T14:46:24.999Z</time></trkpt><trkpt lat="45.1618854" lon="8.1446434"><ele>146.0</ele><time>2026-03-29T14:46:25.999Z</time></trkpt><trkpt lat="45.1619487" lon="8.1450625"><ele>147.0</ele><time>2026-03-29T14:46:26.999Z</time></trkpt><trkpt lat="45.1620138" lon="8.1454838"><ele>150.5</ele><time>2026-03-29T14:46:27.999Z</time></trkpt><trkpt lat="45.1620801" lon="8.1459074"><ele>154.0</ele><time>2026-03-29T14:46:28.999Z</time></trkpt><trkpt lat="45.162144" lon="8.1463084"><ele>159.0</ele><time>2026-03-29T14:46:29.999Z</time></trkpt><trkpt lat="45.1622021" lon="8.1466882"><ele>164.0</ele><time>2026-03-29T14:46:30.999Z</time></trkpt><trkpt lat="45.162234" lon="8.1470551"><ele>165.5</ele><time>2026-03-29T14:46:31.999Z</time></trkpt><trkpt lat="45.1622353" lon="8.1474197"><ele>167.0</ele><time>2026-03-29T14:46:32.999Z</time></trkpt><trkpt lat="45.1622031" lon="8.1477775"><ele>167.0</ele><time>2026-03-29T14:46:33.999Z</time></trkpt><trkpt lat="45.1621418" lon="8.1481306"><ele>167.0</ele><time>2026-03-29T14:46:34.999Z</time></trkpt><trkpt lat="45.1620632" lon="8.1484832"><ele>167.5</ele><time>2026-03-29T14:46:35.999Z</time></trkpt><trkpt lat="45.1619808" lon="8.1488551"><ele>168.0</ele><time>2026-03-29T14:46:36.999Z</time></trkpt><trkpt lat="45.161901" lon="8.1492266"><ele>165.5</ele><time>2026-03-29T14:46:37.999Z</time></trkpt><trkpt lat="45.1618244" lon="8.1495869"><ele>163.0</ele><time>2026-03-29T14:46:38.999Z</time></trkpt><trkpt lat="45.1617463" lon="8.1499349"><ele>161.0</ele><time>2026-03-29T14:46:39.999Z</time></trkpt><trkpt lat="45.1616818" lon="8.1502702"><ele>159.0</ele><time>2026-03-29T14:46:40.999Z</time></trkpt><trkpt lat="45.1616325" lon="8.1506013"><ele>155.5</ele><time>2026-03-29T14:46:41.999Z</time></trkpt><trkpt lat="45.1616032" lon="8.1509478"><ele>152.0</ele><time>2026-03-29T14:46:42.999Z</time></trkpt><trkpt lat="45.1615885" lon="8.1513063"><ele>149.5</ele><time>2026-03-29T14:46:43.999Z</time></trkpt><trkpt lat="45.1615815" lon="8.1516707"><ele>147.0</ele><time>2026-03-29T14:46:44.999Z</time></trkpt><trkpt lat="45.1615683" lon="8.1520111"><ele>147.0</ele><time>2026-03-29T14:46:45.999Z</time></trkpt><trkpt lat="45.1615572" lon="8.1523304"><ele>147.0</ele><time>2026-03-29T14:46:46.999Z</time></trkpt><trkpt lat="45.1615477" lon="8.1526336"><ele>147.0</ele><time>2026-03-29T14:46:47.999Z</time></trkpt><trkpt lat="45.1615409" lon="8.1529164"><ele>149.66666666666666</ele><time>2026-03-29T14:46:48.999Z</time></trkpt><trkpt lat="45.1615302" lon="8.1531813"><ele>152.33333333333331</ele><time>2026-03-29T14:46:49.999Z</time></trkpt><trkpt lat="45.1615189" lon="8.1534453"><ele>155.0</ele><time>2026-03-29T14:46:50.999Z</time></trkpt><trkpt lat="45.1615065" lon="8.1536946"><ele>155.0</ele><time>2026-03-29T14:46:51.999Z</time></trkpt><trkpt lat="45.1614933" lon="8.1539549"><ele>155.0</ele><time>2026-03-29T14:46:52.999Z</time></trkpt><trkpt lat="45.161479" lon="8.1542062"><ele>155.0</ele><time>2026-03-29T14:46:53.999Z</time></trkpt><trkpt lat="45.1614711" lon="8.1544581"><ele>153.0</ele><time>2026-03-29T14:46:54.999Z</time></trkpt><trkpt lat="45.1614595" lon="8.1547139"><ele>151.0</ele><time>2026-03-29T14:46:55.999Z</time></trkpt><trkpt lat="45.1614502" lon="8.1549701"><ele>149.0</ele><time>2026-03-29T14:46:56.999Z</time></trkpt><trkpt lat="45.1614438" lon="8.1552247"><ele>148.66666666666666</ele><time>2026-03-29T14:46:57.999Z</time></trkpt><trkpt lat="45.1614438" lon="8.1554801"><ele>148.33333333333334</ele><time>2026-03-29T14:46:58.999Z</time></trkpt><trkpt lat="45.1614475" lon="8.1557353"><ele>148.0</ele><time>2026-03-29T14:46:59.999Z</time></trkpt><trkpt lat="45.1614581" lon="8.1559943"><ele>147.66666666666669</ele><time>2026-03-29T14:47:00.999Z</time></trkpt><trkpt lat="45.1614739" lon="8.1562584"><ele>147.33333333333334</ele><time>2026-03-29T14:47:01.999Z</time></trkpt><trkpt lat="45.1614859" lon="8.1565263"><ele>147.0</ele><time>2026-03-29T14:47:02.999Z</time></trkpt><trkpt lat="45.1614971" lon="8.1568009"><ele>146.33333333333334</ele><time>2026-03-29T14:47:03.999Z</time></trkpt><trkpt lat="45.1615157" lon="8.1570893"><ele>145.66666666666669</ele><time>2026-03-29T14:47:04.999Z</time></trkpt><trkpt lat="45.1615311" lon="8.1573716"><ele>145.0</ele><time>2026-03-29T14:47:05.999Z</time></trkpt><trkpt lat="45.1615483" lon="8.1576763"><ele>145.0</ele><time>2026-03-29T14:47:06.999Z</time></trkpt><trkpt lat="45.1615599" lon="8.157983"><ele>145.0</ele><time>2026-03-29T14:47:07.999Z</time></trkpt><trkpt lat="45.1615751" lon="8.1582993"><ele>145.0</ele><time>2026-03-29T14:47:08.999Z</time></trkpt><trkpt lat="45.1615955" lon="8.1586225"><ele>144.5</ele><time>2026-03-29T14:47:09.999Z</time></trkpt><trkpt lat="45.1616107" lon="8.1589433"><ele>144.0</ele><time>2026-03-29T14:47:10.999Z</time></trkpt><trkpt lat="45.1616248" lon="8.1592779"><ele>143.5</ele><time>2026-03-29T14:47:11.999Z</time></trkpt><trkpt lat="45.1616383" lon="8.1596215"><ele>143.0</ele><time>2026-03-29T14:47:12.999Z</time></trkpt><trkpt lat="45.1616524" lon="8.1599666"><ele>143.0</ele><time>2026-03-29T14:47:13.999Z</time></trkpt><trkpt lat="45.1616656" lon="8.1603231"><ele>143.0</ele><time>2026-03-29T14:47:14.999Z</time></trkpt><trkpt lat="45.1616791" lon="8.1606852"><ele>143.0</ele><time>2026-03-29T14:47:15.999Z</time></trkpt><trkpt lat="45.1616969" lon="8.1610525"><ele>143.0</ele><time>2026-03-29T14:47:16.999Z</time></trkpt><trkpt lat="45.1617162" lon="8.1614295"><ele>142.5</ele><time>2026-03-29T14:47:17.999Z</time></trkpt><trkpt lat="45.1617361" lon="8.1618046"><ele>142.0</ele><time>2026-03-29T14:47:18.999Z</time></trkpt><trkpt lat="45.1617559" lon="8.1621886"><ele>142.0</ele><time>2026-03-29T14:47:19.999Z</time></trkpt><trkpt lat="45.1617736" lon="8.1625731"><ele>142.0</ele><time>2026-03-29T14:47:20.999Z</time></trkpt><trkpt lat="45.161792" lon="8.1629546"><ele>142.5</ele><time>2026-03-29T14:47:21.999Z</time></trkpt><trkpt lat="45.1618085" lon="8.1633352"><ele>143.0</ele><time>2026-03-29T14:47:22.999Z</time></trkpt><trkpt lat="45.1618263" lon="8.1637085"><ele>145.0</ele><time>2026-03-29T14:47:23.999Z</time></trkpt><trkpt lat="45.161841" lon="8.1640654"><ele>147.0</ele><time>2026-03-29T14:47:24.999Z</time></trkpt><trkpt lat="45.1618597" lon="8.1644058"><ele>147.0</ele><time>2026-03-29T14:47:25.999Z</time></trkpt><trkpt lat="45.1618757" lon="8.1647428"><ele>147.0</ele><time>2026-03-29T14:47:26.999Z</time></trkpt><trkpt lat="45.1618957" lon="8.165067"><ele>147.0</ele><time>2026-03-29T14:47:27.999Z</time></trkpt><trkpt lat="45.1619159" lon="8.1653828"><ele>147.0</ele><time>2026-03-29T14:47:28.999Z</time></trkpt><trkpt lat="45.1619295" lon="8.1656841"><ele>147.0</ele><time>2026-03-29T14:47:29.999Z</time></trkpt><trkpt lat="45.1619338" lon="8.1659676"><ele>146.33333333333334</ele><time>2026-03-29T14:47:30.999Z</time></trkpt><trkpt lat="45.1619185" lon="8.1662349"><ele>145.66666666666669</ele><time>2026-03-29T14:47:31.999Z</time></trkpt><trkpt lat="45.1618788" lon="8.1664814"><ele>145.0</ele><time>2026-03-29T14:47:32.999Z</time></trkpt><trkpt lat="45.1618047" lon="8.1667155"><ele>144.66666666666669</ele><time>2026-03-29T14:47:33.999Z</time></trkpt><trkpt lat="45.1617046" lon="8.1669504"><ele>144.33333333333334</ele><time>2026-03-29T14:47:34.999Z</time></trkpt><trkpt lat="45.1615892" lon="8.1671934"><ele>144.0</ele><time>2026-03-29T14:47:35.999Z</time></trkpt><trkpt lat="45.1614545" lon="8.1674372"><ele>143.0</ele><time>2026-03-29T14:47:36.999Z</time></trkpt><trkpt lat="45.1612989" lon="8.1676841"><ele>142.0</ele><time>2026-03-29T14:47:37.999Z</time></trkpt><trkpt lat="45.1611357" lon="8.1679369"><ele>141.0</ele><time>2026-03-29T14:47:38.999Z</time></trkpt><trkpt lat="45.1609779" lon="8.168197"><ele>140.0</ele><time>2026-03-29T14:47:39.999Z</time></trkpt><trkpt lat="45.160824" lon="8.1684712"><ele>140.5</ele><time>2026-03-29T14:47:40.999Z</time></trkpt><trkpt lat="45.160667" lon="8.1687455"><ele>141.0</ele><time>2026-03-29T14:47:41.999Z</time></trkpt><trkpt lat="45.1605226" lon="8.1689992"><ele>141.0</ele><time>2026-03-29T14:47:42.999Z</time></trkpt><trkpt lat="45.1603809" lon="8.1692432"><ele>141.0</ele><time>2026-03-29T14:47:43.999Z</time></trkpt><trkpt lat="45.1602417" lon="8.1694785"><ele>141.0</ele><time>2026-03-29T14:47:44.999Z</time></trkpt><trkpt lat="45.1601055" lon="8.1697102"><ele>141.0</ele><time>2026-03-29T14:47:45.999Z</time></trkpt><trkpt lat="45.1599778" lon="8.1699366"><ele>141.0</ele><time>2026-03-29T14:47:46.999Z</time></trkpt><trkpt lat="45.1598579" lon="8.1701543"><ele>141.0</ele><time>2026-03-29T14:47:47.999Z</time></trkpt><trkpt lat="45.1597536" lon="8.1703698"><ele>141.0</ele><time>2026-03-29T14:47:48.999Z</time></trkpt><trkpt lat="45.1596676" lon="8.1705918"><ele>141.0</ele><time>2026-03-29T14:47:49.999Z</time></trkpt><trkpt lat="45.1596128" lon="8.1708346"><ele>141.0</ele><time>2026-03-29T14:47:50.999Z</time></trkpt><trkpt lat="45.1595831" lon="8.1710869"><ele>141.33333333333334</ele><time>2026-03-29T14:47:51.999Z</time></trkpt><trkpt lat="45.1595631" lon="8.1713445"><ele>141.66666666666669</ele><time>2026-03-29T14:47:52.999Z</time></trkpt><trkpt lat="45.1595448" lon="8.1716042"><ele>142.0</ele><time>2026-03-29T14:47:53.999Z</time></trkpt><trkpt lat="45.1595334" lon="8.1718676"><ele>142.0</ele><time>2026-03-29T14:47:54.999Z</time></trkpt><trkpt lat="45.159521" lon="8.1721306"><ele>142.0</ele><time>2026-03-29T14:47:55.999Z</time></trkpt><trkpt lat="45.1595069" lon="8.1723884"><ele>142.0</ele><time>2026-03-29T14:47:56.999Z</time></trkpt><trkpt lat="45.1594964" lon="8.1726441"><ele>142.0</ele><time>2026-03-29T14:47:58Z</time></trkpt><trkpt lat="45.1594851" lon="8.1728949"><ele>142.0</ele><time>2026-03-29T14:47:58.999Z</time></trkpt><trkpt lat="45.1594735" lon="8.1731348"><ele>142.0</ele><time>2026-03-29T14:47:59.999Z</time></trkpt><trkpt lat="45.1594608" lon="8.1733679"><ele>142.0</ele><time>2026-03-29T14:48:00.999Z</time></trkpt><trkpt lat="45.1594465" lon="8.1735914"><ele>142.0</ele><time>2026-03-29T14:48:01.999Z</time></trkpt><trkpt lat="45.1594298" lon="8.1738122"><ele>142.0</ele><time>2026-03-29T14:48:02.999Z</time></trkpt><trkpt lat="45.1594202" lon="8.1740368"><ele>142.66666666666669</ele><time>2026-03-29T14:48:03.999Z</time></trkpt><trkpt lat="45.1594095" lon="8.1742564"><ele>143.33333333333334</ele><time>2026-03-29T14:48:04.999Z</time></trkpt><trkpt lat="45.1593999" lon="8.1744676"><ele>144.0</ele><time>2026-03-29T14:48:05.999Z</time></trkpt><trkpt lat="45.1593962" lon="8.1746774"><ele>144.25</ele><time>2026-03-29T14:48:06.999Z</time></trkpt><trkpt lat="45.1593879" lon="8.1748826"><ele>144.5</ele><time>2026-03-29T14:48:07.999Z</time></trkpt><trkpt lat="45.1593785" lon="8.1750919"><ele>144.75</ele><time>2026-03-29T14:48:08.999Z</time></trkpt><trkpt lat="45.1593685" lon="8.1752902"><ele>145.0</ele><time>2026-03-29T14:48:09.999Z</time></trkpt><trkpt lat="45.1593567" lon="8.17549"><ele>145.0</ele><time>2026-03-29T14:48:10.999Z</time></trkpt><trkpt lat="45.1593441" lon="8.1756822"><ele>145.0</ele><time>2026-03-29T14:48:11.999Z</time></trkpt><trkpt lat="45.1593424" lon="8.1758775"><ele>145.0</ele><time>2026-03-29T14:48:12.999Z</time></trkpt><trkpt lat="45.1593372" lon="8.1760694"><ele>145.0</ele><time>2026-03-29T14:48:13.999Z</time></trkpt><trkpt lat="45.1593316" lon="8.1762491"><ele>145.0</ele><time>2026-03-29T14:48:14.999Z</time></trkpt><trkpt lat="45.1593271" lon="8.1764101"><ele>145.0</ele><time>2026-03-29T14:48:15.999Z</time></trkpt><trkpt lat="45.1593191" lon="8.1765621"><ele>145.0</ele><time>2026-03-29T14:48:16.999Z</time></trkpt><trkpt lat="45.1593133" lon="8.1767051"><ele>145.0</ele><time>2026-03-29T14:48:17.999Z</time></trkpt><trkpt lat="45.1593082" lon="8.1768382"><ele>145.0</ele><time>2026-03-29T14:48:18.999Z</time></trkpt><trkpt lat="45.1593026" lon="8.1769619"><ele>145.0</ele><time>2026-03-29T14:48:19.999Z</time></trkpt><trkpt lat="45.1592942" lon="8.1770714"><ele>145.0</ele><time>2026-03-29T14:48:20.999Z</time></trkpt><trkpt lat="45.1592891" lon="8.1771721"><ele>145.0</ele><time>2026-03-29T14:48:21.999Z</time></trkpt><trkpt lat="45.1592838" lon="8.1772753"><ele>145.0</ele><time>2026-03-29T14:48:22.999Z</time></trkpt><trkpt lat="45.1592137" lon="8.1773959"><ele>145.0</ele><time>2026-03-29T14:48:24.999Z</time></trkpt><trkpt lat="45.1590775" lon="8.1774118"><ele>145.2</ele><time>2026-03-29T14:48:26.999Z</time></trkpt><trkpt lat="45.1589924" lon="8.1773979"><ele>145.4</ele><time>2026-03-29T14:48:27.999Z</time></trkpt><trkpt lat="45.1589033" lon="8.1773887"><ele>145.6</ele><time>2026-03-29T14:48:28.999Z</time></trkpt><trkpt lat="45.1588028" lon="8.177379"><ele>145.8</ele><time>2026-03-29T14:48:29.999Z</time></trkpt><trkpt lat="45.1586971" lon="8.1773663"><ele>146.0</ele><time>2026-03-29T14:48:31Z</time></trkpt><trkpt lat="45.1585824" lon="8.1773446"><ele>146.25</ele><time>2026-03-29T14:48:31.999Z</time></trkpt><trkpt lat="45.1584558" lon="8.1773124"><ele>146.5</ele><time>2026-03-29T14:48:32.999Z</time></trkpt><trkpt lat="45.158326" lon="8.1772749"><ele>146.75</ele><time>2026-03-29T14:48:33.999Z</time></trkpt><trkpt lat="45.1582024" lon="8.1772244"><ele>147.0</ele><time>2026-03-29T14:48:34.999Z</time></trkpt><trkpt lat="45.1580864" lon="8.1771725"><ele>147.79999999999998</ele><time>2026-03-29T14:48:35.999Z</time></trkpt><trkpt lat="45.1579809" lon="8.1771197"><ele>148.6</ele><time>2026-03-29T14:48:36.999Z</time></trkpt><trkpt lat="45.1578845" lon="8.1770788"><ele>149.39999999999998</ele><time>2026-03-29T14:48:37.999Z</time></trkpt><trkpt lat="45.1577982" lon="8.1770451"><ele>150.2</ele><time>2026-03-29T14:48:38.999Z</time></trkpt><trkpt lat="45.1577032" lon="8.1770039"><ele>151.0</ele><time>2026-03-29T14:48:39.999Z</time></trkpt><trkpt lat="45.1576077" lon="8.1769621"><ele>151.0</ele><time>2026-03-29T14:48:40.999Z</time></trkpt><trkpt lat="45.1575008" lon="8.1769095"><ele>151.0</ele><time>2026-03-29T14:48:41.999Z</time></trkpt><trkpt lat="45.1573853" lon="8.176858"><ele>151.0</ele><time>2026-03-29T14:48:42.999Z</time></trkpt><trkpt lat="45.1572636" lon="8.1767968"><ele>151.0</ele><time>2026-03-29T14:48:43.999Z</time></trkpt><trkpt lat="45.1571351" lon="8.176724"><ele>151.66666666666669</ele><time>2026-03-29T14:48:44.999Z</time></trkpt><trkpt lat="45.1569946" lon="8.1766523"><ele>152.33333333333334</ele><time>2026-03-29T14:48:45.999Z</time></trkpt><trkpt lat="45.156847" lon="8.1765727"><ele>153.0</ele><time>2026-03-29T14:48:46.999Z</time></trkpt><trkpt lat="45.1566964" lon="8.1765047"><ele>155.33333333333334</ele><time>2026-03-29T14:48:47.999Z</time></trkpt><trkpt lat="45.1565382" lon="8.1764313"><ele>157.66666666666669</ele><time>2026-03-29T14:48:48.999Z</time></trkpt><trkpt lat="45.156374" lon="8.1763575"><ele>160.0</ele><time>2026-03-29T14:48:49.999Z</time></trkpt><trkpt lat="45.1562059" lon="8.1762857"><ele>160.66666666666669</ele><time>2026-03-29T14:48:50.999Z</time></trkpt><trkpt lat="45.1560317" lon="8.1762209"><ele>161.33333333333334</ele><time>2026-03-29T14:48:51.999Z</time></trkpt><trkpt lat="45.1558473" lon="8.1761702"><ele>162.0</ele><time>2026-03-29T14:48:52.999Z</time></trkpt><trkpt lat="45.155661" lon="8.1761244"><ele>162.0</ele><time>2026-03-29T14:48:53.999Z</time></trkpt><trkpt lat="45.1554707" lon="8.1760818"><ele>162.0</ele><time>2026-03-29T14:48:54.999Z</time></trkpt><trkpt lat="45.1552697" lon="8.1760373"><ele>162.0</ele><time>2026-03-29T14:48:55.999Z</time></trkpt><trkpt lat="45.1550752" lon="8.1759795"><ele>162.0</ele><time>2026-03-29T14:48:56.999Z</time></trkpt><trkpt lat="45.1548721" lon="8.1759269"><ele>162.0</ele><time>2026-03-29T14:48:57.999Z</time></trkpt><trkpt lat="45.1546602" lon="8.1758587"><ele>162.0</ele><time>2026-03-29T14:48:58.999Z</time></trkpt><trkpt lat="45.1544412" lon="8.175789"><ele>161.0</ele><time>2026-03-29T14:48:59.999Z</time></trkpt><trkpt lat="45.1542168" lon="8.1757255"><ele>160.0</ele><time>2026-03-29T14:49:00.999Z</time></trkpt><trkpt lat="45.1539923" lon="8.1756671"><ele>163.0</ele><time>2026-03-29T14:49:01.999Z</time></trkpt><trkpt lat="45.1537705" lon="8.1756169"><ele>166.0</ele><time>2026-03-29T14:49:02.999Z</time></trkpt><trkpt lat="45.1535498" lon="8.1755613"><ele>169.0</ele><time>2026-03-29T14:49:03.999Z</time></trkpt><trkpt lat="45.1533397" lon="8.1755114"><ele>168.66666666666669</ele><time>2026-03-29T14:49:04.999Z</time></trkpt><trkpt lat="45.1531229" lon="8.175464"><ele>168.33333333333334</ele><time>2026-03-29T14:49:05.999Z</time></trkpt><trkpt lat="45.1529119" lon="8.1754077"><ele>168.0</ele><time>2026-03-29T14:49:06.999Z</time></trkpt><trkpt lat="45.1527055" lon="8.1753622"><ele>168.0</ele><time>2026-03-29T14:49:07.999Z</time></trkpt><trkpt lat="45.1525058" lon="8.1753137"><ele>168.0</ele><time>2026-03-29T14:49:08.999Z</time></trkpt><trkpt lat="45.1523049" lon="8.1752538"><ele>168.0</ele><time>2026-03-29T14:49:09.999Z</time></trkpt><trkpt lat="45.1521045" lon="8.1751706"><ele>168.33333333333334</ele><time>2026-03-29T14:49:10.999Z</time></trkpt><trkpt lat="45.1519053" lon="8.1750664"><ele>168.66666666666669</ele><time>2026-03-29T14:49:11.999Z</time></trkpt><trkpt lat="45.1517032" lon="8.1749478"><ele>169.0</ele><time>2026-03-29T14:49:12.999Z</time></trkpt><trkpt lat="45.1514946" lon="8.1748254"><ele>169.0</ele><time>2026-03-29T14:49:13.999Z</time></trkpt><trkpt lat="45.1512816" lon="8.1746972"><ele>169.0</ele><time>2026-03-29T14:49:14.999Z</time></trkpt><trkpt lat="45.1510714" lon="8.1745687"><ele>169.0</ele><time>2026-03-29T14:49:15.999Z</time></trkpt><trkpt lat="45.1508609" lon="8.1744358"><ele>169.0</ele><time>2026-03-29T14:49:16.999Z</time></trkpt><trkpt lat="45.1506575" lon="8.1743147"><ele>165.5</ele><time>2026-03-29T14:49:17.999Z</time></trkpt><trkpt lat="45.1504504" lon="8.1741856"><ele>162.0</ele><time>2026-03-29T14:49:18.999Z</time></trkpt><trkpt lat="45.1502453" lon="8.1740387"><ele>163.5</ele><time>2026-03-29T14:49:19.999Z</time></trkpt><trkpt lat="45.1500405" lon="8.1738786"><ele>165.0</ele><time>2026-03-29T14:49:20.999Z</time></trkpt><trkpt lat="45.1498324" lon="8.173709"><ele>162.0</ele><time>2026-03-29T14:49:21.999Z</time></trkpt><trkpt lat="45.1496171" lon="8.173536"><ele>159.0</ele><time>2026-03-29T14:49:22.999Z</time></trkpt><trkpt lat="45.1494041" lon="8.1733641"><ele>159.0</ele><time>2026-03-29T14:49:23.999Z</time></trkpt><trkpt lat="45.1491921" lon="8.1731931"><ele>159.0</ele><time>2026-03-29T14:49:24.999Z</time></trkpt><trkpt lat="45.1489833" lon="8.1730285"><ele>159.5</ele><time>2026-03-29T14:49:25.999Z</time></trkpt><trkpt lat="45.1487789" lon="8.1728631"><ele>160.0</ele><time>2026-03-29T14:49:26.999Z</time></trkpt><trkpt lat="45.1485714" lon="8.1727048"><ele>160.0</ele><time>2026-03-29T14:49:27.999Z</time></trkpt><trkpt lat="45.1483667" lon="8.1725423"><ele>160.0</ele><time>2026-03-29T14:49:28.999Z</time></trkpt><trkpt lat="45.1481766" lon="8.1723973"><ele>161.66666666666669</ele><time>2026-03-29T14:49:29.999Z</time></trkpt><trkpt lat="45.1479823" lon="8.1722714"><ele>163.33333333333334</ele><time>2026-03-29T14:49:30.999Z</time></trkpt><trkpt lat="45.1477689" lon="8.1721762"><ele>165.0</ele><time>2026-03-29T14:49:31.999Z</time></trkpt><trkpt lat="45.147557" lon="8.1721213"><ele>165.33333333333334</ele><time>2026-03-29T14:49:32.999Z</time></trkpt><trkpt lat="45.1473591" lon="8.1720905"><ele>165.66666666666669</ele><time>2026-03-29T14:49:33.999Z</time></trkpt><trkpt lat="45.1471687" lon="8.1720448"><ele>166.0</ele><time>2026-03-29T14:49:34.999Z</time></trkpt><trkpt lat="45.1469924" lon="8.1719707"><ele>166.0</ele><time>2026-03-29T14:49:35.999Z</time></trkpt><trkpt lat="45.1468137" lon="8.1718683"><ele>166.0</ele><time>2026-03-29T14:49:36.999Z</time></trkpt><trkpt lat="45.1466839" lon="8.1716684"><ele>166.0</ele><time>2026-03-29T14:49:37.999Z</time></trkpt><trkpt lat="45.1465396" lon="8.1714777"><ele>165.33333333333334</ele><time>2026-03-29T14:49:38.999Z</time></trkpt><trkpt lat="45.1463925" lon="8.1712727"><ele>164.66666666666666</ele><time>2026-03-29T14:49:39.999Z</time></trkpt><trkpt lat="45.1462393" lon="8.1710639"><ele>164.0</ele><time>2026-03-29T14:49:40.999Z</time></trkpt><trkpt lat="45.1460845" lon="8.1708454"><ele>164.33333333333331</ele><time>2026-03-29T14:49:41.999Z</time></trkpt><trkpt lat="45.1459334" lon="8.1706225"><ele>164.66666666666666</ele><time>2026-03-29T14:49:42.999Z</time></trkpt><trkpt lat="45.1457818" lon="8.1704053"><ele>165.0</ele><time>2026-03-29T14:49:43.999Z</time></trkpt><trkpt lat="45.1456347" lon="8.1701913"><ele>165.0</ele><time>2026-03-29T14:49:44.999Z</time></trkpt><trkpt lat="45.1454904" lon="8.1699767"><ele>165.0</ele><time>2026-03-29T14:49:45.999Z</time></trkpt><trkpt lat="45.14536" lon="8.1697657"><ele>165.0</ele><time>2026-03-29T14:49:46.999Z</time></trkpt><trkpt lat="45.1452448" lon="8.1695608"><ele>166.0</ele><time>2026-03-29T14:49:47.999Z</time></trkpt><trkpt lat="45.1451433" lon="8.1693334"><ele>167.0</ele><time>2026-03-29T14:49:48.999Z</time></trkpt><trkpt lat="45.14505" lon="8.1690869"><ele>168.0</ele><time>2026-03-29T14:49:49.999Z</time></trkpt><trkpt lat="45.1449576" lon="8.1688287"><ele>168.33333333333334</ele><time>2026-03-29T14:49:50.999Z</time></trkpt><trkpt lat="45.1448634" lon="8.1685585"><ele>168.66666666666669</ele><time>2026-03-29T14:49:51.999Z</time></trkpt><trkpt lat="45.1447636" lon="8.1682821"><ele>169.0</ele><time>2026-03-29T14:49:52.999Z</time></trkpt><trkpt lat="45.1446563" lon="8.1680049"><ele>169.0</ele><time>2026-03-29T14:49:53.999Z</time></trkpt><trkpt lat="45.1445485" lon="8.1677327"><ele>169.0</ele><time>2026-03-29T14:49:54.999Z</time></trkpt><trkpt lat="45.1444442" lon="8.167467"><ele>169.0</ele><time>2026-03-29T14:49:55.999Z</time></trkpt><trkpt lat="45.1443459" lon="8.16721"><ele>171.0</ele><time>2026-03-29T14:49:56.999Z</time></trkpt><trkpt lat="45.1442535" lon="8.1669608"><ele>173.0</ele><time>2026-03-29T14:49:57.999Z</time></trkpt><trkpt lat="45.1441649" lon="8.1667213"><ele>175.0</ele><time>2026-03-29T14:49:58.999Z</time></trkpt><trkpt lat="45.1440838" lon="8.1664997"><ele>173.33333333333334</ele><time>2026-03-29T14:49:59.999Z</time></trkpt><trkpt lat="45.1440113" lon="8.1662865"><ele>171.66666666666666</ele><time>2026-03-29T14:50:00.999Z</time></trkpt><trkpt lat="45.1439435" lon="8.1660874"><ele>170.0</ele><time>2026-03-29T14:50:01.999Z</time></trkpt><trkpt lat="45.1438774" lon="8.1658876"><ele>170.66666666666666</ele><time>2026-03-29T14:50:02.999Z</time></trkpt><trkpt lat="45.143815" lon="8.165688"><ele>171.33333333333334</ele><time>2026-03-29T14:50:03.999Z</time></trkpt><trkpt lat="45.1437501" lon="8.1654792"><ele>172.0</ele><time>2026-03-29T14:50:04.999Z</time></trkpt><trkpt lat="45.1436813" lon="8.1652713"><ele>172.0</ele><time>2026-03-29T14:50:05.999Z</time></trkpt><trkpt lat="45.1435943" lon="8.1650657"><ele>172.0</ele><time>2026-03-29T14:50:06.999Z</time></trkpt><trkpt lat="45.1434884" lon="8.1648492"><ele>172.0</ele><time>2026-03-29T14:50:07.999Z</time></trkpt><trkpt lat="45.143396" lon="8.1646248"><ele>172.0</ele><time>2026-03-29T14:50:08.999Z</time></trkpt><trkpt lat="45.1433075" lon="8.1643878"><ele>172.0</ele><time>2026-03-29T14:50:09.999Z</time></trkpt><trkpt lat="45.143223" lon="8.1641463"><ele>172.0</ele><time>2026-03-29T14:50:10.999Z</time></trkpt><trkpt lat="45.1431392" lon="8.1639116"><ele>172.33333333333334</ele><time>2026-03-29T14:50:11.999Z</time></trkpt><trkpt lat="45.1430628" lon="8.1636854"><ele>172.66666666666666</ele><time>2026-03-29T14:50:12.999Z</time></trkpt><trkpt lat="45.1429852" lon="8.1634768"><ele>173.0</ele><time>2026-03-29T14:50:13.999Z</time></trkpt><trkpt lat="45.1428992" lon="8.1632724"><ele>174.33333333333331</ele><time>2026-03-29T14:50:14.999Z</time></trkpt><trkpt lat="45.1428072" lon="8.1630697"><ele>175.66666666666666</ele><time>2026-03-29T14:50:15.999Z</time></trkpt><trkpt lat="45.1427071" lon="8.1628594"><ele>177.0</ele><time>2026-03-29T14:50:16.999Z</time></trkpt><trkpt lat="45.142592" lon="8.1626422"><ele>177.0</ele><time>2026-03-29T14:50:17.999Z</time></trkpt><trkpt lat="45.1424788" lon="8.1624292"><ele>177.0</ele><time>2026-03-29T14:50:18.999Z</time></trkpt><trkpt lat="45.1423733" lon="8.1622284"><ele>177.0</ele><time>2026-03-29T14:50:19.999Z</time></trkpt><trkpt lat="45.1422689" lon="8.1620366"><ele>177.0</ele><time>2026-03-29T14:50:20.999Z</time></trkpt><trkpt lat="45.1421684" lon="8.1618505"><ele>177.0</ele><time>2026-03-29T14:50:21.999Z</time></trkpt><trkpt lat="45.1420693" lon="8.1616661"><ele>177.0</ele><time>2026-03-29T14:50:22.999Z</time></trkpt><trkpt lat="45.1419733" lon="8.1614746"><ele>177.33333333333334</ele><time>2026-03-29T14:50:23.999Z</time></trkpt><trkpt lat="45.1418914" lon="8.161279"><ele>177.66666666666669</ele><time>2026-03-29T14:50:24.999Z</time></trkpt><trkpt lat="45.1418039" lon="8.1610711"><ele>178.0</ele><time>2026-03-29T14:50:25.999Z</time></trkpt><trkpt lat="45.1417283" lon="8.160847"><ele>178.66666666666669</ele><time>2026-03-29T14:50:26.999Z</time></trkpt><trkpt lat="45.1416673" lon="8.1606241"><ele>179.33333333333334</ele><time>2026-03-29T14:50:27.999Z</time></trkpt><trkpt lat="45.1416207" lon="8.1604035"><ele>180.0</ele><time>2026-03-29T14:50:28.999Z</time></trkpt><trkpt lat="45.1415714" lon="8.1602077"><ele>180.0</ele><time>2026-03-29T14:50:29.999Z</time></trkpt><trkpt lat="45.1415077" lon="8.1600514"><ele>180.0</ele><time>2026-03-29T14:50:30.999Z</time></trkpt><trkpt lat="45.141413" lon="8.1599209"><ele>180.0</ele><time>2026-03-29T14:50:31.999Z</time></trkpt><trkpt lat="45.1412915" lon="8.1598064"><ele>180.0</ele><time>2026-03-29T14:50:32.999Z</time></trkpt><trkpt lat="45.1411627" lon="8.1596935"><ele>180.0</ele><time>2026-03-29T14:50:33.999Z</time></trkpt><trkpt lat="45.1410288" lon="8.1595623"><ele>180.0</ele><time>2026-03-29T14:50:34.999Z</time></trkpt><trkpt lat="45.1408908" lon="8.1594384"><ele>180.0</ele><time>2026-03-29T14:50:35.999Z</time></trkpt><trkpt lat="45.1407526" lon="8.1593332"><ele>179.25</ele><time>2026-03-29T14:50:36.999Z</time></trkpt><trkpt lat="45.140614" lon="8.1592731"><ele>178.5</ele><time>2026-03-29T14:50:37.999Z</time></trkpt><trkpt lat="45.140487" lon="8.1592451"><ele>177.75</ele><time>2026-03-29T14:50:38.999Z</time></trkpt><trkpt lat="45.1403529" lon="8.1592366"><ele>177.0</ele><time>2026-03-29T14:50:39.999Z</time></trkpt><trkpt lat="45.1402223" lon="8.1591758"><ele>177.0</ele><time>2026-03-29T14:50:40.999Z</time></trkpt><trkpt lat="45.1401016" lon="8.159097"><ele>177.0</ele><time>2026-03-29T14:50:41.999Z</time></trkpt><trkpt lat="45.1399737" lon="8.1589634"><ele>177.0</ele><time>2026-03-29T14:50:42.999Z</time></trkpt><trkpt lat="45.1398422" lon="8.158801"><ele>177.66666666666666</ele><time>2026-03-29T14:50:43.999Z</time></trkpt><trkpt lat="45.1397168" lon="8.1586388"><ele>178.33333333333331</ele><time>2026-03-29T14:50:44.999Z</time></trkpt><trkpt lat="45.1396007" lon="8.1584759"><ele>179.0</ele><time>2026-03-29T14:50:45.999Z</time></trkpt><trkpt lat="45.1394828" lon="8.1582939"><ele>181.33333333333331</ele><time>2026-03-29T14:50:46.999Z</time></trkpt><trkpt lat="45.1393602" lon="8.158106"><ele>183.66666666666666</ele><time>2026-03-29T14:50:47.999Z</time></trkpt><trkpt lat="45.1392284" lon="8.1579255"><ele>186.0</ele><time>2026-03-29T14:50:48.999Z</time></trkpt><trkpt lat="45.1391007" lon="8.1577456"><ele>185.66666666666666</ele><time>2026-03-29T14:50:49.999Z</time></trkpt><trkpt lat="45.1389777" lon="8.1575471"><ele>185.33333333333331</ele><time>2026-03-29T14:50:50.999Z</time></trkpt><trkpt lat="45.1388703" lon="8.157338"><ele>185.0</ele><time>2026-03-29T14:50:51.999Z</time></trkpt><trkpt lat="45.1387742" lon="8.1571375"><ele>185.0</ele><time>2026-03-29T14:50:52.999Z</time></trkpt><trkpt lat="45.1386873" lon="8.1569477"><ele>185.0</ele><time>2026-03-29T14:50:53.999Z</time></trkpt><trkpt lat="45.1386054" lon="8.1567695"><ele>185.0</ele><time>2026-03-29T14:50:54.999Z</time></trkpt><trkpt lat="45.1385159" lon="8.1565914"><ele>184.0</ele><time>2026-03-29T14:50:55.999Z</time></trkpt><trkpt lat="45.1384072" lon="8.1564226"><ele>183.0</ele><time>2026-03-29T14:50:56.999Z</time></trkpt><trkpt lat="45.1382706" lon="8.1562665"><ele>182.0</ele><time>2026-03-29T14:50:57.999Z</time></trkpt><trkpt lat="45.1381286" lon="8.1561165"><ele>182.0</ele><time>2026-03-29T14:50:58.999Z</time></trkpt><trkpt lat="45.1379976" lon="8.1559658"><ele>182.0</ele><time>2026-03-29T14:50:59.999Z</time></trkpt><trkpt lat="45.1378823" lon="8.1558067"><ele>182.0</ele><time>2026-03-29T14:51:00.999Z</time></trkpt><trkpt lat="45.1377765" lon="8.1556584"><ele>181.33333333333331</ele><time>2026-03-29T14:51:01.999Z</time></trkpt><trkpt lat="45.1376478" lon="8.1555402"><ele>180.66666666666666</ele><time>2026-03-29T14:51:02.999Z</time></trkpt><trkpt lat="45.1375031" lon="8.1554503"><ele>180.0</ele><time>2026-03-29T14:51:03.999Z</time></trkpt><trkpt lat="45.1373589" lon="8.1553335"><ele>180.0</ele><time>2026-03-29T14:51:04.999Z</time></trkpt><trkpt lat="45.1372297" lon="8.1551707"><ele>180.0</ele><time>2026-03-29T14:51:05.999Z</time></trkpt><trkpt lat="45.1371086" lon="8.1549761"><ele>180.0</ele><time>2026-03-29T14:51:06.999Z</time></trkpt><trkpt lat="45.1369927" lon="8.154767"><ele>182.33333333333334</ele><time>2026-03-29T14:51:07.999Z</time></trkpt><trkpt lat="45.1368707" lon="8.1545459"><ele>184.66666666666669</ele><time>2026-03-29T14:51:08.999Z</time></trkpt><trkpt lat="45.1367327" lon="8.1543379"><ele>187.0</ele><time>2026-03-29T14:51:09.999Z</time></trkpt><trkpt lat="45.1365755" lon="8.1541513"><ele>187.33333333333334</ele><time>2026-03-29T14:51:10.999Z</time></trkpt><trkpt lat="45.1364327" lon="8.1539846"><ele>187.66666666666666</ele><time>2026-03-29T14:51:11.999Z</time></trkpt><trkpt lat="45.1363184" lon="8.1538352"><ele>188.0</ele><time>2026-03-29T14:51:12.999Z</time></trkpt><trkpt lat="45.1362262" lon="8.153701"><ele>188.0</ele><time>2026-03-29T14:51:13.999Z</time></trkpt><trkpt lat="45.136164" lon="8.153545"><ele>188.0</ele><time>2026-03-29T14:51:14.999Z</time></trkpt><trkpt lat="45.1361478" lon="8.1533763"><ele>188.0</ele><time>2026-03-29T14:51:15.999Z</time></trkpt><trkpt lat="45.136164" lon="8.1531983"><ele>188.0</ele><time>2026-03-29T14:51:16.999Z</time></trkpt><trkpt lat="45.1361776" lon="8.1530112"><ele>191.4</ele><time>2026-03-29T14:51:17.999Z</time></trkpt><trkpt lat="45.1361821" lon="8.1528304"><ele>194.8</ele><time>2026-03-29T14:51:18.999Z</time></trkpt><trkpt lat="45.1361773" lon="8.1526636"><ele>198.2</ele><time>2026-03-29T14:51:19.999Z</time></trkpt><trkpt lat="45.1361452" lon="8.1525343"><ele>201.6</ele><time>2026-03-29T14:51:20.999Z</time></trkpt><trkpt lat="45.1360838" lon="8.152459"><ele>205.0</ele><time>2026-03-29T14:51:21.999Z</time></trkpt><trkpt lat="45.1360185" lon="8.1524115"><ele>205.0</ele><time>2026-03-29T14:51:22.999Z</time></trkpt><trkpt lat="45.135916" lon="8.1524512"><ele>205.0</ele><time>2026-03-29T14:51:23.999Z</time></trkpt><trkpt lat="45.1358149" lon="8.1524904"><ele>205.0</ele><time>2026-03-29T14:51:24.999Z</time></trkpt><trkpt lat="45.135698" lon="8.1525204"><ele>205.0</ele><time>2026-03-29T14:51:25.999Z</time></trkpt><trkpt lat="45.13557" lon="8.1525423"><ele>203.75</ele><time>2026-03-29T14:51:26.999Z</time></trkpt><trkpt lat="45.1354338" lon="8.152608"><ele>202.5</ele><time>2026-03-29T14:51:27.999Z</time></trkpt><trkpt lat="45.1353124" lon="8.1526872"><ele>201.25</ele><time>2026-03-29T14:51:28.999Z</time></trkpt><trkpt lat="45.1351881" lon="8.1527491"><ele>200.0</ele><time>2026-03-29T14:51:29.999Z</time></trkpt><trkpt lat="45.135068" lon="8.1527938"><ele>200.0</ele><time>2026-03-29T14:51:30.999Z</time></trkpt><trkpt lat="45.1349498" lon="8.1528256"><ele>200.0</ele><time>2026-03-29T14:51:31.999Z</time></trkpt><trkpt lat="45.1348302" lon="8.152831"><ele>200.0</ele><time>2026-03-29T14:51:32.999Z</time></trkpt><trkpt lat="45.134742" lon="8.1527458"><ele>200.0</ele><time>2026-03-29T14:51:33.999Z</time></trkpt><trkpt lat="45.1346726" lon="8.1526463"><ele>200.0</ele><time>2026-03-29T14:51:34.999Z</time></trkpt><trkpt lat="45.1346151" lon="8.1525418"><ele>198.0</ele><time>2026-03-29T14:51:35.999Z</time></trkpt><trkpt lat="45.134513" lon="8.1524855"><ele>196.0</ele><time>2026-03-29T14:51:36.999Z</time></trkpt><trkpt lat="45.1344324" lon="8.1524153"><ele>194.0</ele><time>2026-03-29T14:51:37.999Z</time></trkpt><trkpt lat="45.1342652" lon="8.1524263"><ele>192.0</ele><time>2026-03-29T14:51:38.999Z</time></trkpt><trkpt lat="45.1341226" lon="8.1523827"><ele>193.0</ele><time>2026-03-29T14:51:39.999Z</time></trkpt><trkpt lat="45.133968" lon="8.1523398"><ele>194.0</ele><time>2026-03-29T14:51:40.999Z</time></trkpt><trkpt lat="45.133806" lon="8.1522718"><ele>195.0</ele><time>2026-03-29T14:51:41.999Z</time></trkpt><trkpt lat="45.1336353" lon="8.152205"><ele>195.0</ele><time>2026-03-29T14:51:42.999Z</time></trkpt><trkpt lat="45.1334749" lon="8.152149"><ele>195.0</ele><time>2026-03-29T14:51:43.999Z</time></trkpt><trkpt lat="45.1333273" lon="8.1520936"><ele>195.0</ele><time>2026-03-29T14:51:44.999Z</time></trkpt><trkpt lat="45.1331917" lon="8.1520375"><ele>194.0</ele><time>2026-03-29T14:51:45.999Z</time></trkpt><trkpt lat="45.1330705" lon="8.1519814"><ele>193.0</ele><time>2026-03-29T14:51:46.999Z</time></trkpt><trkpt lat="45.1329634" lon="8.1519005"><ele>192.0</ele><time>2026-03-29T14:51:47.999Z</time></trkpt><trkpt lat="45.1328557" lon="8.1517942"><ele>191.0</ele><time>2026-03-29T14:51:48.999Z</time></trkpt><trkpt lat="45.1327377" lon="8.1516755"><ele>191.0</ele><time>2026-03-29T14:51:49.999Z</time></trkpt><trkpt lat="45.1325886" lon="8.1515744"><ele>191.0</ele><time>2026-03-29T14:51:50.999Z</time></trkpt><trkpt lat="45.1324455" lon="8.1514768"><ele>191.0</ele><time>2026-03-29T14:51:51.999Z</time></trkpt><trkpt lat="45.1323098" lon="8.1513672"><ele>191.33333333333331</ele><time>2026-03-29T14:51:52.999Z</time></trkpt><trkpt lat="45.1321803" lon="8.1512377"><ele>191.66666666666666</ele><time>2026-03-29T14:51:53.999Z</time></trkpt><trkpt lat="45.1320475" lon="8.1511038"><ele>192.0</ele><time>2026-03-29T14:51:54.999Z</time></trkpt><trkpt lat="45.1319114" lon="8.1509648"><ele>192.0</ele><time>2026-03-29T14:51:55.999Z</time></trkpt><trkpt lat="45.1317709" lon="8.1508175"><ele>192.0</ele><time>2026-03-29T14:51:56.999Z</time></trkpt><trkpt lat="45.1316242" lon="8.1506584"><ele>192.0</ele><time>2026-03-29T14:51:57.999Z</time></trkpt><trkpt lat="45.1314675" lon="8.1505149"><ele>193.0</ele><time>2026-03-29T14:51:58.999Z</time></trkpt><trkpt lat="45.1313032" lon="8.1503926"><ele>194.0</ele><time>2026-03-29T14:51:59.999Z</time></trkpt><trkpt lat="45.1311379" lon="8.1502762"><ele>195.0</ele><time>2026-03-29T14:52:00.999Z</time></trkpt><trkpt lat="45.1309656" lon="8.1501501"><ele>195.0</ele><time>2026-03-29T14:52:01.999Z</time></trkpt><trkpt lat="45.1307942" lon="8.1500267"><ele>195.0</ele><time>2026-03-29T14:52:02.999Z</time></trkpt><trkpt lat="45.1306218" lon="8.1499209"><ele>195.0</ele><time>2026-03-29T14:52:03.999Z</time></trkpt><trkpt lat="45.1304616" lon="8.1498201"><ele>194.0</ele><time>2026-03-29T14:52:04.999Z</time></trkpt><trkpt lat="45.1303012" lon="8.1497373"><ele>193.0</ele><time>2026-03-29T14:52:05.999Z</time></trkpt><trkpt lat="45.13014" lon="8.1496807"><ele>192.0</ele><time>2026-03-29T14:52:06.999Z</time></trkpt><trkpt lat="45.1299867" lon="8.1496236"><ele>194.25</ele><time>2026-03-29T14:52:07.999Z</time></trkpt><trkpt lat="45.12985" lon="8.1495522"><ele>196.5</ele><time>2026-03-29T14:52:08.999Z</time></trkpt><trkpt lat="45.1297222" lon="8.1494711"><ele>198.75</ele><time>2026-03-29T14:52:09.999Z</time></trkpt><trkpt lat="45.1295919" lon="8.1494318"><ele>201.0</ele><time>2026-03-29T14:52:10.999Z</time></trkpt><trkpt lat="45.1294645" lon="8.1494346"><ele>201.0</ele><time>2026-03-29T14:52:11.999Z</time></trkpt><trkpt lat="45.1293167" lon="8.1495241"><ele>201.0</ele><time>2026-03-29T14:52:12.999Z</time></trkpt><trkpt lat="45.1291902" lon="8.1496025"><ele>201.0</ele><time>2026-03-29T14:52:13.999Z</time></trkpt><trkpt lat="45.1290572" lon="8.1496612"><ele>201.0</ele><time>2026-03-29T14:52:14.999Z</time></trkpt><trkpt lat="45.1289152" lon="8.149682"><ele>201.0</ele><time>2026-03-29T14:52:15.999Z</time></trkpt><trkpt lat="45.1287727" lon="8.1496756"><ele>201.0</ele><time>2026-03-29T14:52:16.999Z</time></trkpt><trkpt lat="45.1286243" lon="8.1496469"><ele>201.0</ele><time>2026-03-29T14:52:17.999Z</time></trkpt><trkpt lat="45.1284749" lon="8.1495755"><ele>201.0</ele><time>2026-03-29T14:52:18.999Z</time></trkpt><trkpt lat="45.1283249" lon="8.1494917"><ele>201.0</ele><time>2026-03-29T14:52:19.999Z</time></trkpt><trkpt lat="45.1281658" lon="8.1494109"><ele>201.0</ele><time>2026-03-29T14:52:20.999Z</time></trkpt><trkpt lat="45.1280191" lon="8.1493095"><ele>200.75</ele><time>2026-03-29T14:52:21.999Z</time></trkpt><trkpt lat="45.1278925" lon="8.1491933"><ele>200.5</ele><time>2026-03-29T14:52:22.999Z</time></trkpt><trkpt lat="45.1277787" lon="8.1490758"><ele>200.25</ele><time>2026-03-29T14:52:23.999Z</time></trkpt><trkpt lat="45.1276758" lon="8.1489723"><ele>200.0</ele><time>2026-03-29T14:52:24.999Z</time></trkpt><trkpt lat="45.1275633" lon="8.1488655"><ele>200.0</ele><time>2026-03-29T14:52:25.999Z</time></trkpt><trkpt lat="45.1274431" lon="8.1487362"><ele>200.0</ele><time>2026-03-29T14:52:26.999Z</time></trkpt><trkpt lat="45.1273157" lon="8.1485948"><ele>200.0</ele><time>2026-03-29T14:52:27.999Z</time></trkpt><trkpt lat="45.1271908" lon="8.1484586"><ele>198.33333333333334</ele><time>2026-03-29T14:52:28.999Z</time></trkpt><trkpt lat="45.1270631" lon="8.1483299"><ele>196.66666666666669</ele><time>2026-03-29T14:52:29.999Z</time></trkpt><trkpt lat="45.1269402" lon="8.1482392"><ele>195.0</ele><time>2026-03-29T14:52:30.999Z</time></trkpt><trkpt lat="45.1267857" lon="8.1481888"><ele>195.66666666666669</ele><time>2026-03-29T14:52:31.999Z</time></trkpt><trkpt lat="45.1266199" lon="8.1481732"><ele>196.33333333333334</ele><time>2026-03-29T14:52:32.999Z</time></trkpt><trkpt lat="45.1264522" lon="8.1481561"><ele>197.0</ele><time>2026-03-29T14:52:33.999Z</time></trkpt><trkpt lat="45.1262881" lon="8.1481274"><ele>197.0</ele><time>2026-03-29T14:52:34.999Z</time></trkpt><trkpt lat="45.1261289" lon="8.148092"><ele>197.0</ele><time>2026-03-29T14:52:35.999Z</time></trkpt><trkpt lat="45.1259808" lon="8.1480457"><ele>197.0</ele><time>2026-03-29T14:52:36.999Z</time></trkpt><trkpt lat="45.125849" lon="8.1479927"><ele>197.5</ele><time>2026-03-29T14:52:37.999Z</time></trkpt><trkpt lat="45.1257198" lon="8.147934"><ele>198.0</ele><time>2026-03-29T14:52:38.999Z</time></trkpt><trkpt lat="45.1255878" lon="8.1478578"><ele>198.5</ele><time>2026-03-29T14:52:39.999Z</time></trkpt><trkpt lat="45.125451" lon="8.1477282"><ele>199.0</ele><time>2026-03-29T14:52:40.999Z</time></trkpt><trkpt lat="45.1253066" lon="8.1475928"><ele>199.0</ele><time>2026-03-29T14:52:41.999Z</time></trkpt><trkpt lat="45.1251479" lon="8.147457"><ele>199.0</ele><time>2026-03-29T14:52:42.999Z</time></trkpt><trkpt lat="45.1249792" lon="8.1473235"><ele>199.0</ele><time>2026-03-29T14:52:43.999Z</time></trkpt><trkpt lat="45.1247945" lon="8.1472178"><ele>199.0</ele><time>2026-03-29T14:52:44.999Z</time></trkpt><trkpt lat="45.1245972" lon="8.1471232"><ele>199.0</ele><time>2026-03-29T14:52:45.999Z</time></trkpt><trkpt lat="45.1243921" lon="8.1470335"><ele>199.0</ele><time>2026-03-29T14:52:46.999Z</time></trkpt><trkpt lat="45.124182" lon="8.1469493"><ele>203.0</ele><time>2026-03-29T14:52:47.999Z</time></trkpt><trkpt lat="45.1239656" lon="8.1468743"><ele>207.0</ele><time>2026-03-29T14:52:48.999Z</time></trkpt><trkpt lat="45.1237372" lon="8.14679"><ele>207.0</ele><time>2026-03-29T14:52:49.999Z</time></trkpt><trkpt lat="45.1235151" lon="8.1466868"><ele>207.0</ele><time>2026-03-29T14:52:50.999Z</time></trkpt><trkpt lat="45.123294" lon="8.1465694"><ele>206.66666666666669</ele><time>2026-03-29T14:52:51.999Z</time></trkpt><trkpt lat="45.1230958" lon="8.1464407"><ele>206.33333333333334</ele><time>2026-03-29T14:52:52.999Z</time></trkpt><trkpt lat="45.1229091" lon="8.1463312"><ele>206.0</ele><time>2026-03-29T14:52:53.999Z</time></trkpt><trkpt lat="45.1227416" lon="8.1462325"><ele>206.0</ele><time>2026-03-29T14:52:54.999Z</time></trkpt><trkpt lat="45.1225837" lon="8.1461388"><ele>206.0</ele><time>2026-03-29T14:52:55.999Z</time></trkpt><trkpt lat="45.1224411" lon="8.1460571"><ele>206.0</ele><time>2026-03-29T14:52:56.999Z</time></trkpt><trkpt lat="45.1222983" lon="8.1459899"><ele>207.33333333333334</ele><time>2026-03-29T14:52:57.999Z</time></trkpt><trkpt lat="45.1221459" lon="8.1459325"><ele>208.66666666666669</ele><time>2026-03-29T14:52:58.999Z</time></trkpt><trkpt lat="45.1219716" lon="8.1458814"><ele>210.0</ele><time>2026-03-29T14:52:59.999Z</time></trkpt><trkpt lat="45.1218138" lon="8.1458173"><ele>210.0</ele><time>2026-03-29T14:53:00.999Z</time></trkpt><trkpt lat="45.1216786" lon="8.145717"><ele>210.0</ele><time>2026-03-29T14:53:01.999Z</time></trkpt><trkpt lat="45.1215645" lon="8.145563"><ele>210.0</ele><time>2026-03-29T14:53:02.999Z</time></trkpt><trkpt lat="45.1214735" lon="8.1453738"><ele>211.66666666666669</ele><time>2026-03-29T14:53:03.999Z</time></trkpt><trkpt lat="45.1213809" lon="8.1451605"><ele>213.33333333333334</ele><time>2026-03-29T14:53:04.999Z</time></trkpt><trkpt lat="45.121268" lon="8.144944"><ele>215.0</ele><time>2026-03-29T14:53:05.999Z</time></trkpt><trkpt lat="45.1211502" lon="8.144722"><ele>215.0</ele><time>2026-03-29T14:53:06.999Z</time></trkpt><trkpt lat="45.1210422" lon="8.1444692"><ele>215.0</ele><time>2026-03-29T14:53:07.999Z</time></trkpt><trkpt lat="45.1209481" lon="8.1441902"><ele>215.0</ele><time>2026-03-29T14:53:08.999Z</time></trkpt><trkpt lat="45.1208665" lon="8.1439134"><ele>214.33333333333334</ele><time>2026-03-29T14:53:09.999Z</time></trkpt><trkpt lat="45.1207799" lon="8.1436369"><ele>213.66666666666669</ele><time>2026-03-29T14:53:10.999Z</time></trkpt><trkpt lat="45.1206729" lon="8.1433667"><ele>213.0</ele><time>2026-03-29T14:53:11.999Z</time></trkpt><trkpt lat="45.1205502" lon="8.1430927"><ele>218.0</ele><time>2026-03-29T14:53:12.999Z</time></trkpt><trkpt lat="45.1204174" lon="8.1428206"><ele>223.0</ele><time>2026-03-29T14:53:13.999Z</time></trkpt><trkpt lat="45.1202909" lon="8.1425367"><ele>219.5</ele><time>2026-03-29T14:53:14.999Z</time></trkpt><trkpt lat="45.1201747" lon="8.142244"><ele>216.0</ele><time>2026-03-29T14:53:15.999Z</time></trkpt><trkpt lat="45.1200749" lon="8.1419639"><ele>216.0</ele><time>2026-03-29T14:53:16.999Z</time></trkpt><trkpt lat="45.1199859" lon="8.141697"><ele>216.0</ele><time>2026-03-29T14:53:17.999Z</time></trkpt><trkpt lat="45.1199018" lon="8.1414535"><ele>216.0</ele><time>2026-03-29T14:53:18.999Z</time></trkpt><trkpt lat="45.1198298" lon="8.1412391"><ele>216.75</ele><time>2026-03-29T14:53:19.999Z</time></trkpt><trkpt lat="45.1197472" lon="8.1410447"><ele>217.5</ele><time>2026-03-29T14:53:20.999Z</time></trkpt><trkpt lat="45.1196578" lon="8.1408731"><ele>218.25</ele><time>2026-03-29T14:53:21.999Z</time></trkpt><trkpt lat="45.1195658" lon="8.1407565"><ele>219.0</ele><time>2026-03-29T14:53:22.999Z</time></trkpt><trkpt lat="45.119381" lon="8.1406976"><ele>218.66666666666669</ele><time>2026-03-29T14:53:23.999Z</time></trkpt><trkpt lat="45.1192219" lon="8.1406218"><ele>218.33333333333334</ele><time>2026-03-29T14:53:24.999Z</time></trkpt><trkpt lat="45.1190602" lon="8.1405214"><ele>218.0</ele><time>2026-03-29T14:53:25.999Z</time></trkpt><trkpt lat="45.1188795" lon="8.1404049"><ele>218.0</ele><time>2026-03-29T14:53:26.999Z</time></trkpt><trkpt lat="45.1187023" lon="8.1402669"><ele>218.0</ele><time>2026-03-29T14:53:27.999Z</time></trkpt><trkpt lat="45.1185249" lon="8.1401286"><ele>218.0</ele><time>2026-03-29T14:53:28.999Z</time></trkpt><trkpt lat="45.1183322" lon="8.1399923"><ele>218.5</ele><time>2026-03-29T14:53:29.999Z</time></trkpt><trkpt lat="45.1181071" lon="8.1398874"><ele>219.0</ele><time>2026-03-29T14:53:30.999Z</time></trkpt><trkpt lat="45.1178988" lon="8.1398192"><ele>218.0</ele><time>2026-03-29T14:53:31.999Z</time></trkpt><trkpt lat="45.1177001" lon="8.1397395"><ele>217.0</ele><time>2026-03-29T14:53:32.999Z</time></trkpt><trkpt lat="45.1175369" lon="8.1396137"><ele>216.0</ele><time>2026-03-29T14:53:33.999Z</time></trkpt><trkpt lat="45.1173856" lon="8.1394363"><ele>218.0</ele><time>2026-03-29T14:53:34.999Z</time></trkpt><trkpt lat="45.1172332" lon="8.1392386"><ele>220.0</ele><time>2026-03-29T14:53:35.999Z</time></trkpt><trkpt lat="45.1170709" lon="8.139048"><ele>222.0</ele><time>2026-03-29T14:53:36.999Z</time></trkpt><trkpt lat="45.1169285" lon="8.1388761"><ele>222.0</ele><time>2026-03-29T14:53:37.999Z</time></trkpt><trkpt lat="45.1168014" lon="8.1387085"><ele>222.0</ele><time>2026-03-29T14:53:38.999Z</time></trkpt><trkpt lat="45.1166625" lon="8.1385693"><ele>222.0</ele><time>2026-03-29T14:53:39.999Z</time></trkpt><trkpt lat="45.1165178" lon="8.1384621"><ele>224.66666666666669</ele><time>2026-03-29T14:53:40.999Z</time></trkpt><trkpt lat="45.1163717" lon="8.1383922"><ele>227.33333333333334</ele><time>2026-03-29T14:53:41.999Z</time></trkpt><trkpt lat="45.1162176" lon="8.1383567"><ele>230.0</ele><time>2026-03-29T14:53:42.999Z</time></trkpt><trkpt lat="45.1160515" lon="8.1383693"><ele>230.0</ele><time>2026-03-29T14:53:43.999Z</time></trkpt><trkpt lat="45.1159005" lon="8.1383596"><ele>230.0</ele><time>2026-03-29T14:53:44.999Z</time></trkpt><trkpt lat="45.1157779" lon="8.1383094"><ele>230.0</ele><time>2026-03-29T14:53:45.999Z</time></trkpt><trkpt lat="45.1156788" lon="8.1382869"><ele>230.0</ele><time>2026-03-29T14:53:46.999Z</time></trkpt><trkpt lat="45.1155937" lon="8.138267"><ele>230.0</ele><time>2026-03-29T14:53:47.999Z</time></trkpt><trkpt lat="45.115524" lon="8.1382992"><ele>230.0</ele><time>2026-03-29T14:53:48.999Z</time></trkpt><trkpt lat="45.1155131" lon="8.1384588"><ele>230.0</ele><time>2026-03-29T14:53:49.999Z</time></trkpt><trkpt lat="45.1155761" lon="8.1385853"><ele>230.0</ele><time>2026-03-29T14:53:50.999Z</time></trkpt><trkpt lat="45.1156295" lon="8.1386836"><ele>230.0</ele><time>2026-03-29T14:53:51.999Z</time></trkpt><trkpt lat="45.1157548" lon="8.1387206"><ele>230.0</ele><time>2026-03-29T14:53:52.999Z</time></trkpt><trkpt lat="45.1158646" lon="8.1387976"><ele>230.0</ele><time>2026-03-29T14:53:53.999Z</time></trkpt><trkpt lat="45.1159727" lon="8.1389177"><ele>230.0</ele><time>2026-03-29T14:53:54.999Z</time></trkpt><trkpt lat="45.1160683" lon="8.1390749"><ele>230.0</ele><time>2026-03-29T14:53:55.999Z</time></trkpt><trkpt lat="45.1161382" lon="8.1392648"><ele>235.33333333333334</ele><time>2026-03-29T14:53:56.999Z</time></trkpt><trkpt lat="45.116203" lon="8.1394758"><ele>240.66666666666669</ele><time>2026-03-29T14:53:57.999Z</time></trkpt><trkpt lat="45.1162979" lon="8.1396802"><ele>246.0</ele><time>2026-03-29T14:53:59Z</time></trkpt><trkpt lat="45.1164009" lon="8.1398752"><ele>244.5</ele><time>2026-03-29T14:53:59.999Z</time></trkpt><trkpt lat="45.1164989" lon="8.1400426"><ele>243.0</ele><time>2026-03-29T14:54:00.999Z</time></trkpt><trkpt lat="45.1165786" lon="8.1401844"><ele>241.5</ele><time>2026-03-29T14:54:01.999Z</time></trkpt><trkpt lat="45.1166342" lon="8.1402954"><ele>240.0</ele><time>2026-03-29T14:54:02.999Z</time></trkpt><trkpt lat="45.1166851" lon="8.1404064"><ele>240.0</ele><time>2026-03-29T14:54:03.999Z</time></trkpt><trkpt lat="45.116691" lon="8.1404959"><ele>240.0</ele><time>2026-03-29T14:54:04.999Z</time></trkpt><trkpt lat="45.1166391" lon="8.1405661"><ele>240.0</ele><time>2026-03-29T14:54:05.999Z</time></trkpt><trkpt lat="45.1165752" lon="8.1406205"><ele>240.0</ele><time>2026-03-29T14:54:06.999Z</time></trkpt><trkpt lat="45.1165086" lon="8.1406202"><ele>240.0</ele><time>2026-03-29T14:54:07.999Z</time></trkpt><trkpt lat="45.1163952" lon="8.140504"><ele>240.0</ele><time>2026-03-29T14:54:08.999Z</time></trkpt><trkpt lat="45.1163121" lon="8.1403043"><ele>241.5</ele><time>2026-03-29T14:54:09.999Z</time></trkpt><trkpt lat="45.1162289" lon="8.1401542"><ele>243.0</ele><time>2026-03-29T14:54:11Z</time></trkpt><trkpt lat="45.1161298" lon="8.1400318"><ele>244.5</ele><time>2026-03-29T14:54:11.999Z</time></trkpt><trkpt lat="45.1160234" lon="8.1399201"><ele>246.0</ele><time>2026-03-29T14:54:12.999Z</time></trkpt><trkpt lat="45.1159286" lon="8.139803"><ele>246.0</ele><time>2026-03-29T14:54:13.999Z</time></trkpt><trkpt lat="45.1158592" lon="8.1396561"><ele>246.0</ele><time>2026-03-29T14:54:14.999Z</time></trkpt><trkpt lat="45.1157981" lon="8.1395237"><ele>246.0</ele><time>2026-03-29T14:54:15.999Z</time></trkpt><trkpt lat="45.11572" lon="8.1394496"><ele>246.0</ele><time>2026-03-29T14:54:16.999Z</time></trkpt><trkpt lat="45.1156012" lon="8.1393998"><ele>248.5</ele><time>2026-03-29T14:54:17.999Z</time></trkpt><trkpt lat="45.1154873" lon="8.1393663"><ele>251.0</ele><time>2026-03-29T14:54:18.999Z</time></trkpt><trkpt lat="45.1153578" lon="8.1393431"><ele>253.5</ele><time>2026-03-29T14:54:19.999Z</time></trkpt><trkpt lat="45.1152171" lon="8.1393646"><ele>256.0</ele><time>2026-03-29T14:54:20.999Z</time></trkpt><trkpt lat="45.1150902" lon="8.1394554"><ele>256.0</ele><time>2026-03-29T14:54:21.999Z</time></trkpt><trkpt lat="45.1149714" lon="8.1395666"><ele>256.0</ele><time>2026-03-29T14:54:22.999Z</time></trkpt><trkpt lat="45.1148501" lon="8.1397055"><ele>256.0</ele><time>2026-03-29T14:54:23.999Z</time></trkpt><trkpt lat="45.1147245" lon="8.1398323"><ele>259.66666666666663</ele><time>2026-03-29T14:54:24.999Z</time></trkpt><trkpt lat="45.1145957" lon="8.1399713"><ele>263.3333333333333</ele><time>2026-03-29T14:54:25.999Z</time></trkpt><trkpt lat="45.1144614" lon="8.1400848"><ele>267.0</ele><time>2026-03-29T14:54:26.999Z</time></trkpt><trkpt lat="45.1143251" lon="8.1401738"><ele>267.0</ele><time>2026-03-29T14:54:27.999Z</time></trkpt><trkpt lat="45.1142042" lon="8.1402544"><ele>267.0</ele><time>2026-03-29T14:54:28.999Z</time></trkpt><trkpt lat="45.1141033" lon="8.1403699"><ele>267.0</ele><time>2026-03-29T14:54:29.999Z</time></trkpt><trkpt lat="45.1140194" lon="8.140496"><ele>267.0</ele><time>2026-03-29T14:54:30.999Z</time></trkpt><trkpt lat="45.1139707" lon="8.1406322"><ele>266.25</ele><time>2026-03-29T14:54:31.999Z</time></trkpt><trkpt lat="45.1139518" lon="8.1407896"><ele>265.5</ele><time>2026-03-29T14:54:32.999Z</time></trkpt><trkpt lat="45.1139956" lon="8.140956"><ele>264.75</ele><time>2026-03-29T14:54:33.999Z</time></trkpt><trkpt lat="45.1140479" lon="8.1411207"><ele>264.0</ele><time>2026-03-29T14:54:34.999Z</time></trkpt><trkpt lat="45.1140579" lon="8.1413025"><ele>264.0</ele><time>2026-03-29T14:54:35.999Z</time></trkpt><trkpt lat="45.1140311" lon="8.1414905"><ele>264.0</ele><time>2026-03-29T14:54:36.999Z</time></trkpt><trkpt lat="45.1139755" lon="8.1416777"><ele>264.0</ele><time>2026-03-29T14:54:37.999Z</time></trkpt><trkpt lat="45.1138962" lon="8.1418476"><ele>264.0</ele><time>2026-03-29T14:54:38.999Z</time></trkpt><trkpt lat="45.1137918" lon="8.141998"><ele>267.0</ele><time>2026-03-29T14:54:39.999Z</time></trkpt><trkpt lat="45.1136738" lon="8.1421451"><ele>270.0</ele><time>2026-03-29T14:54:40.999Z</time></trkpt><trkpt lat="45.1135606" lon="8.1423083"><ele>273.0</ele><time>2026-03-29T14:54:41.999Z</time></trkpt><trkpt lat="45.1134536" lon="8.1424913"><ele>275.5</ele><time>2026-03-29T14:54:42.999Z</time></trkpt><trkpt lat="45.1133573" lon="8.1426653"><ele>278.0</ele><time>2026-03-29T14:54:43.999Z</time></trkpt><trkpt lat="45.1132859" lon="8.1428277"><ele>280.5</ele><time>2026-03-29T14:54:44.999Z</time></trkpt><trkpt lat="45.1132537" lon="8.1430093"><ele>283.0</ele><time>2026-03-29T14:54:45.999Z</time></trkpt><trkpt lat="45.1132442" lon="8.1431843"><ele>286.0</ele><time>2026-03-29T14:54:46.999Z</time></trkpt><trkpt lat="45.1132262" lon="8.1433413"><ele>289.0</ele><time>2026-03-29T14:54:47.999Z</time></trkpt><trkpt lat="45.113176" lon="8.1434737"><ele>292.0</ele><time>2026-03-29T14:54:48.999Z</time></trkpt><trkpt lat="45.1130986" lon="8.1435739"><ele>295.0</ele><time>2026-03-29T14:54:49.999Z</time></trkpt><trkpt lat="45.1130035" lon="8.1436536"><ele>298.0</ele><time>2026-03-29T14:54:50.999Z</time></trkpt><trkpt lat="45.112897" lon="8.1436873"><ele>298.0</ele><time>2026-03-29T14:54:51.999Z</time></trkpt><trkpt lat="45.1127863" lon="8.1436501"><ele>298.0</ele><time>2026-03-29T14:54:52.999Z</time></trkpt><trkpt lat="45.1126952" lon="8.143539"><ele>298.0</ele><time>2026-03-29T14:54:53.999Z</time></trkpt><trkpt lat="45.1126146" lon="8.1433995"><ele>298.0</ele><time>2026-03-29T14:54:54.999Z</time></trkpt><trkpt lat="45.1125331" lon="8.1432669"><ele>295.6</ele><time>2026-03-29T14:54:55.999Z</time></trkpt><trkpt lat="45.1124422" lon="8.1431606"><ele>293.20000000000005</ele><time>2026-03-29T14:54:56.999Z</time></trkpt><trkpt lat="45.1123469" lon="8.1431142"><ele>290.8</ele><time>2026-03-29T14:54:57.999Z</time></trkpt><trkpt lat="45.1122403" lon="8.1431033"><ele>288.40000000000003</ele><time>2026-03-29T14:54:58.999Z</time></trkpt><trkpt lat="45.1121281" lon="8.1431218"><ele>286.0</ele><time>2026-03-29T14:54:59.999Z</time></trkpt><trkpt lat="45.1120093" lon="8.1431413"><ele>285.75</ele><time>2026-03-29T14:55:00.999Z</time></trkpt><trkpt lat="45.1118896" lon="8.1431584"><ele>285.5</ele><time>2026-03-29T14:55:01.999Z</time></trkpt><trkpt lat="45.1117637" lon="8.1431909"><ele>285.25</ele><time>2026-03-29T14:55:02.999Z</time></trkpt><trkpt lat="45.1116416" lon="8.1432498"><ele>285.0</ele><time>2026-03-29T14:55:03.999Z</time></trkpt><trkpt lat="45.1115188" lon="8.1433603"><ele>288.0</ele><time>2026-03-29T14:55:04.999Z</time></trkpt><trkpt lat="45.1114054" lon="8.1434781"><ele>291.0</ele><time>2026-03-29T14:55:05.999Z</time></trkpt><trkpt lat="45.1112837" lon="8.1435714"><ele>294.0</ele><time>2026-03-29T14:55:06.999Z</time></trkpt><trkpt lat="45.1111414" lon="8.14363"><ele>297.0</ele><time>2026-03-29T14:55:07.999Z</time></trkpt><trkpt lat="45.1109948" lon="8.1436597"><ele>297.0</ele><time>2026-03-29T14:55:08.999Z</time></trkpt><trkpt lat="45.110852" lon="8.1436725"><ele>297.0</ele><time>2026-03-29T14:55:09.999Z</time></trkpt><trkpt lat="45.1107307" lon="8.1436839"><ele>297.0</ele><time>2026-03-29T14:55:10.999Z</time></trkpt><trkpt lat="45.1106158" lon="8.1437409"><ele>297.0</ele><time>2026-03-29T14:55:11.999Z</time></trkpt><trkpt lat="45.1104946" lon="8.1438504"><ele>297.25</ele><time>2026-03-29T14:55:12.999Z</time></trkpt><trkpt lat="45.1103822" lon="8.1439521"><ele>297.5</ele><time>2026-03-29T14:55:13.999Z</time></trkpt><trkpt lat="45.110287" lon="8.1440553"><ele>297.75</ele><time>2026-03-29T14:55:14.999Z</time></trkpt><trkpt lat="45.1102025" lon="8.1441488"><ele>298.0</ele><time>2026-03-29T14:55:15.999Z</time></trkpt><trkpt lat="45.1101127" lon="8.1442403"><ele>300.2</ele><time>2026-03-29T14:55:16.999Z</time></trkpt><trkpt lat="45.109997" lon="8.1442756"><ele>302.4</ele><time>2026-03-29T14:55:17.999Z</time></trkpt><trkpt lat="45.1098943" lon="8.1442968"><ele>304.59999999999997</ele><time>2026-03-29T14:55:18.999Z</time></trkpt><trkpt lat="45.1097942" lon="8.1442744"><ele>306.8</ele><time>2026-03-29T14:55:19.999Z</time></trkpt><trkpt lat="45.1096945" lon="8.1442087"><ele>309.0</ele><time>2026-03-29T14:55:20.999Z</time></trkpt><trkpt lat="45.1095893" lon="8.144094"><ele>308.5</ele><time>2026-03-29T14:55:21.999Z</time></trkpt><trkpt lat="45.1094802" lon="8.1439534"><ele>308.0</ele><time>2026-03-29T14:55:22.999Z</time></trkpt><trkpt lat="45.1093748" lon="8.1437999"><ele>307.5</ele><time>2026-03-29T14:55:23.999Z</time></trkpt><trkpt lat="45.1092816" lon="8.1436422"><ele>307.0</ele><time>2026-03-29T14:55:24.999Z</time></trkpt><trkpt lat="45.1092014" lon="8.1434832"><ele>307.0</ele><time>2026-03-29T14:55:25.999Z</time></trkpt><trkpt lat="45.1091266" lon="8.1433343"><ele>307.0</ele><time>2026-03-29T14:55:26.999Z</time></trkpt><trkpt lat="45.1090591" lon="8.1431879"><ele>307.0</ele><time>2026-03-29T14:55:27.999Z</time></trkpt><trkpt lat="45.1089948" lon="8.1430572"><ele>307.0</ele><time>2026-03-29T14:55:28.999Z</time></trkpt><trkpt lat="45.1089433" lon="8.1429263"><ele>305.8</ele><time>2026-03-29T14:55:29.999Z</time></trkpt><trkpt lat="45.108887" lon="8.142808"><ele>304.6</ele><time>2026-03-29T14:55:30.999Z</time></trkpt><trkpt lat="45.1088387" lon="8.1426809"><ele>303.40000000000003</ele><time>2026-03-29T14:55:31.999Z</time></trkpt><trkpt lat="45.1088036" lon="8.1425322"><ele>302.2</ele><time>2026-03-29T14:55:32.999Z</time></trkpt><trkpt lat="45.1087893" lon="8.142375"><ele>301.0</ele><time>2026-03-29T14:55:33.999Z</time></trkpt><trkpt lat="45.1087739" lon="8.1422121"><ele>300.5</ele><time>2026-03-29T14:55:34.999Z</time></trkpt><trkpt lat="45.1087322" lon="8.1420445"><ele>300.0</ele><time>2026-03-29T14:55:35.999Z</time></trkpt><trkpt lat="45.1086655" lon="8.1418691"><ele>299.5</ele><time>2026-03-29T14:55:36.999Z</time></trkpt><trkpt lat="45.1085692" lon="8.1417"><ele>299.0</ele><time>2026-03-29T14:55:37.999Z</time></trkpt><trkpt lat="45.1084506" lon="8.1415481"><ele>297.0</ele><time>2026-03-29T14:55:38.999Z</time></trkpt><trkpt lat="45.1083124" lon="8.1414048"><ele>295.0</ele><time>2026-03-29T14:55:39.999Z</time></trkpt><trkpt lat="45.1081888" lon="8.1412799"><ele>293.0</ele><time>2026-03-29T14:55:40.999Z</time></trkpt><trkpt lat="45.1080711" lon="8.1411643"><ele>295.75</ele><time>2026-03-29T14:55:41.999Z</time></trkpt><trkpt lat="45.1079592" lon="8.1410438"><ele>298.5</ele><time>2026-03-29T14:55:42.999Z</time></trkpt><trkpt lat="45.1078518" lon="8.140913"><ele>301.25</ele><time>2026-03-29T14:55:43.999Z</time></trkpt><trkpt lat="45.1077549" lon="8.1407721"><ele>304.0</ele><time>2026-03-29T14:55:44.999Z</time></trkpt><trkpt lat="45.1076598" lon="8.1406174"><ele>304.0</ele><time>2026-03-29T14:55:45.999Z</time></trkpt><trkpt lat="45.1075619" lon="8.1404649"><ele>304.0</ele><time>2026-03-29T14:55:46.999Z</time></trkpt><trkpt lat="45.1074552" lon="8.140309"><ele>304.0</ele><time>2026-03-29T14:55:47.999Z</time></trkpt><trkpt lat="45.1073459" lon="8.1401508"><ele>304.0</ele><time>2026-03-29T14:55:48.999Z</time></trkpt><trkpt lat="45.1072355" lon="8.1399851"><ele>304.0</ele><time>2026-03-29T14:55:49.999Z</time></trkpt><trkpt lat="45.107127" lon="8.139818"><ele>304.0</ele><time>2026-03-29T14:55:50.999Z</time></trkpt><trkpt lat="45.1070248" lon="8.139647"><ele>304.0</ele><time>2026-03-29T14:55:51.999Z</time></trkpt><trkpt lat="45.1069422" lon="8.1394615"><ele>304.0</ele><time>2026-03-29T14:55:52.999Z</time></trkpt><trkpt lat="45.1068945" lon="8.1392484"><ele>304.0</ele><time>2026-03-29T14:55:53.999Z</time></trkpt><trkpt lat="45.1068731" lon="8.1390199"><ele>305.3333333333333</ele><time>2026-03-29T14:55:54.999Z</time></trkpt><trkpt lat="45.1068611" lon="8.1387929"><ele>306.6666666666667</ele><time>2026-03-29T14:55:55.999Z</time></trkpt><trkpt lat="45.1068467" lon="8.1385672"><ele>308.0</ele><time>2026-03-29T14:55:56.999Z</time></trkpt><trkpt lat="45.1068325" lon="8.1383417"><ele>311.0</ele><time>2026-03-29T14:55:57.999Z</time></trkpt><trkpt lat="45.1068153" lon="8.1381171"><ele>314.0</ele><time>2026-03-29T14:55:58.999Z</time></trkpt><trkpt lat="45.1068034" lon="8.1379016"><ele>317.0</ele><time>2026-03-29T14:55:59.999Z</time></trkpt><trkpt lat="45.1068075" lon="8.1376804"><ele>317.0</ele><time>2026-03-29T14:56:00.999Z</time></trkpt><trkpt lat="45.106826" lon="8.1374608"><ele>317.0</ele><time>2026-03-29T14:56:01.999Z</time></trkpt><trkpt lat="45.1068632" lon="8.1372369"><ele>317.0</ele><time>2026-03-29T14:56:02.999Z</time></trkpt><trkpt lat="45.1069143" lon="8.137017"><ele>319.33333333333337</ele><time>2026-03-29T14:56:03.999Z</time></trkpt><trkpt lat="45.1069782" lon="8.1367906"><ele>321.6666666666667</ele><time>2026-03-29T14:56:04.999Z</time></trkpt><trkpt lat="45.107043" lon="8.1365689"><ele>324.0</ele><time>2026-03-29T14:56:05.999Z</time></trkpt><trkpt lat="45.1071125" lon="8.1363403"><ele>325.0</ele><time>2026-03-29T14:56:06.999Z</time></trkpt><trkpt lat="45.1071785" lon="8.1361071"><ele>326.0</ele><time>2026-03-29T14:56:07.999Z</time></trkpt><trkpt lat="45.1072478" lon="8.1358758"><ele>327.0</ele><time>2026-03-29T14:56:08.999Z</time></trkpt><trkpt lat="45.107307" lon="8.1356474"><ele>327.3333333333333</ele><time>2026-03-29T14:56:09.999Z</time></trkpt><trkpt lat="45.1073598" lon="8.1354231"><ele>327.66666666666663</ele><time>2026-03-29T14:56:10.999Z</time></trkpt><trkpt lat="45.1074017" lon="8.135216"><ele>328.0</ele><time>2026-03-29T14:56:11.999Z</time></trkpt><trkpt lat="45.1074437" lon="8.1350352"><ele>327.66666666666663</ele><time>2026-03-29T14:56:12.999Z</time></trkpt><trkpt lat="45.1074783" lon="8.1348975"><ele>327.3333333333333</ele><time>2026-03-29T14:56:13.999Z</time></trkpt><trkpt lat="45.1075116" lon="8.1347822"><ele>327.0</ele><time>2026-03-29T14:56:14.999Z</time></trkpt><trkpt lat="45.1075376" lon="8.13469"><ele>326.6666666666667</ele><time>2026-03-29T14:56:15.999Z</time></trkpt><trkpt lat="45.1075724" lon="8.1346085"><ele>326.33333333333337</ele><time>2026-03-29T14:56:17.999Z</time></trkpt><trkpt lat="45.1075931" lon="8.1345151"><ele>326.0</ele><time>2026-03-29T14:56:49.999Z</time></trkpt><trkpt lat="45.1075989" lon="8.1343668"><ele>325.5</ele><time>2026-03-29T14:56:51.999Z</time></trkpt><trkpt lat="45.1075856" lon="8.1342737"><ele>325.0</ele><time>2026-03-29T14:56:52.999Z</time></trkpt><trkpt lat="45.1075501" lon="8.1341804"><ele>324.5</ele><time>2026-03-29T14:56:53.999Z</time></trkpt><trkpt lat="45.1074846" lon="8.134089"><ele>324.0</ele><time>2026-03-29T14:56:54.999Z</time></trkpt><trkpt lat="45.1073896" lon="8.1340063"><ele>323.5</ele><time>2026-03-29T14:56:55.999Z</time></trkpt><trkpt lat="45.1072996" lon="8.1339384"><ele>323.0</ele><time>2026-03-29T14:56:56.999Z</time></trkpt><trkpt lat="45.1072155" lon="8.1338635"><ele>321.33333333333337</ele><time>2026-03-29T14:56:57.999Z</time></trkpt><trkpt lat="45.1071334" lon="8.1338001"><ele>319.6666666666667</ele><time>2026-03-29T14:56:58.999Z</time></trkpt><trkpt lat="45.1070522" lon="8.1337449"><ele>318.0</ele><time>2026-03-29T14:56:59.999Z</time></trkpt><trkpt lat="45.1069729" lon="8.1336816"><ele>316.3333333333333</ele><time>2026-03-29T14:57:00.999Z</time></trkpt><trkpt lat="45.1068965" lon="8.1336323"><ele>314.66666666666663</ele><time>2026-03-29T14:57:01.999Z</time></trkpt><trkpt lat="45.1068214" lon="8.1335993"><ele>313.0</ele><time>2026-03-29T14:57:02.999Z</time></trkpt><trkpt lat="45.1067505" lon="8.1335514"><ele>313.0</ele><time>2026-03-29T14:57:03.999Z</time></trkpt><trkpt lat="45.1066896" lon="8.1334769"><ele>313.0</ele><time>2026-03-29T14:57:04.999Z</time></trkpt><trkpt lat="45.1066425" lon="8.133384"><ele>313.0</ele><time>2026-03-29T14:57:05.999Z</time></trkpt><trkpt lat="45.1066657" lon="8.1332562"><ele>313.0</ele><time>2026-03-29T14:57:06.999Z</time></trkpt><trkpt lat="45.1067173" lon="8.1331663"><ele>313.0</ele><time>2026-03-29T14:57:07.999Z</time></trkpt><trkpt lat="45.1067819" lon="8.1331114"><ele>313.0</ele><time>2026-03-29T14:57:08.999Z</time></trkpt><trkpt lat="45.1068698" lon="8.1331202"><ele>311.8</ele><time>2026-03-29T14:57:09.999Z</time></trkpt><trkpt lat="45.1069561" lon="8.1331219"><ele>310.6</ele><time>2026-03-29T14:57:10.999Z</time></trkpt><trkpt lat="45.1070389" lon="8.133095"><ele>309.4</ele><time>2026-03-29T14:57:11.999Z</time></trkpt><trkpt lat="45.1071106" lon="8.1330172"><ele>308.2</ele><time>2026-03-29T14:57:12.999Z</time></trkpt><trkpt lat="45.107165" lon="8.1328961"><ele>307.0</ele><time>2026-03-29T14:57:13.999Z</time></trkpt><trkpt lat="45.1072012" lon="8.132742"><ele>307.0</ele><time>2026-03-29T14:57:14.999Z</time></trkpt><trkpt lat="45.1072308" lon="8.1325815"><ele>307.0</ele><time>2026-03-29T14:57:15.999Z</time></trkpt><trkpt lat="45.1072466" lon="8.1324018"><ele>307.0</ele><time>2026-03-29T14:57:16.999Z</time></trkpt><trkpt lat="45.1072684" lon="8.1322214"><ele>307.0</ele><time>2026-03-29T14:57:17.999Z</time></trkpt><trkpt lat="45.107295" lon="8.1320523"><ele>305.6</ele><time>2026-03-29T14:57:18.999Z</time></trkpt><trkpt lat="45.1073271" lon="8.1318886"><ele>304.2</ele><time>2026-03-29T14:57:19.999Z</time></trkpt><trkpt lat="45.1073503" lon="8.1317452"><ele>302.8</ele><time>2026-03-29T14:57:20.999Z</time></trkpt><trkpt lat="45.1073614" lon="8.1316249"><ele>301.4</ele><time>2026-03-29T14:57:21.999Z</time></trkpt><trkpt lat="45.1073631" lon="8.1315235"><ele>300.0</ele><time>2026-03-29T14:57:22.999Z</time></trkpt><trkpt lat="45.1073027" lon="8.1314369"><ele>300.0</ele><time>2026-03-29T14:57:23.999Z</time></trkpt><trkpt lat="45.1072268" lon="8.1313904"><ele>300.0</ele><time>2026-03-29T14:57:24.999Z</time></trkpt><trkpt lat="45.1071296" lon="8.1313793"><ele>300.0</ele><time>2026-03-29T14:57:25.999Z</time></trkpt><trkpt lat="45.1070436" lon="8.1313838"><ele>300.0</ele><time>2026-03-29T14:57:26.999Z</time></trkpt><trkpt lat="45.106949" lon="8.1314976"><ele>300.0</ele><time>2026-03-29T14:57:27.999Z</time></trkpt><trkpt lat="45.1068879" lon="8.1316231"><ele>300.0</ele><time>2026-03-29T14:57:28.999Z</time></trkpt><trkpt lat="45.1068299" lon="8.1317665"><ele>300.0</ele><time>2026-03-29T14:57:29.999Z</time></trkpt><trkpt lat="45.1067618" lon="8.1319125"><ele>300.0</ele><time>2026-03-29T14:57:30.999Z</time></trkpt><trkpt lat="45.1066849" lon="8.1320393"><ele>300.0</ele><time>2026-03-29T14:57:31.999Z</time></trkpt><trkpt lat="45.1065679" lon="8.132142"><ele>296.3333333333333</ele><time>2026-03-29T14:57:32.999Z</time></trkpt><trkpt lat="45.1064342" lon="8.1322213"><ele>292.66666666666663</ele><time>2026-03-29T14:57:33.999Z</time></trkpt><trkpt lat="45.1062898" lon="8.1322838"><ele>289.0</ele><time>2026-03-29T14:57:34.999Z</time></trkpt><trkpt lat="45.1061387" lon="8.1323522"><ele>290.75</ele><time>2026-03-29T14:57:35.999Z</time></trkpt><trkpt lat="45.1059948" lon="8.1324244"><ele>292.5</ele><time>2026-03-29T14:57:36.999Z</time></trkpt><trkpt lat="45.1058539" lon="8.132475"><ele>294.25</ele><time>2026-03-29T14:57:37.999Z</time></trkpt><trkpt lat="45.1057125" lon="8.1324964"><ele>296.0</ele><time>2026-03-29T14:57:38.999Z</time></trkpt><trkpt lat="45.1055676" lon="8.1324647"><ele>295.0</ele><time>2026-03-29T14:57:39.999Z</time></trkpt><trkpt lat="45.105456" lon="8.1322706"><ele>294.0</ele><time>2026-03-29T14:57:40.999Z</time></trkpt><trkpt lat="45.1053569" lon="8.132089"><ele>293.0</ele><time>2026-03-29T14:57:41.999Z</time></trkpt><trkpt lat="45.1052542" lon="8.1319225"><ele>293.0</ele><time>2026-03-29T14:57:42.999Z</time></trkpt><trkpt lat="45.1051508" lon="8.1317596"><ele>293.0</ele><time>2026-03-29T14:57:43.999Z</time></trkpt><trkpt lat="45.1050617" lon="8.1315908"><ele>293.0</ele><time>2026-03-29T14:57:44.999Z</time></trkpt><trkpt lat="45.1049971" lon="8.1313977"><ele>293.33333333333337</ele><time>2026-03-29T14:57:45.999Z</time></trkpt><trkpt lat="45.1049546" lon="8.1311777"><ele>293.6666666666667</ele><time>2026-03-29T14:57:46.999Z</time></trkpt><trkpt lat="45.1049257" lon="8.1309402"><ele>294.0</ele><time>2026-03-29T14:57:47.999Z</time></trkpt><trkpt lat="45.1048902" lon="8.1307027"><ele>294.0</ele><time>2026-03-29T14:57:48.999Z</time></trkpt><trkpt lat="45.1048626" lon="8.1304754"><ele>294.0</ele><time>2026-03-29T14:57:49.999Z</time></trkpt><trkpt lat="45.1048288" lon="8.1302593"><ele>294.0</ele><time>2026-03-29T14:57:50.999Z</time></trkpt><trkpt lat="45.1073271" lon="8.1318886"><ele>294.1666666666667</ele><time>2026-03-29T14:57:19.999Z</time></trkpt><trkpt lat="45.1073503" lon="8.1317452"><ele>294.3333333333333</ele><time>2026-03-29T14:57:20.999Z</time></trkpt><trkpt lat="45.1073614" lon="8.1316249"><ele>294.5</ele><time>2026-03-29T14:57:21.999Z</time></trkpt><trkpt lat="45.1073631" lon="8.1315235"><ele>294.66666666666663</ele><time>2026-03-29T14:57:22.999Z</time></trkpt><trkpt lat="45.1073027" lon="8.1314369"><ele>294.8333333333333</ele><time>2026-03-29T14:57:23.999Z</time></trkpt><trkpt lat="45.1072268" lon="8.1313904"><ele>295.0</ele><time>2026-03-29T14:57:24.999Z</time></trkpt><trkpt lat="45.1071296" lon="8.1313793"><ele>295.0</ele><time>2026-03-29T14:57:25.999Z</time></trkpt><trkpt lat="45.1070436" lon="8.1313838"><ele>295.0</ele><time>2026-03-29T14:57:26.999Z</time></trkpt><trkpt lat="45.106949" lon="8.1314976"><ele>295.0</ele><time>2026-03-29T14:57:27.999Z</time></trkpt><trkpt lat="45.1068879" lon="8.1316231"><ele>295.0</ele><time>2026-03-29T14:57:28.999Z</time></trkpt><trkpt lat="45.1068299" lon="8.1317665"><ele>295.0</ele><time>2026-03-29T14:57:29.999Z</time></trkpt><trkpt lat="45.1067618" lon="8.1319125"><ele>296.25</ele><time>2026-03-29T14:57:30.999Z</time></trkpt><trkpt lat="45.1066849" lon="8.1320393"><ele>297.5</ele><time>2026-03-29T14:57:31.999Z</time></trkpt><trkpt lat="45.1065679" lon="8.132142"><ele>298.75</ele><time>2026-03-29T14:57:32.999Z</time></trkpt><trkpt lat="45.1064342" lon="8.1322213"><ele>300.0</ele><time>2026-03-29T14:57:33.999Z</time></trkpt><trkpt lat="45.1062898" lon="8.1322838"><ele>298.6666666666667</ele><time>2026-03-29T14:57:34.999Z</time></trkpt><trkpt lat="45.1061387" lon="8.1323522"><ele>297.33333333333337</ele><time>2026-03-29T14:57:35.999Z</time></trkpt><trkpt lat="45.1059948" lon="8.1324244"><ele>296.0</ele><time>2026-03-29T14:57:36.999Z</time></trkpt><trkpt lat="45.1058539" lon="8.132475"><ele>295.0</ele><time>2026-03-29T14:57:37.999Z</time></trkpt><trkpt lat="45.1057125" lon="8.1324964"><ele>294.0</ele><time>2026-03-29T14:57:38.999Z</time></trkpt><trkpt lat="45.1055676" lon="8.1324647"><ele>293.0</ele><time>2026-03-29T14:57:39.999Z</time></trkpt><trkpt lat="45.105456" lon="8.1322706"><ele>293.0</ele><time>2026-03-29T14:57:40.999Z</time></trkpt><trkpt lat="45.1053569" lon="8.132089"><ele>293.0</ele><time>2026-03-29T14:57:41.999Z</time></trkpt><trkpt lat="45.1052542" lon="8.1319225"><ele>293.0</ele><time>2026-03-29T14:57:42.999Z</time></trkpt><trkpt lat="45.1051508" lon="8.1317596"><ele>293.0</ele><time>2026-03-29T14:57:43.999Z</time></trkpt><trkpt lat="45.1050617" lon="8.1315908"><ele>293.0</ele><time>2026-03-29T14:57:44.999Z</time></trkpt><trkpt lat="45.1049971" lon="8.1313977"><ele>293.0</ele><time>2026-03-29T14:57:45.999Z</time></trkpt><trkpt lat="45.1049546" lon="8.1311777"><ele>293.33333333333337</ele><time>2026-03-29T14:57:46.999Z</time></trkpt><trkpt lat="45.1049257" lon="8.1309402"><ele>293.6666666666667</ele><time>2026-03-29T14:57:47.999Z</time></trkpt><trkpt lat="45.1048902" lon="8.1307027"><ele>294.0</ele><time>2026-03-29T14:57:48.999Z</time></trkpt><trkpt lat="45.1048626" lon="8.1304754"><ele>294.0</ele><time>2026-03-29T14:57:49.999Z</time></trkpt><trkpt lat="45.1048288" lon="8.1302593"><ele>294.0</ele><time>2026-03-29T14:57:50.999Z</time></trkpt><trkpt lat="45.1047998" lon="8.1300644"><ele>294.0</ele><time>2026-03-29T14:57:51.999Z</time></trkpt><trkpt lat="45.1047715" lon="8.1298944"><ele>294.0</ele><time>2026-03-29T14:57:52.999Z</time></trkpt><trkpt lat="45.1047175" lon="8.1297408"><ele>288.5</ele><time>2026-03-29T14:57:53.999Z</time></trkpt><trkpt lat="45.1046271" lon="8.1296274"><ele>283.0</ele><time>2026-03-29T14:57:54.999Z</time></trkpt><trkpt lat="45.1045543" lon="8.1295218"><ele>277.5</ele><time>2026-03-29T14:57:55.999Z</time></trkpt><trkpt lat="45.1043769" lon="8.1294773"><ele>272.0</ele><time>2026-03-29T14:57:56.999Z</time></trkpt><trkpt lat="45.1042343" lon="8.1294065"><ele>272.0</ele><time>2026-03-29T14:57:57.999Z</time></trkpt><trkpt lat="45.104074" lon="8.1293271"><ele>272.0</ele><time>2026-03-29T14:57:58.999Z</time></trkpt><trkpt lat="45.1039001" lon="8.1292518"><ele>272.0</ele><time>2026-03-29T14:57:59.999Z</time></trkpt><trkpt lat="45.1037254" lon="8.1291813"><ele>272.0</ele><time>2026-03-29T14:58:00.999Z</time></trkpt><trkpt lat="45.103561" lon="8.1291122"><ele>272.0</ele><time>2026-03-29T14:58:01.999Z</time></trkpt><trkpt lat="45.1033836" lon="8.1290544"><ele>272.0</ele><time>2026-03-29T14:58:02.999Z</time></trkpt><trkpt lat="45.1031962" lon="8.1289994"><ele>267.6666666666667</ele><time>2026-03-29T14:58:03.999Z</time></trkpt><trkpt lat="45.1029952" lon="8.1289698"><ele>263.3333333333333</ele><time>2026-03-29T14:58:04.999Z</time></trkpt><trkpt lat="45.1027932" lon="8.1289295"><ele>259.0</ele><time>2026-03-29T14:58:05.999Z</time></trkpt><trkpt lat="45.1025691" lon="8.1289191"><ele>257.5</ele><time>2026-03-29T14:58:06.999Z</time></trkpt><trkpt lat="45.1023452" lon="8.1288904"><ele>256.0</ele><time>2026-03-29T14:58:07.999Z</time></trkpt><trkpt lat="45.1021142" lon="8.1288688"><ele>256.0</ele><time>2026-03-29T14:58:08.999Z</time></trkpt><trkpt lat="45.1018717" lon="8.1288371"><ele>256.0</ele><time>2026-03-29T14:58:09.999Z</time></trkpt><trkpt lat="45.1016265" lon="8.1288014"><ele>255.0</ele><time>2026-03-29T14:58:10.999Z</time></trkpt><trkpt lat="45.101382" lon="8.1287687"><ele>254.0</ele><time>2026-03-29T14:58:11.999Z</time></trkpt><trkpt lat="45.1011397" lon="8.1287432"><ele>254.0</ele><time>2026-03-29T14:58:12.999Z</time></trkpt><trkpt lat="45.1009014" lon="8.1287171"><ele>254.0</ele><time>2026-03-29T14:58:13.999Z</time></trkpt><trkpt lat="45.1006638" lon="8.1286938"><ele>254.5</ele><time>2026-03-29T14:58:14.999Z</time></trkpt><trkpt lat="45.1004293" lon="8.1286646"><ele>255.0</ele><time>2026-03-29T14:58:15.999Z</time></trkpt><trkpt lat="45.1002083" lon="8.1286343"><ele>255.0</ele><time>2026-03-29T14:58:16.999Z</time></trkpt><trkpt lat="45.099979" lon="8.1285847"><ele>255.0</ele><time>2026-03-29T14:58:17.999Z</time></trkpt><trkpt lat="45.0997548" lon="8.1285201"><ele>258.5</ele><time>2026-03-29T14:58:18.999Z</time></trkpt><trkpt lat="45.0995355" lon="8.1284428"><ele>262.0</ele><time>2026-03-29T14:58:19.999Z</time></trkpt><trkpt lat="45.0993149" lon="8.1283606"><ele>260.3333333333333</ele><time>2026-03-29T14:58:20.999Z</time></trkpt><trkpt lat="45.0991428" lon="8.1282178"><ele>258.6666666666667</ele><time>2026-03-29T14:58:21.999Z</time></trkpt><trkpt lat="45.098973" lon="8.1280573"><ele>257.0</ele><time>2026-03-29T14:58:22.999Z</time></trkpt><trkpt lat="45.0988246" lon="8.1279058"><ele>255.66666666666669</ele><time>2026-03-29T14:58:23.999Z</time></trkpt><trkpt lat="45.0986777" lon="8.1277936"><ele>254.33333333333331</ele><time>2026-03-29T14:58:24.999Z</time></trkpt><trkpt lat="45.0985221" lon="8.1277276"><ele>253.0</ele><time>2026-03-29T14:58:25.999Z</time></trkpt><trkpt lat="45.0983784" lon="8.1276679"><ele>251.66666666666666</ele><time>2026-03-29T14:58:26.999Z</time></trkpt><trkpt lat="45.0982054" lon="8.1277684"><ele>250.33333333333331</ele><time>2026-03-29T14:58:27.999Z</time></trkpt><trkpt lat="45.0980376" lon="8.1278573"><ele>249.0</ele><time>2026-03-29T14:58:28.999Z</time></trkpt><trkpt lat="45.0978579" lon="8.1279563"><ele>249.0</ele><time>2026-03-29T14:58:29.999Z</time></trkpt><trkpt lat="45.0976686" lon="8.1280613"><ele>249.0</ele><time>2026-03-29T14:58:30.999Z</time></trkpt><trkpt lat="45.0974745" lon="8.1281647"><ele>249.0</ele><time>2026-03-29T14:58:31.999Z</time></trkpt><trkpt lat="45.0972737" lon="8.1282768"><ele>250.0</ele><time>2026-03-29T14:58:32.999Z</time></trkpt><trkpt lat="45.0970791" lon="8.1283976"><ele>251.0</ele><time>2026-03-29T14:58:33.999Z</time></trkpt><trkpt lat="45.0968852" lon="8.1284943"><ele>252.0</ele><time>2026-03-29T14:58:34.999Z</time></trkpt><trkpt lat="45.096693" lon="8.1285834"><ele>251.33333333333331</ele><time>2026-03-29T14:58:35.999Z</time></trkpt><trkpt lat="45.0964949" lon="8.1286515"><ele>250.66666666666666</ele><time>2026-03-29T14:58:36.999Z</time></trkpt><trkpt lat="45.0962739" lon="8.1286572"><ele>250.0</ele><time>2026-03-29T14:58:37.999Z</time></trkpt><trkpt lat="45.0960553" lon="8.1286551"><ele>250.0</ele><time>2026-03-29T14:58:38.999Z</time></trkpt><trkpt lat="45.0958284" lon="8.1286326"><ele>250.0</ele><time>2026-03-29T14:58:39.999Z</time></trkpt><trkpt lat="45.0955893" lon="8.1286159"><ele>245.0</ele><time>2026-03-29T14:58:40.999Z</time></trkpt><trkpt lat="45.0953456" lon="8.1286198"><ele>240.0</ele><time>2026-03-29T14:58:41.999Z</time></trkpt><trkpt lat="45.0950973" lon="8.1286612"><ele>238.0</ele><time>2026-03-29T14:58:42.999Z</time></trkpt><trkpt lat="45.0948538" lon="8.1287397"><ele>236.0</ele><time>2026-03-29T14:58:43.999Z</time></trkpt><trkpt lat="45.0946153" lon="8.1288374"><ele>236.0</ele><time>2026-03-29T14:58:44.999Z</time></trkpt><trkpt lat="45.0943787" lon="8.1289601"><ele>236.0</ele><time>2026-03-29T14:58:45.999Z</time></trkpt><trkpt lat="45.0941475" lon="8.1290971"><ele>236.0</ele><time>2026-03-29T14:58:46.999Z</time></trkpt><trkpt lat="45.0939153" lon="8.129235"><ele>236.0</ele><time>2026-03-29T14:58:47.999Z</time></trkpt><trkpt lat="45.0936874" lon="8.1293708"><ele>236.0</ele><time>2026-03-29T14:58:48.999Z</time></trkpt><trkpt lat="45.0934616" lon="8.1295103"><ele>236.0</ele><time>2026-03-29T14:58:49.999Z</time></trkpt><trkpt lat="45.0932361" lon="8.1296357"><ele>233.5</ele><time>2026-03-29T14:58:50.999Z</time></trkpt><trkpt lat="45.0930118" lon="8.1297576"><ele>231.0</ele><time>2026-03-29T14:58:51.999Z</time></trkpt><trkpt lat="45.0927813" lon="8.1298874"><ele>230.5</ele><time>2026-03-29T14:58:52.999Z</time></trkpt><trkpt lat="45.0925546" lon="8.1300146"><ele>230.0</ele><time>2026-03-29T14:58:53.999Z</time></trkpt><trkpt lat="45.0923244" lon="8.130146"><ele>230.0</ele><time>2026-03-29T14:58:54.999Z</time></trkpt><trkpt lat="45.0921009" lon="8.1302741"><ele>230.0</ele><time>2026-03-29T14:58:55.999Z</time></trkpt><trkpt lat="45.0918805" lon="8.1303932"><ele>230.0</ele><time>2026-03-29T14:58:56.999Z</time></trkpt><trkpt lat="45.0916557" lon="8.1305053"><ele>230.0</ele><time>2026-03-29T14:58:57.999Z</time></trkpt><trkpt lat="45.0914297" lon="8.1306065"><ele>230.0</ele><time>2026-03-29T14:58:58.999Z</time></trkpt><trkpt lat="45.0911991" lon="8.1306932"><ele>230.0</ele><time>2026-03-29T14:58:59.999Z</time></trkpt><trkpt lat="45.090972" lon="8.1307729"><ele>229.5</ele><time>2026-03-29T14:59:00.999Z</time></trkpt><trkpt lat="45.0907482" lon="8.1308476"><ele>229.0</ele><time>2026-03-29T14:59:01.999Z</time></trkpt><trkpt lat="45.0905287" lon="8.1309243"><ele>229.0</ele><time>2026-03-29T14:59:02.999Z</time></trkpt><trkpt lat="45.0903031" lon="8.1310016"><ele>229.0</ele><time>2026-03-29T14:59:03.999Z</time></trkpt><trkpt lat="45.0900713" lon="8.131071"><ele>227.5</ele><time>2026-03-29T14:59:04.999Z</time></trkpt><trkpt lat="45.0898402" lon="8.1311323"><ele>226.0</ele><time>2026-03-29T14:59:05.999Z</time></trkpt><trkpt lat="45.0896268" lon="8.1311826"><ele>226.0</ele><time>2026-03-29T14:59:06.999Z</time></trkpt><trkpt lat="45.0894293" lon="8.1312246"><ele>226.0</ele><time>2026-03-29T14:59:07.999Z</time></trkpt><trkpt lat="45.0892485" lon="8.1312659"><ele>226.0</ele><time>2026-03-29T14:59:08.999Z</time></trkpt><trkpt lat="45.089087" lon="8.1313019"><ele>226.0</ele><time>2026-03-29T14:59:09.999Z</time></trkpt><trkpt lat="45.088957" lon="8.1313276"><ele>226.00000000000003</ele><time>2026-03-29T14:59:10.999Z</time></trkpt><trkpt lat="45.0888661" lon="8.1313421"><ele>226.00000000000003</ele><time>2026-03-29T14:59:11.999Z</time></trkpt><trkpt lat="45.088753" lon="8.131359"><ele>226.0</ele><time>2026-03-29T14:59:13.999Z</time></trkpt><trkpt lat="45.0886905" lon="8.1313747"><ele>226.0</ele><time>2026-03-29T14:59:15.999Z</time></trkpt><trkpt lat="45.0886257" lon="8.1314051"><ele>226.0</ele><time>2026-03-29T14:59:16.999Z</time></trkpt><trkpt lat="45.0885525" lon="8.1314437"><ele>226.00000000000003</ele><time>2026-03-29T14:59:17.999Z</time></trkpt><trkpt lat="45.0884719" lon="8.1314983"><ele>226.00000000000003</ele><time>2026-03-29T14:59:18.999Z</time></trkpt><trkpt lat="45.0883689" lon="8.1315697"><ele>226.0</ele><time>2026-03-29T14:59:19.999Z</time></trkpt><trkpt lat="45.0882525" lon="8.1316472"><ele>226.0</ele><time>2026-03-29T14:59:20.999Z</time></trkpt><trkpt lat="45.0881251" lon="8.131732"><ele>226.66666666666666</ele><time>2026-03-29T14:59:21.999Z</time></trkpt><trkpt lat="45.0879831" lon="8.1318208"><ele>227.33333333333331</ele><time>2026-03-29T14:59:22.999Z</time></trkpt><trkpt lat="45.0878385" lon="8.1319127"><ele>228.0</ele><time>2026-03-29T14:59:23.999Z</time></trkpt><trkpt lat="45.0876828" lon="8.1320171"><ele>228.0</ele><time>2026-03-29T14:59:24.999Z</time></trkpt><trkpt lat="45.0875186" lon="8.132128"><ele>228.0</ele><time>2026-03-29T14:59:25.999Z</time></trkpt><trkpt lat="45.0873517" lon="8.1322393"><ele>228.0</ele><time>2026-03-29T14:59:26.999Z</time></trkpt><trkpt lat="45.0871807" lon="8.1323465"><ele>227.33333333333331</ele><time>2026-03-29T14:59:27.999Z</time></trkpt><trkpt lat="45.0870133" lon="8.1324454"><ele>226.66666666666666</ele><time>2026-03-29T14:59:28.999Z</time></trkpt><trkpt lat="45.0868526" lon="8.1325291"><ele>226.0</ele><time>2026-03-29T14:59:29.999Z</time></trkpt><trkpt lat="45.0866921" lon="8.1325839"><ele>227.0</ele><time>2026-03-29T14:59:30.999Z</time></trkpt><trkpt lat="45.0865118" lon="8.1325793"><ele>228.0</ele><time>2026-03-29T14:59:31.999Z</time></trkpt><trkpt lat="45.0863321" lon="8.1325541"><ele>229.0</ele><time>2026-03-29T14:59:32.999Z</time></trkpt><trkpt lat="45.0861512" lon="8.1325117"><ele>229.0</ele><time>2026-03-29T14:59:33.999Z</time></trkpt><trkpt lat="45.0859669" lon="8.1324728"><ele>229.0</ele><time>2026-03-29T14:59:34.999Z</time></trkpt><trkpt lat="45.0857736" lon="8.1324248"><ele>229.0</ele><time>2026-03-29T14:59:35.999Z</time></trkpt><trkpt lat="45.0855776" lon="8.1323793"><ele>230.33333333333331</ele><time>2026-03-29T14:59:36.999Z</time></trkpt><trkpt lat="45.0853796" lon="8.1323317"><ele>231.66666666666669</ele><time>2026-03-29T14:59:37.999Z</time></trkpt><trkpt lat="45.0851765" lon="8.1322795"><ele>233.0</ele><time>2026-03-29T14:59:38.999Z</time></trkpt><trkpt lat="45.0849688" lon="8.1322285"><ele>235.0</ele><time>2026-03-29T14:59:39.999Z</time></trkpt><trkpt lat="45.0847596" lon="8.1321669"><ele>237.0</ele><time>2026-03-29T14:59:40.999Z</time></trkpt><trkpt lat="45.0845475" lon="8.1321128"><ele>239.0</ele><time>2026-03-29T14:59:41.999Z</time></trkpt><trkpt lat="45.0843408" lon="8.1320557"><ele>239.0</ele><time>2026-03-29T14:59:42.999Z</time></trkpt><trkpt lat="45.0841326" lon="8.1319952"><ele>239.0</ele><time>2026-03-29T14:59:43.999Z</time></trkpt><trkpt lat="45.0839298" lon="8.1319433"><ele>239.0</ele><time>2026-03-29T14:59:44.999Z</time></trkpt><trkpt lat="45.0837311" lon="8.1318854"><ele>239.33333333333334</ele><time>2026-03-29T14:59:45.999Z</time></trkpt><trkpt lat="45.0835388" lon="8.1318369"><ele>239.66666666666669</ele><time>2026-03-29T14:59:46.999Z</time></trkpt><trkpt lat="45.0833442" lon="8.1317937"><ele>240.0</ele><time>2026-03-29T14:59:47.999Z</time></trkpt><trkpt lat="45.08315" lon="8.1317817"><ele>242.66666666666669</ele><time>2026-03-29T14:59:48.999Z</time></trkpt><trkpt lat="45.0829611" lon="8.1317943"><ele>245.33333333333334</ele><time>2026-03-29T14:59:49.999Z</time></trkpt><trkpt lat="45.0827591" lon="8.1318683"><ele>248.0</ele><time>2026-03-29T14:59:50.999Z</time></trkpt><trkpt lat="45.0825683" lon="8.1319498"><ele>251.66666666666669</ele><time>2026-03-29T14:59:51.999Z</time></trkpt><trkpt lat="45.0823837" lon="8.1320284"><ele>255.33333333333331</ele><time>2026-03-29T14:59:52.999Z</time></trkpt><trkpt lat="45.0821914" lon="8.1321038"><ele>259.0</ele><time>2026-03-29T14:59:53.999Z</time></trkpt><trkpt lat="45.0820125" lon="8.1321711"><ele>259.0</ele><time>2026-03-29T14:59:54.999Z</time></trkpt><trkpt lat="45.0818567" lon="8.1322323"><ele>259.0</ele><time>2026-03-29T14:59:55.999Z</time></trkpt><trkpt lat="45.0817421" lon="8.1322818"><ele>259.0</ele><time>2026-03-29T14:59:56.999Z</time></trkpt><trkpt lat="45.0816575" lon="8.1323254"><ele>259.0</ele><time>2026-03-29T14:59:57.999Z</time></trkpt><trkpt lat="45.0815895" lon="8.1323533"><ele>259.0</ele><time>2026-03-29T14:59:58.999Z</time></trkpt><trkpt lat="45.0815024" lon="8.1323112"><ele>261.0</ele><time>2026-03-29T15:00:00.999Z</time></trkpt><trkpt lat="45.081478" lon="8.1321515"><ele>263.0</ele><time>2026-03-29T15:00:02.999Z</time></trkpt><trkpt lat="45.0814805" lon="8.1320326"><ele>265.0</ele><time>2026-03-29T15:00:03.999Z</time></trkpt><trkpt lat="45.0814849" lon="8.131899"><ele>267.0</ele><time>2026-03-29T15:00:04.999Z</time></trkpt><trkpt lat="45.0815029" lon="8.1317839"><ele>269.0</ele><time>2026-03-29T15:00:05.999Z</time></trkpt><trkpt lat="45.0814955" lon="8.1316654"><ele>269.0</ele><time>2026-03-29T15:00:07.999Z</time></trkpt><trkpt lat="45.081448" lon="8.1316057"><ele>269.0</ele><time>2026-03-29T15:00:09.999Z</time></trkpt><trkpt lat="45.0813186" lon="8.1315697"><ele>269.0</ele><time>2026-03-29T15:00:11.999Z</time></trkpt><trkpt lat="45.0812293" lon="8.1315667"><ele>269.0</ele><time>2026-03-29T15:00:12.999Z</time></trkpt><trkpt lat="45.081139" lon="8.1315494"><ele>269.0</ele><time>2026-03-29T15:00:13.999Z</time></trkpt><trkpt lat="45.0810383" lon="8.1315292"><ele>268.75</ele><time>2026-03-29T15:00:14.999Z</time></trkpt><trkpt lat="45.0809334" lon="8.1315026"><ele>268.5</ele><time>2026-03-29T15:00:15.999Z</time></trkpt><trkpt lat="45.0808212" lon="8.1314689"><ele>268.25</ele><time>2026-03-29T15:00:16.999Z</time></trkpt><trkpt lat="45.0807096" lon="8.1314428"><ele>268.0</ele><time>2026-03-29T15:00:17.999Z</time></trkpt><trkpt lat="45.0805961" lon="8.1314095"><ele>268.8333333333333</ele><time>2026-03-29T15:00:18.999Z</time></trkpt><trkpt lat="45.0804828" lon="8.1313814"><ele>269.66666666666663</ele><time>2026-03-29T15:00:19.999Z</time></trkpt><trkpt lat="45.0803965" lon="8.1313531"><ele>270.5</ele><time>2026-03-29T15:00:20.999Z</time></trkpt><trkpt lat="45.0803334" lon="8.1313388"><ele>271.3333333333333</ele><time>2026-03-29T15:00:21.999Z</time></trkpt><trkpt lat="45.0802625" lon="8.1313258"><ele>272.1666666666667</ele><time>2026-03-29T15:00:23.999Z</time></trkpt><trkpt lat="45.0801558" lon="8.1313042"><ele>273.0</ele><time>2026-03-29T15:00:25.999Z</time></trkpt><trkpt lat="45.0800789" lon="8.1312908"><ele>273.0</ele><time>2026-03-29T15:00:26.999Z</time></trkpt><trkpt lat="45.0799937" lon="8.1312609"><ele>273.0</ele><time>2026-03-29T15:00:27.999Z</time></trkpt><trkpt lat="45.0798836" lon="8.1312389"><ele>273.0</ele><time>2026-03-29T15:00:28.999Z</time></trkpt><trkpt lat="45.0797599" lon="8.1312328"><ele>273.0</ele><time>2026-03-29T15:00:29.999Z</time></trkpt><trkpt lat="45.0796155" lon="8.1312322"><ele>269.0</ele><time>2026-03-29T15:00:30.999Z</time></trkpt><trkpt lat="45.0794607" lon="8.1312444"><ele>265.0</ele><time>2026-03-29T15:00:31.999Z</time></trkpt><trkpt lat="45.07929" lon="8.1312854"><ele>261.0</ele><time>2026-03-29T15:00:32.999Z</time></trkpt><trkpt lat="45.0791154" lon="8.1313347"><ele>262.0</ele><time>2026-03-29T15:00:33.999Z</time></trkpt><trkpt lat="45.0789357" lon="8.1313941"><ele>263.0</ele><time>2026-03-29T15:00:34.999Z</time></trkpt><trkpt lat="45.0787494" lon="8.1314739"><ele>264.0</ele><time>2026-03-29T15:00:35.999Z</time></trkpt><trkpt lat="45.0785581" lon="8.1315596"><ele>264.0</ele><time>2026-03-29T15:00:36.999Z</time></trkpt><trkpt lat="45.0783641" lon="8.1316432"><ele>264.0</ele><time>2026-03-29T15:00:37.999Z</time></trkpt><trkpt lat="45.0781682" lon="8.1317255"><ele>264.0</ele><time>2026-03-29T15:00:38.999Z</time></trkpt><trkpt lat="45.0779621" lon="8.1317847"><ele>265.0</ele><time>2026-03-29T15:00:39.999Z</time></trkpt><trkpt lat="45.0777529" lon="8.1318242"><ele>266.0</ele><time>2026-03-29T15:00:40.999Z</time></trkpt><trkpt lat="45.0775463" lon="8.1318477"><ele>267.0</ele><time>2026-03-29T15:00:41.999Z</time></trkpt><trkpt lat="45.0773313" lon="8.1318641"><ele>269.6666666666667</ele><time>2026-03-29T15:00:42.999Z</time></trkpt><trkpt lat="45.0771231" lon="8.1318627"><ele>272.33333333333337</ele><time>2026-03-29T15:00:43.999Z</time></trkpt><trkpt lat="45.0769241" lon="8.1318716"><ele>275.0</ele><time>2026-03-29T15:00:44.999Z</time></trkpt><trkpt lat="45.0767294" lon="8.1318707"><ele>277.6666666666667</ele><time>2026-03-29T15:00:45.999Z</time></trkpt><trkpt lat="45.0765354" lon="8.1318757"><ele>280.3333333333333</ele><time>2026-03-29T15:00:46.999Z</time></trkpt><trkpt lat="45.0763512" lon="8.1318784"><ele>283.0</ele><time>2026-03-29T15:00:47.999Z</time></trkpt><trkpt lat="45.0761756" lon="8.1318753"><ele>283.0</ele><time>2026-03-29T15:00:48.999Z</time></trkpt><trkpt lat="45.0760181" lon="8.1318576"><ele>283.0</ele><time>2026-03-29T15:00:49.999Z</time></trkpt><trkpt lat="45.0758533" lon="8.1318345"><ele>283.0</ele><time>2026-03-29T15:00:50.999Z</time></trkpt><trkpt lat="45.0756886" lon="8.131808"><ele>283.3333333333333</ele><time>2026-03-29T15:00:51.999Z</time></trkpt><trkpt lat="45.075516" lon="8.1317701"><ele>283.6666666666667</ele><time>2026-03-29T15:00:52.999Z</time></trkpt><trkpt lat="45.0753376" lon="8.1317342"><ele>284.0</ele><time>2026-03-29T15:00:53.999Z</time></trkpt><trkpt lat="45.0751533" lon="8.1316909"><ele>284.0</ele><time>2026-03-29T15:00:54.999Z</time></trkpt><trkpt lat="45.0749627" lon="8.1316481"><ele>284.0</ele><time>2026-03-29T15:00:55.999Z</time></trkpt><trkpt lat="45.0747682" lon="8.131616"><ele>284.0</ele><time>2026-03-29T15:00:56.999Z</time></trkpt><trkpt lat="45.0745779" lon="8.1315806"><ele>283.33333333333337</ele><time>2026-03-29T15:00:57.999Z</time></trkpt><trkpt lat="45.0743895" lon="8.1315513"><ele>282.6666666666667</ele><time>2026-03-29T15:00:58.999Z</time></trkpt><trkpt lat="45.0742042" lon="8.1315263"><ele>282.0</ele><time>2026-03-29T15:00:59.999Z</time></trkpt><trkpt lat="45.074025" lon="8.1315085"><ele>280.6666666666667</ele><time>2026-03-29T15:01:00.999Z</time></trkpt><trkpt lat="45.0738362" lon="8.1315074"><ele>279.33333333333337</ele><time>2026-03-29T15:01:01.999Z</time></trkpt><trkpt lat="45.0736508" lon="8.1315348"><ele>278.0</ele><time>2026-03-29T15:01:02.999Z</time></trkpt><trkpt lat="45.0734582" lon="8.1315853"><ele>277.6666666666667</ele><time>2026-03-29T15:01:03.999Z</time></trkpt><trkpt lat="45.0732637" lon="8.131637"><ele>277.3333333333333</ele><time>2026-03-29T15:01:04.999Z</time></trkpt><trkpt lat="45.0730736" lon="8.1316944"><ele>277.0</ele><time>2026-03-29T15:01:05.999Z</time></trkpt><trkpt lat="45.0728939" lon="8.1317411"><ele>277.0</ele><time>2026-03-29T15:01:06.999Z</time></trkpt><trkpt lat="45.0727231" lon="8.1317801"><ele>277.0</ele><time>2026-03-29T15:01:07.999Z</time></trkpt><trkpt lat="45.0725534" lon="8.1318172"><ele>277.0</ele><time>2026-03-29T15:01:08.999Z</time></trkpt><trkpt lat="45.0723787" lon="8.1318336"><ele>277.3333333333333</ele><time>2026-03-29T15:01:09.999Z</time></trkpt><trkpt lat="45.0722051" lon="8.1318073"><ele>277.6666666666667</ele><time>2026-03-29T15:01:10.999Z</time></trkpt><trkpt lat="45.0720289" lon="8.1317571"><ele>278.0</ele><time>2026-03-29T15:01:11.999Z</time></trkpt><trkpt lat="45.0718387" lon="8.1316932"><ele>278.0</ele><time>2026-03-29T15:01:12.999Z</time></trkpt><trkpt lat="45.071653" lon="8.1316325"><ele>278.0</ele><time>2026-03-29T15:01:13.999Z</time></trkpt><trkpt lat="45.0714585" lon="8.1315736"><ele>278.0</ele><time>2026-03-29T15:01:14.999Z</time></trkpt><trkpt lat="45.0712688" lon="8.1315267"><ele>277.33333333333337</ele><time>2026-03-29T15:01:15.999Z</time></trkpt><trkpt lat="45.0710791" lon="8.131477"><ele>276.6666666666667</ele><time>2026-03-29T15:01:16.999Z</time></trkpt><trkpt lat="45.0709019" lon="8.1314136"><ele>276.0</ele><time>2026-03-29T15:01:17.999Z</time></trkpt><trkpt lat="45.0707307" lon="8.1313289"><ele>276.0</ele><time>2026-03-29T15:01:18.999Z</time></trkpt><trkpt lat="45.0705702" lon="8.1312198"><ele>276.0</ele><time>2026-03-29T15:01:19.999Z</time></trkpt><trkpt lat="45.0704223" lon="8.1310734"><ele>276.0</ele><time>2026-03-29T15:01:20.999Z</time></trkpt><trkpt lat="45.0702836" lon="8.1309"><ele>275.0</ele><time>2026-03-29T15:01:21.999Z</time></trkpt><trkpt lat="45.0701546" lon="8.1307161"><ele>274.0</ele><time>2026-03-29T15:01:22.999Z</time></trkpt><trkpt lat="45.07003" lon="8.1305242"><ele>273.0</ele><time>2026-03-29T15:01:23.999Z</time></trkpt><trkpt lat="45.0699074" lon="8.1303275"><ele>273.0</ele><time>2026-03-29T15:01:24.999Z</time></trkpt><trkpt lat="45.0697794" lon="8.1301308"><ele>273.0</ele><time>2026-03-29T15:01:25.999Z</time></trkpt><trkpt lat="45.0696507" lon="8.1299483"><ele>273.0</ele><time>2026-03-29T15:01:26.999Z</time></trkpt><trkpt lat="45.0695255" lon="8.1297757"><ele>270.6666666666667</ele><time>2026-03-29T15:01:27.999Z</time></trkpt><trkpt lat="45.0694107" lon="8.1296123"><ele>268.33333333333337</ele><time>2026-03-29T15:01:28.999Z</time></trkpt><trkpt lat="45.0692996" lon="8.1294637"><ele>266.0</ele><time>2026-03-29T15:01:29.999Z</time></trkpt><trkpt lat="45.0691886" lon="8.1293393"><ele>266.5</ele><time>2026-03-29T15:01:30.999Z</time></trkpt><trkpt lat="45.0690704" lon="8.1292426"><ele>267.0</ele><time>2026-03-29T15:01:31.999Z</time></trkpt><trkpt lat="45.0689439" lon="8.1291947"><ele>267.5</ele><time>2026-03-29T15:01:32.999Z</time></trkpt><trkpt lat="45.0688091" lon="8.1291934"><ele>268.0</ele><time>2026-03-29T15:01:33.999Z</time></trkpt><trkpt lat="45.068667" lon="8.1292537"><ele>268.0</ele><time>2026-03-29T15:01:34.999Z</time></trkpt><trkpt lat="45.0685218" lon="8.1293414"><ele>268.0</ele><time>2026-03-29T15:01:35.999Z</time></trkpt><trkpt lat="45.0683705" lon="8.1294126"><ele>268.0</ele><time>2026-03-29T15:01:36.999Z</time></trkpt><trkpt lat="45.0682143" lon="8.1294515"><ele>265.3333333333333</ele><time>2026-03-29T15:01:37.999Z</time></trkpt><trkpt lat="45.0680701" lon="8.1294786"><ele>262.6666666666667</ele><time>2026-03-29T15:01:38.999Z</time></trkpt><trkpt lat="45.0679068" lon="8.1293747"><ele>260.0</ele><time>2026-03-29T15:01:39.999Z</time></trkpt><trkpt lat="45.0677623" lon="8.1292537"><ele>260.0</ele><time>2026-03-29T15:01:40.999Z</time></trkpt><trkpt lat="45.0676119" lon="8.1291245"><ele>260.0</ele><time>2026-03-29T15:01:41.999Z</time></trkpt><trkpt lat="45.0674477" lon="8.1289845"><ele>260.0</ele><time>2026-03-29T15:01:42.999Z</time></trkpt><trkpt lat="45.0672779" lon="8.1288422"><ele>259.6666666666667</ele><time>2026-03-29T15:01:43.999Z</time></trkpt><trkpt lat="45.0671069" lon="8.1286908"><ele>259.3333333333333</ele><time>2026-03-29T15:01:44.999Z</time></trkpt><trkpt lat="45.0669375" lon="8.128544"><ele>259.0</ele><time>2026-03-29T15:01:45.999Z</time></trkpt><trkpt lat="45.0667609" lon="8.1284146"><ele>259.0</ele><time>2026-03-29T15:01:46.999Z</time></trkpt><trkpt lat="45.0665649" lon="8.128315"><ele>259.0</ele><time>2026-03-29T15:01:47.999Z</time></trkpt><trkpt lat="45.0663606" lon="8.1282396"><ele>259.0</ele><time>2026-03-29T15:01:48.999Z</time></trkpt><trkpt lat="45.0661481" lon="8.1281784"><ele>259.0</ele><time>2026-03-29T15:01:49.999Z</time></trkpt><trkpt lat="45.0659233" lon="8.1281284"><ele>259.0</ele><time>2026-03-29T15:01:50.999Z</time></trkpt><trkpt lat="45.0657013" lon="8.1280763"><ele>258.0</ele><time>2026-03-29T15:01:51.999Z</time></trkpt><trkpt lat="45.0654775" lon="8.1280191"><ele>257.0</ele><time>2026-03-29T15:01:52.999Z</time></trkpt><trkpt lat="45.0652496" lon="8.1279723"><ele>257.0</ele><time>2026-03-29T15:01:53.999Z</time></trkpt><trkpt lat="45.0650231" lon="8.1279189"><ele>257.0</ele><time>2026-03-29T15:01:54.999Z</time></trkpt><trkpt lat="45.0647988" lon="8.1278666"><ele>257.0</ele><time>2026-03-29T15:01:55.999Z</time></trkpt><trkpt lat="45.0645852" lon="8.1278195"><ele>257.0</ele><time>2026-03-29T15:01:56.999Z</time></trkpt><trkpt lat="45.0643822" lon="8.1277705"><ele>257.0</ele><time>2026-03-29T15:01:57.999Z</time></trkpt><trkpt lat="45.0641882" lon="8.1277172"><ele>256.0</ele><time>2026-03-29T15:01:58.999Z</time></trkpt><trkpt lat="45.064004" lon="8.1276736"><ele>255.0</ele><time>2026-03-29T15:01:59.999Z</time></trkpt><trkpt lat="45.063833" lon="8.1276287"><ele>254.0</ele><time>2026-03-29T15:02:00.999Z</time></trkpt><trkpt lat="45.0636688" lon="8.1275882"><ele>254.0</ele><time>2026-03-29T15:02:01.999Z</time></trkpt><trkpt lat="45.0635062" lon="8.1275322"><ele>254.0</ele><time>2026-03-29T15:02:02.999Z</time></trkpt><trkpt lat="45.0633473" lon="8.1274585"><ele>254.0</ele><time>2026-03-29T15:02:03.999Z</time></trkpt><trkpt lat="45.0631758" lon="8.1273844"><ele>253.66666666666669</ele><time>2026-03-29T15:02:04.999Z</time></trkpt><trkpt lat="45.0629928" lon="8.127309"><ele>253.33333333333331</ele><time>2026-03-29T15:02:05.999Z</time></trkpt><trkpt lat="45.0628058" lon="8.127224"><ele>253.0</ele><time>2026-03-29T15:02:06.999Z</time></trkpt><trkpt lat="45.0626193" lon="8.1271404"><ele>248.66666666666666</ele><time>2026-03-29T15:02:07.999Z</time></trkpt><trkpt lat="45.0624443" lon="8.1270578"><ele>244.33333333333331</ele><time>2026-03-29T15:02:08.999Z</time></trkpt><trkpt lat="45.0622751" lon="8.1269792"><ele>240.0</ele><time>2026-03-29T15:02:09.999Z</time></trkpt><trkpt lat="45.0621158" lon="8.1268783"><ele>240.0</ele><time>2026-03-29T15:02:10.999Z</time></trkpt><trkpt lat="45.0619638" lon="8.1267414"><ele>240.0</ele><time>2026-03-29T15:02:11.999Z</time></trkpt><trkpt lat="45.0618223" lon="8.1265573"><ele>240.0</ele><time>2026-03-29T15:02:12.999Z</time></trkpt><trkpt lat="45.061681" lon="8.1263465"><ele>239.33333333333331</ele><time>2026-03-29T15:02:13.999Z</time></trkpt><trkpt lat="45.0615345" lon="8.126126"><ele>238.66666666666666</ele><time>2026-03-29T15:02:14.999Z</time></trkpt><trkpt lat="45.0613783" lon="8.1259001"><ele>238.0</ele><time>2026-03-29T15:02:15.999Z</time></trkpt><trkpt lat="45.0612248" lon="8.1256706"><ele>238.0</ele><time>2026-03-29T15:02:16.999Z</time></trkpt><trkpt lat="45.0610731" lon="8.1254468"><ele>238.0</ele><time>2026-03-29T15:02:17.999Z</time></trkpt><trkpt lat="45.0609295" lon="8.1252301"><ele>238.0</ele><time>2026-03-29T15:02:18.999Z</time></trkpt><trkpt lat="45.0607858" lon="8.1250219"><ele>238.33333333333331</ele><time>2026-03-29T15:02:19.999Z</time></trkpt><trkpt lat="45.0606601" lon="8.1248221"><ele>238.66666666666669</ele><time>2026-03-29T15:02:20.999Z</time></trkpt><trkpt lat="45.0605383" lon="8.1246263"><ele>239.0</ele><time>2026-03-29T15:02:21.999Z</time></trkpt><trkpt lat="45.0604189" lon="8.1244445"><ele>239.0</ele><time>2026-03-29T15:02:22.999Z</time></trkpt><trkpt lat="45.0603063" lon="8.1242822"><ele>239.0</ele><time>2026-03-29T15:02:23.999Z</time></trkpt><trkpt lat="45.060191" lon="8.124139"><ele>239.0</ele><time>2026-03-29T15:02:24.999Z</time></trkpt><trkpt lat="45.060077" lon="8.1240185"><ele>238.33333333333334</ele><time>2026-03-29T15:02:25.999Z</time></trkpt><trkpt lat="45.0599463" lon="8.1239387"><ele>237.66666666666669</ele><time>2026-03-29T15:02:26.999Z</time></trkpt><trkpt lat="45.0597998" lon="8.1238969"><ele>237.0</ele><time>2026-03-29T15:02:27.999Z</time></trkpt><trkpt lat="45.059639" lon="8.1238875"><ele>237.0</ele><time>2026-03-29T15:02:28.999Z</time></trkpt><trkpt lat="45.0594693" lon="8.1238925"><ele>237.0</ele><time>2026-03-29T15:02:29.999Z</time></trkpt><trkpt lat="45.0592877" lon="8.1238963"><ele>237.0</ele><time>2026-03-29T15:02:30.999Z</time></trkpt><trkpt lat="45.0590893" lon="8.123905"><ele>235.66666666666669</ele><time>2026-03-29T15:02:31.999Z</time></trkpt><trkpt lat="45.0588856" lon="8.1239107"><ele>234.33333333333334</ele><time>2026-03-29T15:02:32.999Z</time></trkpt><trkpt lat="45.0586766" lon="8.1239134"><ele>233.0</ele><time>2026-03-29T15:02:33.999Z</time></trkpt><trkpt lat="45.058469" lon="8.1239141"><ele>234.33333333333334</ele><time>2026-03-29T15:02:34.999Z</time></trkpt><trkpt lat="45.0582609" lon="8.1239092"><ele>235.66666666666669</ele><time>2026-03-29T15:02:35.999Z</time></trkpt><trkpt lat="45.0580615" lon="8.1239079"><ele>237.0</ele><time>2026-03-29T15:02:36.999Z</time></trkpt><trkpt lat="45.057863" lon="8.1239353"><ele>237.0</ele><time>2026-03-29T15:02:37.999Z</time></trkpt><trkpt lat="45.0576715" lon="8.1240494"><ele>237.0</ele><time>2026-03-29T15:02:38.999Z</time></trkpt><trkpt lat="45.0574975" lon="8.1242077"><ele>237.0</ele><time>2026-03-29T15:02:39.999Z</time></trkpt><trkpt lat="45.0573277" lon="8.1243815"><ele>238.0</ele><time>2026-03-29T15:02:40.999Z</time></trkpt><trkpt lat="45.057139" lon="8.1245365"><ele>239.0</ele><time>2026-03-29T15:02:41.999Z</time></trkpt><trkpt lat="45.0569415" lon="8.1246717"><ele>240.0</ele><time>2026-03-29T15:02:42.999Z</time></trkpt><trkpt lat="45.0567368" lon="8.124791"><ele>239.33333333333331</ele><time>2026-03-29T15:02:43.999Z</time></trkpt><trkpt lat="45.0565317" lon="8.1248911"><ele>238.66666666666666</ele><time>2026-03-29T15:02:44.999Z</time></trkpt><trkpt lat="45.05633" lon="8.1249838"><ele>238.0</ele><time>2026-03-29T15:02:45.999Z</time></trkpt><trkpt lat="45.0561355" lon="8.1250782"><ele>238.0</ele><time>2026-03-29T15:02:46.999Z</time></trkpt><trkpt lat="45.0559489" lon="8.1251978"><ele>238.0</ele><time>2026-03-29T15:02:47.999Z</time></trkpt><trkpt lat="45.0557776" lon="8.1253617"><ele>238.0</ele><time>2026-03-29T15:02:48.999Z</time></trkpt><trkpt lat="45.0556278" lon="8.125562"><ele>238.0</ele><time>2026-03-29T15:02:49.999Z</time></trkpt><trkpt lat="45.0554855" lon="8.1257835"><ele>238.0</ele><time>2026-03-29T15:02:50.999Z</time></trkpt><trkpt lat="45.055351" lon="8.1259939"><ele>238.0</ele><time>2026-03-29T15:02:51.999Z</time></trkpt><trkpt lat="45.0552244" lon="8.1261978"><ele>238.0</ele><time>2026-03-29T15:02:52.999Z</time></trkpt><trkpt lat="45.0551015" lon="8.1263888"><ele>238.0</ele><time>2026-03-29T15:02:53.999Z</time></trkpt><trkpt lat="45.054985" lon="8.1265719"><ele>238.0</ele><time>2026-03-29T15:02:54.999Z</time></trkpt><trkpt lat="45.0548735" lon="8.126743"><ele>240.66666666666666</ele><time>2026-03-29T15:02:55.999Z</time></trkpt><trkpt lat="45.0547597" lon="8.1269175"><ele>243.33333333333331</ele><time>2026-03-29T15:02:56.999Z</time></trkpt><trkpt lat="45.0546406" lon="8.1270958"><ele>246.0</ele><time>2026-03-29T15:02:57.999Z</time></trkpt><trkpt lat="45.0545185" lon="8.1272803"><ele>245.0</ele><time>2026-03-29T15:02:58.999Z</time></trkpt><trkpt lat="45.0544001" lon="8.1274691"><ele>244.0</ele><time>2026-03-29T15:02:59.999Z</time></trkpt><trkpt lat="45.0542718" lon="8.127655"><ele>243.0</ele><time>2026-03-29T15:03:00.999Z</time></trkpt><trkpt lat="45.0541355" lon="8.1278271"><ele>243.66666666666669</ele><time>2026-03-29T15:03:01.999Z</time></trkpt><trkpt lat="45.0539898" lon="8.1279832"><ele>244.33333333333334</ele><time>2026-03-29T15:03:02.999Z</time></trkpt><trkpt lat="45.0538353" lon="8.1281381"><ele>245.0</ele><time>2026-03-29T15:03:03.999Z</time></trkpt><trkpt lat="45.0536856" lon="8.1282745"><ele>245.0</ele><time>2026-03-29T15:03:04.999Z</time></trkpt><trkpt lat="45.0535416" lon="8.128401"><ele>245.0</ele><time>2026-03-29T15:03:05.999Z</time></trkpt><trkpt lat="45.0534035" lon="8.1285262"><ele>245.0</ele><time>2026-03-29T15:03:06.999Z</time></trkpt><trkpt lat="45.0532718" lon="8.1286515"><ele>245.66666666666669</ele><time>2026-03-29T15:03:07.999Z</time></trkpt><trkpt lat="45.0531435" lon="8.128771"><ele>246.33333333333331</ele><time>2026-03-29T15:03:08.999Z</time></trkpt><trkpt lat="45.0530149" lon="8.1288841"><ele>247.0</ele><time>2026-03-29T15:03:09.999Z</time></trkpt><trkpt lat="45.0528839" lon="8.1289979"><ele>246.66666666666666</ele><time>2026-03-29T15:03:10.999Z</time></trkpt><trkpt lat="45.0527482" lon="8.1291044"><ele>246.33333333333331</ele><time>2026-03-29T15:03:11.999Z</time></trkpt><trkpt lat="45.0526114" lon="8.1292001"><ele>246.0</ele><time>2026-03-29T15:03:12.999Z</time></trkpt><trkpt lat="45.052474" lon="8.1292803"><ele>245.66666666666669</ele><time>2026-03-29T15:03:13.999Z</time></trkpt><trkpt lat="45.052325" lon="8.1293573"><ele>245.33333333333334</ele><time>2026-03-29T15:03:14.999Z</time></trkpt><trkpt lat="45.0521739" lon="8.1294261"><ele>245.0</ele><time>2026-03-29T15:03:15.999Z</time></trkpt><trkpt lat="45.0520171" lon="8.1294927"><ele>245.0</ele><time>2026-03-29T15:03:16.999Z</time></trkpt><trkpt lat="45.0518615" lon="8.1295541"><ele>245.0</ele><time>2026-03-29T15:03:17.999Z</time></trkpt><trkpt lat="45.0516961" lon="8.1296139"><ele>245.0</ele><time>2026-03-29T15:03:18.999Z</time></trkpt><trkpt lat="45.0515161" lon="8.1296866"><ele>243.0</ele><time>2026-03-29T15:03:19.999Z</time></trkpt><trkpt lat="45.0513273" lon="8.12977"><ele>241.0</ele><time>2026-03-29T15:03:20.999Z</time></trkpt><trkpt lat="45.0511252" lon="8.1298431"><ele>239.0</ele><time>2026-03-29T15:03:21.999Z</time></trkpt><trkpt lat="45.0509131" lon="8.129911"><ele>237.66666666666669</ele><time>2026-03-29T15:03:22.999Z</time></trkpt><trkpt lat="45.0507016" lon="8.1299875"><ele>236.33333333333331</ele><time>2026-03-29T15:03:23.999Z</time></trkpt><trkpt lat="45.0504926" lon="8.1300891"><ele>235.0</ele><time>2026-03-29T15:03:24.999Z</time></trkpt><trkpt lat="45.0502947" lon="8.1302415"><ele>235.0</ele><time>2026-03-29T15:03:25.999Z</time></trkpt><trkpt lat="45.0501071" lon="8.1304189"><ele>235.0</ele><time>2026-03-29T15:03:26.999Z</time></trkpt><trkpt lat="45.0499267" lon="8.1306028"><ele>235.0</ele><time>2026-03-29T15:03:27.999Z</time></trkpt><trkpt lat="45.0497502" lon="8.1307675"><ele>237.33333333333331</ele><time>2026-03-29T15:03:28.999Z</time></trkpt><trkpt lat="45.0495864" lon="8.1309248"><ele>239.66666666666669</ele><time>2026-03-29T15:03:29.999Z</time></trkpt><trkpt lat="45.0494335" lon="8.1310691"><ele>242.0</ele><time>2026-03-29T15:03:30.999Z</time></trkpt><trkpt lat="45.0493002" lon="8.1312029"><ele>242.0</ele><time>2026-03-29T15:03:31.999Z</time></trkpt><trkpt lat="45.0491652" lon="8.131331"><ele>242.0</ele><time>2026-03-29T15:03:32.999Z</time></trkpt><trkpt lat="45.0490328" lon="8.1314529"><ele>242.0</ele><time>2026-03-29T15:03:33.999Z</time></trkpt><trkpt lat="45.0489156" lon="8.1315703"><ele>243.25</ele><time>2026-03-29T15:03:34.999Z</time></trkpt><trkpt lat="45.0488033" lon="8.1316853"><ele>244.5</ele><time>2026-03-29T15:03:35.999Z</time></trkpt><trkpt lat="45.0486898" lon="8.1318069"><ele>245.75</ele><time>2026-03-29T15:03:36.999Z</time></trkpt><trkpt lat="45.0485838" lon="8.1319262"><ele>247.0</ele><time>2026-03-29T15:03:37.999Z</time></trkpt><trkpt lat="45.0484841" lon="8.1320318"><ele>247.0</ele><time>2026-03-29T15:03:38.999Z</time></trkpt><trkpt lat="45.0483726" lon="8.1321571"><ele>247.0</ele><time>2026-03-29T15:03:39.999Z</time></trkpt><trkpt lat="45.0482385" lon="8.1322385"><ele>247.0</ele><time>2026-03-29T15:03:40.999Z</time></trkpt><trkpt lat="45.0481192" lon="8.1323251"><ele>247.0</ele><time>2026-03-29T15:03:41.999Z</time></trkpt><trkpt lat="45.048006" lon="8.1324127"><ele>247.5</ele><time>2026-03-29T15:03:42.999Z</time></trkpt><trkpt lat="45.0479015" lon="8.1325079"><ele>248.0</ele><time>2026-03-29T15:03:43.999Z</time></trkpt><trkpt lat="45.0478024" lon="8.1326066"><ele>248.5</ele><time>2026-03-29T15:03:44.999Z</time></trkpt><trkpt lat="45.0477025" lon="8.1327177"><ele>249.0</ele><time>2026-03-29T15:03:45.999Z</time></trkpt><trkpt lat="45.0476131" lon="8.1328252"><ele>249.0</ele><time>2026-03-29T15:03:46.999Z</time></trkpt><trkpt lat="45.0475285" lon="8.132927"><ele>248.99999999999997</ele><time>2026-03-29T15:03:47.999Z</time></trkpt><trkpt lat="45.0474598" lon="8.1330266"><ele>248.99999999999997</ele><time>2026-03-29T15:03:48.999Z</time></trkpt><trkpt lat="45.0473911" lon="8.1331209"><ele>249.0</ele><time>2026-03-29T15:03:49.999Z</time></trkpt><trkpt lat="45.0473345" lon="8.1332022"><ele>249.0</ele><time>2026-03-29T15:03:50.999Z</time></trkpt><trkpt lat="45.047238" lon="8.1332226"><ele>248.39999999999998</ele><time>2026-03-29T15:03:52.999Z</time></trkpt><trkpt lat="45.0471458" lon="8.1331356"><ele>247.79999999999998</ele><time>2026-03-29T15:03:54.999Z</time></trkpt><trkpt lat="45.0470343" lon="8.133039"><ele>247.20000000000002</ele><time>2026-03-29T15:03:56.999Z</time></trkpt><trkpt lat="45.0469527" lon="8.1330099"><ele>246.60000000000002</ele><time>2026-03-29T15:03:57.999Z</time></trkpt><trkpt lat="45.0468514" lon="8.1330063"><ele>246.0</ele><time>2026-03-29T15:03:58.999Z</time></trkpt><trkpt lat="45.0467362" lon="8.1330099"><ele>245.25</ele><time>2026-03-29T15:03:59.999Z</time></trkpt><trkpt lat="45.0466171" lon="8.132996"><ele>244.5</ele><time>2026-03-29T15:04:00.999Z</time></trkpt><trkpt lat="45.0464896" lon="8.1329882"><ele>243.75</ele><time>2026-03-29T15:04:01.999Z</time></trkpt><trkpt lat="45.0463722" lon="8.1329757"><ele>243.0</ele><time>2026-03-29T15:04:02.999Z</time></trkpt><trkpt lat="45.0462671" lon="8.1329875"><ele>243.0</ele><time>2026-03-29T15:04:03.999Z</time></trkpt><trkpt lat="45.0461626" lon="8.1330124"><ele>243.0</ele><time>2026-03-29T15:04:04.999Z</time></trkpt><trkpt lat="45.0460519" lon="8.1330819"><ele>243.0</ele><time>2026-03-29T15:04:05.999Z</time></trkpt><trkpt lat="45.0459551" lon="8.1331901"><ele>243.0</ele><time>2026-03-29T15:04:06.999Z</time></trkpt><trkpt lat="45.0458681" lon="8.1333262"><ele>242.25</ele><time>2026-03-29T15:04:07.999Z</time></trkpt><trkpt lat="45.0457957" lon="8.1335052"><ele>241.5</ele><time>2026-03-29T15:04:08.999Z</time></trkpt><trkpt lat="45.045746" lon="8.1336769"><ele>240.75</ele><time>2026-03-29T15:04:09.999Z</time></trkpt><trkpt lat="45.0457082" lon="8.1338423"><ele>240.0</ele><time>2026-03-29T15:04:10.999Z</time></trkpt><trkpt lat="45.0456616" lon="8.1339958"><ele>240.0</ele><time>2026-03-29T15:04:11.999Z</time></trkpt><trkpt lat="45.0456282" lon="8.1341561"><ele>240.0</ele><time>2026-03-29T15:04:12.999Z</time></trkpt><trkpt lat="45.0456056" lon="8.1343165"><ele>240.0</ele><time>2026-03-29T15:04:13.999Z</time></trkpt><trkpt lat="45.0455799" lon="8.1344955"><ele>240.0</ele><time>2026-03-29T15:04:14.999Z</time></trkpt><trkpt lat="45.0455668" lon="8.1346583"><ele>240.0</ele><time>2026-03-29T15:04:15.999Z</time></trkpt><trkpt lat="45.0455531" lon="8.1348161"><ele>240.0</ele><time>2026-03-29T15:04:16.999Z</time></trkpt><trkpt lat="45.0455509" lon="8.1349665"><ele>240.0</ele><time>2026-03-29T15:04:17.999Z</time></trkpt><trkpt lat="45.0455559" lon="8.1350832"><ele>240.0</ele><time>2026-03-29T15:04:18.999Z</time></trkpt><trkpt lat="45.0455281" lon="8.1351986"><ele>240.0</ele><time>2026-03-29T15:04:19.999Z</time></trkpt><trkpt lat="45.0454887" lon="8.1353028"><ele>240.0</ele><time>2026-03-29T15:04:20.999Z</time></trkpt><trkpt lat="45.0453626" lon="8.1353986"><ele>240.0</ele><time>2026-03-29T15:04:21.999Z</time></trkpt><trkpt lat="45.0452429" lon="8.1355101"><ele>240.0</ele><time>2026-03-29T15:04:22.999Z</time></trkpt><trkpt lat="45.0451139" lon="8.1356158"><ele>240.0</ele><time>2026-03-29T15:04:23.999Z</time></trkpt><trkpt lat="45.0449815" lon="8.1357254"><ele>238.0</ele><time>2026-03-29T15:04:24.999Z</time></trkpt><trkpt lat="45.0448494" lon="8.1358379"><ele>236.0</ele><time>2026-03-29T15:04:25.999Z</time></trkpt><trkpt lat="45.0447142" lon="8.1359575"><ele>234.0</ele><time>2026-03-29T15:04:26.999Z</time></trkpt><trkpt lat="45.0445846" lon="8.1360744"><ele>234.0</ele><time>2026-03-29T15:04:27.999Z</time></trkpt><trkpt lat="45.0444516" lon="8.1361875"><ele>234.0</ele><time>2026-03-29T15:04:28.999Z</time></trkpt><trkpt lat="45.044316" lon="8.13631"><ele>234.0</ele><time>2026-03-29T15:04:29.999Z</time></trkpt><trkpt lat="45.0441788" lon="8.1364358"><ele>232.33333333333331</ele><time>2026-03-29T15:04:30.999Z</time></trkpt><trkpt lat="45.0440394" lon="8.1365575"><ele>230.66666666666666</ele><time>2026-03-29T15:04:31.999Z</time></trkpt><trkpt lat="45.0438905" lon="8.1366697"><ele>229.0</ele><time>2026-03-29T15:04:32.999Z</time></trkpt><trkpt lat="45.0437343" lon="8.1367625"><ele>229.0</ele><time>2026-03-29T15:04:33.999Z</time></trkpt><trkpt lat="45.0435681" lon="8.1368244"><ele>229.0</ele><time>2026-03-29T15:04:34.999Z</time></trkpt><trkpt lat="45.0433883" lon="8.1368534"><ele>229.0</ele><time>2026-03-29T15:04:35.999Z</time></trkpt><trkpt lat="45.0432003" lon="8.1368471"><ele>227.33333333333331</ele><time>2026-03-29T15:04:36.999Z</time></trkpt><trkpt lat="45.0430035" lon="8.1368182"><ele>225.66666666666669</ele><time>2026-03-29T15:04:37.999Z</time></trkpt><trkpt lat="45.0427983" lon="8.1367874"><ele>224.0</ele><time>2026-03-29T15:04:38.999Z</time></trkpt><trkpt lat="45.042587" lon="8.1367594"><ele>222.33333333333334</ele><time>2026-03-29T15:04:39.999Z</time></trkpt><trkpt lat="45.0423743" lon="8.1367424"><ele>220.66666666666669</ele><time>2026-03-29T15:04:40.999Z</time></trkpt><trkpt lat="45.0421494" lon="8.1367543"><ele>219.0</ele><time>2026-03-29T15:04:41.999Z</time></trkpt><trkpt lat="45.041925" lon="8.1367851"><ele>219.0</ele><time>2026-03-29T15:04:42.999Z</time></trkpt><trkpt lat="45.0417019" lon="8.1368226"><ele>219.0</ele><time>2026-03-29T15:04:43.999Z</time></trkpt><trkpt lat="45.0414862" lon="8.1368556"><ele>219.0</ele><time>2026-03-29T15:04:44.999Z</time></trkpt><trkpt lat="45.0412758" lon="8.1368705"><ele>218.0</ele><time>2026-03-29T15:04:45.999Z</time></trkpt><trkpt lat="45.0410638" lon="8.1368584"><ele>217.0</ele><time>2026-03-29T15:04:46.999Z</time></trkpt><trkpt lat="45.0408492" lon="8.1368346"><ele>216.0</ele><time>2026-03-29T15:04:47.999Z</time></trkpt><trkpt lat="45.0406334" lon="8.1367702"><ele>215.0</ele><time>2026-03-29T15:04:48.999Z</time></trkpt><trkpt lat="45.0404245" lon="8.1367164"><ele>214.0</ele><time>2026-03-29T15:04:49.999Z</time></trkpt><trkpt lat="45.0402269" lon="8.1366535"><ele>213.0</ele><time>2026-03-29T15:04:50.999Z</time></trkpt><trkpt lat="45.0400362" lon="8.1366013"><ele>213.66666666666669</ele><time>2026-03-29T15:04:51.999Z</time></trkpt><trkpt lat="45.0398515" lon="8.1365681"><ele>214.33333333333334</ele><time>2026-03-29T15:04:52.999Z</time></trkpt><trkpt lat="45.039675" lon="8.1365678"><ele>215.0</ele><time>2026-03-29T15:04:53.999Z</time></trkpt><trkpt lat="45.0395045" lon="8.1365812"><ele>215.0</ele><time>2026-03-29T15:04:54.999Z</time></trkpt><trkpt lat="45.0393408" lon="8.1365805"><ele>215.0</ele><time>2026-03-29T15:04:55.999Z</time></trkpt><trkpt lat="45.0391865" lon="8.1365253"><ele>215.0</ele><time>2026-03-29T15:04:56.999Z</time></trkpt><trkpt lat="45.0390375" lon="8.1364626"><ele>212.33333333333334</ele><time>2026-03-29T15:04:57.999Z</time></trkpt><trkpt lat="45.0389249" lon="8.1362438"><ele>209.66666666666669</ele><time>2026-03-29T15:04:58.999Z</time></trkpt><trkpt lat="45.0388261" lon="8.1360352"><ele>207.0</ele><time>2026-03-29T15:04:59.999Z</time></trkpt><trkpt lat="45.0387434" lon="8.1358458"><ele>204.5</ele><time>2026-03-29T15:05:00.999Z</time></trkpt><trkpt lat="45.0386541" lon="8.1356645"><ele>202.0</ele><time>2026-03-29T15:05:01.999Z</time></trkpt><trkpt lat="45.0385554" lon="8.1355163"><ele>199.5</ele><time>2026-03-29T15:05:02.999Z</time></trkpt><trkpt lat="45.0384376" lon="8.1354117"><ele>197.0</ele><time>2026-03-29T15:05:03.999Z</time></trkpt><trkpt lat="45.0382874" lon="8.1353264"><ele>197.0</ele><time>2026-03-29T15:05:04.999Z</time></trkpt><trkpt lat="45.0381237" lon="8.1352587"><ele>197.0</ele><time>2026-03-29T15:05:05.999Z</time></trkpt><trkpt lat="45.0379497" lon="8.1351832"><ele>197.0</ele><time>2026-03-29T15:05:06.999Z</time></trkpt><trkpt lat="45.0377792" lon="8.1351186"><ele>197.0</ele><time>2026-03-29T15:05:07.999Z</time></trkpt><trkpt lat="45.0376215" lon="8.1350591"><ele>197.0</ele><time>2026-03-29T15:05:08.999Z</time></trkpt><trkpt lat="45.0374649" lon="8.1350255"><ele>197.0</ele><time>2026-03-29T15:05:09.999Z</time></trkpt><trkpt lat="45.0373184" lon="8.1350328"><ele>193.66666666666669</ele><time>2026-03-29T15:05:10.999Z</time></trkpt><trkpt lat="45.0371747" lon="8.1351007"><ele>190.33333333333334</ele><time>2026-03-29T15:05:11.999Z</time></trkpt><trkpt lat="45.037028" lon="8.1352102"><ele>187.0</ele><time>2026-03-29T15:05:12.999Z</time></trkpt><trkpt lat="45.0368722" lon="8.1353372"><ele>187.0</ele><time>2026-03-29T15:05:13.999Z</time></trkpt><trkpt lat="45.0367137" lon="8.1354557"><ele>187.0</ele><time>2026-03-29T15:05:14.999Z</time></trkpt><trkpt lat="45.0365696" lon="8.135558"><ele>187.0</ele><time>2026-03-29T15:05:15.999Z</time></trkpt><trkpt lat="45.0364346" lon="8.1356446"><ele>186.0</ele><time>2026-03-29T15:05:16.999Z</time></trkpt><trkpt lat="45.0363044" lon="8.1356842"><ele>185.0</ele><time>2026-03-29T15:05:17.999Z</time></trkpt><trkpt lat="45.0361831" lon="8.1356999"><ele>184.0</ele><time>2026-03-29T15:05:18.999Z</time></trkpt><trkpt lat="45.0360523" lon="8.1356652"><ele>183.0</ele><time>2026-03-29T15:05:19.999Z</time></trkpt><trkpt lat="45.0359404" lon="8.1354927"><ele>183.0</ele><time>2026-03-29T15:05:20.999Z</time></trkpt><trkpt lat="45.0358623" lon="8.1352252"><ele>183.0</ele><time>2026-03-29T15:05:21.999Z</time></trkpt><trkpt lat="45.0358093" lon="8.1349478"><ele>183.0</ele><time>2026-03-29T15:05:22.999Z</time></trkpt><trkpt lat="45.035752" lon="8.1346882"><ele>184.0</ele><time>2026-03-29T15:05:23.999Z</time></trkpt><trkpt lat="45.0356829" lon="8.1344162"><ele>185.0</ele><time>2026-03-29T15:05:24.999Z</time></trkpt><trkpt lat="45.0356092" lon="8.1341419"><ele>186.0</ele><time>2026-03-29T15:05:25.999Z</time></trkpt><trkpt lat="45.035527" lon="8.1338766"><ele>186.0</ele><time>2026-03-29T15:05:26.999Z</time></trkpt><trkpt lat="45.0354317" lon="8.1336148"><ele>186.0</ele><time>2026-03-29T15:05:27.999Z</time></trkpt><trkpt lat="45.0353283" lon="8.1333533"><ele>186.0</ele><time>2026-03-29T15:05:28.999Z</time></trkpt><trkpt lat="45.0352226" lon="8.1330982"><ele>184.66666666666666</ele><time>2026-03-29T15:05:29.999Z</time></trkpt><trkpt lat="45.0351224" lon="8.132847"><ele>183.33333333333331</ele><time>2026-03-29T15:05:30.999Z</time></trkpt><trkpt lat="45.0350269" lon="8.1326061"><ele>182.0</ele><time>2026-03-29T15:05:31.999Z</time></trkpt><trkpt lat="45.0349347" lon="8.1323796"><ele>179.66666666666666</ele><time>2026-03-29T15:05:32.999Z</time></trkpt><trkpt lat="45.0348447" lon="8.1321634"><ele>177.33333333333334</ele><time>2026-03-29T15:05:33.999Z</time></trkpt><trkpt lat="45.0347558" lon="8.1319533"><ele>175.0</ele><time>2026-03-29T15:05:34.999Z</time></trkpt><trkpt lat="45.0346516" lon="8.1317738"><ele>175.0</ele><time>2026-03-29T15:05:35.999Z</time></trkpt><trkpt lat="45.0345485" lon="8.1316061"><ele>175.0</ele><time>2026-03-29T15:05:36.999Z</time></trkpt><trkpt lat="45.034409" lon="8.1314832"><ele>175.0</ele><time>2026-03-29T15:05:37.999Z</time></trkpt><trkpt lat="45.0342085" lon="8.1315735"><ele>173.66666666666669</ele><time>2026-03-29T15:05:38.999Z</time></trkpt><trkpt lat="45.0340309" lon="8.1316108"><ele>172.33333333333334</ele><time>2026-03-29T15:05:39.999Z</time></trkpt><trkpt lat="45.033852" lon="8.1316882"><ele>171.0</ele><time>2026-03-29T15:05:40.999Z</time></trkpt><trkpt lat="45.0336599" lon="8.1317846"><ele>171.0</ele><time>2026-03-29T15:05:41.999Z</time></trkpt><trkpt lat="45.0334628" lon="8.1318834"><ele>171.0</ele><time>2026-03-29T15:05:42.999Z</time></trkpt><trkpt lat="45.0332545" lon="8.1319915"><ele>171.0</ele><time>2026-03-29T15:05:43.999Z</time></trkpt><trkpt lat="45.03304" lon="8.1320987"><ele>169.5</ele><time>2026-03-29T15:05:44.999Z</time></trkpt><trkpt lat="45.0328289" lon="8.1322023"><ele>168.0</ele><time>2026-03-29T15:05:45.999Z</time></trkpt><trkpt lat="45.0326123" lon="8.1323158"><ele>169.5</ele><time>2026-03-29T15:05:46.999Z</time></trkpt><trkpt lat="45.0323903" lon="8.1324391"><ele>171.0</ele><time>2026-03-29T15:05:47.999Z</time></trkpt><trkpt lat="45.0321607" lon="8.132566"><ele>171.0</ele><time>2026-03-29T15:05:48.999Z</time></trkpt><trkpt lat="45.0319194" lon="8.1326871"><ele>171.0</ele><time>2026-03-29T15:05:49.999Z</time></trkpt><trkpt lat="45.03169" lon="8.1327914"><ele>170.0</ele><time>2026-03-29T15:05:50.999Z</time></trkpt><trkpt lat="45.0314725" lon="8.1328858"><ele>169.0</ele><time>2026-03-29T15:05:51.999Z</time></trkpt><trkpt lat="45.0312738" lon="8.1329828"><ele>168.0</ele><time>2026-03-29T15:05:52.999Z</time></trkpt><trkpt lat="45.0310823" lon="8.1330855"><ele>168.0</ele><time>2026-03-29T15:05:53.999Z</time></trkpt><trkpt lat="45.0308958" lon="8.1332059"><ele>168.0</ele><time>2026-03-29T15:05:54.999Z</time></trkpt><trkpt lat="45.0307223" lon="8.1333686"><ele>168.0</ele><time>2026-03-29T15:05:55.999Z</time></trkpt><trkpt lat="45.0305606" lon="8.1335742"><ele>167.5</ele><time>2026-03-29T15:05:56.999Z</time></trkpt><trkpt lat="45.0303982" lon="8.1338014"><ele>167.0</ele><time>2026-03-29T15:05:57.999Z</time></trkpt><trkpt lat="45.0302288" lon="8.1340255"><ele>166.5</ele><time>2026-03-29T15:05:58.999Z</time></trkpt><trkpt lat="45.0300552" lon="8.1342454"><ele>166.0</ele><time>2026-03-29T15:05:59.999Z</time></trkpt><trkpt lat="45.0298856" lon="8.1344631"><ele>166.0</ele><time>2026-03-29T15:06:00.999Z</time></trkpt><trkpt lat="45.0297219" lon="8.1346841"><ele>166.0</ele><time>2026-03-29T15:06:01.999Z</time></trkpt><trkpt lat="45.0295688" lon="8.1348908"><ele>166.0</ele><time>2026-03-29T15:06:02.999Z</time></trkpt><trkpt lat="45.0294185" lon="8.1350899"><ele>166.0</ele><time>2026-03-29T15:06:03.999Z</time></trkpt><trkpt lat="45.0292768" lon="8.1352781"><ele>166.0</ele><time>2026-03-29T15:06:04.999Z</time></trkpt><trkpt lat="45.0291428" lon="8.1354525"><ele>166.0</ele><time>2026-03-29T15:06:05.999Z</time></trkpt><trkpt lat="45.0290252" lon="8.1356467"><ele>166.33333333333334</ele><time>2026-03-29T15:06:06.999Z</time></trkpt><trkpt lat="45.0289272" lon="8.1358654"><ele>166.66666666666666</ele><time>2026-03-29T15:06:07.999Z</time></trkpt><trkpt lat="45.0288536" lon="8.1361093"><ele>167.0</ele><time>2026-03-29T15:06:08.999Z</time></trkpt><trkpt lat="45.0288012" lon="8.1363778"><ele>166.66666666666666</ele><time>2026-03-29T15:06:09.999Z</time></trkpt><trkpt lat="45.028759" lon="8.1366612"><ele>166.33333333333334</ele><time>2026-03-29T15:06:10.999Z</time></trkpt><trkpt lat="45.0287196" lon="8.136946"><ele>166.0</ele><time>2026-03-29T15:06:11.999Z</time></trkpt><trkpt lat="45.0286866" lon="8.137213"><ele>166.0</ele><time>2026-03-29T15:06:12.999Z</time></trkpt><trkpt lat="45.0286547" lon="8.137449"><ele>166.0</ele><time>2026-03-29T15:06:13.999Z</time></trkpt><trkpt lat="45.0286256" lon="8.1376634"><ele>166.0</ele><time>2026-03-29T15:06:14.999Z</time></trkpt><trkpt lat="45.0285833" lon="8.1378364"><ele>166.0</ele><time>2026-03-29T15:06:15.999Z</time></trkpt><trkpt lat="45.0285049" lon="8.1379555"><ele>166.0</ele><time>2026-03-29T15:06:16.999Z</time></trkpt><trkpt lat="45.0283888" lon="8.1380148"><ele>166.0</ele><time>2026-03-29T15:06:17.999Z</time></trkpt><trkpt lat="45.0282526" lon="8.1380003"><ele>166.0</ele><time>2026-03-29T15:06:18.999Z</time></trkpt><trkpt lat="45.0281053" lon="8.137938"><ele>165.66666666666669</ele><time>2026-03-29T15:06:19.999Z</time></trkpt><trkpt lat="45.0279458" lon="8.1378587"><ele>165.33333333333334</ele><time>2026-03-29T15:06:20.999Z</time></trkpt><trkpt lat="45.0277753" lon="8.1377781"><ele>165.0</ele><time>2026-03-29T15:06:21.999Z</time></trkpt><trkpt lat="45.0275987" lon="8.1376996"><ele>165.0</ele><time>2026-03-29T15:06:22.999Z</time></trkpt><trkpt lat="45.0274205" lon="8.1376189"><ele>165.0</ele><time>2026-03-29T15:06:23.999Z</time></trkpt><trkpt lat="45.0272524" lon="8.1375416"><ele>165.0</ele><time>2026-03-29T15:06:24.999Z</time></trkpt><trkpt lat="45.0270916" lon="8.1374678"><ele>165.0</ele><time>2026-03-29T15:06:25.999Z</time></trkpt><trkpt lat="45.02694" lon="8.1374057"><ele>165.0</ele><time>2026-03-29T15:06:26.999Z</time></trkpt><trkpt lat="45.0268012" lon="8.1373445"><ele>165.0</ele><time>2026-03-29T15:06:27.999Z</time></trkpt><trkpt lat="45.0266702" lon="8.1372878"><ele>165.0</ele><time>2026-03-29T15:06:28.999Z</time></trkpt><trkpt lat="45.0265487" lon="8.1372352"><ele>165.2</ele><time>2026-03-29T15:06:29.999Z</time></trkpt><trkpt lat="45.0264271" lon="8.1371961"><ele>165.4</ele><time>2026-03-29T15:06:30.999Z</time></trkpt><trkpt lat="45.0263221" lon="8.1371479"><ele>165.60000000000002</ele><time>2026-03-29T15:06:31.999Z</time></trkpt><trkpt lat="45.0262304" lon="8.1370759"><ele>165.8</ele><time>2026-03-29T15:06:32.999Z</time></trkpt><trkpt lat="45.0261671" lon="8.1369649"><ele>166.0</ele><time>2026-03-29T15:06:33.999Z</time></trkpt><trkpt lat="45.026134" lon="8.1368368"><ele>166.0</ele><time>2026-03-29T15:06:34.999Z</time></trkpt><trkpt lat="45.0261361" lon="8.1366927"><ele>166.0</ele><time>2026-03-29T15:06:35.999Z</time></trkpt><trkpt lat="45.0261718" lon="8.1365272"><ele>166.0</ele><time>2026-03-29T15:06:36.999Z</time></trkpt><trkpt lat="45.0262157" lon="8.1363479"><ele>166.0</ele><time>2026-03-29T15:06:37.999Z</time></trkpt><trkpt lat="45.0262617" lon="8.1361455"><ele>165.33333333333334</ele><time>2026-03-29T15:06:38.999Z</time></trkpt><trkpt lat="45.0263132" lon="8.1359168"><ele>164.66666666666666</ele><time>2026-03-29T15:06:39.999Z</time></trkpt><trkpt lat="45.0263674" lon="8.1356757"><ele>164.0</ele><time>2026-03-29T15:06:40.999Z</time></trkpt><trkpt lat="45.0264352" lon="8.1354267"><ele>163.66666666666666</ele><time>2026-03-29T15:06:41.999Z</time></trkpt><trkpt lat="45.0265068" lon="8.1351695"><ele>163.33333333333334</ele><time>2026-03-29T15:06:43Z</time></trkpt><trkpt lat="45.02658" lon="8.1348986"><ele>163.0</ele><time>2026-03-29T15:06:43.999Z</time></trkpt><trkpt lat="45.0266474" lon="8.1346152"><ele>163.66666666666669</ele><time>2026-03-29T15:06:44.999Z</time></trkpt><trkpt lat="45.0267202" lon="8.1343395"><ele>164.33333333333334</ele><time>2026-03-29T15:06:45.999Z</time></trkpt><trkpt lat="45.026792" lon="8.1340722"><ele>165.0</ele><time>2026-03-29T15:06:46.999Z</time></trkpt><trkpt lat="45.0268602" lon="8.1338121"><ele>165.0</ele><time>2026-03-29T15:06:47.999Z</time></trkpt><trkpt lat="45.0269268" lon="8.1335534"><ele>165.0</ele><time>2026-03-29T15:06:48.999Z</time></trkpt><trkpt lat="45.0269935" lon="8.1333022"><ele>165.0</ele><time>2026-03-29T15:06:49.999Z</time></trkpt><trkpt lat="45.027056" lon="8.1330529"><ele>165.0</ele><time>2026-03-29T15:06:50.999Z</time></trkpt><trkpt lat="45.0271187" lon="8.1328116"><ele>165.0</ele><time>2026-03-29T15:06:51.999Z</time></trkpt><trkpt lat="45.0271815" lon="8.1325722"><ele>165.0</ele><time>2026-03-29T15:06:52.999Z</time></trkpt><trkpt lat="45.0272421" lon="8.132339"><ele>165.33333333333334</ele><time>2026-03-29T15:06:53.999Z</time></trkpt><trkpt lat="45.0273019" lon="8.1321059"><ele>165.66666666666669</ele><time>2026-03-29T15:06:54.999Z</time></trkpt><trkpt lat="45.0273616" lon="8.1318798"><ele>166.0</ele><time>2026-03-29T15:06:55.999Z</time></trkpt><trkpt lat="45.0274208" lon="8.1316504"><ele>167.0</ele><time>2026-03-29T15:06:56.999Z</time></trkpt><trkpt lat="45.0274797" lon="8.1314259"><ele>168.0</ele><time>2026-03-29T15:06:57.999Z</time></trkpt><trkpt lat="45.0275381" lon="8.1312068"><ele>169.0</ele><time>2026-03-29T15:06:58.999Z</time></trkpt><trkpt lat="45.0275971" lon="8.1309912"><ele>169.0</ele><time>2026-03-29T15:06:59.999Z</time></trkpt><trkpt lat="45.0276604" lon="8.1307751"><ele>169.0</ele><time>2026-03-29T15:07:00.999Z</time></trkpt><trkpt lat="45.0277179" lon="8.1305585"><ele>169.0</ele><time>2026-03-29T15:07:01.999Z</time></trkpt><trkpt lat="45.0277701" lon="8.1303376"><ele>168.75</ele><time>2026-03-29T15:07:02.999Z</time></trkpt><trkpt lat="45.0278233" lon="8.1301192"><ele>168.5</ele><time>2026-03-29T15:07:03.999Z</time></trkpt><trkpt lat="45.0278742" lon="8.1299238"><ele>168.25</ele><time>2026-03-29T15:07:04.999Z</time></trkpt><trkpt lat="45.0279157" lon="8.1297751"><ele>168.0</ele><time>2026-03-29T15:07:05.999Z</time></trkpt><trkpt lat="45.0279398" lon="8.1296541"><ele>168.0</ele><time>2026-03-29T15:07:06.999Z</time></trkpt><trkpt lat="45.0279246" lon="8.1295457"><ele>168.0</ele><time>2026-03-29T15:07:07.999Z</time></trkpt><trkpt lat="45.0278724" lon="8.1294516"><ele>168.0</ele><time>2026-03-29T15:07:08.999Z</time></trkpt><trkpt lat="45.027777" lon="8.1293679"><ele>168.0</ele><time>2026-03-29T15:07:09.999Z</time></trkpt><trkpt lat="45.0276575" lon="8.1292872"><ele>168.0</ele><time>2026-03-29T15:07:10.999Z</time></trkpt><trkpt lat="45.0275188" lon="8.129196"><ele>167.66666666666666</ele><time>2026-03-29T15:07:11.999Z</time></trkpt><trkpt lat="45.0273669" lon="8.1290983"><ele>167.33333333333331</ele><time>2026-03-29T15:07:12.999Z</time></trkpt><trkpt lat="45.0271964" lon="8.1289746"><ele>167.0</ele><time>2026-03-29T15:07:13.999Z</time></trkpt><trkpt lat="45.0270208" lon="8.1288374"><ele>167.66666666666666</ele><time>2026-03-29T15:07:14.999Z</time></trkpt><trkpt lat="45.0268388" lon="8.1286976"><ele>168.33333333333334</ele><time>2026-03-29T15:07:15.999Z</time></trkpt><trkpt lat="45.0266433" lon="8.1285523"><ele>169.0</ele><time>2026-03-29T15:07:16.999Z</time></trkpt><trkpt lat="45.0264407" lon="8.128403"><ele>168.0</ele><time>2026-03-29T15:07:17.999Z</time></trkpt><trkpt lat="45.0262306" lon="8.1282525"><ele>167.0</ele><time>2026-03-29T15:07:18.999Z</time></trkpt><trkpt lat="45.0260193" lon="8.1280986"><ele>168.0</ele><time>2026-03-29T15:07:19.999Z</time></trkpt><trkpt lat="45.0258054" lon="8.1279457"><ele>169.0</ele><time>2026-03-29T15:07:20.999Z</time></trkpt><trkpt lat="45.025588" lon="8.1277863"><ele>169.0</ele><time>2026-03-29T15:07:21.999Z</time></trkpt><trkpt lat="45.0253649" lon="8.1276251"><ele>169.0</ele><time>2026-03-29T15:07:22.999Z</time></trkpt><trkpt lat="45.0251454" lon="8.1274548"><ele>171.0</ele><time>2026-03-29T15:07:23.999Z</time></trkpt><trkpt lat="45.0249208" lon="8.1272862"><ele>173.0</ele><time>2026-03-29T15:07:24.999Z</time></trkpt><trkpt lat="45.024693" lon="8.1271135"><ele>173.0</ele><time>2026-03-29T15:07:25.999Z</time></trkpt><trkpt lat="45.0244618" lon="8.1269466"><ele>173.0</ele><time>2026-03-29T15:07:26.999Z</time></trkpt><trkpt lat="45.0242352" lon="8.1267778"><ele>173.5</ele><time>2026-03-29T15:07:27.999Z</time></trkpt><trkpt lat="45.0240062" lon="8.1266075"><ele>174.0</ele><time>2026-03-29T15:07:28.999Z</time></trkpt><trkpt lat="45.0237763" lon="8.1264342"><ele>177.0</ele><time>2026-03-29T15:07:29.999Z</time></trkpt><trkpt lat="45.0235472" lon="8.1262656"><ele>180.0</ele><time>2026-03-29T15:07:30.999Z</time></trkpt><trkpt lat="45.023318" lon="8.1260912"><ele>179.0</ele><time>2026-03-29T15:07:31.999Z</time></trkpt><trkpt lat="45.0230968" lon="8.1259266"><ele>178.0</ele><time>2026-03-29T15:07:32.999Z</time></trkpt><trkpt lat="45.022874" lon="8.1257596"><ele>181.0</ele><time>2026-03-29T15:07:33.999Z</time></trkpt><trkpt lat="45.0226494" lon="8.1255947"><ele>184.0</ele><time>2026-03-29T15:07:34.999Z</time></trkpt><trkpt lat="45.0224272" lon="8.1254312"><ele>185.5</ele><time>2026-03-29T15:07:35.999Z</time></trkpt><trkpt lat="45.0222039" lon="8.1252681"><ele>187.0</ele><time>2026-03-29T15:07:36.999Z</time></trkpt><trkpt lat="45.0219805" lon="8.1251069"><ele>187.0</ele><time>2026-03-29T15:07:37.999Z</time></trkpt><trkpt lat="45.0217566" lon="8.1249421"><ele>187.0</ele><time>2026-03-29T15:07:38.999Z</time></trkpt><trkpt lat="45.0215383" lon="8.1247728"><ele>189.33333333333334</ele><time>2026-03-29T15:07:39.999Z</time></trkpt><trkpt lat="45.0213423" lon="8.1246074"><ele>191.66666666666669</ele><time>2026-03-29T15:07:40.999Z</time></trkpt><trkpt lat="45.0211602" lon="8.1244341"><ele>194.0</ele><time>2026-03-29T15:07:41.999Z</time></trkpt><trkpt lat="45.0209892" lon="8.1242393"><ele>195.66666666666669</ele><time>2026-03-29T15:07:42.999Z</time></trkpt><trkpt lat="45.0208248" lon="8.1240308"><ele>197.33333333333331</ele><time>2026-03-29T15:07:43.999Z</time></trkpt><trkpt lat="45.020656" lon="8.123821"><ele>199.0</ele><time>2026-03-29T15:07:44.999Z</time></trkpt><trkpt lat="45.0204904" lon="8.1236156"><ele>199.0</ele><time>2026-03-29T15:07:45.999Z</time></trkpt><trkpt lat="45.0203308" lon="8.1234313"><ele>199.0</ele><time>2026-03-29T15:07:46.999Z</time></trkpt><trkpt lat="45.0201657" lon="8.1232791"><ele>199.0</ele><time>2026-03-29T15:07:47.999Z</time></trkpt><trkpt lat="45.0199826" lon="8.1231749"><ele>201.66666666666666</ele><time>2026-03-29T15:07:48.999Z</time></trkpt><trkpt lat="45.0197831" lon="8.1231202"><ele>204.33333333333331</ele><time>2026-03-29T15:07:49.999Z</time></trkpt><trkpt lat="45.019585" lon="8.1230702"><ele>207.0</ele><time>2026-03-29T15:07:50.999Z</time></trkpt><trkpt lat="45.0193786" lon="8.1229993"><ele>207.0</ele><time>2026-03-29T15:07:51.999Z</time></trkpt><trkpt lat="45.0192097" lon="8.1228409"><ele>207.0</ele><time>2026-03-29T15:07:52.999Z</time></trkpt><trkpt lat="45.0190409" lon="8.1226712"><ele>207.0</ele><time>2026-03-29T15:07:53.999Z</time></trkpt><trkpt lat="45.0188749" lon="8.1224802"><ele>209.33333333333331</ele><time>2026-03-29T15:07:54.999Z</time></trkpt><trkpt lat="45.018707" lon="8.122278"><ele>211.66666666666666</ele><time>2026-03-29T15:07:55.999Z</time></trkpt><trkpt lat="45.0185376" lon="8.1220729"><ele>214.0</ele><time>2026-03-29T15:07:56.999Z</time></trkpt><trkpt lat="45.0183647" lon="8.1218599"><ele>212.5</ele><time>2026-03-29T15:07:57.999Z</time></trkpt><trkpt lat="45.0181861" lon="8.1216396"><ele>211.0</ele><time>2026-03-29T15:07:58.999Z</time></trkpt><trkpt lat="45.0180044" lon="8.1214269"><ele>214.5</ele><time>2026-03-29T15:07:59.999Z</time></trkpt><trkpt lat="45.0178266" lon="8.1212114"><ele>218.0</ele><time>2026-03-29T15:08:00.999Z</time></trkpt><trkpt lat="45.0176503" lon="8.1209872"><ele>216.5</ele><time>2026-03-29T15:08:01.999Z</time></trkpt><trkpt lat="45.0174763" lon="8.120764"><ele>215.0</ele><time>2026-03-29T15:08:02.999Z</time></trkpt><trkpt lat="45.0172944" lon="8.1205428"><ele>218.5</ele><time>2026-03-29T15:08:03.999Z</time></trkpt><trkpt lat="45.0171127" lon="8.1203183"><ele>222.0</ele><time>2026-03-29T15:08:04.999Z</time></trkpt><trkpt lat="45.0169304" lon="8.1200904"><ele>227.0</ele><time>2026-03-29T15:08:05.999Z</time></trkpt><trkpt lat="45.0167503" lon="8.1198666"><ele>232.0</ele><time>2026-03-29T15:08:06.999Z</time></trkpt><trkpt lat="45.0165754" lon="8.1196525"><ele>234.5</ele><time>2026-03-29T15:08:07.999Z</time></trkpt><trkpt lat="45.0163999" lon="8.1194386"><ele>237.0</ele><time>2026-03-29T15:08:08.999Z</time></trkpt><trkpt lat="45.016226" lon="8.1192211"><ele>238.5</ele><time>2026-03-29T15:08:09.999Z</time></trkpt><trkpt lat="45.016052" lon="8.1189982"><ele>240.0</ele><time>2026-03-29T15:08:10.999Z</time></trkpt><trkpt lat="45.0158784" lon="8.1187788"><ele>241.33333333333331</ele><time>2026-03-29T15:08:11.999Z</time></trkpt><trkpt lat="45.015706" lon="8.1185605"><ele>242.66666666666666</ele><time>2026-03-29T15:08:12.999Z</time></trkpt><trkpt lat="45.0155475" lon="8.1183592"><ele>244.0</ele><time>2026-03-29T15:08:13.999Z</time></trkpt><trkpt lat="45.0154023" lon="8.1181784"><ele>243.0</ele><time>2026-03-29T15:08:14.999Z</time></trkpt><trkpt lat="45.0152652" lon="8.1180157"><ele>242.0</ele><time>2026-03-29T15:08:15.999Z</time></trkpt><trkpt lat="45.0151184" lon="8.117877"><ele>241.0</ele><time>2026-03-29T15:08:16.999Z</time></trkpt><trkpt lat="45.0149578" lon="8.1177925"><ele>241.0</ele><time>2026-03-29T15:08:17.999Z</time></trkpt><trkpt lat="45.0148105" lon="8.1177475"><ele>241.0</ele><time>2026-03-29T15:08:18.999Z</time></trkpt><trkpt lat="45.014626" lon="8.1178164"><ele>241.0</ele><time>2026-03-29T15:08:19.999Z</time></trkpt><trkpt lat="45.0144543" lon="8.1178485"><ele>241.0</ele><time>2026-03-29T15:08:20.999Z</time></trkpt><trkpt lat="45.0142665" lon="8.1178641"><ele>241.0</ele><time>2026-03-29T15:08:21.999Z</time></trkpt><trkpt lat="45.0140712" lon="8.1178514"><ele>241.0</ele><time>2026-03-29T15:08:22.999Z</time></trkpt><trkpt lat="45.0138637" lon="8.1178199"><ele>242.0</ele><time>2026-03-29T15:08:23.999Z</time></trkpt><trkpt lat="45.0136575" lon="8.1177894"><ele>243.0</ele><time>2026-03-29T15:08:24.999Z</time></trkpt><trkpt lat="45.013441" lon="8.1177959"><ele>244.0</ele><time>2026-03-29T15:08:25.999Z</time></trkpt><trkpt lat="45.0132206" lon="8.1178327"><ele>244.0</ele><time>2026-03-29T15:08:26.999Z</time></trkpt><trkpt lat="45.0129964" lon="8.1178793"><ele>244.0</ele><time>2026-03-29T15:08:27.999Z</time></trkpt><trkpt lat="45.0127675" lon="8.1179311"><ele>244.0</ele><time>2026-03-29T15:08:28.999Z</time></trkpt><trkpt lat="45.0125367" lon="8.1179817"><ele>244.0</ele><time>2026-03-29T15:08:29.999Z</time></trkpt><trkpt lat="45.0123123" lon="8.1180337"><ele>245.0</ele><time>2026-03-29T15:08:30.999Z</time></trkpt><trkpt lat="45.0120907" lon="8.1180922"><ele>246.0</ele><time>2026-03-29T15:08:31.999Z</time></trkpt><trkpt lat="45.0118698" lon="8.1181506"><ele>246.0</ele><time>2026-03-29T15:08:32.999Z</time></trkpt><trkpt lat="45.0116691" lon="8.1181974"><ele>246.0</ele><time>2026-03-29T15:08:33.999Z</time></trkpt><trkpt lat="45.0114821" lon="8.1182487"><ele>246.0</ele><time>2026-03-29T15:08:34.999Z</time></trkpt><trkpt lat="45.011308" lon="8.1182915"><ele>249.0</ele><time>2026-03-29T15:08:35.999Z</time></trkpt><trkpt lat="45.0111416" lon="8.1183142"><ele>252.0</ele><time>2026-03-29T15:08:36.999Z</time></trkpt><trkpt lat="45.0109899" lon="8.118302"><ele>255.0</ele><time>2026-03-29T15:08:37.999Z</time></trkpt><trkpt lat="45.010856" lon="8.1182289"><ele>260.6666666666667</ele><time>2026-03-29T15:08:38.999Z</time></trkpt><trkpt lat="45.0107464" lon="8.118085"><ele>266.33333333333337</ele><time>2026-03-29T15:08:39.999Z</time></trkpt><trkpt lat="45.010652" lon="8.1178994"><ele>272.0</ele><time>2026-03-29T15:08:40.999Z</time></trkpt><trkpt lat="45.0105531" lon="8.1177065"><ele>272.0</ele><time>2026-03-29T15:08:41.999Z</time></trkpt><trkpt lat="45.010447" lon="8.1175141"><ele>272.0</ele><time>2026-03-29T15:08:42.999Z</time></trkpt><trkpt lat="45.0103358" lon="8.1173156"><ele>272.0</ele><time>2026-03-29T15:08:43.999Z</time></trkpt><trkpt lat="45.0102321" lon="8.117127"><ele>270.5</ele><time>2026-03-29T15:08:44.999Z</time></trkpt><trkpt lat="45.0101342" lon="8.1169544"><ele>269.0</ele><time>2026-03-29T15:08:45.999Z</time></trkpt><trkpt lat="45.0100429" lon="8.1167927"><ele>267.5</ele><time>2026-03-29T15:08:46.999Z</time></trkpt><trkpt lat="45.0099561" lon="8.1166393"><ele>266.0</ele><time>2026-03-29T15:08:47.999Z</time></trkpt><trkpt lat="45.0098701" lon="8.1164911"><ele>265.5</ele><time>2026-03-29T15:08:48.999Z</time></trkpt><trkpt lat="45.0097906" lon="8.1163483"><ele>265.0</ele><time>2026-03-29T15:08:49.999Z</time></trkpt><trkpt lat="45.0097172" lon="8.1162209"><ele>264.5</ele><time>2026-03-29T15:08:50.999Z</time></trkpt><trkpt lat="45.0096491" lon="8.116101"><ele>264.0</ele><time>2026-03-29T15:08:51.999Z</time></trkpt><trkpt lat="45.0095866" lon="8.1159636"><ele>264.0</ele><time>2026-03-29T15:08:52.999Z</time></trkpt><trkpt lat="45.0095333" lon="8.115824"><ele>264.0</ele><time>2026-03-29T15:08:53.999Z</time></trkpt><trkpt lat="45.0094991" lon="8.1156712"><ele>264.0</ele><time>2026-03-29T15:08:54.999Z</time></trkpt><trkpt lat="45.0094856" lon="8.1155095"><ele>264.0</ele><time>2026-03-29T15:08:55.999Z</time></trkpt><trkpt lat="45.0094906" lon="8.1153454"><ele>264.75</ele><time>2026-03-29T15:08:56.999Z</time></trkpt><trkpt lat="45.0095121" lon="8.1151696"><ele>265.5</ele><time>2026-03-29T15:08:57.999Z</time></trkpt><trkpt lat="45.0095244" lon="8.1149986"><ele>266.25</ele><time>2026-03-29T15:08:58.999Z</time></trkpt><trkpt lat="45.0095358" lon="8.1148341"><ele>267.0</ele><time>2026-03-29T15:08:59.999Z</time></trkpt><trkpt lat="45.0095447" lon="8.1146673"><ele>268.25</ele><time>2026-03-29T15:09:00.999Z</time></trkpt><trkpt lat="45.0095454" lon="8.114492"><ele>269.5</ele><time>2026-03-29T15:09:01.999Z</time></trkpt><trkpt lat="45.0095349" lon="8.1143335"><ele>270.75</ele><time>2026-03-29T15:09:02.999Z</time></trkpt><trkpt lat="45.0094998" lon="8.1141873"><ele>272.0</ele><time>2026-03-29T15:09:03.999Z</time></trkpt><trkpt lat="45.0094563" lon="8.1140396"><ele>273.25</ele><time>2026-03-29T15:09:04.999Z</time></trkpt><trkpt lat="45.0094023" lon="8.1138916"><ele>274.5</ele><time>2026-03-29T15:09:05.999Z</time></trkpt><trkpt lat="45.0093498" lon="8.1137357"><ele>275.75</ele><time>2026-03-29T15:09:06.999Z</time></trkpt><trkpt lat="45.0092895" lon="8.1135888"><ele>277.0</ele><time>2026-03-29T15:09:07.999Z</time></trkpt><trkpt lat="45.0092027" lon="8.1134584"><ele>278.75</ele><time>2026-03-29T15:09:08.999Z</time></trkpt><trkpt lat="45.0091103" lon="8.1133414"><ele>280.5</ele><time>2026-03-29T15:09:09.999Z</time></trkpt><trkpt lat="45.0090108" lon="8.1132351"><ele>282.25</ele><time>2026-03-29T15:09:10.999Z</time></trkpt><trkpt lat="45.008894" lon="8.1131297"><ele>284.0</ele><time>2026-03-29T15:09:12Z</time></trkpt><trkpt lat="45.0087892" lon="8.1130378"><ele>285.2</ele><time>2026-03-29T15:09:13Z</time></trkpt><trkpt lat="45.0086871" lon="8.1129549"><ele>286.4</ele><time>2026-03-29T15:09:13.999Z</time></trkpt><trkpt lat="45.0085968" lon="8.1128738"><ele>287.6</ele><time>2026-03-29T15:09:14.999Z</time></trkpt><trkpt lat="45.0085453" lon="8.1127885"><ele>288.8</ele><time>2026-03-29T15:09:15.999Z</time></trkpt><trkpt lat="45.0084959" lon="8.1127009"><ele>290.0</ele><time>2026-03-29T15:09:16.999Z</time></trkpt><trkpt lat="45.0084362" lon="8.1126462"><ele>290.0</ele><time>2026-03-29T15:09:17.999Z</time></trkpt><trkpt lat="45.0083488" lon="8.1126267"><ele>290.0</ele><time>2026-03-29T15:09:18.999Z</time></trkpt><trkpt lat="45.0082401" lon="8.1126301"><ele>290.0</ele><time>2026-03-29T15:09:19.999Z</time></trkpt><trkpt lat="45.0081415" lon="8.1126683"><ele>290.0</ele><time>2026-03-29T15:09:20.999Z</time></trkpt><trkpt lat="45.0080289" lon="8.1128002"><ele>290.0</ele><time>2026-03-29T15:09:21.999Z</time></trkpt><trkpt lat="45.0079344" lon="8.1129509"><ele>290.5</ele><time>2026-03-29T15:09:22.999Z</time></trkpt><trkpt lat="45.0078386" lon="8.1130972"><ele>291.0</ele><time>2026-03-29T15:09:23.999Z</time></trkpt><trkpt lat="45.0077361" lon="8.1132525"><ele>291.5</ele><time>2026-03-29T15:09:24.999Z</time></trkpt><trkpt lat="45.007623" lon="8.1133939"><ele>292.0</ele><time>2026-03-29T15:09:25.999Z</time></trkpt><trkpt lat="45.0075171" lon="8.1135311"><ele>288.75</ele><time>2026-03-29T15:09:26.999Z</time></trkpt><trkpt lat="45.0074197" lon="8.1136642"><ele>285.5</ele><time>2026-03-29T15:09:27.999Z</time></trkpt><trkpt lat="45.0073248" lon="8.1137873"><ele>282.25</ele><time>2026-03-29T15:09:28.999Z</time></trkpt><trkpt lat="45.0072193" lon="8.1138842"><ele>279.0</ele><time>2026-03-29T15:09:29.999Z</time></trkpt><trkpt lat="45.0071201" lon="8.1139915"><ele>280.0</ele><time>2026-03-29T15:09:30.999Z</time></trkpt><trkpt lat="45.0070236" lon="8.1141146"><ele>281.0</ele><time>2026-03-29T15:09:31.999Z</time></trkpt><trkpt lat="45.0069388" lon="8.1142262"><ele>282.0</ele><time>2026-03-29T15:09:32.999Z</time></trkpt><trkpt lat="45.0068505" lon="8.1143311"><ele>283.0</ele><time>2026-03-29T15:09:33.999Z</time></trkpt><trkpt lat="45.0067476" lon="8.114381"><ele>280.25</ele><time>2026-03-29T15:09:34.999Z</time></trkpt><trkpt lat="45.0066364" lon="8.1144196"><ele>277.5</ele><time>2026-03-29T15:09:35.999Z</time></trkpt><trkpt lat="45.0065245" lon="8.1144317"><ele>274.75</ele><time>2026-03-29T15:09:36.999Z</time></trkpt><trkpt lat="45.0064117" lon="8.1144399"><ele>272.0</ele><time>2026-03-29T15:09:37.999Z</time></trkpt><trkpt lat="45.0063014" lon="8.1144372"><ele>272.0</ele><time>2026-03-29T15:09:38.999Z</time></trkpt><trkpt lat="45.0061946" lon="8.1144335"><ele>272.0</ele><time>2026-03-29T15:09:39.999Z</time></trkpt><trkpt lat="45.0060819" lon="8.114428"><ele>272.0</ele><time>2026-03-29T15:09:40.999Z</time></trkpt><trkpt lat="45.0059699" lon="8.1144572"><ele>272.0</ele><time>2026-03-29T15:09:41.999Z</time></trkpt><trkpt lat="45.0058754" lon="8.114497"><ele>272.0</ele><time>2026-03-29T15:09:42.999Z</time></trkpt><trkpt lat="45.0057799" lon="8.1145729"><ele>269.8</ele><time>2026-03-29T15:09:43.999Z</time></trkpt><trkpt lat="45.0056665" lon="8.1146256"><ele>267.6</ele><time>2026-03-29T15:09:44.999Z</time></trkpt><trkpt lat="45.0055606" lon="8.1146609"><ele>265.40000000000003</ele><time>2026-03-29T15:09:45.999Z</time></trkpt><trkpt lat="45.0054412" lon="8.1146723"><ele>263.2</ele><time>2026-03-29T15:09:46.999Z</time></trkpt><trkpt lat="45.0053466" lon="8.1147041"><ele>261.0</ele><time>2026-03-29T15:09:47.999Z</time></trkpt><trkpt lat="45.0052478" lon="8.1147204"><ele>261.0</ele><time>2026-03-29T15:09:48.999Z</time></trkpt><trkpt lat="45.0051831" lon="8.1147206"><ele>261.0</ele><time>2026-03-29T15:09:49.999Z</time></trkpt><trkpt lat="45.0051067" lon="8.1146968"><ele>261.0</ele><time>2026-03-29T15:09:50.999Z</time></trkpt><trkpt lat="45.0051307" lon="8.1145661"><ele>261.0</ele><time>2026-03-29T15:09:51.999Z</time></trkpt><trkpt lat="45.0051704" lon="8.1144048"><ele>261.0</ele><time>2026-03-29T15:09:53.999Z</time></trkpt><trkpt lat="45.0052348" lon="8.1143165"><ele>261.0</ele><time>2026-03-29T15:09:54.999Z</time></trkpt><trkpt lat="45.005305" lon="8.1142302"><ele>261.0</ele><time>2026-03-29T15:09:55.999Z</time></trkpt><trkpt lat="45.0053851" lon="8.1141075"><ele>261.0</ele><time>2026-03-29T15:09:56.999Z</time></trkpt><trkpt lat="45.0054802" lon="8.1139579"><ele>261.0</ele><time>2026-03-29T15:09:57.999Z</time></trkpt><trkpt lat="45.0055574" lon="8.1138184"><ele>261.0</ele><time>2026-03-29T15:09:58.999Z</time></trkpt><trkpt lat="45.0056326" lon="8.1136715"><ele>261.0</ele><time>2026-03-29T15:09:59.999Z</time></trkpt><trkpt lat="45.0057168" lon="8.1135369"><ele>261.0</ele><time>2026-03-29T15:10:00.999Z</time></trkpt><trkpt lat="45.0057965" lon="8.1133983"><ele>261.0</ele><time>2026-03-29T15:10:01.999Z</time></trkpt><trkpt lat="45.0058662" lon="8.1132604"><ele>261.0</ele><time>2026-03-29T15:10:02.999Z</time></trkpt><trkpt lat="45.0059299" lon="8.1131301"><ele>258.25</ele><time>2026-03-29T15:10:03.999Z</time></trkpt><trkpt lat="45.005981" lon="8.1129933"><ele>255.5</ele><time>2026-03-29T15:10:04.999Z</time></trkpt><trkpt lat="45.0060246" lon="8.112842"><ele>252.75</ele><time>2026-03-29T15:10:05.999Z</time></trkpt><trkpt lat="45.0060613" lon="8.1126729"><ele>250.0</ele><time>2026-03-29T15:10:06.999Z</time></trkpt><trkpt lat="45.0061018" lon="8.1124998"><ele>248.0</ele><time>2026-03-29T15:10:07.999Z</time></trkpt><trkpt lat="45.0061489" lon="8.1123245"><ele>246.0</ele><time>2026-03-29T15:10:08.999Z</time></trkpt><trkpt lat="45.0061897" lon="8.1121379"><ele>244.0</ele><time>2026-03-29T15:10:09.999Z</time></trkpt><trkpt lat="45.006229" lon="8.1119596"><ele>242.0</ele><time>2026-03-29T15:10:10.999Z</time></trkpt><trkpt lat="45.0062653" lon="8.1117924"><ele>242.0</ele><time>2026-03-29T15:10:11.999Z</time></trkpt><trkpt lat="45.006298" lon="8.111635"><ele>242.0</ele><time>2026-03-29T15:10:12.999Z</time></trkpt><trkpt lat="45.0063305" lon="8.1114853"><ele>242.0</ele><time>2026-03-29T15:10:13.999Z</time></trkpt><trkpt lat="45.0063601" lon="8.1113387"><ele>242.0</ele><time>2026-03-29T15:10:14.999Z</time></trkpt><trkpt lat="45.006368" lon="8.1111927"><ele>242.0</ele><time>2026-03-29T15:10:15.999Z</time></trkpt><trkpt lat="45.0063411" lon="8.111051"><ele>241.6</ele><time>2026-03-29T15:10:16.999Z</time></trkpt><trkpt lat="45.0062966" lon="8.1109163"><ele>241.2</ele><time>2026-03-29T15:10:17.999Z</time></trkpt><trkpt lat="45.0062382" lon="8.1107994"><ele>240.8</ele><time>2026-03-29T15:10:18.999Z</time></trkpt><trkpt lat="45.0061596" lon="8.1107058"><ele>240.4</ele><time>2026-03-29T15:10:19.999Z</time></trkpt><trkpt lat="45.0060576" lon="8.1106264"><ele>240.0</ele><time>2026-03-29T15:10:20.999Z</time></trkpt><trkpt lat="45.0059493" lon="8.1105526"><ele>239.25</ele><time>2026-03-29T15:10:21.999Z</time></trkpt><trkpt lat="45.0058326" lon="8.1104686"><ele>238.5</ele><time>2026-03-29T15:10:22.999Z</time></trkpt><trkpt lat="45.0057184" lon="8.1103846"><ele>237.75</ele><time>2026-03-29T15:10:23.999Z</time></trkpt><trkpt lat="45.0056011" lon="8.1103026"><ele>237.0</ele><time>2026-03-29T15:10:24.999Z</time></trkpt><trkpt lat="45.0054815" lon="8.1102222"><ele>237.0</ele><time>2026-03-29T15:10:25.999Z</time></trkpt><trkpt lat="45.0053648" lon="8.1101475"><ele>237.0</ele><time>2026-03-29T15:10:26.999Z</time></trkpt><trkpt lat="45.0052703" lon="8.1100458"><ele>237.0</ele><time>2026-03-29T15:10:27.999Z</time></trkpt><trkpt lat="45.0051938" lon="8.1099229"><ele>237.0</ele><time>2026-03-29T15:10:28.999Z</time></trkpt><trkpt lat="45.0051171" lon="8.1097929"><ele>235.25</ele><time>2026-03-29T15:10:29.999Z</time></trkpt><trkpt lat="45.0050294" lon="8.1096542"><ele>233.5</ele><time>2026-03-29T15:10:30.999Z</time></trkpt><trkpt lat="45.0049338" lon="8.1095187"><ele>231.75</ele><time>2026-03-29T15:10:31.999Z</time></trkpt><trkpt lat="45.0048205" lon="8.1093888"><ele>230.0</ele><time>2026-03-29T15:10:32.999Z</time></trkpt><trkpt lat="45.004708" lon="8.1092583"><ele>230.0</ele><time>2026-03-29T15:10:33.999Z</time></trkpt><trkpt lat="45.0045935" lon="8.1091253"><ele>230.0</ele><time>2026-03-29T15:10:34.999Z</time></trkpt><trkpt lat="45.0044809" lon="8.1089935"><ele>230.0</ele><time>2026-03-29T15:10:35.999Z</time></trkpt><trkpt lat="45.0043772" lon="8.1088485"><ele>230.0</ele><time>2026-03-29T15:10:36.999Z</time></trkpt><trkpt lat="45.004284" lon="8.1086971"><ele>230.25</ele><time>2026-03-29T15:10:37.999Z</time></trkpt><trkpt lat="45.0041996" lon="8.1085368"><ele>230.5</ele><time>2026-03-29T15:10:38.999Z</time></trkpt><trkpt lat="45.0041227" lon="8.1083779"><ele>230.75</ele><time>2026-03-29T15:10:39.999Z</time></trkpt><trkpt lat="45.0040578" lon="8.1082169"><ele>231.0</ele><time>2026-03-29T15:10:40.999Z</time></trkpt><trkpt lat="45.0040023" lon="8.1080239"><ele>231.0</ele><time>2026-03-29T15:10:41.999Z</time></trkpt><trkpt lat="45.0039412" lon="8.1078446"><ele>231.0</ele><time>2026-03-29T15:10:42.999Z</time></trkpt><trkpt lat="45.0038828" lon="8.1076694"><ele>231.0</ele><time>2026-03-29T15:10:43.999Z</time></trkpt><trkpt lat="45.0038197" lon="8.1074976"><ele>231.0</ele><time>2026-03-29T15:10:44.999Z</time></trkpt><trkpt lat="45.0037373" lon="8.1073318"><ele>232.25</ele><time>2026-03-29T15:10:45.999Z</time></trkpt><trkpt lat="45.003649" lon="8.1071898"><ele>233.5</ele><time>2026-03-29T15:10:46.999Z</time></trkpt><trkpt lat="45.0035526" lon="8.107088"><ele>234.75</ele><time>2026-03-29T15:10:47.999Z</time></trkpt><trkpt lat="45.0034723" lon="8.1069955"><ele>236.0</ele><time>2026-03-29T15:10:48.999Z</time></trkpt><trkpt lat="45.003394" lon="8.1069082"><ele>232.8</ele><time>2026-03-29T15:10:49.999Z</time></trkpt><trkpt lat="45.0033236" lon="8.1068223"><ele>229.60000000000002</ele><time>2026-03-29T15:10:50.999Z</time></trkpt><trkpt lat="45.0032652" lon="8.1067154"><ele>226.4</ele><time>2026-03-29T15:10:51.999Z</time></trkpt><trkpt lat="45.0032223" lon="8.1065965"><ele>223.2</ele><time>2026-03-29T15:10:52.999Z</time></trkpt><trkpt lat="45.003201" lon="8.1064496"><ele>220.0</ele><time>2026-03-29T15:10:53.999Z</time></trkpt><trkpt lat="45.0032083" lon="8.1062833"><ele>220.5</ele><time>2026-03-29T15:10:54.999Z</time></trkpt><trkpt lat="45.0032286" lon="8.1061005"><ele>221.0</ele><time>2026-03-29T15:10:55.999Z</time></trkpt><trkpt lat="45.003262" lon="8.1059113"><ele>221.5</ele><time>2026-03-29T15:10:56.999Z</time></trkpt><trkpt lat="45.0033151" lon="8.1057243"><ele>222.0</ele><time>2026-03-29T15:10:57.999Z</time></trkpt><trkpt lat="45.0033661" lon="8.105544"><ele>222.0</ele><time>2026-03-29T15:10:58.999Z</time></trkpt><trkpt lat="45.0034196" lon="8.1053656"><ele>222.0</ele><time>2026-03-29T15:10:59.999Z</time></trkpt><trkpt lat="45.0034561" lon="8.1051824"><ele>222.0</ele><time>2026-03-29T15:11:00.999Z</time></trkpt><trkpt lat="45.0034626" lon="8.1049942"><ele>222.0</ele><time>2026-03-29T15:11:01.999Z</time></trkpt><trkpt lat="45.0034476" lon="8.1047923"><ele>220.0</ele><time>2026-03-29T15:11:02.999Z</time></trkpt><trkpt lat="45.0034268" lon="8.1045944"><ele>218.0</ele><time>2026-03-29T15:11:03.999Z</time></trkpt><trkpt lat="45.0034016" lon="8.1043994"><ele>216.0</ele><time>2026-03-29T15:11:04.999Z</time></trkpt><trkpt lat="45.0033824" lon="8.1042082"><ele>214.0</ele><time>2026-03-29T15:11:05.999Z</time></trkpt><trkpt lat="45.0033661" lon="8.1040294"><ele>210.75</ele><time>2026-03-29T15:11:06.999Z</time></trkpt><trkpt lat="45.0033767" lon="8.1038563"><ele>207.5</ele><time>2026-03-29T15:11:07.999Z</time></trkpt><trkpt lat="45.0034201" lon="8.1036824"><ele>204.25</ele><time>2026-03-29T15:11:08.999Z</time></trkpt><trkpt lat="45.0034812" lon="8.1034986"><ele>201.0</ele><time>2026-03-29T15:11:09.999Z</time></trkpt><trkpt lat="45.0035338" lon="8.1032917"><ele>199.0</ele><time>2026-03-29T15:11:10.999Z</time></trkpt><trkpt lat="45.0035869" lon="8.1030833"><ele>197.0</ele><time>2026-03-29T15:11:11.999Z</time></trkpt><trkpt lat="45.0036392" lon="8.1028862"><ele>195.0</ele><time>2026-03-29T15:11:12.999Z</time></trkpt><trkpt lat="45.0036778" lon="8.1027024"><ele>193.0</ele><time>2026-03-29T15:11:13.999Z</time></trkpt><trkpt lat="45.0036919" lon="8.1025302"><ele>192.8</ele><time>2026-03-29T15:11:14.999Z</time></trkpt><trkpt lat="45.0036802" lon="8.1023756"><ele>192.60000000000002</ele><time>2026-03-29T15:11:15.999Z</time></trkpt><trkpt lat="45.0036431" lon="8.1022446"><ele>192.39999999999998</ele><time>2026-03-29T15:11:16.999Z</time></trkpt><trkpt lat="45.0036048" lon="8.1021214"><ele>192.2</ele><time>2026-03-29T15:11:17.999Z</time></trkpt><trkpt lat="45.0035681" lon="8.10202"><ele>192.0</ele><time>2026-03-29T15:11:18.999Z</time></trkpt><trkpt lat="45.0035408" lon="8.1019363"><ele>192.0</ele><time>2026-03-29T15:11:19.999Z</time></trkpt><trkpt lat="45.0035185" lon="8.1017906"><ele>192.0</ele><time>2026-03-29T15:11:21.999Z</time></trkpt><trkpt lat="45.0034984" lon="8.1016898"><ele>192.0</ele><time>2026-03-29T15:11:22.999Z</time></trkpt><trkpt lat="45.0034606" lon="8.1015881"><ele>192.0</ele><time>2026-03-29T15:11:23.999Z</time></trkpt><trkpt lat="45.0033965" lon="8.1015048"><ele>192.0</ele><time>2026-03-29T15:11:24.999Z</time></trkpt><trkpt lat="45.0033125" lon="8.1014156"><ele>193.0</ele><time>2026-03-29T15:11:25.999Z</time></trkpt><trkpt lat="45.0032202" lon="8.1013041"><ele>194.0</ele><time>2026-03-29T15:11:26.999Z</time></trkpt><trkpt lat="45.0031229" lon="8.1011688"><ele>195.0</ele><time>2026-03-29T15:11:27.999Z</time></trkpt><trkpt lat="45.0030271" lon="8.1010125"><ele>196.0</ele><time>2026-03-29T15:11:28.999Z</time></trkpt><trkpt lat="45.0029284" lon="8.1008444"><ele>197.66666666666666</ele><time>2026-03-29T15:11:29.999Z</time></trkpt><trkpt lat="45.0028184" lon="8.100665"><ele>199.33333333333331</ele><time>2026-03-29T15:11:30.999Z</time></trkpt><trkpt lat="45.0027081" lon="8.1004797"><ele>201.0</ele><time>2026-03-29T15:11:31.999Z</time></trkpt><trkpt lat="45.0025968" lon="8.1002869"><ele>202.0</ele><time>2026-03-29T15:11:32.999Z</time></trkpt><trkpt lat="45.0024821" lon="8.1000887"><ele>203.0</ele><time>2026-03-29T15:11:33.999Z</time></trkpt><trkpt lat="45.0023637" lon="8.0998848"><ele>204.0</ele><time>2026-03-29T15:11:34.999Z</time></trkpt><trkpt lat="45.0022408" lon="8.0996721"><ele>205.33333333333331</ele><time>2026-03-29T15:11:35.999Z</time></trkpt><trkpt lat="45.0021111" lon="8.0994644"><ele>206.66666666666666</ele><time>2026-03-29T15:11:36.999Z</time></trkpt><trkpt lat="45.0019694" lon="8.0992633"><ele>208.0</ele><time>2026-03-29T15:11:37.999Z</time></trkpt><trkpt lat="45.001818" lon="8.0990759"><ele>210.0</ele><time>2026-03-29T15:11:38.999Z</time></trkpt><trkpt lat="45.0016606" lon="8.0988952"><ele>212.0</ele><time>2026-03-29T15:11:39.999Z</time></trkpt><trkpt lat="45.0015021" lon="8.0987101"><ele>214.0</ele><time>2026-03-29T15:11:40.999Z</time></trkpt><trkpt lat="45.0013418" lon="8.0985152"><ele>214.0</ele><time>2026-03-29T15:11:41.999Z</time></trkpt><trkpt lat="45.0011778" lon="8.0983266"><ele>214.0</ele><time>2026-03-29T15:11:42.999Z</time></trkpt><trkpt lat="45.001019" lon="8.0981429"><ele>214.0</ele><time>2026-03-29T15:11:43.999Z</time></trkpt><trkpt lat="45.0008701" lon="8.0979656"><ele>215.0</ele><time>2026-03-29T15:11:44.999Z</time></trkpt><trkpt lat="45.0007225" lon="8.0977936"><ele>216.0</ele><time>2026-03-29T15:11:45.999Z</time></trkpt><trkpt lat="45.0005831" lon="8.0976235"><ele>217.0</ele><time>2026-03-29T15:11:46.999Z</time></trkpt><trkpt lat="45.0004437" lon="8.0974527"><ele>220.0</ele><time>2026-03-29T15:11:47.999Z</time></trkpt><trkpt lat="45.0003163" lon="8.0972756"><ele>223.0</ele><time>2026-03-29T15:11:48.999Z</time></trkpt><trkpt lat="45.0001929" lon="8.0970926"><ele>226.0</ele><time>2026-03-29T15:11:49.999Z</time></trkpt><trkpt lat="45.0000761" lon="8.0968984"><ele>226.0</ele><time>2026-03-29T15:11:50.999Z</time></trkpt><trkpt lat="44.9999539" lon="8.0967099"><ele>226.0</ele><time>2026-03-29T15:11:51.999Z</time></trkpt><trkpt lat="44.9998239" lon="8.0965259"><ele>226.0</ele><time>2026-03-29T15:11:52.999Z</time></trkpt><trkpt lat="44.9996954" lon="8.0963417"><ele>229.33333333333331</ele><time>2026-03-29T15:11:53.999Z</time></trkpt><trkpt lat="44.9995777" lon="8.0961643"><ele>232.66666666666669</ele><time>2026-03-29T15:11:54.999Z</time></trkpt><trkpt lat="44.9994727" lon="8.0960076"><ele>236.0</ele><time>2026-03-29T15:11:55.999Z</time></trkpt><trkpt lat="44.9993757" lon="8.0958694"><ele>237.60000000000002</ele><time>2026-03-29T15:11:56.999Z</time></trkpt><trkpt lat="44.9993008" lon="8.0957362"><ele>239.20000000000002</ele><time>2026-03-29T15:11:57.999Z</time></trkpt><trkpt lat="44.9992624" lon="8.0956018"><ele>240.79999999999998</ele><time>2026-03-29T15:11:58.999Z</time></trkpt><trkpt lat="44.999271" lon="8.0954756"><ele>242.39999999999998</ele><time>2026-03-29T15:11:59.999Z</time></trkpt><trkpt lat="44.9992942" lon="8.0953717"><ele>244.0</ele><time>2026-03-29T15:12:00.999Z</time></trkpt><trkpt lat="44.9993995" lon="8.0953431"><ele>244.0</ele><time>2026-03-29T15:12:01.999Z</time></trkpt><trkpt lat="44.9995196" lon="8.0953535"><ele>244.0</ele><time>2026-03-29T15:12:02.999Z</time></trkpt><trkpt lat="44.9996371" lon="8.0953888"><ele>244.0</ele><time>2026-03-29T15:12:03.999Z</time></trkpt><trkpt lat="44.9997663" lon="8.0954096"><ele>244.0</ele><time>2026-03-29T15:12:04.999Z</time></trkpt><trkpt lat="44.9999077" lon="8.0954325"><ele>244.0</ele><time>2026-03-29T15:12:05.999Z</time></trkpt><trkpt lat="45.0000585" lon="8.0954577"><ele>244.0</ele><time>2026-03-29T15:12:06.999Z</time></trkpt><trkpt lat="45.0002222" lon="8.0954892"><ele>244.0</ele><time>2026-03-29T15:12:07.999Z</time></trkpt><trkpt lat="45.0003897" lon="8.0955097"><ele>244.0</ele><time>2026-03-29T15:12:08.999Z</time></trkpt><trkpt lat="45.000561" lon="8.0955353"><ele>244.0</ele><time>2026-03-29T15:12:09.999Z</time></trkpt><trkpt lat="45.0007338" lon="8.0955645"><ele>244.0</ele><time>2026-03-29T15:12:10.999Z</time></trkpt><trkpt lat="45.0008922" lon="8.0955985"><ele>244.0</ele><time>2026-03-29T15:12:11.999Z</time></trkpt><trkpt lat="45.0010471" lon="8.0956388"><ele>244.0</ele><time>2026-03-29T15:12:12.999Z</time></trkpt><trkpt lat="45.0011872" lon="8.0956936"><ele>244.0</ele><time>2026-03-29T15:12:13.999Z</time></trkpt><trkpt lat="45.0013135" lon="8.0957645"><ele>244.0</ele><time>2026-03-29T15:12:14.999Z</time></trkpt><trkpt lat="45.0014307" lon="8.0958431"><ele>244.0</ele><time>2026-03-29T15:12:15.999Z</time></trkpt><trkpt lat="45.0015311" lon="8.0959117"><ele>243.99999999999997</ele><time>2026-03-29T15:12:16.999Z</time></trkpt><trkpt lat="45.0016254" lon="8.0959544"><ele>243.99999999999997</ele><time>2026-03-29T15:12:17.999Z</time></trkpt><trkpt lat="45.0017256" lon="8.0959531"><ele>244.0</ele><time>2026-03-29T15:12:18.999Z</time></trkpt><trkpt lat="45.0018196" lon="8.0959064"><ele>244.0</ele><time>2026-03-29T15:12:19.999Z</time></trkpt><trkpt lat="45.0018902" lon="8.0958167"><ele>246.6</ele><time>2026-03-29T15:12:20.999Z</time></trkpt><trkpt lat="45.0019156" lon="8.0956841"><ele>249.2</ele><time>2026-03-29T15:12:21.999Z</time></trkpt><trkpt lat="45.0019012" lon="8.0955416"><ele>251.79999999999998</ele><time>2026-03-29T15:12:22.999Z</time></trkpt><trkpt lat="45.001831" lon="8.0954083"><ele>254.39999999999998</ele><time>2026-03-29T15:12:23.999Z</time></trkpt><trkpt lat="45.0017389" lon="8.0952823"><ele>257.0</ele><time>2026-03-29T15:12:24.999Z</time></trkpt><trkpt lat="45.001628" lon="8.0951509"><ele>257.0</ele><time>2026-03-29T15:12:25.999Z</time></trkpt><trkpt lat="45.0015092" lon="8.0950113"><ele>257.0</ele><time>2026-03-29T15:12:26.999Z</time></trkpt><trkpt lat="45.0013868" lon="8.0948544"><ele>257.0</ele><time>2026-03-29T15:12:27.999Z</time></trkpt><trkpt lat="45.0012596" lon="8.0946952"><ele>265.33333333333337</ele><time>2026-03-29T15:12:28.999Z</time></trkpt><trkpt lat="45.001127" lon="8.0945398"><ele>273.6666666666667</ele><time>2026-03-29T15:12:29.999Z</time></trkpt><trkpt lat="45.0009872" lon="8.0943802"><ele>282.0</ele><time>2026-03-29T15:12:30.999Z</time></trkpt><trkpt lat="45.0008448" lon="8.0942149"><ele>281.3333333333333</ele><time>2026-03-29T15:12:31.999Z</time></trkpt><trkpt lat="45.0007045" lon="8.0940499"><ele>280.66666666666663</ele><time>2026-03-29T15:12:32.999Z</time></trkpt><trkpt lat="45.0005632" lon="8.0938841"><ele>280.0</ele><time>2026-03-29T15:12:33.999Z</time></trkpt><trkpt lat="45.0004286" lon="8.0937258"><ele>280.0</ele><time>2026-03-29T15:12:34.999Z</time></trkpt><trkpt lat="45.0002983" lon="8.0935731"><ele>280.0</ele><time>2026-03-29T15:12:35.999Z</time></trkpt><trkpt lat="45.0001781" lon="8.0934311"><ele>280.0</ele><time>2026-03-29T15:12:36.999Z</time></trkpt><trkpt lat="45.0000739" lon="8.0933041"><ele>282.0</ele><time>2026-03-29T15:12:37.999Z</time></trkpt><trkpt lat="44.9999758" lon="8.093197"><ele>284.0</ele><time>2026-03-29T15:12:38.999Z</time></trkpt><trkpt lat="44.9998886" lon="8.09311"><ele>286.0</ele><time>2026-03-29T15:12:39.999Z</time></trkpt><trkpt lat="44.9998256" lon="8.0930154"><ele>288.0</ele><time>2026-03-29T15:12:40.999Z</time></trkpt><trkpt lat="44.999772" lon="8.0929189"><ele>290.0</ele><time>2026-03-29T15:12:41.999Z</time></trkpt><trkpt lat="44.9998157" lon="8.0928212"><ele>290.0</ele><time>2026-03-29T15:12:42.999Z</time></trkpt><trkpt lat="44.9998291" lon="8.0927127"><ele>290.0</ele><time>2026-03-29T15:12:43.999Z</time></trkpt><trkpt lat="44.9999288" lon="8.0926036"><ele>290.0</ele><time>2026-03-29T15:12:44.999Z</time></trkpt><trkpt lat="45.000007" lon="8.0924761"><ele>290.0</ele><time>2026-03-29T15:12:45.999Z</time></trkpt><trkpt lat="45.0001063" lon="8.0923497"><ele>290.0</ele><time>2026-03-29T15:12:46.999Z</time></trkpt><trkpt lat="45.0002227" lon="8.0922317"><ele>290.0</ele><time>2026-03-29T15:12:47.999Z</time></trkpt><trkpt lat="45.0003544" lon="8.0921374"><ele>290.0</ele><time>2026-03-29T15:12:48.999Z</time></trkpt><trkpt lat="45.0005015" lon="8.0920515"><ele>290.0</ele><time>2026-03-29T15:12:49.999Z</time></trkpt><trkpt lat="45.0006678" lon="8.0919667"><ele>290.0</ele><time>2026-03-29T15:12:50.999Z</time></trkpt><trkpt lat="45.0008325" lon="8.09187"><ele>290.0</ele><time>2026-03-29T15:12:51.999Z</time></trkpt><trkpt lat="45.0010069" lon="8.0917839"><ele>289.6666666666667</ele><time>2026-03-29T15:12:52.999Z</time></trkpt><trkpt lat="45.0011767" lon="8.0916918"><ele>289.3333333333333</ele><time>2026-03-29T15:12:54Z</time></trkpt><trkpt lat="45.0013478" lon="8.0916285"><ele>289.0</ele><time>2026-03-29T15:12:54.999Z</time></trkpt><trkpt lat="45.0015235" lon="8.0916016"><ele>282.66666666666663</ele><time>2026-03-29T15:12:55.999Z</time></trkpt><trkpt lat="45.0017123" lon="8.0915854"><ele>276.3333333333333</ele><time>2026-03-29T15:12:56.999Z</time></trkpt><trkpt lat="45.0018998" lon="8.0915777"><ele>270.0</ele><time>2026-03-29T15:12:57.999Z</time></trkpt><trkpt lat="45.0020754" lon="8.091567"><ele>270.0</ele><time>2026-03-29T15:12:58.999Z</time></trkpt><trkpt lat="45.0022371" lon="8.0915489"><ele>270.0</ele><time>2026-03-29T15:12:59.999Z</time></trkpt><trkpt lat="45.0023926" lon="8.0915227"><ele>270.0</ele><time>2026-03-29T15:13:00.999Z</time></trkpt><trkpt lat="45.002526" lon="8.0914601"><ele>274.3333333333333</ele><time>2026-03-29T15:13:01.999Z</time></trkpt><trkpt lat="45.0026495" lon="8.0913672"><ele>278.66666666666663</ele><time>2026-03-29T15:13:02.999Z</time></trkpt><trkpt lat="45.0027538" lon="8.0911919"><ele>283.0</ele><time>2026-03-29T15:13:03.999Z</time></trkpt><trkpt lat="45.0028637" lon="8.0910285"><ele>283.0</ele><time>2026-03-29T15:13:04.999Z</time></trkpt><trkpt lat="45.0029532" lon="8.0908507"><ele>283.0</ele><time>2026-03-29T15:13:05.999Z</time></trkpt><trkpt lat="45.0030176" lon="8.0906577"><ele>283.0</ele><time>2026-03-29T15:13:06.999Z</time></trkpt><trkpt lat="45.0030468" lon="8.0904561"><ele>283.5</ele><time>2026-03-29T15:13:07.999Z</time></trkpt><trkpt lat="45.0030392" lon="8.0902574"><ele>284.0</ele><time>2026-03-29T15:13:08.999Z</time></trkpt><trkpt lat="45.0030063" lon="8.0900687"><ele>284.5</ele><time>2026-03-29T15:13:09.999Z</time></trkpt><trkpt lat="45.0029739" lon="8.0898808"><ele>285.0</ele><time>2026-03-29T15:13:10.999Z</time></trkpt><trkpt lat="45.0029795" lon="8.0896989"><ele>286.25</ele><time>2026-03-29T15:13:11.999Z</time></trkpt><trkpt lat="45.0029807" lon="8.089514"><ele>287.5</ele><time>2026-03-29T15:13:12.999Z</time></trkpt><trkpt lat="45.0031136" lon="8.0893771"><ele>288.75</ele><time>2026-03-29T15:13:13.999Z</time></trkpt><trkpt lat="45.0032291" lon="8.0892485"><ele>290.0</ele><time>2026-03-29T15:13:14.999Z</time></trkpt><trkpt lat="45.0033603" lon="8.0891526"><ele>288.75</ele><time>2026-03-29T15:13:15.999Z</time></trkpt><trkpt lat="45.0034938" lon="8.0890652"><ele>287.5</ele><time>2026-03-29T15:13:16.999Z</time></trkpt><trkpt lat="45.0036038" lon="8.0889646"><ele>286.25</ele><time>2026-03-29T15:13:17.999Z</time></trkpt><trkpt lat="45.0036865" lon="8.0888338"><ele>285.0</ele><time>2026-03-29T15:13:18.999Z</time></trkpt><trkpt lat="45.0037303" lon="8.0886804"><ele>285.0</ele><time>2026-03-29T15:13:19.999Z</time></trkpt><trkpt lat="45.0037386" lon="8.0885105"><ele>285.0</ele><time>2026-03-29T15:13:20.999Z</time></trkpt><trkpt lat="45.0036902" lon="8.0883268"><ele>285.0</ele><time>2026-03-29T15:13:21.999Z</time></trkpt><trkpt lat="45.0036219" lon="8.0881285"><ele>285.0</ele><time>2026-03-29T15:13:22.999Z</time></trkpt><trkpt lat="45.0035284" lon="8.0879279"><ele>286.0</ele><time>2026-03-29T15:13:23.999Z</time></trkpt><trkpt lat="45.0034219" lon="8.0877217"><ele>287.0</ele><time>2026-03-29T15:13:24.999Z</time></trkpt><trkpt lat="45.0033143" lon="8.0875108"><ele>288.0</ele><time>2026-03-29T15:13:25.999Z</time></trkpt><trkpt lat="45.0031994" lon="8.0872888"><ele>284.0</ele><time>2026-03-29T15:13:26.999Z</time></trkpt><trkpt lat="45.0030884" lon="8.0870606"><ele>280.0</ele><time>2026-03-29T15:13:27.999Z</time></trkpt><trkpt lat="45.0029796" lon="8.0868349"><ele>276.0</ele><time>2026-03-29T15:13:28.999Z</time></trkpt><trkpt lat="45.0028751" lon="8.0866128"><ele>278.3333333333333</ele><time>2026-03-29T15:13:29.999Z</time></trkpt><trkpt lat="45.0027784" lon="8.0864064"><ele>280.66666666666663</ele><time>2026-03-29T15:13:30.999Z</time></trkpt><trkpt lat="45.0026841" lon="8.0862023"><ele>283.0</ele><time>2026-03-29T15:13:31.999Z</time></trkpt><trkpt lat="45.0025955" lon="8.0860119"><ele>283.66666666666663</ele><time>2026-03-29T15:13:32.999Z</time></trkpt><trkpt lat="45.0024919" lon="8.0858455"><ele>284.3333333333333</ele><time>2026-03-29T15:13:33.999Z</time></trkpt><trkpt lat="45.0023713" lon="8.08571"><ele>285.0</ele><time>2026-03-29T15:13:34.999Z</time></trkpt><trkpt lat="45.0022299" lon="8.0856124"><ele>285.0</ele><time>2026-03-29T15:13:35.999Z</time></trkpt><trkpt lat="45.002075" lon="8.0855577"><ele>285.0</ele><time>2026-03-29T15:13:36.999Z</time></trkpt><trkpt lat="45.0019073" lon="8.0855157"><ele>285.0</ele><time>2026-03-29T15:13:37.999Z</time></trkpt><trkpt lat="45.0017355" lon="8.0854787"><ele>285.0</ele><time>2026-03-29T15:13:38.999Z</time></trkpt><trkpt lat="45.0015606" lon="8.0854352"><ele>285.0</ele><time>2026-03-29T15:13:39.999Z</time></trkpt><trkpt lat="45.0013966" lon="8.0853857"><ele>285.0</ele><time>2026-03-29T15:13:40.999Z</time></trkpt><trkpt lat="45.0012331" lon="8.0853509"><ele>285.0</ele><time>2026-03-29T15:13:41.999Z</time></trkpt><trkpt lat="45.0010845" lon="8.0853131"><ele>285.0</ele><time>2026-03-29T15:13:42.999Z</time></trkpt><trkpt lat="45.0009512" lon="8.0852516"><ele>285.0</ele><time>2026-03-29T15:13:43.999Z</time></trkpt><trkpt lat="45.0008268" lon="8.0851466"><ele>285.0</ele><time>2026-03-29T15:13:44.999Z</time></trkpt><trkpt lat="45.0007052" lon="8.085031"><ele>281.6666666666667</ele><time>2026-03-29T15:13:45.999Z</time></trkpt><trkpt lat="45.0006182" lon="8.0848239"><ele>278.33333333333337</ele><time>2026-03-29T15:13:46.999Z</time></trkpt><trkpt lat="45.000507" lon="8.0846313"><ele>275.0</ele><time>2026-03-29T15:13:47.999Z</time></trkpt><trkpt lat="45.00038" lon="8.0844451"><ele>275.0</ele><time>2026-03-29T15:13:48.999Z</time></trkpt><trkpt lat="45.0002468" lon="8.0842662"><ele>275.0</ele><time>2026-03-29T15:13:49.999Z</time></trkpt><trkpt lat="45.0001164" lon="8.0840871"><ele>275.0</ele><time>2026-03-29T15:13:50.999Z</time></trkpt><trkpt lat="44.9999924" lon="8.0839128"><ele>277.33333333333337</ele><time>2026-03-29T15:13:51.999Z</time></trkpt><trkpt lat="44.9998817" lon="8.0837389"><ele>279.6666666666667</ele><time>2026-03-29T15:13:52.999Z</time></trkpt><trkpt lat="44.9997783" lon="8.0835636"><ele>282.0</ele><time>2026-03-29T15:13:53.999Z</time></trkpt><trkpt lat="44.9997166" lon="8.0833632"><ele>280.6666666666667</ele><time>2026-03-29T15:13:54.999Z</time></trkpt><trkpt lat="44.9997321" lon="8.083037"><ele>279.33333333333337</ele><time>2026-03-29T15:13:55.999Z</time></trkpt><trkpt lat="44.999698" lon="8.0828062"><ele>278.0</ele><time>2026-03-29T15:13:56.999Z</time></trkpt><trkpt lat="44.9996396" lon="8.0825644"><ele>274.6666666666667</ele><time>2026-03-29T15:13:57.999Z</time></trkpt><trkpt lat="44.9995462" lon="8.0823258"><ele>271.3333333333333</ele><time>2026-03-29T15:13:58.999Z</time></trkpt><trkpt lat="44.9994375" lon="8.0820827"><ele>268.0</ele><time>2026-03-29T15:13:59.999Z</time></trkpt><trkpt lat="44.9993429" lon="8.0818434"><ele>268.0</ele><time>2026-03-29T15:14:01Z</time></trkpt><trkpt lat="44.9992553" lon="8.0816258"><ele>268.0</ele><time>2026-03-29T15:14:01.999Z</time></trkpt><trkpt lat="44.9991611" lon="8.0814225"><ele>268.0</ele><time>2026-03-29T15:14:02.999Z</time></trkpt><trkpt lat="44.9990726" lon="8.0812343"><ele>268.25</ele><time>2026-03-29T15:14:03.999Z</time></trkpt><trkpt lat="44.99899" lon="8.0810673"><ele>268.5</ele><time>2026-03-29T15:14:04.999Z</time></trkpt><trkpt lat="44.998903" lon="8.0809168"><ele>268.75</ele><time>2026-03-29T15:14:05.999Z</time></trkpt><trkpt lat="44.9988029" lon="8.08079"><ele>269.0</ele><time>2026-03-29T15:14:06.999Z</time></trkpt><trkpt lat="44.9986994" lon="8.0806714"><ele>269.0</ele><time>2026-03-29T15:14:07.999Z</time></trkpt><trkpt lat="44.998584" lon="8.0805586"><ele>269.0</ele><time>2026-03-29T15:14:08.999Z</time></trkpt><trkpt lat="44.9984699" lon="8.0804432"><ele>269.0</ele><time>2026-03-29T15:14:09.999Z</time></trkpt><trkpt lat="44.9983592" lon="8.0803153"><ele>269.0</ele><time>2026-03-29T15:14:10.999Z</time></trkpt><trkpt lat="44.9982387" lon="8.0802"><ele>270.25</ele><time>2026-03-29T15:14:11.999Z</time></trkpt><trkpt lat="44.9981255" lon="8.0800786"><ele>271.5</ele><time>2026-03-29T15:14:12.999Z</time></trkpt><trkpt lat="44.9980084" lon="8.0799495"><ele>272.75</ele><time>2026-03-29T15:14:13.999Z</time></trkpt><trkpt lat="44.9979006" lon="8.0798361"><ele>274.0</ele><time>2026-03-29T15:14:14.999Z</time></trkpt><trkpt lat="44.9977829" lon="8.0797249"><ele>274.5</ele><time>2026-03-29T15:14:15.999Z</time></trkpt><trkpt lat="44.9976829" lon="8.0796091"><ele>275.0</ele><time>2026-03-29T15:14:16.999Z</time></trkpt><trkpt lat="44.9975816" lon="8.0795134"><ele>275.5</ele><time>2026-03-29T15:14:17.999Z</time></trkpt><trkpt lat="44.997491" lon="8.0793941"><ele>276.0</ele><time>2026-03-29T15:14:18.999Z</time></trkpt><trkpt lat="44.9974457" lon="8.0792532"><ele>276.0</ele><time>2026-03-29T15:14:19.999Z</time></trkpt><trkpt lat="44.9974088" lon="8.0790231"><ele>276.0</ele><time>2026-03-29T15:14:20.999Z</time></trkpt><trkpt lat="44.9973878" lon="8.078837"><ele>276.0</ele><time>2026-03-29T15:14:21.999Z</time></trkpt><trkpt lat="44.9973528" lon="8.0786448"><ele>276.0</ele><time>2026-03-29T15:14:22.999Z</time></trkpt><trkpt lat="44.9973041" lon="8.0784544"><ele>276.0</ele><time>2026-03-29T15:14:23.999Z</time></trkpt><trkpt lat="44.9972453" lon="8.0782751"><ele>276.0</ele><time>2026-03-29T15:14:24.999Z</time></trkpt><trkpt lat="44.9971045" lon="8.0781527"><ele>276.0</ele><time>2026-03-29T15:14:25.999Z</time></trkpt><trkpt lat="44.9969799" lon="8.0780229"><ele>275.75</ele><time>2026-03-29T15:14:26.999Z</time></trkpt><trkpt lat="44.9968528" lon="8.0779054"><ele>275.5</ele><time>2026-03-29T15:14:27.999Z</time></trkpt><trkpt lat="44.9967205" lon="8.0777947"><ele>275.25</ele><time>2026-03-29T15:14:28.999Z</time></trkpt><trkpt lat="44.9965961" lon="8.0777089"><ele>275.0</ele><time>2026-03-29T15:14:29.999Z</time></trkpt><trkpt lat="44.9964674" lon="8.0776531"><ele>275.0</ele><time>2026-03-29T15:14:30.999Z</time></trkpt><trkpt lat="44.9963524" lon="8.077638"><ele>275.0</ele><time>2026-03-29T15:14:31.999Z</time></trkpt><trkpt lat="44.9962048" lon="8.077657"><ele>275.0</ele><time>2026-03-29T15:14:32.999Z</time></trkpt><trkpt lat="44.9960884" lon="8.0777333"><ele>275.0</ele><time>2026-03-29T15:14:33.999Z</time></trkpt><trkpt lat="44.9959744" lon="8.0778221"><ele>275.0</ele><time>2026-03-29T15:14:34.999Z</time></trkpt><trkpt lat="44.9958958" lon="8.0778931"><ele>275.0</ele><time>2026-03-29T15:14:35.999Z</time></trkpt><trkpt lat="44.9958043" lon="8.0779585"><ele>275.0</ele><time>2026-03-29T15:14:36.999Z</time></trkpt><trkpt lat="44.9957217" lon="8.0779825"><ele>275.0</ele><time>2026-03-29T15:14:37.999Z</time></trkpt><trkpt lat="44.9956133" lon="8.0779684"><ele>275.0</ele><time>2026-03-29T15:14:38.999Z</time></trkpt><trkpt lat="44.9954937" lon="8.0778661"><ele>273.6666666666667</ele><time>2026-03-29T15:14:39.999Z</time></trkpt><trkpt lat="44.9953598" lon="8.077779"><ele>272.3333333333333</ele><time>2026-03-29T15:14:40.999Z</time></trkpt><trkpt lat="44.9952044" lon="8.0777061"><ele>271.0</ele><time>2026-03-29T15:14:41.999Z</time></trkpt><trkpt lat="44.9950319" lon="8.0776204"><ele>269.66666666666663</ele><time>2026-03-29T15:14:42.999Z</time></trkpt><trkpt lat="44.9948561" lon="8.0775409"><ele>268.3333333333333</ele><time>2026-03-29T15:14:43.999Z</time></trkpt><trkpt lat="44.9946768" lon="8.077462"><ele>267.0</ele><time>2026-03-29T15:14:44.999Z</time></trkpt><trkpt lat="44.9944864" lon="8.0773749"><ele>261.3333333333333</ele><time>2026-03-29T15:14:45.999Z</time></trkpt><trkpt lat="44.9943099" lon="8.0772873"><ele>255.66666666666666</ele><time>2026-03-29T15:14:46.999Z</time></trkpt><trkpt lat="44.9941258" lon="8.0772112"><ele>250.0</ele><time>2026-03-29T15:14:47.999Z</time></trkpt><trkpt lat="44.9939462" lon="8.0771292"><ele>250.0</ele><time>2026-03-29T15:14:48.999Z</time></trkpt><trkpt lat="44.9937596" lon="8.0770545"><ele>250.0</ele><time>2026-03-29T15:14:49.999Z</time></trkpt><trkpt lat="44.993569" lon="8.0769875"><ele>250.0</ele><time>2026-03-29T15:14:50.999Z</time></trkpt><trkpt lat="44.993372" lon="8.0769363"><ele>251.33333333333331</ele><time>2026-03-29T15:14:51.999Z</time></trkpt><trkpt lat="44.9931638" lon="8.0769024"><ele>252.66666666666669</ele><time>2026-03-29T15:14:52.999Z</time></trkpt><trkpt lat="44.9929554" lon="8.076876"><ele>254.0</ele><time>2026-03-29T15:14:53.999Z</time></trkpt><trkpt lat="44.9927627" lon="8.0768328"><ele>254.0</ele><time>2026-03-29T15:14:54.999Z</time></trkpt><trkpt lat="44.9925688" lon="8.07678"><ele>254.0</ele><time>2026-03-29T15:14:55.999Z</time></trkpt><trkpt lat="44.9923921" lon="8.0766731"><ele>254.0</ele><time>2026-03-29T15:14:56.999Z</time></trkpt><trkpt lat="44.992216" lon="8.0765581"><ele>254.33333333333334</ele><time>2026-03-29T15:14:57.999Z</time></trkpt><trkpt lat="44.9920381" lon="8.0764297"><ele>254.66666666666669</ele><time>2026-03-29T15:14:58.999Z</time></trkpt><trkpt lat="44.9918575" lon="8.0762987"><ele>255.0</ele><time>2026-03-29T15:14:59.999Z</time></trkpt><trkpt lat="44.9916619" lon="8.0761713"><ele>260.0</ele><time>2026-03-29T15:15:00.999Z</time></trkpt><trkpt lat="44.991456" lon="8.0760641"><ele>265.0</ele><time>2026-03-29T15:15:01.999Z</time></trkpt><trkpt lat="44.9912357" lon="8.0759687"><ele>265.0</ele><time>2026-03-29T15:15:02.999Z</time></trkpt><trkpt lat="44.9910072" lon="8.0758775"><ele>265.0</ele><time>2026-03-29T15:15:03.999Z</time></trkpt><trkpt lat="44.9907785" lon="8.0757839"><ele>257.0</ele><time>2026-03-29T15:15:04.999Z</time></trkpt><trkpt lat="44.9905557" lon="8.0756951"><ele>249.0</ele><time>2026-03-29T15:15:05.999Z</time></trkpt><trkpt lat="44.9903433" lon="8.0756108"><ele>249.0</ele><time>2026-03-29T15:15:06.999Z</time></trkpt><trkpt lat="44.9901524" lon="8.0755349"><ele>249.0</ele><time>2026-03-29T15:15:07.999Z</time></trkpt><trkpt lat="44.9899788" lon="8.0754576"><ele>249.0</ele><time>2026-03-29T15:15:08.999Z</time></trkpt><trkpt lat="44.9898223" lon="8.075343"><ele>250.33333333333331</ele><time>2026-03-29T15:15:09.999Z</time></trkpt><trkpt lat="44.9896806" lon="8.0751767"><ele>251.66666666666666</ele><time>2026-03-29T15:15:10.999Z</time></trkpt><trkpt lat="44.9895612" lon="8.0749669"><ele>253.0</ele><time>2026-03-29T15:15:11.999Z</time></trkpt><trkpt lat="44.989465" lon="8.0747174"><ele>251.66666666666666</ele><time>2026-03-29T15:15:12.999Z</time></trkpt><trkpt lat="44.9893634" lon="8.0744614"><ele>250.33333333333331</ele><time>2026-03-29T15:15:13.999Z</time></trkpt><trkpt lat="44.9892459" lon="8.0742109"><ele>249.0</ele><time>2026-03-29T15:15:14.999Z</time></trkpt><trkpt lat="44.9891038" lon="8.0739753"><ele>249.0</ele><time>2026-03-29T15:15:15.999Z</time></trkpt><trkpt lat="44.988939" lon="8.0737616"><ele>249.0</ele><time>2026-03-29T15:15:16.999Z</time></trkpt><trkpt lat="44.9887506" lon="8.0735621"><ele>249.0</ele><time>2026-03-29T15:15:17.999Z</time></trkpt><trkpt lat="44.988561" lon="8.0733802"><ele>249.0</ele><time>2026-03-29T15:15:18.999Z</time></trkpt><trkpt lat="44.988382" lon="8.073211"><ele>249.0</ele><time>2026-03-29T15:15:19.999Z</time></trkpt><trkpt lat="44.9882089" lon="8.0730697"><ele>247.0</ele><time>2026-03-29T15:15:20.999Z</time></trkpt><trkpt lat="44.9880402" lon="8.072919"><ele>245.0</ele><time>2026-03-29T15:15:21.999Z</time></trkpt><trkpt lat="44.9879034" lon="8.0728188"><ele>243.0</ele><time>2026-03-29T15:15:22.999Z</time></trkpt><trkpt lat="44.9876708" lon="8.07288"><ele>240.0</ele><time>2026-03-29T15:15:23.999Z</time></trkpt><trkpt lat="44.9874501" lon="8.0729741"><ele>237.0</ele><time>2026-03-29T15:15:24.999Z</time></trkpt><trkpt lat="44.9872422" lon="8.0730244"><ele>234.0</ele><time>2026-03-29T15:15:25.999Z</time></trkpt><trkpt lat="44.9870255" lon="8.0730735"><ele>234.0</ele><time>2026-03-29T15:15:26.999Z</time></trkpt><trkpt lat="44.9868004" lon="8.0731354"><ele>234.0</ele><time>2026-03-29T15:15:27.999Z</time></trkpt><trkpt lat="44.9865709" lon="8.0731965"><ele>234.66666666666669</ele><time>2026-03-29T15:15:28.999Z</time></trkpt><trkpt lat="44.98635" lon="8.0732467"><ele>235.33333333333334</ele><time>2026-03-29T15:15:29.999Z</time></trkpt><trkpt lat="44.9861269" lon="8.0732817"><ele>236.0</ele><time>2026-03-29T15:15:30.999Z</time></trkpt><trkpt lat="44.9858993" lon="8.0733054"><ele>237.33333333333334</ele><time>2026-03-29T15:15:31.999Z</time></trkpt><trkpt lat="44.9856874" lon="8.0733174"><ele>238.66666666666669</ele><time>2026-03-29T15:15:32.999Z</time></trkpt><trkpt lat="44.9854851" lon="8.0733254"><ele>240.0</ele><time>2026-03-29T15:15:33.999Z</time></trkpt><trkpt lat="44.9852995" lon="8.0733357"><ele>240.0</ele><time>2026-03-29T15:15:34.999Z</time></trkpt><trkpt lat="44.985122" lon="8.0733436"><ele>240.0</ele><time>2026-03-29T15:15:35.999Z</time></trkpt><trkpt lat="44.9849533" lon="8.0733491"><ele>240.0</ele><time>2026-03-29T15:15:36.999Z</time></trkpt><trkpt lat="44.9847942" lon="8.0733561"><ele>240.0</ele><time>2026-03-29T15:15:37.999Z</time></trkpt><trkpt lat="44.9846439" lon="8.0733564"><ele>240.0</ele><time>2026-03-29T15:15:38.999Z</time></trkpt><trkpt lat="44.984496" lon="8.0733401"><ele>240.0</ele><time>2026-03-29T15:15:39.999Z</time></trkpt><trkpt lat="44.9843533" lon="8.0732881"><ele>240.0</ele><time>2026-03-29T15:15:40.999Z</time></trkpt><trkpt lat="44.9842276" lon="8.0731962"><ele>239.75</ele><time>2026-03-29T15:15:41.999Z</time></trkpt><trkpt lat="44.9841219" lon="8.073112"><ele>239.5</ele><time>2026-03-29T15:15:42.999Z</time></trkpt><trkpt lat="44.9840171" lon="8.0730366"><ele>239.25</ele><time>2026-03-29T15:15:43.999Z</time></trkpt><trkpt lat="44.9839215" lon="8.0729658"><ele>239.0</ele><time>2026-03-29T15:15:44.999Z</time></trkpt><trkpt lat="44.9838289" lon="8.0728916"><ele>239.0</ele><time>2026-03-29T15:15:45.999Z</time></trkpt><trkpt lat="44.9837491" lon="8.0727928"><ele>239.0</ele><time>2026-03-29T15:15:46.999Z</time></trkpt><trkpt lat="44.9836808" lon="8.0726612"><ele>239.0</ele><time>2026-03-29T15:15:47.999Z</time></trkpt><trkpt lat="44.9836445" lon="8.0725115"><ele>239.0</ele><time>2026-03-29T15:15:48.999Z</time></trkpt><trkpt lat="44.9836302" lon="8.0723482"><ele>239.25</ele><time>2026-03-29T15:15:49.999Z</time></trkpt><trkpt lat="44.983637" lon="8.0721759"><ele>239.5</ele><time>2026-03-29T15:15:50.999Z</time></trkpt><trkpt lat="44.98366" lon="8.0720044"><ele>239.75</ele><time>2026-03-29T15:15:51.999Z</time></trkpt><trkpt lat="44.9837053" lon="8.0718376"><ele>240.0</ele><time>2026-03-29T15:15:52.999Z</time></trkpt><trkpt lat="44.983757" lon="8.0716806"><ele>240.5</ele><time>2026-03-29T15:15:53.999Z</time></trkpt><trkpt lat="44.9838172" lon="8.0715307"><ele>241.0</ele><time>2026-03-29T15:15:54.999Z</time></trkpt><trkpt lat="44.9838787" lon="8.0713834"><ele>241.5</ele><time>2026-03-29T15:15:55.999Z</time></trkpt><trkpt lat="44.9839384" lon="8.071237"><ele>242.0</ele><time>2026-03-29T15:15:56.999Z</time></trkpt><trkpt lat="44.9839805" lon="8.0710979"><ele>242.0</ele><time>2026-03-29T15:15:57.999Z</time></trkpt><trkpt lat="44.9840114" lon="8.0709565"><ele>242.0</ele><time>2026-03-29T15:15:58.999Z</time></trkpt><trkpt lat="44.9840153" lon="8.0707961"><ele>242.0</ele><time>2026-03-29T15:15:59.999Z</time></trkpt><trkpt lat="44.9839577" lon="8.0706361"><ele>242.0</ele><time>2026-03-29T15:16:00.999Z</time></trkpt><trkpt lat="44.9838769" lon="8.0704993"><ele>243.5</ele><time>2026-03-29T15:16:01.999Z</time></trkpt><trkpt lat="44.9837778" lon="8.070391"><ele>245.0</ele><time>2026-03-29T15:16:02.999Z</time></trkpt><trkpt lat="44.9836657" lon="8.070318"><ele>246.5</ele><time>2026-03-29T15:16:03.999Z</time></trkpt><trkpt lat="44.983556" lon="8.0702675"><ele>248.0</ele><time>2026-03-29T15:16:04.999Z</time></trkpt><trkpt lat="44.9834469" lon="8.0702196"><ele>248.25</ele><time>2026-03-29T15:16:05.999Z</time></trkpt><trkpt lat="44.9833332" lon="8.070175"><ele>248.5</ele><time>2026-03-29T15:16:06.999Z</time></trkpt><trkpt lat="44.9832189" lon="8.0701113"><ele>248.75</ele><time>2026-03-29T15:16:07.999Z</time></trkpt><trkpt lat="44.9831107" lon="8.0700208"><ele>249.0</ele><time>2026-03-29T15:16:08.999Z</time></trkpt><trkpt lat="44.9830226" lon="8.0699217"><ele>250.0</ele><time>2026-03-29T15:16:09.999Z</time></trkpt><trkpt lat="44.9829568" lon="8.0697951"><ele>250.99999999999997</ele><time>2026-03-29T15:16:10.999Z</time></trkpt><trkpt lat="44.9829095" lon="8.0696527"><ele>251.99999999999997</ele><time>2026-03-29T15:16:11.999Z</time></trkpt><trkpt lat="44.9828897" lon="8.0695023"><ele>253.0</ele><time>2026-03-29T15:16:12.999Z</time></trkpt><trkpt lat="44.9828963" lon="8.0693412"><ele>254.0</ele><time>2026-03-29T15:16:13.999Z</time></trkpt><trkpt lat="44.9829375" lon="8.0691812"><ele>251.75</ele><time>2026-03-29T15:16:14.999Z</time></trkpt><trkpt lat="44.9829996" lon="8.0690418"><ele>249.5</ele><time>2026-03-29T15:16:15.999Z</time></trkpt><trkpt lat="44.9830622" lon="8.0688972"><ele>247.25</ele><time>2026-03-29T15:16:16.999Z</time></trkpt><trkpt lat="44.9831239" lon="8.0687492"><ele>245.0</ele><time>2026-03-29T15:16:17.999Z</time></trkpt><trkpt lat="44.9831857" lon="8.0686129"><ele>245.0</ele><time>2026-03-29T15:16:18.999Z</time></trkpt><trkpt lat="44.9832412" lon="8.0684779"><ele>245.0</ele><time>2026-03-29T15:16:19.999Z</time></trkpt><trkpt lat="44.9832736" lon="8.0683255"><ele>245.0</ele><time>2026-03-29T15:16:20.999Z</time></trkpt><trkpt lat="44.9833077" lon="8.0681743"><ele>245.0</ele><time>2026-03-29T15:16:21.999Z</time></trkpt><trkpt lat="44.9832226" lon="8.0680077"><ele>245.5</ele><time>2026-03-29T15:16:22.999Z</time></trkpt><trkpt lat="44.9831521" lon="8.0678725"><ele>246.0</ele><time>2026-03-29T15:16:23.999Z</time></trkpt><trkpt lat="44.9830782" lon="8.0677565"><ele>246.5</ele><time>2026-03-29T15:16:24.999Z</time></trkpt><trkpt lat="44.9829537" lon="8.0676844"><ele>247.0</ele><time>2026-03-29T15:16:25.999Z</time></trkpt><trkpt lat="44.9828282" lon="8.0676095"><ele>247.0</ele><time>2026-03-29T15:16:26.999Z</time></trkpt><trkpt lat="44.9826873" lon="8.0675214"><ele>247.0</ele><time>2026-03-29T15:16:27.999Z</time></trkpt><trkpt lat="44.9825278" lon="8.0674212"><ele>247.0</ele><time>2026-03-29T15:16:28.999Z</time></trkpt><trkpt lat="44.9823545" lon="8.0673079"><ele>248.33333333333331</ele><time>2026-03-29T15:16:29.999Z</time></trkpt><trkpt lat="44.9821897" lon="8.0671925"><ele>249.66666666666669</ele><time>2026-03-29T15:16:30.999Z</time></trkpt><trkpt lat="44.9820301" lon="8.0671049"><ele>251.0</ele><time>2026-03-29T15:16:31.999Z</time></trkpt><trkpt lat="44.9818774" lon="8.0670371"><ele>251.0</ele><time>2026-03-29T15:16:32.999Z</time></trkpt><trkpt lat="44.9817251" lon="8.0669658"><ele>251.0</ele><time>2026-03-29T15:16:33.999Z</time></trkpt><trkpt lat="44.9815715" lon="8.066867"><ele>251.0</ele><time>2026-03-29T15:16:34.999Z</time></trkpt><trkpt lat="44.9814322" lon="8.0667257"><ele>244.33333333333334</ele><time>2026-03-29T15:16:35.999Z</time></trkpt><trkpt lat="44.981297" lon="8.0665584"><ele>237.66666666666669</ele><time>2026-03-29T15:16:36.999Z</time></trkpt><trkpt lat="44.9811748" lon="8.0663487"><ele>231.0</ele><time>2026-03-29T15:16:37.999Z</time></trkpt><trkpt lat="44.9810827" lon="8.0661018"><ele>231.0</ele><time>2026-03-29T15:16:38.999Z</time></trkpt><trkpt lat="44.9810149" lon="8.0658621"><ele>231.0</ele><time>2026-03-29T15:16:39.999Z</time></trkpt><trkpt lat="44.9809496" lon="8.0656338"><ele>231.0</ele><time>2026-03-29T15:16:40.999Z</time></trkpt><trkpt lat="44.9808907" lon="8.0654119"><ele>231.66666666666669</ele><time>2026-03-29T15:16:41.999Z</time></trkpt><trkpt lat="44.9808364" lon="8.0651961"><ele>232.33333333333334</ele><time>2026-03-29T15:16:42.999Z</time></trkpt><trkpt lat="44.9807796" lon="8.0649911"><ele>233.0</ele><time>2026-03-29T15:16:43.999Z</time></trkpt><trkpt lat="44.980731" lon="8.0648043"><ele>233.0</ele><time>2026-03-29T15:16:44.999Z</time></trkpt><trkpt lat="44.9806784" lon="8.0646386"><ele>233.0</ele><time>2026-03-29T15:16:45.999Z</time></trkpt><trkpt lat="44.9806348" lon="8.0644942"><ele>233.0</ele><time>2026-03-29T15:16:46.999Z</time></trkpt><trkpt lat="44.9806029" lon="8.0643592"><ele>233.0</ele><time>2026-03-29T15:16:47.999Z</time></trkpt><trkpt lat="44.9805774" lon="8.0642266"><ele>233.0</ele><time>2026-03-29T15:16:48.999Z</time></trkpt><trkpt lat="44.9805133" lon="8.0640895"><ele>229.5</ele><time>2026-03-29T15:16:49.999Z</time></trkpt><trkpt lat="44.9804498" lon="8.0639643"><ele>226.0</ele><time>2026-03-29T15:16:50.999Z</time></trkpt><trkpt lat="44.9803652" lon="8.0638646"><ele>222.5</ele><time>2026-03-29T15:16:51.999Z</time></trkpt><trkpt lat="44.9802304" lon="8.063778"><ele>219.0</ele><time>2026-03-29T15:16:52.999Z</time></trkpt><trkpt lat="44.9801026" lon="8.0637173"><ele>224.33333333333331</ele><time>2026-03-29T15:16:53.999Z</time></trkpt><trkpt lat="44.9799577" lon="8.0636638"><ele>229.66666666666666</ele><time>2026-03-29T15:16:54.999Z</time></trkpt><trkpt lat="44.9798004" lon="8.0636305"><ele>235.0</ele><time>2026-03-29T15:16:55.999Z</time></trkpt><trkpt lat="44.9796336" lon="8.0636137"><ele>235.0</ele><time>2026-03-29T15:16:56.999Z</time></trkpt><trkpt lat="44.9794567" lon="8.0635906"><ele>235.0</ele><time>2026-03-29T15:16:57.999Z</time></trkpt><trkpt lat="44.9792756" lon="8.063536"><ele>235.0</ele><time>2026-03-29T15:16:58.999Z</time></trkpt><trkpt lat="44.9790994" lon="8.0634593"><ele>234.66666666666666</ele><time>2026-03-29T15:16:59.999Z</time></trkpt><trkpt lat="44.9789345" lon="8.0633703"><ele>234.33333333333331</ele><time>2026-03-29T15:17:00.999Z</time></trkpt><trkpt lat="44.9787712" lon="8.063293"><ele>234.0</ele><time>2026-03-29T15:17:01.999Z</time></trkpt><trkpt lat="44.9786195" lon="8.0632316"><ele>234.0</ele><time>2026-03-29T15:17:02.999Z</time></trkpt><trkpt lat="44.9784774" lon="8.0631683"><ele>234.0</ele><time>2026-03-29T15:17:04Z</time></trkpt><trkpt lat="44.9783499" lon="8.0630925"><ele>234.0</ele><time>2026-03-29T15:17:04.999Z</time></trkpt><trkpt lat="44.9782243" lon="8.0630148"><ele>234.0</ele><time>2026-03-29T15:17:05.999Z</time></trkpt><trkpt lat="44.978118" lon="8.0629212"><ele>230.6</ele><time>2026-03-29T15:17:06.999Z</time></trkpt><trkpt lat="44.978127" lon="8.0627277"><ele>227.2</ele><time>2026-03-29T15:17:07.999Z</time></trkpt><trkpt lat="44.9781134" lon="8.0625864"><ele>223.79999999999998</ele><time>2026-03-29T15:17:08.999Z</time></trkpt><trkpt lat="44.9781459" lon="8.0624426"><ele>220.39999999999998</ele><time>2026-03-29T15:17:09.999Z</time></trkpt><trkpt lat="44.9781916" lon="8.0623175"><ele>217.0</ele><time>2026-03-29T15:17:10.999Z</time></trkpt><trkpt lat="44.9783151" lon="8.0622067"><ele>216.75</ele><time>2026-03-29T15:17:11.999Z</time></trkpt><trkpt lat="44.9784312" lon="8.0620953"><ele>216.5</ele><time>2026-03-29T15:17:12.999Z</time></trkpt><trkpt lat="44.9785529" lon="8.0619674"><ele>216.25</ele><time>2026-03-29T15:17:13.999Z</time></trkpt><trkpt lat="44.978671" lon="8.061847"><ele>216.0</ele><time>2026-03-29T15:17:14.999Z</time></trkpt><trkpt lat="44.9787853" lon="8.0617238"><ele>216.0</ele><time>2026-03-29T15:17:15.999Z</time></trkpt><trkpt lat="44.9788658" lon="8.0616386"><ele>216.0</ele><time>2026-03-29T15:17:16.999Z</time></trkpt><trkpt lat="44.9789278" lon="8.061566"><ele>216.0</ele><time>2026-03-29T15:17:17.999Z</time></trkpt><trkpt lat="44.978894" lon="8.0614784"><ele>216.0</ele><time>2026-03-29T15:17:20.999Z</time></trkpt><trkpt lat="44.9788092" lon="8.061558"><ele>216.0</ele><time>2026-03-29T15:17:22.999Z</time></trkpt><trkpt lat="44.9787414" lon="8.0616232"><ele>216.0</ele><time>2026-03-29T15:17:23.999Z</time></trkpt><trkpt lat="44.9786455" lon="8.0616803"><ele>216.0</ele><time>2026-03-29T15:17:24.999Z</time></trkpt><trkpt lat="44.9785307" lon="8.0617401"><ele>216.0</ele><time>2026-03-29T15:17:25.999Z</time></trkpt><trkpt lat="44.9783885" lon="8.0617696"><ele>216.0</ele><time>2026-03-29T15:17:26.999Z</time></trkpt><trkpt lat="44.978243" lon="8.0617989"><ele>216.0</ele><time>2026-03-29T15:17:27.999Z</time></trkpt><trkpt lat="44.9780921" lon="8.0618077"><ele>211.5</ele><time>2026-03-29T15:17:28.999Z</time></trkpt><trkpt lat="44.9779539" lon="8.0618095"><ele>207.0</ele><time>2026-03-29T15:17:29.999Z</time></trkpt><trkpt lat="44.9778243" lon="8.0617953"><ele>202.5</ele><time>2026-03-29T15:17:30.999Z</time></trkpt><trkpt lat="44.9777178" lon="8.0617918"><ele>198.0</ele><time>2026-03-29T15:17:31.999Z</time></trkpt><trkpt lat="44.9776161" lon="8.0617923"><ele>198.0</ele><time>2026-03-29T15:17:32.999Z</time></trkpt><trkpt lat="44.9775213" lon="8.0617925"><ele>198.0</ele><time>2026-03-29T15:17:33.999Z</time></trkpt><trkpt lat="44.9774214" lon="8.0617835"><ele>198.0</ele><time>2026-03-29T15:17:34.999Z</time></trkpt><trkpt lat="44.9773192" lon="8.0617765"><ele>198.0</ele><time>2026-03-29T15:17:35.999Z</time></trkpt><trkpt lat="44.9772061" lon="8.0617888"><ele>198.0</ele><time>2026-03-29T15:17:36.999Z</time></trkpt><trkpt lat="44.9770976" lon="8.0617864"><ele>196.0</ele><time>2026-03-29T15:17:37.999Z</time></trkpt><trkpt lat="44.9769989" lon="8.0617879"><ele>194.0</ele><time>2026-03-29T15:17:38.999Z</time></trkpt><trkpt lat="44.9769191" lon="8.0617941"><ele>192.0</ele><time>2026-03-29T15:17:39.999Z</time></trkpt><trkpt lat="44.9768237" lon="8.0617986"><ele>190.0</ele><time>2026-03-29T15:17:41.999Z</time></trkpt><trkpt lat="44.9766904" lon="8.0618173"><ele>188.0</ele><time>2026-03-29T15:17:43.999Z</time></trkpt><trkpt lat="44.976593" lon="8.061805"><ele>186.25</ele><time>2026-03-29T15:17:44.999Z</time></trkpt><trkpt lat="44.9764703" lon="8.0617777"><ele>184.5</ele><time>2026-03-29T15:17:45.999Z</time></trkpt><trkpt lat="44.9763351" lon="8.0617492"><ele>182.75</ele><time>2026-03-29T15:17:46.999Z</time></trkpt><trkpt lat="44.9761873" lon="8.061719"><ele>181.0</ele><time>2026-03-29T15:17:47.999Z</time></trkpt><trkpt lat="44.976028" lon="8.0616906"><ele>181.0</ele><time>2026-03-29T15:17:48.999Z</time></trkpt><trkpt lat="44.9758605" lon="8.061664"><ele>181.0</ele><time>2026-03-29T15:17:49.999Z</time></trkpt><trkpt lat="44.9757037" lon="8.0616246"><ele>181.0</ele><time>2026-03-29T15:17:50.999Z</time></trkpt><trkpt lat="44.9755678" lon="8.0615641"><ele>180.75</ele><time>2026-03-29T15:17:51.999Z</time></trkpt><trkpt lat="44.9754563" lon="8.0614534"><ele>180.5</ele><time>2026-03-29T15:17:52.999Z</time></trkpt><trkpt lat="44.9753667" lon="8.0612938"><ele>180.25</ele><time>2026-03-29T15:17:53.999Z</time></trkpt><trkpt lat="44.975285" lon="8.0611031"><ele>180.0</ele><time>2026-03-29T15:17:54.999Z</time></trkpt><trkpt lat="44.9752065" lon="8.0608853"><ele>180.0</ele><time>2026-03-29T15:17:55.999Z</time></trkpt><trkpt lat="44.9751293" lon="8.0606551"><ele>180.0</ele><time>2026-03-29T15:17:56.999Z</time></trkpt><trkpt lat="44.9750446" lon="8.0604353"><ele>180.0</ele><time>2026-03-29T15:17:57.999Z</time></trkpt><trkpt lat="44.974973" lon="8.0602373"><ele>180.25</ele><time>2026-03-29T15:17:58.999Z</time></trkpt><trkpt lat="44.9749342" lon="8.0600471"><ele>180.5</ele><time>2026-03-29T15:17:59.999Z</time></trkpt><trkpt lat="44.9749483" lon="8.0598512"><ele>180.75</ele><time>2026-03-29T15:18:01Z</time></trkpt><trkpt lat="44.9749956" lon="8.0596531"><ele>181.0</ele><time>2026-03-29T15:18:01.999Z</time></trkpt><trkpt lat="44.9750505" lon="8.0594712"><ele>181.0</ele><time>2026-03-29T15:18:02.999Z</time></trkpt><trkpt lat="44.9750968" lon="8.0593006"><ele>181.0</ele><time>2026-03-29T15:18:03.999Z</time></trkpt><trkpt lat="44.9751048" lon="8.0591634"><ele>181.0</ele><time>2026-03-29T15:18:04.999Z</time></trkpt><trkpt lat="44.9751124" lon="8.0590499"><ele>181.0</ele><time>2026-03-29T15:18:05.999Z</time></trkpt><trkpt lat="44.9751086" lon="8.0589539"><ele>181.0</ele><time>2026-03-29T15:18:06.999Z</time></trkpt><trkpt lat="44.9750636" lon="8.0588051"><ele>181.8</ele><time>2026-03-29T15:18:08.999Z</time></trkpt><trkpt lat="44.9749999" lon="8.0587355"><ele>182.60000000000002</ele><time>2026-03-29T15:18:09.999Z</time></trkpt><trkpt lat="44.9749123" lon="8.0586708"><ele>183.4</ele><time>2026-03-29T15:18:10.999Z</time></trkpt><trkpt lat="44.9747988" lon="8.0586081"><ele>184.2</ele><time>2026-03-29T15:18:11.999Z</time></trkpt><trkpt lat="44.9746677" lon="8.0585474"><ele>185.0</ele><time>2026-03-29T15:18:12.999Z</time></trkpt><trkpt lat="44.9745188" lon="8.0585036"><ele>185.0</ele><time>2026-03-29T15:18:13.999Z</time></trkpt><trkpt lat="44.9743691" lon="8.0584619"><ele>185.0</ele><time>2026-03-29T15:18:14.999Z</time></trkpt><trkpt lat="44.9742298" lon="8.0584184"><ele>185.0</ele><time>2026-03-29T15:18:15.999Z</time></trkpt><trkpt lat="44.9740869" lon="8.0583677"><ele>185.0</ele><time>2026-03-29T15:18:16.999Z</time></trkpt><trkpt lat="44.9739474" lon="8.0583154"><ele>191.5</ele><time>2026-03-29T15:18:17.999Z</time></trkpt><trkpt lat="44.9738127" lon="8.0582666"><ele>198.0</ele><time>2026-03-29T15:18:18.999Z</time></trkpt><trkpt lat="44.9737165" lon="8.0581209"><ele>204.5</ele><time>2026-03-29T15:18:19.999Z</time></trkpt><trkpt lat="44.9736314" lon="8.0579408"><ele>211.0</ele><time>2026-03-29T15:18:20.999Z</time></trkpt><trkpt lat="44.9735646" lon="8.0577726"><ele>211.0</ele><time>2026-03-29T15:18:21.999Z</time></trkpt><trkpt lat="44.9735643" lon="8.0575175"><ele>211.0</ele><time>2026-03-29T15:18:22.999Z</time></trkpt><trkpt lat="44.9735496" lon="8.0572781"><ele>211.0</ele><time>2026-03-29T15:18:23.999Z</time></trkpt><trkpt lat="44.9735437" lon="8.057058"><ele>213.0</ele><time>2026-03-29T15:18:24.999Z</time></trkpt><trkpt lat="44.9735493" lon="8.0568469"><ele>215.0</ele><time>2026-03-29T15:18:25.999Z</time></trkpt><trkpt lat="44.9735668" lon="8.0566435"><ele>217.0</ele><time>2026-03-29T15:18:26.999Z</time></trkpt><trkpt lat="44.9736154" lon="8.056439"><ele>219.0</ele><time>2026-03-29T15:18:27.999Z</time></trkpt><trkpt lat="44.9736739" lon="8.0562489"><ele>219.0</ele><time>2026-03-29T15:18:28.999Z</time></trkpt><trkpt lat="44.973761" lon="8.0560499"><ele>219.0</ele><time>2026-03-29T15:18:29.999Z</time></trkpt><trkpt lat="44.9738694" lon="8.0558594"><ele>219.0</ele><time>2026-03-29T15:18:30.999Z</time></trkpt><trkpt lat="44.9739636" lon="8.0556526"><ele>218.5</ele><time>2026-03-29T15:18:31.999Z</time></trkpt><trkpt lat="44.9740473" lon="8.0554874"><ele>218.0</ele><time>2026-03-29T15:18:32.999Z</time></trkpt><trkpt lat="44.9741262" lon="8.0553002"><ele>217.5</ele><time>2026-03-29T15:18:33.999Z</time></trkpt><trkpt lat="44.9741847" lon="8.0551037"><ele>217.0</ele><time>2026-03-29T15:18:34.999Z</time></trkpt><trkpt lat="44.974186" lon="8.0548573"><ele>217.0</ele><time>2026-03-29T15:18:35.999Z</time></trkpt><trkpt lat="44.9741979" lon="8.0546245"><ele>217.0</ele><time>2026-03-29T15:18:36.999Z</time></trkpt><trkpt lat="44.9741974" lon="8.0544092"><ele>217.0</ele><time>2026-03-29T15:18:37.999Z</time></trkpt><trkpt lat="44.974182" lon="8.0541856"><ele>219.5</ele><time>2026-03-29T15:18:38.999Z</time></trkpt><trkpt lat="44.974169" lon="8.0539704"><ele>222.0</ele><time>2026-03-29T15:18:39.999Z</time></trkpt><trkpt lat="44.9741527" lon="8.0537563"><ele>224.5</ele><time>2026-03-29T15:18:40.999Z</time></trkpt><trkpt lat="44.9741323" lon="8.053559"><ele>227.0</ele><time>2026-03-29T15:18:41.999Z</time></trkpt><trkpt lat="44.9740986" lon="8.0533577"><ele>229.66666666666669</ele><time>2026-03-29T15:18:42.999Z</time></trkpt><trkpt lat="44.974021" lon="8.0531724"><ele>232.33333333333331</ele><time>2026-03-29T15:18:43.999Z</time></trkpt><trkpt lat="44.9738589" lon="8.0530777"><ele>235.0</ele><time>2026-03-29T15:18:44.999Z</time></trkpt><trkpt lat="44.9737746" lon="8.0529203"><ele>235.0</ele><time>2026-03-29T15:18:45.999Z</time></trkpt><trkpt lat="44.9736838" lon="8.0527703"><ele>235.0</ele><time>2026-03-29T15:18:46.999Z</time></trkpt><trkpt lat="44.9736331" lon="8.0525257"><ele>235.0</ele><time>2026-03-29T15:18:47.999Z</time></trkpt><trkpt lat="44.9735551" lon="8.0523297"><ele>237.66666666666666</ele><time>2026-03-29T15:18:48.999Z</time></trkpt><trkpt lat="44.9734675" lon="8.0521299"><ele>240.33333333333331</ele><time>2026-03-29T15:18:49.999Z</time></trkpt><trkpt lat="44.9733712" lon="8.0519235"><ele>243.0</ele><time>2026-03-29T15:18:50.999Z</time></trkpt><trkpt lat="44.9732972" lon="8.0517035"><ele>242.33333333333331</ele><time>2026-03-29T15:18:51.999Z</time></trkpt><trkpt lat="44.973237" lon="8.0514821"><ele>241.66666666666666</ele><time>2026-03-29T15:18:52.999Z</time></trkpt><trkpt lat="44.973173" lon="8.0512833"><ele>241.0</ele><time>2026-03-29T15:18:53.999Z</time></trkpt><trkpt lat="44.9730959" lon="8.0511261"><ele>241.0</ele><time>2026-03-29T15:18:54.999Z</time></trkpt><trkpt lat="44.9730281" lon="8.0509591"><ele>241.0</ele><time>2026-03-29T15:18:55.999Z</time></trkpt><trkpt lat="44.9729652" lon="8.050798"><ele>241.0</ele><time>2026-03-29T15:18:56.999Z</time></trkpt><trkpt lat="44.9729478" lon="8.0506291"><ele>241.0</ele><time>2026-03-29T15:18:57.999Z</time></trkpt><trkpt lat="44.9730495" lon="8.0504456"><ele>241.75</ele><time>2026-03-29T15:18:58.999Z</time></trkpt><trkpt lat="44.9731103" lon="8.0502786"><ele>242.5</ele><time>2026-03-29T15:18:59.999Z</time></trkpt><trkpt lat="44.9731488" lon="8.0501045"><ele>243.25</ele><time>2026-03-29T15:19:00.999Z</time></trkpt><trkpt lat="44.9731489" lon="8.0499328"><ele>244.0</ele><time>2026-03-29T15:19:01.999Z</time></trkpt><trkpt lat="44.9731361" lon="8.049759"><ele>245.75</ele><time>2026-03-29T15:19:02.999Z</time></trkpt><trkpt lat="44.9731663" lon="8.0495799"><ele>247.5</ele><time>2026-03-29T15:19:03.999Z</time></trkpt><trkpt lat="44.9732327" lon="8.0494031"><ele>249.25</ele><time>2026-03-29T15:19:04.999Z</time></trkpt><trkpt lat="44.9733088" lon="8.0492262"><ele>251.0</ele><time>2026-03-29T15:19:05.999Z</time></trkpt><trkpt lat="44.9733931" lon="8.0490394"><ele>251.0</ele><time>2026-03-29T15:19:06.999Z</time></trkpt><trkpt lat="44.9734773" lon="8.0488409"><ele>251.0</ele><time>2026-03-29T15:19:07.999Z</time></trkpt><trkpt lat="44.9735559" lon="8.0486556"><ele>251.0</ele><time>2026-03-29T15:19:08.999Z</time></trkpt><trkpt lat="44.9736139" lon="8.048464"><ele>253.75</ele><time>2026-03-29T15:19:09.999Z</time></trkpt><trkpt lat="44.9736379" lon="8.0482715"><ele>256.5</ele><time>2026-03-29T15:19:10.999Z</time></trkpt><trkpt lat="44.9736339" lon="8.0480985"><ele>259.25</ele><time>2026-03-29T15:19:11.999Z</time></trkpt><trkpt lat="44.9736014" lon="8.0479553"><ele>262.0</ele><time>2026-03-29T15:19:12.999Z</time></trkpt><trkpt lat="44.9735517" lon="8.0478278"><ele>262.0</ele><time>2026-03-29T15:19:13.999Z</time></trkpt><trkpt lat="44.9734606" lon="8.0477317"><ele>262.0</ele><time>2026-03-29T15:19:14.999Z</time></trkpt><trkpt lat="44.9733836" lon="8.0476477"><ele>262.0</ele><time>2026-03-29T15:19:15.999Z</time></trkpt><trkpt lat="44.973285" lon="8.0475942"><ele>262.0</ele><time>2026-03-29T15:19:16.999Z</time></trkpt><trkpt lat="44.9731684" lon="8.0475654"><ele>262.0</ele><time>2026-03-29T15:19:17.999Z</time></trkpt><trkpt lat="44.9730536" lon="8.0475171"><ele>260.66666666666663</ele><time>2026-03-29T15:19:18.999Z</time></trkpt><trkpt lat="44.9728948" lon="8.0474604"><ele>259.3333333333333</ele><time>2026-03-29T15:19:19.999Z</time></trkpt><trkpt lat="44.9727471" lon="8.0473767"><ele>258.0</ele><time>2026-03-29T15:19:20.999Z</time></trkpt><trkpt lat="44.972586" lon="8.0473057"><ele>261.3333333333333</ele><time>2026-03-29T15:19:21.999Z</time></trkpt><trkpt lat="44.9724151" lon="8.0472655"><ele>264.66666666666663</ele><time>2026-03-29T15:19:22.999Z</time></trkpt><trkpt lat="44.9722493" lon="8.0472556"><ele>268.0</ele><time>2026-03-29T15:19:23.999Z</time></trkpt><trkpt lat="44.972086" lon="8.0472402"><ele>268.0</ele><time>2026-03-29T15:19:24.999Z</time></trkpt><trkpt lat="44.9719212" lon="8.0472036"><ele>268.0</ele><time>2026-03-29T15:19:25.999Z</time></trkpt><trkpt lat="44.9717554" lon="8.0471459"><ele>268.0</ele><time>2026-03-29T15:19:26.999Z</time></trkpt><trkpt lat="44.9715818" lon="8.0470673"><ele>269.0</ele><time>2026-03-29T15:19:27.999Z</time></trkpt><trkpt lat="44.9714044" lon="8.0469935"><ele>270.0</ele><time>2026-03-29T15:19:28.999Z</time></trkpt><trkpt lat="44.9712088" lon="8.0469316"><ele>271.0</ele><time>2026-03-29T15:19:29.999Z</time></trkpt><trkpt lat="44.9710167" lon="8.0468743"><ele>270.3333333333333</ele><time>2026-03-29T15:19:30.999Z</time></trkpt><trkpt lat="44.9708228" lon="8.0468179"><ele>269.6666666666667</ele><time>2026-03-29T15:19:31.999Z</time></trkpt><trkpt lat="44.9706281" lon="8.0467567"><ele>269.0</ele><time>2026-03-29T15:19:32.999Z</time></trkpt><trkpt lat="44.9704282" lon="8.046683"><ele>269.6666666666667</ele><time>2026-03-29T15:19:33.999Z</time></trkpt><trkpt lat="44.9702199" lon="8.0466017"><ele>270.3333333333333</ele><time>2026-03-29T15:19:34.999Z</time></trkpt><trkpt lat="44.9700204" lon="8.046515"><ele>271.0</ele><time>2026-03-29T15:19:35.999Z</time></trkpt><trkpt lat="44.9698353" lon="8.0464295"><ele>271.0</ele><time>2026-03-29T15:19:36.999Z</time></trkpt><trkpt lat="44.9696667" lon="8.0463621"><ele>271.0</ele><time>2026-03-29T15:19:37.999Z</time></trkpt><trkpt lat="44.9695261" lon="8.0463058"><ele>271.0</ele><time>2026-03-29T15:19:38.999Z</time></trkpt><trkpt lat="44.9693969" lon="8.0462396"><ele>271.0</ele><time>2026-03-29T15:19:39.999Z</time></trkpt><trkpt lat="44.9692736" lon="8.0461394"><ele>271.0</ele><time>2026-03-29T15:19:40.999Z</time></trkpt><trkpt lat="44.9691564" lon="8.0460073"><ele>271.0</ele><time>2026-03-29T15:19:41.999Z</time></trkpt><trkpt lat="44.9690413" lon="8.0458538"><ele>271.3333333333333</ele><time>2026-03-29T15:19:42.999Z</time></trkpt><trkpt lat="44.9689401" lon="8.0456947"><ele>271.6666666666667</ele><time>2026-03-29T15:19:43.999Z</time></trkpt><trkpt lat="44.9688589" lon="8.0455191"><ele>272.0</ele><time>2026-03-29T15:19:44.999Z</time></trkpt><trkpt lat="44.9688066" lon="8.0452592"><ele>272.0</ele><time>2026-03-29T15:19:45.999Z</time></trkpt><trkpt lat="44.9687412" lon="8.0450193"><ele>272.0</ele><time>2026-03-29T15:19:46.999Z</time></trkpt><trkpt lat="44.9686264" lon="8.0448072"><ele>272.0</ele><time>2026-03-29T15:19:47.999Z</time></trkpt><trkpt lat="44.9684841" lon="8.0446139"><ele>270.0</ele><time>2026-03-29T15:19:48.999Z</time></trkpt><trkpt lat="44.9683458" lon="8.0444176"><ele>268.0</ele><time>2026-03-29T15:19:49.999Z</time></trkpt><trkpt lat="44.9682112" lon="8.0442232"><ele>266.0</ele><time>2026-03-29T15:19:50.999Z</time></trkpt><trkpt lat="44.9680675" lon="8.0440405"><ele>266.0</ele><time>2026-03-29T15:19:51.999Z</time></trkpt><trkpt lat="44.9678986" lon="8.0438855"><ele>266.0</ele><time>2026-03-29T15:19:52.999Z</time></trkpt><trkpt lat="44.9677355" lon="8.0437326"><ele>266.0</ele><time>2026-03-29T15:19:53.999Z</time></trkpt><trkpt lat="44.9675829" lon="8.043575"><ele>264.0</ele><time>2026-03-29T15:19:54.999Z</time></trkpt><trkpt lat="44.9674363" lon="8.0434041"><ele>262.0</ele><time>2026-03-29T15:19:55.999Z</time></trkpt><trkpt lat="44.9672801" lon="8.0432332"><ele>260.0</ele><time>2026-03-29T15:19:56.999Z</time></trkpt><trkpt lat="44.9671194" lon="8.0430582"><ele>260.6666666666667</ele><time>2026-03-29T15:19:57.999Z</time></trkpt><trkpt lat="44.966964" lon="8.0428776"><ele>261.3333333333333</ele><time>2026-03-29T15:19:58.999Z</time></trkpt><trkpt lat="44.9668114" lon="8.0426931"><ele>262.0</ele><time>2026-03-29T15:19:59.999Z</time></trkpt><trkpt lat="44.966657" lon="8.042505"><ele>261.0</ele><time>2026-03-29T15:20:00.999Z</time></trkpt><trkpt lat="44.9664999" lon="8.0423227"><ele>260.0</ele><time>2026-03-29T15:20:01.999Z</time></trkpt><trkpt lat="44.9663436" lon="8.0421559"><ele>259.0</ele><time>2026-03-29T15:20:02.999Z</time></trkpt><trkpt lat="44.9661863" lon="8.0420013"><ele>259.0</ele><time>2026-03-29T15:20:03.999Z</time></trkpt><trkpt lat="44.9660263" lon="8.0418597"><ele>259.0</ele><time>2026-03-29T15:20:04.999Z</time></trkpt><trkpt lat="44.9658652" lon="8.0417214"><ele>259.0</ele><time>2026-03-29T15:20:05.999Z</time></trkpt><trkpt lat="44.9657083" lon="8.0415926"><ele>262.3333333333333</ele><time>2026-03-29T15:20:06.999Z</time></trkpt><trkpt lat="44.9655629" lon="8.0414676"><ele>265.6666666666667</ele><time>2026-03-29T15:20:07.999Z</time></trkpt><trkpt lat="44.9654255" lon="8.0413553"><ele>269.0</ele><time>2026-03-29T15:20:08.999Z</time></trkpt><trkpt lat="44.9652974" lon="8.0412426"><ele>269.0</ele><time>2026-03-29T15:20:09.999Z</time></trkpt><trkpt lat="44.9651863" lon="8.0411275"><ele>269.0</ele><time>2026-03-29T15:20:10.999Z</time></trkpt><trkpt lat="44.9650856" lon="8.0410132"><ele>269.0</ele><time>2026-03-29T15:20:11.999Z</time></trkpt><trkpt lat="44.9649978" lon="8.0408933"><ele>269.0</ele><time>2026-03-29T15:20:12.999Z</time></trkpt><trkpt lat="44.9649066" lon="8.040753"><ele>268.25</ele><time>2026-03-29T15:20:13.999Z</time></trkpt><trkpt lat="44.9648262" lon="8.0406227"><ele>267.5</ele><time>2026-03-29T15:20:14.999Z</time></trkpt><trkpt lat="44.964757" lon="8.0404705"><ele>266.75</ele><time>2026-03-29T15:20:15.999Z</time></trkpt><trkpt lat="44.9646936" lon="8.0403039"><ele>266.0</ele><time>2026-03-29T15:20:16.999Z</time></trkpt><trkpt lat="44.9646503" lon="8.0401142"><ele>264.75</ele><time>2026-03-29T15:20:17.999Z</time></trkpt><trkpt lat="44.9646251" lon="8.0399142"><ele>263.5</ele><time>2026-03-29T15:20:18.999Z</time></trkpt><trkpt lat="44.9646264" lon="8.0397063"><ele>262.25</ele><time>2026-03-29T15:20:19.999Z</time></trkpt><trkpt lat="44.964667" lon="8.0395017"><ele>261.0</ele><time>2026-03-29T15:20:20.999Z</time></trkpt><trkpt lat="44.9647303" lon="8.0393021"><ele>261.0</ele><time>2026-03-29T15:20:21.999Z</time></trkpt><trkpt lat="44.9647903" lon="8.0391106"><ele>261.0</ele><time>2026-03-29T15:20:22.999Z</time></trkpt><trkpt lat="44.9648369" lon="8.0389467"><ele>261.0</ele><time>2026-03-29T15:20:23.999Z</time></trkpt><trkpt lat="44.9648515" lon="8.0387901"><ele>261.0</ele><time>2026-03-29T15:20:24.999Z</time></trkpt><trkpt lat="44.9648193" lon="8.0386246"><ele>261.0</ele><time>2026-03-29T15:20:25.999Z</time></trkpt><trkpt lat="44.9647471" lon="8.0384722"><ele>261.0</ele><time>2026-03-29T15:20:26.999Z</time></trkpt><trkpt lat="44.9646355" lon="8.0383276"><ele>261.0</ele><time>2026-03-29T15:20:27.999Z</time></trkpt><trkpt lat="44.9645181" lon="8.0381928"><ele>261.0</ele><time>2026-03-29T15:20:28.999Z</time></trkpt><trkpt lat="44.9643863" lon="8.0380665"><ele>262.0</ele><time>2026-03-29T15:20:29.999Z</time></trkpt><trkpt lat="44.9642557" lon="8.0379332"><ele>263.0</ele><time>2026-03-29T15:20:30.999Z</time></trkpt><trkpt lat="44.9641101" lon="8.0378021"><ele>264.0</ele><time>2026-03-29T15:20:31.999Z</time></trkpt><trkpt lat="44.9639467" lon="8.0377315"><ele>262.0</ele><time>2026-03-29T15:20:32.999Z</time></trkpt><trkpt lat="44.9637758" lon="8.0376841"><ele>260.0</ele><time>2026-03-29T15:20:33.999Z</time></trkpt><trkpt lat="44.9636163" lon="8.037632"><ele>258.0</ele><time>2026-03-29T15:20:34.999Z</time></trkpt><trkpt lat="44.9634637" lon="8.0375803"><ele>257.5</ele><time>2026-03-29T15:20:35.999Z</time></trkpt><trkpt lat="44.9633194" lon="8.037522"><ele>257.0</ele><time>2026-03-29T15:20:36.999Z</time></trkpt><trkpt lat="44.9631855" lon="8.0374706"><ele>256.5</ele><time>2026-03-29T15:20:37.999Z</time></trkpt><trkpt lat="44.9630447" lon="8.0374415"><ele>256.0</ele><time>2026-03-29T15:20:38.999Z</time></trkpt><trkpt lat="44.9629113" lon="8.0374235"><ele>256.0</ele><time>2026-03-29T15:20:39.999Z</time></trkpt><trkpt lat="44.9627546" lon="8.0374482"><ele>256.0</ele><time>2026-03-29T15:20:40.999Z</time></trkpt><trkpt lat="44.9625976" lon="8.0374681"><ele>256.0</ele><time>2026-03-29T15:20:41.999Z</time></trkpt><trkpt lat="44.9624226" lon="8.0375174"><ele>253.33333333333331</ele><time>2026-03-29T15:20:42.999Z</time></trkpt><trkpt lat="44.9622446" lon="8.0375461"><ele>250.66666666666669</ele><time>2026-03-29T15:20:43.999Z</time></trkpt><trkpt lat="44.9620556" lon="8.0375755"><ele>248.0</ele><time>2026-03-29T15:20:44.999Z</time></trkpt><trkpt lat="44.9618564" lon="8.0375866"><ele>246.66666666666669</ele><time>2026-03-29T15:20:45.999Z</time></trkpt><trkpt lat="44.9616508" lon="8.0375949"><ele>245.33333333333331</ele><time>2026-03-29T15:20:46.999Z</time></trkpt><trkpt lat="44.9614391" lon="8.0376032"><ele>244.0</ele><time>2026-03-29T15:20:47.999Z</time></trkpt><trkpt lat="44.9612257" lon="8.0376097"><ele>244.0</ele><time>2026-03-29T15:20:48.999Z</time></trkpt><trkpt lat="44.9610162" lon="8.0376188"><ele>244.0</ele><time>2026-03-29T15:20:49.999Z</time></trkpt><trkpt lat="44.9608195" lon="8.0376177"><ele>244.0</ele><time>2026-03-29T15:20:50.999Z</time></trkpt><trkpt lat="44.9606238" lon="8.0376176"><ele>245.66666666666666</ele><time>2026-03-29T15:20:51.999Z</time></trkpt><trkpt lat="44.9604316" lon="8.0376083"><ele>247.33333333333331</ele><time>2026-03-29T15:20:52.999Z</time></trkpt><trkpt lat="44.9602436" lon="8.0375898"><ele>249.0</ele><time>2026-03-29T15:20:53.999Z</time></trkpt><trkpt lat="44.9600546" lon="8.0375512"><ele>250.0</ele><time>2026-03-29T15:20:54.999Z</time></trkpt><trkpt lat="44.959869" lon="8.0375003"><ele>251.0</ele><time>2026-03-29T15:20:55.999Z</time></trkpt><trkpt lat="44.9597029" lon="8.0374235"><ele>252.0</ele><time>2026-03-29T15:20:57Z</time></trkpt><trkpt lat="44.959524" lon="8.0373734"><ele>253.0</ele><time>2026-03-29T15:20:57.999Z</time></trkpt><trkpt lat="44.9593489" lon="8.0373119"><ele>254.0</ele><time>2026-03-29T15:20:58.999Z</time></trkpt><trkpt lat="44.959164" lon="8.0372559"><ele>255.0</ele><time>2026-03-29T15:20:59.999Z</time></trkpt><trkpt lat="44.9589664" lon="8.0372024"><ele>255.0</ele><time>2026-03-29T15:21:00.999Z</time></trkpt><trkpt lat="44.9587535" lon="8.0371562"><ele>255.0</ele><time>2026-03-29T15:21:01.999Z</time></trkpt><trkpt lat="44.9585401" lon="8.0371043"><ele>255.0</ele><time>2026-03-29T15:21:02.999Z</time></trkpt><trkpt lat="44.9583311" lon="8.0370551"><ele>251.33333333333331</ele><time>2026-03-29T15:21:03.999Z</time></trkpt><trkpt lat="44.9581273" lon="8.0369939"><ele>247.66666666666666</ele><time>2026-03-29T15:21:04.999Z</time></trkpt><trkpt lat="44.9579244" lon="8.0369306"><ele>244.0</ele><time>2026-03-29T15:21:05.999Z</time></trkpt><trkpt lat="44.9577296" lon="8.0368427"><ele>244.0</ele><time>2026-03-29T15:21:06.999Z</time></trkpt><trkpt lat="44.9575433" lon="8.0367196"><ele>244.0</ele><time>2026-03-29T15:21:07.999Z</time></trkpt><trkpt lat="44.9573692" lon="8.0365558"><ele>244.0</ele><time>2026-03-29T15:21:08.999Z</time></trkpt><trkpt lat="44.9572005" lon="8.0363664"><ele>240.33333333333331</ele><time>2026-03-29T15:21:09.999Z</time></trkpt><trkpt lat="44.9570389" lon="8.0361956"><ele>236.66666666666669</ele><time>2026-03-29T15:21:10.999Z</time></trkpt><trkpt lat="44.9568865" lon="8.0360226"><ele>233.0</ele><time>2026-03-29T15:21:11.999Z</time></trkpt><trkpt lat="44.9567576" lon="8.0358655"><ele>232.25</ele><time>2026-03-29T15:21:12.999Z</time></trkpt><trkpt lat="44.9566533" lon="8.0357501"><ele>231.5</ele><time>2026-03-29T15:21:13.999Z</time></trkpt><trkpt lat="44.9565554" lon="8.0356859"><ele>230.75</ele><time>2026-03-29T15:21:14.999Z</time></trkpt><trkpt lat="44.9564513" lon="8.0356534"><ele>230.0</ele><time>2026-03-29T15:21:15.999Z</time></trkpt><trkpt lat="44.9563304" lon="8.035661"><ele>233.33333333333334</ele><time>2026-03-29T15:21:16.999Z</time></trkpt><trkpt lat="44.9561728" lon="8.0358252"><ele>236.66666666666669</ele><time>2026-03-29T15:21:17.999Z</time></trkpt><trkpt lat="44.9560411" lon="8.0359337"><ele>240.0</ele><time>2026-03-29T15:21:18.999Z</time></trkpt><trkpt lat="44.9559203" lon="8.0360267"><ele>238.25</ele><time>2026-03-29T15:21:19.999Z</time></trkpt><trkpt lat="44.9557947" lon="8.0360845"><ele>236.5</ele><time>2026-03-29T15:21:20.999Z</time></trkpt><trkpt lat="44.9556646" lon="8.0361182"><ele>234.75</ele><time>2026-03-29T15:21:21.999Z</time></trkpt><trkpt lat="44.9555255" lon="8.0361396"><ele>233.0</ele><time>2026-03-29T15:21:22.999Z</time></trkpt><trkpt lat="44.9553942" lon="8.0361315"><ele>233.0</ele><time>2026-03-29T15:21:23.999Z</time></trkpt><trkpt lat="44.9552677" lon="8.0360796"><ele>233.0</ele><time>2026-03-29T15:21:24.999Z</time></trkpt><trkpt lat="44.9551413" lon="8.0360062"><ele>233.0</ele><time>2026-03-29T15:21:25.999Z</time></trkpt><trkpt lat="44.9550162" lon="8.0359273"><ele>233.0</ele><time>2026-03-29T15:21:26.999Z</time></trkpt><trkpt lat="44.9548963" lon="8.0358584"><ele>231.25</ele><time>2026-03-29T15:21:27.999Z</time></trkpt><trkpt lat="44.9547661" lon="8.0358097"><ele>229.5</ele><time>2026-03-29T15:21:28.999Z</time></trkpt><trkpt lat="44.9546327" lon="8.0358324"><ele>227.75</ele><time>2026-03-29T15:21:29.999Z</time></trkpt><trkpt lat="44.9544948" lon="8.0358691"><ele>226.0</ele><time>2026-03-29T15:21:30.999Z</time></trkpt><trkpt lat="44.9543546" lon="8.0359254"><ele>222.0</ele><time>2026-03-29T15:21:31.999Z</time></trkpt><trkpt lat="44.954198" lon="8.0360979"><ele>218.0</ele><time>2026-03-29T15:21:32.999Z</time></trkpt><trkpt lat="44.954037" lon="8.0361964"><ele>214.0</ele><time>2026-03-29T15:21:33.999Z</time></trkpt><trkpt lat="44.953881" lon="8.0362855"><ele>214.0</ele><time>2026-03-29T15:21:34.999Z</time></trkpt><trkpt lat="44.9537304" lon="8.036357"><ele>214.0</ele><time>2026-03-29T15:21:35.999Z</time></trkpt><trkpt lat="44.9535726" lon="8.0364216"><ele>214.0</ele><time>2026-03-29T15:21:36.999Z</time></trkpt><trkpt lat="44.9534249" lon="8.0364909"><ele>214.0</ele><time>2026-03-29T15:21:37.999Z</time></trkpt><trkpt lat="44.9532804" lon="8.0365508"><ele>214.0</ele><time>2026-03-29T15:21:38.999Z</time></trkpt><trkpt lat="44.9531383" lon="8.0366052"><ele>214.0</ele><time>2026-03-29T15:21:39.999Z</time></trkpt><trkpt lat="44.9530055" lon="8.0366622"><ele>214.0</ele><time>2026-03-29T15:21:40.999Z</time></trkpt><trkpt lat="44.9528838" lon="8.0367216"><ele>214.0</ele><time>2026-03-29T15:21:41.999Z</time></trkpt><trkpt lat="44.9527865" lon="8.0367882"><ele>213.99999999999997</ele><time>2026-03-29T15:21:42.999Z</time></trkpt><trkpt lat="44.952689" lon="8.0368453"><ele>213.99999999999997</ele><time>2026-03-29T15:21:43.999Z</time></trkpt><trkpt lat="44.952589" lon="8.0368693"><ele>214.0</ele><time>2026-03-29T15:21:44.999Z</time></trkpt><trkpt lat="44.9525097" lon="8.036831"><ele>214.0</ele><time>2026-03-29T15:21:45.999Z</time></trkpt><trkpt lat="44.9524489" lon="8.0367438"><ele>211.39999999999998</ele><time>2026-03-29T15:21:46.999Z</time></trkpt><trkpt lat="44.9524027" lon="8.0366136"><ele>208.79999999999998</ele><time>2026-03-29T15:21:47.999Z</time></trkpt><trkpt lat="44.952343" lon="8.0364776"><ele>206.2</ele><time>2026-03-29T15:21:48.999Z</time></trkpt><trkpt lat="44.9522784" lon="8.036346"><ele>203.60000000000002</ele><time>2026-03-29T15:21:49.999Z</time></trkpt><trkpt lat="44.9522132" lon="8.0362389"><ele>201.0</ele><time>2026-03-29T15:21:50.999Z</time></trkpt><trkpt lat="44.9521504" lon="8.0361475"><ele>201.0</ele><time>2026-03-29T15:21:51.999Z</time></trkpt><trkpt lat="44.9520943" lon="8.036063"><ele>201.0</ele><time>2026-03-29T15:21:52.999Z</time></trkpt><trkpt lat="44.9519745" lon="8.0361171"><ele>201.0</ele><time>2026-03-29T15:21:53.999Z</time></trkpt><trkpt lat="44.9518413" lon="8.0361122"><ele>201.0</ele><time>2026-03-29T15:21:54.999Z</time></trkpt><trkpt lat="44.9517486" lon="8.0360611"><ele>201.0</ele><time>2026-03-29T15:21:55.999Z</time></trkpt><trkpt lat="44.951644" lon="8.0359179"><ele>197.5</ele><time>2026-03-29T15:21:56.999Z</time></trkpt><trkpt lat="44.9515453" lon="8.0357896"><ele>194.0</ele><time>2026-03-29T15:21:57.999Z</time></trkpt><trkpt lat="44.9514453" lon="8.035643"><ele>190.5</ele><time>2026-03-29T15:21:58.999Z</time></trkpt><trkpt lat="44.9513416" lon="8.035496"><ele>187.0</ele><time>2026-03-29T15:21:59.999Z</time></trkpt><trkpt lat="44.9512464" lon="8.0353558"><ele>187.0</ele><time>2026-03-29T15:22:00.999Z</time></trkpt><trkpt lat="44.9511549" lon="8.0352281"><ele>187.0</ele><time>2026-03-29T15:22:01.999Z</time></trkpt><trkpt lat="44.9510735" lon="8.0351159"><ele>187.0</ele><time>2026-03-29T15:22:02.999Z</time></trkpt><trkpt lat="44.9509987" lon="8.0350178"><ele>187.0</ele><time>2026-03-29T15:22:03.999Z</time></trkpt><trkpt lat="44.9509209" lon="8.0349283"><ele>187.0</ele><time>2026-03-29T15:22:04.999Z</time></trkpt><trkpt lat="44.9508295" lon="8.0348491"><ele>189.0</ele><time>2026-03-29T15:22:05.999Z</time></trkpt><trkpt lat="44.9507423" lon="8.0347524"><ele>191.0</ele><time>2026-03-29T15:22:06.999Z</time></trkpt><trkpt lat="44.9506519" lon="8.0346457"><ele>193.0</ele><time>2026-03-29T15:22:07.999Z</time></trkpt><trkpt lat="44.9505614" lon="8.0345247"><ele>195.0</ele><time>2026-03-29T15:22:08.999Z</time></trkpt><trkpt lat="44.9504723" lon="8.0343982"><ele>195.0</ele><time>2026-03-29T15:22:09.999Z</time></trkpt><trkpt lat="44.9503948" lon="8.0342443"><ele>195.0</ele><time>2026-03-29T15:22:10.999Z</time></trkpt><trkpt lat="44.950327" lon="8.0340843"><ele>195.0</ele><time>2026-03-29T15:22:11.999Z</time></trkpt><trkpt lat="44.9502754" lon="8.0339022"><ele>195.0</ele><time>2026-03-29T15:22:12.999Z</time></trkpt><trkpt lat="44.9502268" lon="8.0337239"><ele>198.75</ele><time>2026-03-29T15:22:13.999Z</time></trkpt><trkpt lat="44.9501758" lon="8.0335355"><ele>202.5</ele><time>2026-03-29T15:22:14.999Z</time></trkpt><trkpt lat="44.9501315" lon="8.0333552"><ele>206.25</ele><time>2026-03-29T15:22:15.999Z</time></trkpt><trkpt lat="44.9501012" lon="8.0331881"><ele>210.0</ele><time>2026-03-29T15:22:16.999Z</time></trkpt><trkpt lat="44.9500714" lon="8.033032"><ele>212.25</ele><time>2026-03-29T15:22:17.999Z</time></trkpt><trkpt lat="44.9500532" lon="8.0328509"><ele>214.5</ele><time>2026-03-29T15:22:18.999Z</time></trkpt><trkpt lat="44.9500544" lon="8.0326589"><ele>216.75</ele><time>2026-03-29T15:22:19.999Z</time></trkpt><trkpt lat="44.9500736" lon="8.0324527"><ele>219.0</ele><time>2026-03-29T15:22:20.999Z</time></trkpt><trkpt lat="44.9501119" lon="8.0322371"><ele>219.33333333333331</ele><time>2026-03-29T15:22:21.999Z</time></trkpt><trkpt lat="44.9501518" lon="8.0320095"><ele>219.66666666666666</ele><time>2026-03-29T15:22:22.999Z</time></trkpt><trkpt lat="44.9502028" lon="8.0317718"><ele>220.0</ele><time>2026-03-29T15:22:23.999Z</time></trkpt><trkpt lat="44.9502605" lon="8.0315283"><ele>220.0</ele><time>2026-03-29T15:22:24.999Z</time></trkpt><trkpt lat="44.9503153" lon="8.0313042"><ele>220.0</ele><time>2026-03-29T15:22:25.999Z</time></trkpt><trkpt lat="44.9503566" lon="8.0310923"><ele>220.0</ele><time>2026-03-29T15:22:26.999Z</time></trkpt><trkpt lat="44.9503847" lon="8.0308771"><ele>221.0</ele><time>2026-03-29T15:22:27.999Z</time></trkpt><trkpt lat="44.9503459" lon="8.0306708"><ele>222.0</ele><time>2026-03-29T15:22:28.999Z</time></trkpt><trkpt lat="44.950317" lon="8.0304538"><ele>223.0</ele><time>2026-03-29T15:22:29.999Z</time></trkpt><trkpt lat="44.950258" lon="8.0302419"><ele>223.0</ele><time>2026-03-29T15:22:30.999Z</time></trkpt><trkpt lat="44.9501712" lon="8.0300624"><ele>223.0</ele><time>2026-03-29T15:22:31.999Z</time></trkpt><trkpt lat="44.9500511" lon="8.0298992"><ele>223.0</ele><time>2026-03-29T15:22:32.999Z</time></trkpt><trkpt lat="44.9499379" lon="8.0297431"><ele>222.5</ele><time>2026-03-29T15:22:33.999Z</time></trkpt><trkpt lat="44.9498318" lon="8.0295836"><ele>222.0</ele><time>2026-03-29T15:22:34.999Z</time></trkpt><trkpt lat="44.9497357" lon="8.0294419"><ele>221.5</ele><time>2026-03-29T15:22:35.999Z</time></trkpt><trkpt lat="44.9496618" lon="8.0293089"><ele>221.0</ele><time>2026-03-29T15:22:36.999Z</time></trkpt><trkpt lat="44.9495973" lon="8.0291488"><ele>223.5</ele><time>2026-03-29T15:22:37.999Z</time></trkpt><trkpt lat="44.9495525" lon="8.028988"><ele>226.0</ele><time>2026-03-29T15:22:38.999Z</time></trkpt><trkpt lat="44.9495898" lon="8.028822"><ele>228.5</ele><time>2026-03-29T15:22:39.999Z</time></trkpt><trkpt lat="44.9497227" lon="8.0286874"><ele>231.0</ele><time>2026-03-29T15:22:40.999Z</time></trkpt><trkpt lat="44.9498053" lon="8.0285332"><ele>231.0</ele><time>2026-03-29T15:22:41.999Z</time></trkpt><trkpt lat="44.949903" lon="8.0283847"><ele>231.0</ele><time>2026-03-29T15:22:42.999Z</time></trkpt><trkpt lat="44.9500028" lon="8.0282219"><ele>231.0</ele><time>2026-03-29T15:22:43.999Z</time></trkpt><trkpt lat="44.9500941" lon="8.0280616"><ele>231.0</ele><time>2026-03-29T15:22:44.999Z</time></trkpt><trkpt lat="44.9501605" lon="8.0279005"><ele>233.16666666666666</ele><time>2026-03-29T15:22:45.999Z</time></trkpt><trkpt lat="44.9501995" lon="8.0277653"><ele>235.33333333333331</ele><time>2026-03-29T15:22:46.999Z</time></trkpt><trkpt lat="44.9502284" lon="8.027664"><ele>237.5</ele><time>2026-03-29T15:22:47.999Z</time></trkpt><trkpt lat="44.9502633" lon="8.0275297"><ele>239.66666666666666</ele><time>2026-03-29T15:22:49.999Z</time></trkpt><trkpt lat="44.9502589" lon="8.0274382"><ele>241.83333333333331</ele><time>2026-03-29T15:22:51.999Z</time></trkpt><trkpt lat="44.9502397" lon="8.0273104"><ele>244.0</ele><time>2026-03-29T15:22:53.999Z</time></trkpt><trkpt lat="44.9502091" lon="8.0272138"><ele>243.99999999999997</ele><time>2026-03-29T15:22:55.999Z</time></trkpt><trkpt lat="44.9502053" lon="8.027124"><ele>244.0</ele><time>2026-03-29T15:22:57.999Z</time></trkpt><trkpt lat="44.9501911" lon="8.0269925"><ele>244.0</ele><time>2026-03-29T15:22:59.999Z</time></trkpt><trkpt lat="44.9501789" lon="8.0268557"><ele>244.0</ele><time>2026-03-29T15:23:01.999Z</time></trkpt><trkpt lat="44.9501665" lon="8.0267629"><ele>243.99999999999997</ele><time>2026-03-29T15:23:04.999Z</time></trkpt><trkpt lat="44.950105" lon="8.0267344"><ele>244.0</ele><time>2026-03-29T15:23:54.999Z</time></trkpt><trkpt lat="44.9500214" lon="8.0267585"><ele>240.0</ele><time>2026-03-29T15:23:57.999Z</time></trkpt><trkpt lat="44.9502226" lon="8.0267958"><ele>244.0</ele><time>2026-03-29T15:24:08.101Z</time></trkpt><trkpt lat="44.9501548" lon="8.0268081"><ele>244.0</ele><time>2026-03-29T15:24:09.09Z</time></trkpt></trkseg></trk></gpx>